<?xml version="1.0" encoding="UTF-8" standalone="no" ?>
<gpx xmlns="http://www.topografix.com/GPX/1/1" xmlns:xsi="http://www.w3.org/2001/XMLSchema-instance" xsi:schemaLocation="http://www.topografix.com/GPX/1/1 http://www.topografix.com/GPX/1/1/gpx.xsd" version="1.1" creator="VisuGPX - https://www.visugpx.com">
  <metadata>
    <name>Quincieu-Beaucroissant-St Geoirs</name>
  </metadata>
  <trk>
    <name><![CDATA[Quincieu-Beaucroissant-St Geoirs_1]]></name>
    <trkseg>
      <trkpt lat="45.30408" lon="5.33623">
        <ele>589.79998779297</ele>
        <time>2022-05-10T15:18:43Z</time>
      </trkpt>
      <trkpt lat="45.30383" lon="5.33627">
        <ele>570.1</ele>
      </trkpt>
      <trkpt lat="45.30379" lon="5.33627">
        <ele>570</ele>
        <time>2022-05-10T11:52:56Z</time>
      </trkpt>
      <trkpt lat="45.30375" lon="5.33627">
        <ele>569.8</ele>
      </trkpt>
      <trkpt lat="45.30373" lon="5.33626">
        <ele>576.20001220703</ele>
        <time>2022-05-10T11:52:58Z</time>
      </trkpt>
      <trkpt lat="45.30354" lon="5.33619">
        <ele>575.59997558594</ele>
        <time>2022-05-10T11:53:04Z</time>
      </trkpt>
      <trkpt lat="45.3035" lon="5.33617">
        <ele>575.59997558594</ele>
        <time>2022-05-10T11:53:05Z</time>
      </trkpt>
      <trkpt lat="45.30346" lon="5.33614">
        <ele>575.59997558594</ele>
        <time>2022-05-10T11:53:06Z</time>
      </trkpt>
      <trkpt lat="45.30338" lon="5.3361">
        <ele>575.40002441406</ele>
        <time>2022-05-10T11:53:08Z</time>
      </trkpt>
      <trkpt lat="45.30334" lon="5.33608">
        <ele>575.40002441406</ele>
        <time>2022-05-10T11:53:09Z</time>
      </trkpt>
      <trkpt lat="45.30302" lon="5.3359">
        <ele>575</ele>
        <time>2022-05-10T11:53:16Z</time>
      </trkpt>
      <trkpt lat="45.30292" lon="5.33586">
        <ele>574.79998779297</ele>
        <time>2022-05-10T11:53:18Z</time>
      </trkpt>
      <trkpt lat="45.30283" lon="5.3358">
        <ele>574.79998779297</ele>
        <time>2022-05-10T11:53:20Z</time>
      </trkpt>
      <trkpt lat="45.30275" lon="5.33577">
        <ele>574.59997558594</ele>
        <time>2022-05-10T11:53:22Z</time>
      </trkpt>
      <trkpt lat="45.30251" lon="5.33566">
        <ele>574.40002441406</ele>
        <time>2022-05-10T11:53:27Z</time>
      </trkpt>
      <trkpt lat="45.30236" lon="5.33558">
        <ele>574</ele>
        <time>2022-05-10T11:53:30Z</time>
      </trkpt>
      <trkpt lat="45.30225" lon="5.33553">
        <ele>574</ele>
        <time>2022-05-10T11:53:32Z</time>
      </trkpt>
      <trkpt lat="45.302" lon="5.33541">
        <ele>574</ele>
        <time>2022-05-10T11:53:37Z</time>
      </trkpt>
      <trkpt lat="45.3019" lon="5.33536">
        <ele>574</ele>
        <time>2022-05-10T11:53:39Z</time>
      </trkpt>
      <trkpt lat="45.30175" lon="5.33522">
        <ele>574.40002441406</ele>
        <time>2022-05-10T11:53:43Z</time>
      </trkpt>
      <trkpt lat="45.30148" lon="5.335">
        <ele>575</ele>
        <time>2022-05-10T11:53:50Z</time>
      </trkpt>
      <trkpt lat="45.30144" lon="5.33497">
        <ele>575</ele>
        <time>2022-05-10T11:53:51Z</time>
      </trkpt>
      <trkpt lat="45.30137" lon="5.33492">
        <ele>575.40002441406</ele>
        <time>2022-05-10T11:53:53Z</time>
      </trkpt>
      <trkpt lat="45.30126" lon="5.33483">
        <ele>576</ele>
        <time>2022-05-10T11:53:56Z</time>
      </trkpt>
      <trkpt lat="45.30122" lon="5.3348">
        <ele>576</ele>
        <time>2022-05-10T11:53:57Z</time>
      </trkpt>
      <trkpt lat="45.30114" lon="5.33473">
        <ele>576.40002441406</ele>
        <time>2022-05-10T11:53:59Z</time>
      </trkpt>
      <trkpt lat="45.30092" lon="5.33453">
        <ele>577.59997558594</ele>
        <time>2022-05-10T11:54:05Z</time>
      </trkpt>
      <trkpt lat="45.30085" lon="5.33446">
        <ele>578.20001220703</ele>
        <time>2022-05-10T11:54:07Z</time>
      </trkpt>
      <trkpt lat="45.3007" lon="5.33427">
        <ele>578.59997558594</ele>
        <time>2022-05-10T11:54:12Z</time>
      </trkpt>
      <trkpt lat="45.30067" lon="5.33422">
        <ele>578.59997558594</ele>
        <time>2022-05-10T11:54:13Z</time>
      </trkpt>
      <trkpt lat="45.30048" lon="5.33391">
        <ele>578.79998779297</ele>
        <time>2022-05-10T11:54:18Z</time>
      </trkpt>
      <trkpt lat="45.30043" lon="5.33384">
        <ele>578.59997558594</ele>
        <time>2022-05-10T11:54:19Z</time>
      </trkpt>
      <trkpt lat="45.3003" lon="5.33375">
        <ele>578.40002441406</ele>
        <time>2022-05-10T11:54:21Z</time>
      </trkpt>
      <trkpt lat="45.30024" lon="5.33374">
        <ele>578.20001220703</ele>
        <time>2022-05-10T11:54:22Z</time>
      </trkpt>
      <trkpt lat="45.30017" lon="5.33377">
        <ele>578</ele>
        <time>2022-05-10T11:54:23Z</time>
      </trkpt>
      <trkpt lat="45.30011" lon="5.33381">
        <ele>577.59997558594</ele>
        <time>2022-05-10T11:54:24Z</time>
      </trkpt>
      <trkpt lat="45.30006" lon="5.33388">
        <ele>577.40002441406</ele>
        <time>2022-05-10T11:54:25Z</time>
      </trkpt>
      <trkpt lat="45.30001" lon="5.33395">
        <ele>577.20001220703</ele>
        <time>2022-05-10T11:54:26Z</time>
      </trkpt>
      <trkpt lat="45.29973" lon="5.3343">
        <ele>576.40002441406</ele>
        <time>2022-05-10T11:54:31Z</time>
      </trkpt>
      <trkpt lat="45.29968" lon="5.33438">
        <ele>576.20001220703</ele>
        <time>2022-05-10T11:54:32Z</time>
      </trkpt>
      <trkpt lat="45.29947" lon="5.3347">
        <ele>575.40002441406</ele>
        <time>2022-05-10T11:54:36Z</time>
      </trkpt>
      <trkpt lat="45.29941" lon="5.33476">
        <ele>574.59997558594</ele>
        <time>2022-05-10T11:54:37Z</time>
      </trkpt>
      <trkpt lat="45.29935" lon="5.3348">
        <ele>574.40002441406</ele>
        <time>2022-05-10T11:54:38Z</time>
      </trkpt>
      <trkpt lat="45.29928" lon="5.33483">
        <ele>573.20001220703</ele>
        <time>2022-05-10T11:54:39Z</time>
      </trkpt>
      <trkpt lat="45.29922" lon="5.33485">
        <ele>572.20001220703</ele>
        <time>2022-05-10T11:54:40Z</time>
      </trkpt>
      <trkpt lat="45.29916" lon="5.33485">
        <ele>571.79998779297</ele>
        <time>2022-05-10T11:54:41Z</time>
      </trkpt>
      <trkpt lat="45.2991" lon="5.33483">
        <ele>571</ele>
        <time>2022-05-10T11:54:42Z</time>
      </trkpt>
      <trkpt lat="45.299" lon="5.33476">
        <ele>569.79998779297</ele>
        <time>2022-05-10T11:54:44Z</time>
      </trkpt>
      <trkpt lat="45.29889" lon="5.33461">
        <ele>569</ele>
        <time>2022-05-10T11:54:47Z</time>
      </trkpt>
      <trkpt lat="45.29886" lon="5.33456">
        <ele>568.79998779297</ele>
        <time>2022-05-10T11:54:48Z</time>
      </trkpt>
      <trkpt lat="45.2988" lon="5.33443">
        <ele>568.59997558594</ele>
        <time>2022-05-10T11:54:50Z</time>
      </trkpt>
      <trkpt lat="45.2987" lon="5.33422">
        <ele>568</ele>
        <time>2022-05-10T11:54:53Z</time>
      </trkpt>
      <trkpt lat="45.29867" lon="5.33416">
        <ele>568</ele>
        <time>2022-05-10T11:54:54Z</time>
      </trkpt>
      <trkpt lat="45.29857" lon="5.3341">
        <ele>567.59997558594</ele>
        <time>2022-05-10T11:54:56Z</time>
      </trkpt>
      <trkpt lat="45.29847" lon="5.33414">
        <ele>567.40002441406</ele>
        <time>2022-05-10T11:54:58Z</time>
      </trkpt>
      <trkpt lat="45.29842" lon="5.33418">
        <ele>567.40002441406</ele>
        <time>2022-05-10T11:54:59Z</time>
      </trkpt>
      <trkpt lat="45.29831" lon="5.33433">
        <ele>567.20001220703</ele>
        <time>2022-05-10T11:55:02Z</time>
      </trkpt>
      <trkpt lat="45.29816" lon="5.33451">
        <ele>567.40002441406</ele>
        <time>2022-05-10T11:55:06Z</time>
      </trkpt>
      <trkpt lat="45.298" lon="5.33475">
        <ele>568.59997558594</ele>
        <time>2022-05-10T11:55:12Z</time>
      </trkpt>
      <trkpt lat="45.29785" lon="5.33494">
        <ele>569.79998779297</ele>
        <time>2022-05-10T11:55:17Z</time>
      </trkpt>
      <trkpt lat="45.29776" lon="5.33504">
        <ele>570.20001220703</ele>
        <time>2022-05-10T11:55:20Z</time>
      </trkpt>
      <trkpt lat="45.29767" lon="5.3351">
        <ele>570.20001220703</ele>
        <time>2022-05-10T11:55:22Z</time>
      </trkpt>
      <trkpt lat="45.29756" lon="5.33514">
        <ele>570.40002441406</ele>
        <time>2022-05-10T11:55:24Z</time>
      </trkpt>
      <trkpt lat="45.29743" lon="5.33512">
        <ele>570.40002441406</ele>
        <time>2022-05-10T11:55:26Z</time>
      </trkpt>
      <trkpt lat="45.29735" lon="5.33509">
        <ele>570.20001220703</ele>
        <time>2022-05-10T11:55:27Z</time>
      </trkpt>
      <trkpt lat="45.29722" lon="5.33502">
        <ele>569.79998779297</ele>
        <time>2022-05-10T11:55:29Z</time>
      </trkpt>
      <trkpt lat="45.29716" lon="5.33501">
        <ele>569.20001220703</ele>
        <time>2022-05-10T11:55:30Z</time>
      </trkpt>
      <trkpt lat="45.29711" lon="5.33503">
        <ele>569</ele>
        <time>2022-05-10T11:55:31Z</time>
      </trkpt>
      <trkpt lat="45.29707" lon="5.33507">
        <ele>568.59997558594</ele>
        <time>2022-05-10T11:55:32Z</time>
      </trkpt>
      <trkpt lat="45.29705" lon="5.33514">
        <ele>568.20001220703</ele>
        <time>2022-05-10T11:55:33Z</time>
      </trkpt>
      <trkpt lat="45.29706" lon="5.3352">
        <ele>566.79998779297</ele>
        <time>2022-05-10T11:55:34Z</time>
      </trkpt>
      <trkpt lat="45.29706" lon="5.33528">
        <ele>566.20001220703</ele>
        <time>2022-05-10T11:55:35Z</time>
      </trkpt>
      <trkpt lat="45.29705" lon="5.33535">
        <ele>565.59997558594</ele>
        <time>2022-05-10T11:55:36Z</time>
      </trkpt>
      <trkpt lat="45.29704" lon="5.33543">
        <ele>565</ele>
        <time>2022-05-10T11:55:37Z</time>
      </trkpt>
      <trkpt lat="45.29701" lon="5.33558">
        <ele>564.40002441406</ele>
        <time>2022-05-10T11:55:39Z</time>
      </trkpt>
      <trkpt lat="45.29692" lon="5.33592">
        <ele>563.59997558594</ele>
        <time>2022-05-10T11:55:43Z</time>
      </trkpt>
      <trkpt lat="45.29688" lon="5.336">
        <ele>563.40002441406</ele>
        <time>2022-05-10T11:55:44Z</time>
      </trkpt>
      <trkpt lat="45.29684" lon="5.33609">
        <ele>563</ele>
        <time>2022-05-10T11:55:45Z</time>
      </trkpt>
      <trkpt lat="45.2967" lon="5.33634">
        <ele>562.20001220703</ele>
        <time>2022-05-10T11:55:49Z</time>
      </trkpt>
      <trkpt lat="45.29666" lon="5.33641">
        <ele>562</ele>
        <time>2022-05-10T11:55:50Z</time>
      </trkpt>
      <trkpt lat="45.29663" lon="5.33648">
        <ele>562</ele>
        <time>2022-05-10T11:55:51Z</time>
      </trkpt>
      <trkpt lat="45.29657" lon="5.33663">
        <ele>561.59997558594</ele>
        <time>2022-05-10T11:55:53Z</time>
      </trkpt>
      <trkpt lat="45.29648" lon="5.33681">
        <ele>561.20001220703</ele>
        <time>2022-05-10T11:55:55Z</time>
      </trkpt>
      <trkpt lat="45.29636" lon="5.33698">
        <ele>560.79998779297</ele>
        <time>2022-05-10T11:55:57Z</time>
      </trkpt>
      <trkpt lat="45.2961" lon="5.33735">
        <ele>559.79998779297</ele>
        <time>2022-05-10T11:56:01Z</time>
      </trkpt>
      <trkpt lat="45.29604" lon="5.33744">
        <ele>559</ele>
        <time>2022-05-10T11:56:02Z</time>
      </trkpt>
      <trkpt lat="45.296" lon="5.3375">
        <ele>558.59997558594</ele>
        <time>2022-05-10T11:56:03Z</time>
      </trkpt>
      <trkpt lat="45.29594" lon="5.33759">
        <ele>558</ele>
        <time>2022-05-10T11:56:05Z</time>
      </trkpt>
      <trkpt lat="45.2959" lon="5.33763">
        <ele>557.79998779297</ele>
        <time>2022-05-10T11:56:06Z</time>
      </trkpt>
      <trkpt lat="45.29578" lon="5.33771">
        <ele>557.79998779297</ele>
        <time>2022-05-10T11:56:09Z</time>
      </trkpt>
      <trkpt lat="45.29559" lon="5.33783">
        <ele>559</ele>
        <time>2022-05-10T11:56:15Z</time>
      </trkpt>
      <trkpt lat="45.29547" lon="5.33786">
        <ele>559.79998779297</ele>
        <time>2022-05-10T11:56:18Z</time>
      </trkpt>
      <trkpt lat="45.29539" lon="5.33786">
        <ele>560.20001220703</ele>
        <time>2022-05-10T11:56:20Z</time>
      </trkpt>
      <trkpt lat="45.29521" lon="5.33783">
        <ele>560.79998779297</ele>
        <time>2022-05-10T11:56:24Z</time>
      </trkpt>
      <trkpt lat="45.29518" lon="5.33783">
        <ele>561</ele>
        <time>2022-05-10T11:56:25Z</time>
      </trkpt>
      <trkpt lat="45.29497" lon="5.33778">
        <ele>562</ele>
        <time>2022-05-10T11:56:30Z</time>
      </trkpt>
      <trkpt lat="45.29489" lon="5.33777">
        <ele>562.20001220703</ele>
        <time>2022-05-10T11:56:32Z</time>
      </trkpt>
      <trkpt lat="45.29455" lon="5.33766">
        <ele>562.79998779297</ele>
        <time>2022-05-10T11:56:40Z</time>
      </trkpt>
      <trkpt lat="45.29438" lon="5.33762">
        <ele>563</ele>
        <time>2022-05-10T11:56:44Z</time>
      </trkpt>
      <trkpt lat="45.2942" lon="5.33759">
        <ele>563</ele>
        <time>2022-05-10T11:56:48Z</time>
      </trkpt>
      <trkpt lat="45.29396" lon="5.3376">
        <ele>563.40002441406</ele>
        <time>2022-05-10T11:56:54Z</time>
      </trkpt>
      <trkpt lat="45.29393" lon="5.33761">
        <ele>563.40002441406</ele>
        <time>2022-05-10T11:56:55Z</time>
      </trkpt>
      <trkpt lat="45.29379" lon="5.33766">
        <ele>564.20001220703</ele>
        <time>2022-05-10T11:56:59Z</time>
      </trkpt>
      <trkpt lat="45.29376" lon="5.33766">
        <ele>564.20001220703</ele>
        <time>2022-05-10T11:57:00Z</time>
      </trkpt>
      <trkpt lat="45.29364" lon="5.33769">
        <ele>565.20001220703</ele>
        <time>2022-05-10T11:57:04Z</time>
      </trkpt>
      <trkpt lat="45.29347" lon="5.33771">
        <ele>566.20001220703</ele>
        <time>2022-05-10T11:57:09Z</time>
      </trkpt>
      <trkpt lat="45.29343" lon="5.33771">
        <ele>566.40002441406</ele>
        <time>2022-05-10T11:57:10Z</time>
      </trkpt>
      <trkpt lat="45.29324" lon="5.33768">
        <ele>567.20001220703</ele>
        <time>2022-05-10T11:57:15Z</time>
      </trkpt>
      <trkpt lat="45.2932" lon="5.33768">
        <ele>567.40002441406</ele>
        <time>2022-05-10T11:57:16Z</time>
      </trkpt>
      <trkpt lat="45.29297" lon="5.33766">
        <ele>568.59997558594</ele>
        <time>2022-05-10T11:57:22Z</time>
      </trkpt>
      <trkpt lat="45.29293" lon="5.33766">
        <ele>568.59997558594</ele>
        <time>2022-05-10T11:57:23Z</time>
      </trkpt>
      <trkpt lat="45.2928" lon="5.33764">
        <ele>569.59997558594</ele>
        <time>2022-05-10T11:57:27Z</time>
      </trkpt>
      <trkpt lat="45.29269" lon="5.33763">
        <ele>570.40002441406</ele>
        <time>2022-05-10T11:57:31Z</time>
      </trkpt>
      <trkpt lat="45.29264" lon="5.33763">
        <ele>570.79998779297</ele>
        <time>2022-05-10T11:57:33Z</time>
      </trkpt>
      <trkpt lat="45.29261" lon="5.33761">
        <ele>571</ele>
        <time>2022-05-10T11:57:35Z</time>
      </trkpt>
      <trkpt lat="45.29259" lon="5.3376">
        <ele>571</ele>
        <time>2022-05-10T11:57:36Z</time>
      </trkpt>
      <trkpt lat="45.29257" lon="5.33761">
        <ele>571.20001220703</ele>
        <time>2022-05-10T11:57:37Z</time>
      </trkpt>
      <trkpt lat="45.29256" lon="5.33763">
        <ele>571.20001220703</ele>
        <time>2022-05-10T11:57:39Z</time>
      </trkpt>
      <trkpt lat="45.29257" lon="5.33763">
        <ele>571.40002441406</ele>
        <time>2022-05-10T11:57:41Z</time>
      </trkpt>
      <trkpt lat="45.29259" lon="5.33762">
        <ele>571.40002441406</ele>
        <time>2022-05-10T11:57:43Z</time>
      </trkpt>
      <trkpt lat="45.29261" lon="5.33764">
        <ele>571.40002441406</ele>
        <time>2022-05-10T11:57:45Z</time>
      </trkpt>
      <trkpt lat="45.29263" lon="5.33766">
        <ele>571.40002441406</ele>
        <time>2022-05-10T11:57:47Z</time>
      </trkpt>
      <trkpt lat="45.29263" lon="5.33767">
        <ele>571.40002441406</ele>
        <time>2022-05-10T11:57:48Z</time>
      </trkpt>
      <trkpt lat="45.29265" lon="5.33769">
        <ele>571.40002441406</ele>
        <time>2022-05-10T11:57:50Z</time>
      </trkpt>
      <trkpt lat="45.29268" lon="5.33769">
        <ele>571.20001220703</ele>
        <time>2022-05-10T11:57:52Z</time>
      </trkpt>
      <trkpt lat="45.29269" lon="5.33768">
        <ele>571.20001220703</ele>
        <time>2022-05-10T11:57:53Z</time>
      </trkpt>
      <trkpt lat="45.2927" lon="5.33766">
        <ele>571.20001220703</ele>
        <time>2022-05-10T11:57:54Z</time>
      </trkpt>
      <trkpt lat="45.29265" lon="5.33764">
        <ele>571</ele>
        <time>2022-05-10T11:57:57Z</time>
      </trkpt>
      <trkpt lat="45.29249" lon="5.33764">
        <ele>571</ele>
        <time>2022-05-10T11:58:02Z</time>
      </trkpt>
      <trkpt lat="45.29233" lon="5.33763">
        <ele>572</ele>
        <time>2022-05-10T11:58:07Z</time>
      </trkpt>
      <trkpt lat="45.29226" lon="5.33763">
        <ele>572.59997558594</ele>
        <time>2022-05-10T11:58:09Z</time>
      </trkpt>
      <trkpt lat="45.29214" lon="5.33765">
        <ele>573</ele>
        <time>2022-05-10T11:58:13Z</time>
      </trkpt>
      <trkpt lat="45.29212" lon="5.33765">
        <ele>573.40002441406</ele>
        <time>2022-05-10T11:58:14Z</time>
      </trkpt>
      <trkpt lat="45.29199" lon="5.33765">
        <ele>574.20001220703</ele>
        <time>2022-05-10T11:58:18Z</time>
      </trkpt>
      <trkpt lat="45.29181" lon="5.33762">
        <ele>575.40002441406</ele>
        <time>2022-05-10T11:58:23Z</time>
      </trkpt>
      <trkpt lat="45.29163" lon="5.33757">
        <ele>576.59997558594</ele>
        <time>2022-05-10T11:58:28Z</time>
      </trkpt>
      <trkpt lat="45.29139" lon="5.33752">
        <ele>577.59997558594</ele>
        <time>2022-05-10T11:58:35Z</time>
      </trkpt>
      <trkpt lat="45.29125" lon="5.33749">
        <ele>578.40002441406</ele>
        <time>2022-05-10T11:58:39Z</time>
      </trkpt>
      <trkpt lat="45.29116" lon="5.33747">
        <ele>578.79998779297</ele>
        <time>2022-05-10T11:58:42Z</time>
      </trkpt>
      <trkpt lat="45.291" lon="5.33744">
        <ele>579.59997558594</ele>
        <time>2022-05-10T11:58:47Z</time>
      </trkpt>
      <trkpt lat="45.29096" lon="5.33744">
        <ele>580</ele>
        <time>2022-05-10T11:58:48Z</time>
      </trkpt>
      <trkpt lat="45.29078" lon="5.33743">
        <ele>581.20001220703</ele>
        <time>2022-05-10T11:58:53Z</time>
      </trkpt>
      <trkpt lat="45.29072" lon="5.33744">
        <ele>581.40002441406</ele>
        <time>2022-05-10T11:58:55Z</time>
      </trkpt>
      <trkpt lat="45.29051" lon="5.33745">
        <ele>582.20001220703</ele>
        <time>2022-05-10T11:59:01Z</time>
      </trkpt>
      <trkpt lat="45.29032" lon="5.33749">
        <ele>583.20001220703</ele>
        <time>2022-05-10T11:59:06Z</time>
      </trkpt>
      <trkpt lat="45.29018" lon="5.33752">
        <ele>584.20001220703</ele>
        <time>2022-05-10T11:59:10Z</time>
      </trkpt>
      <trkpt lat="45.29001" lon="5.33756">
        <ele>585.20001220703</ele>
        <time>2022-05-10T11:59:15Z</time>
      </trkpt>
      <trkpt lat="45.2898" lon="5.33764">
        <ele>586.40002441406</ele>
        <time>2022-05-10T11:59:21Z</time>
      </trkpt>
      <trkpt lat="45.28967" lon="5.3377">
        <ele>587</ele>
        <time>2022-05-10T11:59:25Z</time>
      </trkpt>
      <trkpt lat="45.28961" lon="5.33773">
        <ele>587.40002441406</ele>
        <time>2022-05-10T11:59:27Z</time>
      </trkpt>
      <trkpt lat="45.28946" lon="5.33775">
        <ele>588.59997558594</ele>
        <time>2022-05-10T11:59:32Z</time>
      </trkpt>
      <trkpt lat="45.28943" lon="5.33774">
        <ele>588.59997558594</ele>
        <time>2022-05-10T11:59:33Z</time>
      </trkpt>
      <trkpt lat="45.28933" lon="5.3377">
        <ele>589</ele>
        <time>2022-05-10T11:59:36Z</time>
      </trkpt>
      <trkpt lat="45.2893" lon="5.33768">
        <ele>589</ele>
        <time>2022-05-10T11:59:37Z</time>
      </trkpt>
      <trkpt lat="45.28923" lon="5.33765">
        <ele>589.59997558594</ele>
        <time>2022-05-10T11:59:39Z</time>
      </trkpt>
      <trkpt lat="45.28909" lon="5.33762">
        <ele>590.79998779297</ele>
        <time>2022-05-10T11:59:43Z</time>
      </trkpt>
      <trkpt lat="45.28905" lon="5.33761">
        <ele>590.79998779297</ele>
        <time>2022-05-10T11:59:44Z</time>
      </trkpt>
      <trkpt lat="45.28884" lon="5.33762">
        <ele>592</ele>
        <time>2022-05-10T11:59:50Z</time>
      </trkpt>
      <trkpt lat="45.28879" lon="5.33763">
        <ele>592.20001220703</ele>
        <time>2022-05-10T11:59:52Z</time>
      </trkpt>
      <trkpt lat="45.28862" lon="5.33771">
        <ele>593</ele>
        <time>2022-05-10T11:59:57Z</time>
      </trkpt>
      <trkpt lat="45.28857" lon="5.33778">
        <ele>593.40002441406</ele>
        <time>2022-05-10T11:59:59Z</time>
      </trkpt>
      <trkpt lat="45.28849" lon="5.338">
        <ele>593.79998779297</ele>
        <time>2022-05-10T12:00:04Z</time>
      </trkpt>
      <trkpt lat="45.28851" lon="5.33809">
        <ele>594.20001220703</ele>
        <time>2022-05-10T12:00:06Z</time>
      </trkpt>
      <trkpt lat="45.28854" lon="5.33818">
        <ele>594.40002441406</ele>
        <time>2022-05-10T12:00:08Z</time>
      </trkpt>
      <trkpt lat="45.28863" lon="5.3384">
        <ele>595.20001220703</ele>
        <time>2022-05-10T12:00:13Z</time>
      </trkpt>
      <trkpt lat="45.2887" lon="5.33856">
        <ele>596.20001220703</ele>
        <time>2022-05-10T12:00:17Z</time>
      </trkpt>
      <trkpt lat="45.28873" lon="5.3387">
        <ele>596.79998779297</ele>
        <time>2022-05-10T12:00:20Z</time>
      </trkpt>
      <trkpt lat="45.28873" lon="5.3389">
        <ele>597.20001220703</ele>
        <time>2022-05-10T12:00:24Z</time>
      </trkpt>
      <trkpt lat="45.28874" lon="5.33895">
        <ele>597.40002441406</ele>
        <time>2022-05-10T12:00:25Z</time>
      </trkpt>
      <trkpt lat="45.28875" lon="5.33899">
        <ele>597.40002441406</ele>
        <time>2022-05-10T12:00:26Z</time>
      </trkpt>
      <trkpt lat="45.28878" lon="5.33913">
        <ele>597.79998779297</ele>
        <time>2022-05-10T12:00:29Z</time>
      </trkpt>
      <trkpt lat="45.28882" lon="5.33934">
        <ele>598.40002441406</ele>
        <time>2022-05-10T12:00:33Z</time>
      </trkpt>
      <trkpt lat="45.28883" lon="5.3395">
        <ele>599</ele>
        <time>2022-05-10T12:00:36Z</time>
      </trkpt>
      <trkpt lat="45.28884" lon="5.3397">
        <ele>599.40002441406</ele>
        <time>2022-05-10T12:00:40Z</time>
      </trkpt>
      <trkpt lat="45.28887" lon="5.33992">
        <ele>600</ele>
        <time>2022-05-10T12:00:44Z</time>
      </trkpt>
      <trkpt lat="45.2889" lon="5.34007">
        <ele>600.59997558594</ele>
        <time>2022-05-10T12:00:47Z</time>
      </trkpt>
      <trkpt lat="45.28897" lon="5.34026">
        <ele>601</ele>
        <time>2022-05-10T12:00:51Z</time>
      </trkpt>
      <trkpt lat="45.28903" lon="5.3404">
        <ele>601.59997558594</ele>
        <time>2022-05-10T12:00:54Z</time>
      </trkpt>
      <trkpt lat="45.28905" lon="5.34044">
        <ele>601.59997558594</ele>
        <time>2022-05-10T12:00:55Z</time>
      </trkpt>
      <trkpt lat="45.28915" lon="5.34067">
        <ele>602.59997558594</ele>
        <time>2022-05-10T12:01:00Z</time>
      </trkpt>
      <trkpt lat="45.28917" lon="5.34071">
        <ele>602.79998779297</ele>
        <time>2022-05-10T12:01:01Z</time>
      </trkpt>
      <trkpt lat="45.2893" lon="5.34099">
        <ele>603.59997558594</ele>
        <time>2022-05-10T12:01:08Z</time>
      </trkpt>
      <trkpt lat="45.28936" lon="5.34108">
        <ele>603.79998779297</ele>
        <time>2022-05-10T12:01:10Z</time>
      </trkpt>
      <trkpt lat="45.2895" lon="5.3413">
        <ele>604.59997558594</ele>
        <time>2022-05-10T12:01:16Z</time>
      </trkpt>
      <trkpt lat="45.28955" lon="5.34136">
        <ele>604.79998779297</ele>
        <time>2022-05-10T12:01:18Z</time>
      </trkpt>
      <trkpt lat="45.28968" lon="5.34146">
        <ele>605.59997558594</ele>
        <time>2022-05-10T12:01:22Z</time>
      </trkpt>
      <trkpt lat="45.28975" lon="5.34151">
        <ele>606</ele>
        <time>2022-05-10T12:01:24Z</time>
      </trkpt>
      <trkpt lat="45.28997" lon="5.34168">
        <ele>606.79998779297</ele>
        <time>2022-05-10T12:01:31Z</time>
      </trkpt>
      <trkpt lat="45.28999" lon="5.34171">
        <ele>607.20001220703</ele>
        <time>2022-05-10T12:01:32Z</time>
      </trkpt>
      <trkpt lat="45.29013" lon="5.34189">
        <ele>608</ele>
        <time>2022-05-10T12:01:38Z</time>
      </trkpt>
      <trkpt lat="45.29014" lon="5.34194">
        <ele>608.40002441406</ele>
        <time>2022-05-10T12:01:39Z</time>
      </trkpt>
      <trkpt lat="45.2902" lon="5.3421">
        <ele>609.59997558594</ele>
        <time>2022-05-10T12:01:43Z</time>
      </trkpt>
      <trkpt lat="45.29021" lon="5.34219">
        <ele>610</ele>
        <time>2022-05-10T12:01:45Z</time>
      </trkpt>
      <trkpt lat="45.29017" lon="5.34236">
        <ele>610.59997558594</ele>
        <time>2022-05-10T12:01:49Z</time>
      </trkpt>
      <trkpt lat="45.29014" lon="5.34241">
        <ele>610.59997558594</ele>
        <time>2022-05-10T12:01:50Z</time>
      </trkpt>
      <trkpt lat="45.29009" lon="5.34247">
        <ele>611</ele>
        <time>2022-05-10T12:01:52Z</time>
      </trkpt>
      <trkpt lat="45.28999" lon="5.34253">
        <ele>611.40002441406</ele>
        <time>2022-05-10T12:01:55Z</time>
      </trkpt>
      <trkpt lat="45.28992" lon="5.34256">
        <ele>611.59997558594</ele>
        <time>2022-05-10T12:01:57Z</time>
      </trkpt>
      <trkpt lat="45.28973" lon="5.34263">
        <ele>612.59997558594</ele>
        <time>2022-05-10T12:02:03Z</time>
      </trkpt>
      <trkpt lat="45.2897" lon="5.34264">
        <ele>612.79998779297</ele>
        <time>2022-05-10T12:02:04Z</time>
      </trkpt>
      <trkpt lat="45.2895" lon="5.34271">
        <ele>613.79998779297</ele>
        <time>2022-05-10T12:02:10Z</time>
      </trkpt>
      <trkpt lat="45.28947" lon="5.34272">
        <ele>614.20001220703</ele>
        <time>2022-05-10T12:02:11Z</time>
      </trkpt>
      <trkpt lat="45.2893" lon="5.34278">
        <ele>614.79998779297</ele>
        <time>2022-05-10T12:02:16Z</time>
      </trkpt>
      <trkpt lat="45.28916" lon="5.34283">
        <ele>615.59997558594</ele>
        <time>2022-05-10T12:02:20Z</time>
      </trkpt>
      <trkpt lat="45.28902" lon="5.34288">
        <ele>616</ele>
        <time>2022-05-10T12:02:24Z</time>
      </trkpt>
      <trkpt lat="45.28882" lon="5.34296">
        <ele>617</ele>
        <time>2022-05-10T12:02:30Z</time>
      </trkpt>
      <trkpt lat="45.28879" lon="5.34297">
        <ele>617</ele>
        <time>2022-05-10T12:02:31Z</time>
      </trkpt>
      <trkpt lat="45.28861" lon="5.34303">
        <ele>618.20001220703</ele>
        <time>2022-05-10T12:02:36Z</time>
      </trkpt>
      <trkpt lat="45.28846" lon="5.34308">
        <ele>618.59997558594</ele>
        <time>2022-05-10T12:02:40Z</time>
      </trkpt>
      <trkpt lat="45.28835" lon="5.34309">
        <ele>619.20001220703</ele>
        <time>2022-05-10T12:02:43Z</time>
      </trkpt>
      <trkpt lat="45.28811" lon="5.34311">
        <ele>620.40002441406</ele>
        <time>2022-05-10T12:02:49Z</time>
      </trkpt>
      <trkpt lat="45.28785" lon="5.3431">
        <ele>621.40002441406</ele>
        <time>2022-05-10T12:02:56Z</time>
      </trkpt>
      <trkpt lat="45.28775" lon="5.34309">
        <ele>622</ele>
        <time>2022-05-10T12:02:59Z</time>
      </trkpt>
      <trkpt lat="45.28767" lon="5.34309">
        <ele>622.40002441406</ele>
        <time>2022-05-10T12:03:01Z</time>
      </trkpt>
      <trkpt lat="45.28748" lon="5.34308">
        <ele>623.40002441406</ele>
        <time>2022-05-10T12:03:07Z</time>
      </trkpt>
      <trkpt lat="45.28744" lon="5.34308">
        <ele>623.59997558594</ele>
        <time>2022-05-10T12:03:08Z</time>
      </trkpt>
      <trkpt lat="45.28737" lon="5.34308">
        <ele>624</ele>
        <time>2022-05-10T12:03:10Z</time>
      </trkpt>
      <trkpt lat="45.28723" lon="5.34308">
        <ele>624.79998779297</ele>
        <time>2022-05-10T12:03:14Z</time>
      </trkpt>
      <trkpt lat="45.28705" lon="5.34311">
        <ele>625.79998779297</ele>
        <time>2022-05-10T12:03:19Z</time>
      </trkpt>
      <trkpt lat="45.28702" lon="5.34312">
        <ele>626</ele>
        <time>2022-05-10T12:03:20Z</time>
      </trkpt>
      <trkpt lat="45.28687" lon="5.34323">
        <ele>626.79998779297</ele>
        <time>2022-05-10T12:03:25Z</time>
      </trkpt>
      <trkpt lat="45.28681" lon="5.34329">
        <ele>627.40002441406</ele>
        <time>2022-05-10T12:03:27Z</time>
      </trkpt>
      <trkpt lat="45.28671" lon="5.34345">
        <ele>628</ele>
        <time>2022-05-10T12:03:31Z</time>
      </trkpt>
      <trkpt lat="45.28667" lon="5.34354">
        <ele>628.40002441406</ele>
        <time>2022-05-10T12:03:33Z</time>
      </trkpt>
      <trkpt lat="45.28663" lon="5.34368">
        <ele>629.20001220703</ele>
        <time>2022-05-10T12:03:36Z</time>
      </trkpt>
      <trkpt lat="45.28656" lon="5.34387">
        <ele>629.79998779297</ele>
        <time>2022-05-10T12:03:40Z</time>
      </trkpt>
      <trkpt lat="45.28652" lon="5.34402">
        <ele>630.20001220703</ele>
        <time>2022-05-10T12:03:43Z</time>
      </trkpt>
      <trkpt lat="45.28644" lon="5.34426">
        <ele>631.20001220703</ele>
        <time>2022-05-10T12:03:48Z</time>
      </trkpt>
      <trkpt lat="45.28643" lon="5.34432">
        <ele>631.40002441406</ele>
        <time>2022-05-10T12:03:49Z</time>
      </trkpt>
      <trkpt lat="45.28634" lon="5.34466">
        <ele>632</ele>
        <time>2022-05-10T12:03:56Z</time>
      </trkpt>
      <trkpt lat="45.28629" lon="5.34479">
        <ele>632.59997558594</ele>
        <time>2022-05-10T12:03:59Z</time>
      </trkpt>
      <trkpt lat="45.28625" lon="5.34494">
        <ele>633.20001220703</ele>
        <time>2022-05-10T12:04:02Z</time>
      </trkpt>
      <trkpt lat="45.28622" lon="5.34503">
        <ele>633.59997558594</ele>
        <time>2022-05-10T12:04:04Z</time>
      </trkpt>
      <trkpt lat="45.28613" lon="5.34532">
        <ele>634.79998779297</ele>
        <time>2022-05-10T12:04:10Z</time>
      </trkpt>
      <trkpt lat="45.28609" lon="5.34547">
        <ele>635.20001220703</ele>
        <time>2022-05-10T12:04:13Z</time>
      </trkpt>
      <trkpt lat="45.28605" lon="5.34561">
        <ele>635.79998779297</ele>
        <time>2022-05-10T12:04:16Z</time>
      </trkpt>
      <trkpt lat="45.28593" lon="5.34588">
        <ele>636.79998779297</ele>
        <time>2022-05-10T12:04:22Z</time>
      </trkpt>
      <trkpt lat="45.2859" lon="5.34592">
        <ele>636.79998779297</ele>
        <time>2022-05-10T12:04:23Z</time>
      </trkpt>
      <trkpt lat="45.28579" lon="5.34602">
        <ele>637.40002441406</ele>
        <time>2022-05-10T12:04:27Z</time>
      </trkpt>
      <trkpt lat="45.2857" lon="5.34605">
        <ele>638</ele>
        <time>2022-05-10T12:04:30Z</time>
      </trkpt>
      <trkpt lat="45.28562" lon="5.34606">
        <ele>638.59997558594</ele>
        <time>2022-05-10T12:04:32Z</time>
      </trkpt>
      <trkpt lat="45.28549" lon="5.34608">
        <ele>639.20001220703</ele>
        <time>2022-05-10T12:04:36Z</time>
      </trkpt>
      <trkpt lat="45.28539" lon="5.3461">
        <ele>639.79998779297</ele>
        <time>2022-05-10T12:04:39Z</time>
      </trkpt>
      <trkpt lat="45.28532" lon="5.34614">
        <ele>640.40002441406</ele>
        <time>2022-05-10T12:04:41Z</time>
      </trkpt>
      <trkpt lat="45.28523" lon="5.34621">
        <ele>641.40002441406</ele>
        <time>2022-05-10T12:04:44Z</time>
      </trkpt>
      <trkpt lat="45.28519" lon="5.34624">
        <ele>641.59997558594</ele>
        <time>2022-05-10T12:04:45Z</time>
      </trkpt>
      <trkpt lat="45.28499" lon="5.34642">
        <ele>642.20001220703</ele>
        <time>2022-05-10T12:04:49Z</time>
      </trkpt>
      <trkpt lat="45.28469" lon="5.34666">
        <ele>642.40002441406</ele>
        <time>2022-05-10T12:04:55Z</time>
      </trkpt>
      <trkpt lat="45.2843" lon="5.34699">
        <ele>642.40002441406</ele>
        <time>2022-05-10T12:05:02Z</time>
      </trkpt>
      <trkpt lat="45.28425" lon="5.34706">
        <ele>642.20001220703</ele>
        <time>2022-05-10T12:05:03Z</time>
      </trkpt>
      <trkpt lat="45.28417" lon="5.34721">
        <ele>642</ele>
        <time>2022-05-10T12:05:05Z</time>
      </trkpt>
      <trkpt lat="45.28412" lon="5.3474">
        <ele>641.79998779297</ele>
        <time>2022-05-10T12:05:07Z</time>
      </trkpt>
      <trkpt lat="45.28409" lon="5.34759">
        <ele>641.79998779297</ele>
        <time>2022-05-10T12:05:09Z</time>
      </trkpt>
      <trkpt lat="45.28408" lon="5.34816">
        <ele>641.59997558594</ele>
        <time>2022-05-10T12:05:15Z</time>
      </trkpt>
      <trkpt lat="45.28408" lon="5.34864">
        <ele>641.40002441406</ele>
        <time>2022-05-10T12:05:20Z</time>
      </trkpt>
      <trkpt lat="45.28408" lon="5.34901">
        <ele>641.20001220703</ele>
        <time>2022-05-10T12:05:24Z</time>
      </trkpt>
      <trkpt lat="45.28409" lon="5.34983">
        <ele>640.79998779297</ele>
        <time>2022-05-10T12:05:33Z</time>
      </trkpt>
      <trkpt lat="45.28409" lon="5.35001">
        <ele>640.59997558594</ele>
        <time>2022-05-10T12:05:35Z</time>
      </trkpt>
      <trkpt lat="45.2841" lon="5.35054">
        <ele>640</ele>
        <time>2022-05-10T12:05:41Z</time>
      </trkpt>
      <trkpt lat="45.2841" lon="5.35089">
        <ele>639.59997558594</ele>
        <time>2022-05-10T12:05:45Z</time>
      </trkpt>
      <trkpt lat="45.28409" lon="5.35098">
        <ele>639.40002441406</ele>
        <time>2022-05-10T12:05:46Z</time>
      </trkpt>
      <trkpt lat="45.28408" lon="5.35106">
        <ele>639.20001220703</ele>
        <time>2022-05-10T12:05:47Z</time>
      </trkpt>
      <trkpt lat="45.28402" lon="5.3513">
        <ele>638.79998779297</ele>
        <time>2022-05-10T12:05:50Z</time>
      </trkpt>
      <trkpt lat="45.28397" lon="5.35147">
        <ele>638.40002441406</ele>
        <time>2022-05-10T12:05:52Z</time>
      </trkpt>
      <trkpt lat="45.28396" lon="5.35155">
        <ele>638.20001220703</ele>
        <time>2022-05-10T12:05:53Z</time>
      </trkpt>
      <trkpt lat="45.28394" lon="5.35181">
        <ele>637.79998779297</ele>
        <time>2022-05-10T12:05:56Z</time>
      </trkpt>
      <trkpt lat="45.28395" lon="5.35198">
        <ele>637.40002441406</ele>
        <time>2022-05-10T12:05:58Z</time>
      </trkpt>
      <trkpt lat="45.28399" lon="5.35214">
        <ele>637.40002441406</ele>
        <time>2022-05-10T12:06:00Z</time>
      </trkpt>
      <trkpt lat="45.28403" lon="5.35229">
        <ele>637</ele>
        <time>2022-05-10T12:06:03Z</time>
      </trkpt>
      <trkpt lat="45.28404" lon="5.35232">
        <ele>636.79998779297</ele>
        <time>2022-05-10T12:06:05Z</time>
      </trkpt>
      <trkpt lat="45.28404" lon="5.35233">
        <ele>636.40002441406</ele>
        <time>2022-05-10T12:06:06Z</time>
      </trkpt>
      <trkpt lat="45.28405" lon="5.35234">
        <ele>636</ele>
        <time>2022-05-10T12:06:07Z</time>
      </trkpt>
      <trkpt lat="45.28407" lon="5.35236">
        <ele>635</ele>
        <time>2022-05-10T12:06:10Z</time>
      </trkpt>
      <trkpt lat="45.28408" lon="5.35237">
        <ele>634.79998779297</ele>
        <time>2022-05-10T12:06:11Z</time>
      </trkpt>
      <trkpt lat="45.28405" lon="5.35251">
        <ele>634.20001220703</ele>
        <time>2022-05-10T12:06:16Z</time>
      </trkpt>
      <trkpt lat="45.28406" lon="5.35262">
        <ele>634.20001220703</ele>
        <time>2022-05-10T12:06:18Z</time>
      </trkpt>
      <trkpt lat="45.28409" lon="5.35267">
        <ele>634.20001220703</ele>
        <time>2022-05-10T12:06:19Z</time>
      </trkpt>
      <trkpt lat="45.28425" lon="5.353">
        <ele>634.79998779297</ele>
        <time>2022-05-10T12:06:26Z</time>
      </trkpt>
      <trkpt lat="45.28433" lon="5.35319">
        <ele>635.59997558594</ele>
        <time>2022-05-10T12:06:31Z</time>
      </trkpt>
      <trkpt lat="45.28436" lon="5.35328">
        <ele>636.20001220703</ele>
        <time>2022-05-10T12:06:34Z</time>
      </trkpt>
      <trkpt lat="45.28441" lon="5.35337">
        <ele>637.40002441406</ele>
        <time>2022-05-10T12:06:38Z</time>
      </trkpt>
      <trkpt lat="45.28445" lon="5.35347">
        <ele>638.40002441406</ele>
        <time>2022-05-10T12:06:42Z</time>
      </trkpt>
      <trkpt lat="45.28449" lon="5.35356">
        <ele>639.20001220703</ele>
        <time>2022-05-10T12:06:46Z</time>
      </trkpt>
      <trkpt lat="45.2845" lon="5.35361">
        <ele>639.59997558594</ele>
        <time>2022-05-10T12:06:48Z</time>
      </trkpt>
      <trkpt lat="45.28453" lon="5.35372">
        <ele>641</ele>
        <time>2022-05-10T12:06:53Z</time>
      </trkpt>
      <trkpt lat="45.28455" lon="5.35379">
        <ele>642.20001220703</ele>
        <time>2022-05-10T12:06:56Z</time>
      </trkpt>
      <trkpt lat="45.28457" lon="5.35386">
        <ele>643.59997558594</ele>
        <time>2022-05-10T12:07:00Z</time>
      </trkpt>
      <trkpt lat="45.2846" lon="5.35393">
        <ele>644.59997558594</ele>
        <time>2022-05-10T12:07:03Z</time>
      </trkpt>
      <trkpt lat="45.28463" lon="5.35401">
        <ele>646</ele>
        <time>2022-05-10T12:07:07Z</time>
      </trkpt>
      <trkpt lat="45.28465" lon="5.35408">
        <ele>647.40002441406</ele>
        <time>2022-05-10T12:07:10Z</time>
      </trkpt>
      <trkpt lat="45.28468" lon="5.35415">
        <ele>648.40002441406</ele>
        <time>2022-05-10T12:07:13Z</time>
      </trkpt>
      <trkpt lat="45.28471" lon="5.35423">
        <ele>649.59997558594</ele>
        <time>2022-05-10T12:07:16Z</time>
      </trkpt>
      <trkpt lat="45.28472" lon="5.35429">
        <ele>651</ele>
        <time>2022-05-10T12:07:19Z</time>
      </trkpt>
      <trkpt lat="45.28477" lon="5.35439">
        <ele>652.20001220703</ele>
        <time>2022-05-10T12:07:23Z</time>
      </trkpt>
      <trkpt lat="45.28478" lon="5.35443">
        <ele>652.40002441406</ele>
        <time>2022-05-10T12:07:24Z</time>
      </trkpt>
      <trkpt lat="45.28481" lon="5.35451">
        <ele>653.40002441406</ele>
        <time>2022-05-10T12:07:27Z</time>
      </trkpt>
      <trkpt lat="45.28483" lon="5.35454">
        <ele>654</ele>
        <time>2022-05-10T12:07:29Z</time>
      </trkpt>
      <trkpt lat="45.28485" lon="5.35457">
        <ele>654.59997558594</ele>
        <time>2022-05-10T12:07:30Z</time>
      </trkpt>
      <trkpt lat="45.28486" lon="5.3546">
        <ele>654.79998779297</ele>
        <time>2022-05-10T12:07:31Z</time>
      </trkpt>
      <trkpt lat="45.28487" lon="5.35465">
        <ele>655.79998779297</ele>
        <time>2022-05-10T12:07:34Z</time>
      </trkpt>
      <trkpt lat="45.28487" lon="5.35476">
        <ele>656.79998779297</ele>
        <time>2022-05-10T12:07:38Z</time>
      </trkpt>
      <trkpt lat="45.2849" lon="5.35483">
        <ele>657.59997558594</ele>
        <time>2022-05-10T12:07:41Z</time>
      </trkpt>
      <trkpt lat="45.28491" lon="5.35489">
        <ele>658</ele>
        <time>2022-05-10T12:07:43Z</time>
      </trkpt>
      <trkpt lat="45.2849" lon="5.35494">
        <ele>659</ele>
        <time>2022-05-10T12:07:46Z</time>
      </trkpt>
      <trkpt lat="45.28489" lon="5.35502">
        <ele>659.59997558594</ele>
        <time>2022-05-10T12:07:49Z</time>
      </trkpt>
      <trkpt lat="45.28487" lon="5.35506">
        <ele>660.20001220703</ele>
        <time>2022-05-10T12:07:52Z</time>
      </trkpt>
      <trkpt lat="45.28492" lon="5.35522">
        <ele>660.79998779297</ele>
        <time>2022-05-10T12:07:56Z</time>
      </trkpt>
      <trkpt lat="45.28494" lon="5.35532">
        <ele>661.40002441406</ele>
        <time>2022-05-10T12:07:59Z</time>
      </trkpt>
      <trkpt lat="45.28491" lon="5.35543">
        <ele>662.40002441406</ele>
        <time>2022-05-10T12:08:03Z</time>
      </trkpt>
      <trkpt lat="45.2849" lon="5.35554">
        <ele>663.59997558594</ele>
        <time>2022-05-10T12:08:07Z</time>
      </trkpt>
      <trkpt lat="45.2849" lon="5.3556">
        <ele>664.40002441406</ele>
        <time>2022-05-10T12:08:10Z</time>
      </trkpt>
      <trkpt lat="45.2849" lon="5.35565">
        <ele>664.59997558594</ele>
        <time>2022-05-10T12:08:11Z</time>
      </trkpt>
      <trkpt lat="45.28491" lon="5.35577">
        <ele>666.20001220703</ele>
        <time>2022-05-10T12:08:15Z</time>
      </trkpt>
      <trkpt lat="45.28489" lon="5.35584">
        <ele>667</ele>
        <time>2022-05-10T12:08:18Z</time>
      </trkpt>
      <trkpt lat="45.28489" lon="5.35587">
        <ele>667.20001220703</ele>
        <time>2022-05-10T12:08:19Z</time>
      </trkpt>
      <trkpt lat="45.28488" lon="5.35593">
        <ele>668.20001220703</ele>
        <time>2022-05-10T12:08:23Z</time>
      </trkpt>
      <trkpt lat="45.28487" lon="5.35599">
        <ele>669.20001220703</ele>
        <time>2022-05-10T12:08:25Z</time>
      </trkpt>
      <trkpt lat="45.28486" lon="5.35603">
        <ele>669.40002441406</ele>
        <time>2022-05-10T12:08:27Z</time>
      </trkpt>
      <trkpt lat="45.28486" lon="5.35606">
        <ele>669.59997558594</ele>
        <time>2022-05-10T12:08:28Z</time>
      </trkpt>
      <trkpt lat="45.28487" lon="5.35609">
        <ele>670</ele>
        <time>2022-05-10T12:08:29Z</time>
      </trkpt>
      <trkpt lat="45.28487" lon="5.35623">
        <ele>670.40002441406</ele>
        <time>2022-05-10T12:08:33Z</time>
      </trkpt>
      <trkpt lat="45.28486" lon="5.35629">
        <ele>671</ele>
        <time>2022-05-10T12:08:35Z</time>
      </trkpt>
      <trkpt lat="45.28484" lon="5.35632">
        <ele>671.40002441406</ele>
        <time>2022-05-10T12:08:37Z</time>
      </trkpt>
      <trkpt lat="45.28482" lon="5.3564">
        <ele>672.20001220703</ele>
        <time>2022-05-10T12:08:40Z</time>
      </trkpt>
      <trkpt lat="45.28481" lon="5.35645">
        <ele>672.59997558594</ele>
        <time>2022-05-10T12:08:42Z</time>
      </trkpt>
      <trkpt lat="45.28479" lon="5.35651">
        <ele>673.59997558594</ele>
        <time>2022-05-10T12:08:46Z</time>
      </trkpt>
      <trkpt lat="45.28477" lon="5.35654">
        <ele>674.20001220703</ele>
        <time>2022-05-10T12:08:48Z</time>
      </trkpt>
      <trkpt lat="45.28474" lon="5.35659">
        <ele>674.59997558594</ele>
        <time>2022-05-10T12:08:50Z</time>
      </trkpt>
      <trkpt lat="45.28473" lon="5.35665">
        <ele>676</ele>
        <time>2022-05-10T12:08:54Z</time>
      </trkpt>
      <trkpt lat="45.28468" lon="5.35673">
        <ele>676.79998779297</ele>
        <time>2022-05-10T12:08:58Z</time>
      </trkpt>
      <trkpt lat="45.28468" lon="5.35675">
        <ele>677</ele>
        <time>2022-05-10T12:08:59Z</time>
      </trkpt>
      <trkpt lat="45.28463" lon="5.35686">
        <ele>678</ele>
        <time>2022-05-10T12:09:03Z</time>
      </trkpt>
      <trkpt lat="45.28462" lon="5.35689">
        <ele>678.20001220703</ele>
        <time>2022-05-10T12:09:04Z</time>
      </trkpt>
      <trkpt lat="45.28461" lon="5.35692">
        <ele>678.59997558594</ele>
        <time>2022-05-10T12:09:05Z</time>
      </trkpt>
      <trkpt lat="45.28458" lon="5.35698">
        <ele>679</ele>
        <time>2022-05-10T12:09:07Z</time>
      </trkpt>
      <trkpt lat="45.28457" lon="5.35699">
        <ele>679.40002441406</ele>
        <time>2022-05-10T12:09:08Z</time>
      </trkpt>
      <trkpt lat="45.28454" lon="5.35702">
        <ele>679.79998779297</ele>
        <time>2022-05-10T12:09:11Z</time>
      </trkpt>
      <trkpt lat="45.2845" lon="5.35704">
        <ele>680.40002441406</ele>
        <time>2022-05-10T12:09:13Z</time>
      </trkpt>
      <trkpt lat="45.28447" lon="5.3571">
        <ele>681.20001220703</ele>
        <time>2022-05-10T12:09:16Z</time>
      </trkpt>
      <trkpt lat="45.28445" lon="5.35713">
        <ele>681.59997558594</ele>
        <time>2022-05-10T12:09:17Z</time>
      </trkpt>
      <trkpt lat="45.28436" lon="5.35726">
        <ele>682.59997558594</ele>
        <time>2022-05-10T12:09:22Z</time>
      </trkpt>
      <trkpt lat="45.28436" lon="5.35728">
        <ele>682.59997558594</ele>
        <time>2022-05-10T12:09:23Z</time>
      </trkpt>
      <trkpt lat="45.28437" lon="5.35738">
        <ele>683.20001220703</ele>
        <time>2022-05-10T12:09:26Z</time>
      </trkpt>
      <trkpt lat="45.28441" lon="5.35745">
        <ele>683.59997558594</ele>
        <time>2022-05-10T12:09:28Z</time>
      </trkpt>
      <trkpt lat="45.28444" lon="5.35748">
        <ele>683.79998779297</ele>
        <time>2022-05-10T12:09:29Z</time>
      </trkpt>
      <trkpt lat="45.28456" lon="5.35761">
        <ele>684.59997558594</ele>
        <time>2022-05-10T12:09:36Z</time>
      </trkpt>
      <trkpt lat="45.28457" lon="5.35762">
        <ele>684.79998779297</ele>
        <time>2022-05-10T12:09:37Z</time>
      </trkpt>
      <trkpt lat="45.2846" lon="5.35769">
        <ele>685.40002441406</ele>
        <time>2022-05-10T12:09:40Z</time>
      </trkpt>
      <trkpt lat="45.28463" lon="5.35784">
        <ele>685.59997558594</ele>
        <time>2022-05-10T12:09:44Z</time>
      </trkpt>
      <trkpt lat="45.28466" lon="5.3581">
        <ele>686.40002441406</ele>
        <time>2022-05-10T12:09:50Z</time>
      </trkpt>
      <trkpt lat="45.28468" lon="5.35814">
        <ele>686.79998779297</ele>
        <time>2022-05-10T12:09:51Z</time>
      </trkpt>
      <trkpt lat="45.28475" lon="5.35833">
        <ele>687.20001220703</ele>
        <time>2022-05-10T12:09:55Z</time>
      </trkpt>
      <trkpt lat="45.28477" lon="5.35835">
        <ele>687.40002441406</ele>
        <time>2022-05-10T12:09:56Z</time>
      </trkpt>
      <trkpt lat="45.28482" lon="5.35845">
        <ele>687.59997558594</ele>
        <time>2022-05-10T12:09:58Z</time>
      </trkpt>
      <trkpt lat="45.2849" lon="5.35866">
        <ele>687.59997558594</ele>
        <time>2022-05-10T12:10:01Z</time>
      </trkpt>
      <trkpt lat="45.28492" lon="5.35873">
        <ele>687.40002441406</ele>
        <time>2022-05-10T12:10:02Z</time>
      </trkpt>
      <trkpt lat="45.28493" lon="5.35891">
        <ele>687.40002441406</ele>
        <time>2022-05-10T12:10:04Z</time>
      </trkpt>
      <trkpt lat="45.2849" lon="5.35915">
        <ele>687.20001220703</ele>
        <time>2022-05-10T12:10:06Z</time>
      </trkpt>
      <trkpt lat="45.28489" lon="5.35929">
        <ele>687</ele>
        <time>2022-05-10T12:10:07Z</time>
      </trkpt>
      <trkpt lat="45.28489" lon="5.35958">
        <ele>686</ele>
        <time>2022-05-10T12:10:09Z</time>
      </trkpt>
      <trkpt lat="45.2849" lon="5.35975">
        <ele>685.79998779297</ele>
        <time>2022-05-10T12:10:10Z</time>
      </trkpt>
      <trkpt lat="45.28493" lon="5.3599">
        <ele>685.59997558594</ele>
        <time>2022-05-10T12:10:11Z</time>
      </trkpt>
      <trkpt lat="45.28497" lon="5.36005">
        <ele>684.79998779297</ele>
        <time>2022-05-10T12:10:12Z</time>
      </trkpt>
      <trkpt lat="45.28501" lon="5.36019">
        <ele>684.59997558594</ele>
        <time>2022-05-10T12:10:13Z</time>
      </trkpt>
      <trkpt lat="45.28506" lon="5.36034">
        <ele>683.40002441406</ele>
        <time>2022-05-10T12:10:14Z</time>
      </trkpt>
      <trkpt lat="45.28516" lon="5.36067">
        <ele>681.59997558594</ele>
        <time>2022-05-10T12:10:16Z</time>
      </trkpt>
      <trkpt lat="45.2852" lon="5.36085">
        <ele>681.40002441406</ele>
        <time>2022-05-10T12:10:17Z</time>
      </trkpt>
      <trkpt lat="45.28523" lon="5.36102">
        <ele>680.40002441406</ele>
        <time>2022-05-10T12:10:18Z</time>
      </trkpt>
      <trkpt lat="45.28524" lon="5.36133">
        <ele>678.59997558594</ele>
        <time>2022-05-10T12:10:20Z</time>
      </trkpt>
      <trkpt lat="45.28524" lon="5.36146">
        <ele>677.59997558594</ele>
        <time>2022-05-10T12:10:21Z</time>
      </trkpt>
      <trkpt lat="45.28526" lon="5.36167">
        <ele>676.40002441406</ele>
        <time>2022-05-10T12:10:23Z</time>
      </trkpt>
      <trkpt lat="45.28527" lon="5.36175">
        <ele>676.20001220703</ele>
        <time>2022-05-10T12:10:24Z</time>
      </trkpt>
      <trkpt lat="45.2853" lon="5.36193">
        <ele>675.59997558594</ele>
        <time>2022-05-10T12:10:27Z</time>
      </trkpt>
      <trkpt lat="45.28535" lon="5.36212">
        <ele>676</ele>
        <time>2022-05-10T12:10:32Z</time>
      </trkpt>
      <trkpt lat="45.28536" lon="5.36216">
        <ele>676.20001220703</ele>
        <time>2022-05-10T12:10:33Z</time>
      </trkpt>
      <trkpt lat="45.28547" lon="5.36237">
        <ele>677.40002441406</ele>
        <time>2022-05-10T12:10:39Z</time>
      </trkpt>
      <trkpt lat="45.28551" lon="5.36244">
        <ele>677.79998779297</ele>
        <time>2022-05-10T12:10:41Z</time>
      </trkpt>
      <trkpt lat="45.2856" lon="5.36261">
        <ele>678.59997558594</ele>
        <time>2022-05-10T12:10:46Z</time>
      </trkpt>
      <trkpt lat="45.28569" lon="5.36278">
        <ele>679.40002441406</ele>
        <time>2022-05-10T12:10:51Z</time>
      </trkpt>
      <trkpt lat="45.28573" lon="5.36285">
        <ele>679.59997558594</ele>
        <time>2022-05-10T12:10:53Z</time>
      </trkpt>
      <trkpt lat="45.28585" lon="5.36309">
        <ele>680.59997558594</ele>
        <time>2022-05-10T12:11:00Z</time>
      </trkpt>
      <trkpt lat="45.28588" lon="5.36316">
        <ele>681</ele>
        <time>2022-05-10T12:11:02Z</time>
      </trkpt>
      <trkpt lat="45.28593" lon="5.36331">
        <ele>681.79998779297</ele>
        <time>2022-05-10T12:11:06Z</time>
      </trkpt>
      <trkpt lat="45.28596" lon="5.36348">
        <ele>682.79998779297</ele>
        <time>2022-05-10T12:11:10Z</time>
      </trkpt>
      <trkpt lat="45.28596" lon="5.36352">
        <ele>683</ele>
        <time>2022-05-10T12:11:11Z</time>
      </trkpt>
      <trkpt lat="45.28595" lon="5.36381">
        <ele>684</ele>
        <time>2022-05-10T12:11:18Z</time>
      </trkpt>
      <trkpt lat="45.28596" lon="5.36394">
        <ele>684.59997558594</ele>
        <time>2022-05-10T12:11:22Z</time>
      </trkpt>
      <trkpt lat="45.28596" lon="5.364">
        <ele>685.20001220703</ele>
        <time>2022-05-10T12:11:24Z</time>
      </trkpt>
      <trkpt lat="45.28598" lon="5.36412">
        <ele>686.40002441406</ele>
        <time>2022-05-10T12:11:29Z</time>
      </trkpt>
      <trkpt lat="45.28598" lon="5.36415">
        <ele>686.40002441406</ele>
        <time>2022-05-10T12:11:30Z</time>
      </trkpt>
      <trkpt lat="45.286" lon="5.36419">
        <ele>687.59997558594</ele>
        <time>2022-05-10T12:11:32Z</time>
      </trkpt>
      <trkpt lat="45.28604" lon="5.36429">
        <ele>688.40002441406</ele>
        <time>2022-05-10T12:11:36Z</time>
      </trkpt>
      <trkpt lat="45.28606" lon="5.36436">
        <ele>689.59997558594</ele>
        <time>2022-05-10T12:11:39Z</time>
      </trkpt>
      <trkpt lat="45.28607" lon="5.36442">
        <ele>690.59997558594</ele>
        <time>2022-05-10T12:11:41Z</time>
      </trkpt>
      <trkpt lat="45.28606" lon="5.36447">
        <ele>691</ele>
        <time>2022-05-10T12:11:43Z</time>
      </trkpt>
      <trkpt lat="45.28607" lon="5.36458">
        <ele>691.79998779297</ele>
        <time>2022-05-10T12:11:47Z</time>
      </trkpt>
      <trkpt lat="45.28608" lon="5.36469">
        <ele>692.79998779297</ele>
        <time>2022-05-10T12:11:51Z</time>
      </trkpt>
      <trkpt lat="45.28609" lon="5.36472">
        <ele>692.79998779297</ele>
        <time>2022-05-10T12:11:52Z</time>
      </trkpt>
      <trkpt lat="45.28613" lon="5.36498">
        <ele>693.79998779297</ele>
        <time>2022-05-10T12:12:00Z</time>
      </trkpt>
      <trkpt lat="45.28613" lon="5.36503">
        <ele>694</ele>
        <time>2022-05-10T12:12:02Z</time>
      </trkpt>
      <trkpt lat="45.28613" lon="5.36514">
        <ele>694.59997558594</ele>
        <time>2022-05-10T12:12:07Z</time>
      </trkpt>
      <trkpt lat="45.28613" lon="5.36523">
        <ele>695</ele>
        <time>2022-05-10T12:12:10Z</time>
      </trkpt>
      <trkpt lat="45.28613" lon="5.36535">
        <ele>696</ele>
        <time>2022-05-10T12:12:15Z</time>
      </trkpt>
      <trkpt lat="45.28612" lon="5.36537">
        <ele>696.20001220703</ele>
        <time>2022-05-10T12:12:16Z</time>
      </trkpt>
      <trkpt lat="45.28612" lon="5.36541">
        <ele>696.40002441406</ele>
        <time>2022-05-10T12:12:18Z</time>
      </trkpt>
      <trkpt lat="45.28612" lon="5.36546">
        <ele>697</ele>
        <time>2022-05-10T12:12:20Z</time>
      </trkpt>
      <trkpt lat="45.28612" lon="5.36548">
        <ele>697.20001220703</ele>
        <time>2022-05-10T12:12:21Z</time>
      </trkpt>
      <trkpt lat="45.28612" lon="5.36556">
        <ele>698.40002441406</ele>
        <time>2022-05-10T12:12:26Z</time>
      </trkpt>
      <trkpt lat="45.28613" lon="5.36559">
        <ele>699.20001220703</ele>
        <time>2022-05-10T12:12:28Z</time>
      </trkpt>
      <trkpt lat="45.28613" lon="5.36563">
        <ele>699.59997558594</ele>
        <time>2022-05-10T12:12:30Z</time>
      </trkpt>
      <trkpt lat="45.28611" lon="5.36574">
        <ele>701</ele>
        <time>2022-05-10T12:12:35Z</time>
      </trkpt>
      <trkpt lat="45.28611" lon="5.36577">
        <ele>701</ele>
        <time>2022-05-10T12:12:36Z</time>
      </trkpt>
      <trkpt lat="45.28607" lon="5.36598">
        <ele>701.59997558594</ele>
        <time>2022-05-10T12:12:43Z</time>
      </trkpt>
      <trkpt lat="45.28604" lon="5.36623">
        <ele>701.59997558594</ele>
        <time>2022-05-10T12:12:50Z</time>
      </trkpt>
      <trkpt lat="45.28607" lon="5.36653">
        <ele>701</ele>
        <time>2022-05-10T12:12:54Z</time>
      </trkpt>
      <trkpt lat="45.28609" lon="5.36684">
        <ele>699.59997558594</ele>
        <time>2022-05-10T12:12:58Z</time>
      </trkpt>
      <trkpt lat="45.28608" lon="5.36692">
        <ele>699.59997558594</ele>
        <time>2022-05-10T12:12:59Z</time>
      </trkpt>
      <trkpt lat="45.28607" lon="5.36699">
        <ele>698.20001220703</ele>
        <time>2022-05-10T12:13:00Z</time>
      </trkpt>
      <trkpt lat="45.286" lon="5.3671">
        <ele>696.79998779297</ele>
        <time>2022-05-10T12:13:02Z</time>
      </trkpt>
      <trkpt lat="45.28571" lon="5.36737">
        <ele>695.79998779297</ele>
        <time>2022-05-10T12:13:07Z</time>
      </trkpt>
      <trkpt lat="45.28535" lon="5.36761">
        <ele>694.40002441406</ele>
        <time>2022-05-10T12:13:13Z</time>
      </trkpt>
      <trkpt lat="45.28528" lon="5.36765">
        <ele>694</ele>
        <time>2022-05-10T12:13:14Z</time>
      </trkpt>
      <trkpt lat="45.28516" lon="5.36773">
        <ele>693.59997558594</ele>
        <time>2022-05-10T12:13:16Z</time>
      </trkpt>
      <trkpt lat="45.28505" lon="5.36781">
        <ele>693.40002441406</ele>
        <time>2022-05-10T12:13:18Z</time>
      </trkpt>
      <trkpt lat="45.28495" lon="5.36788">
        <ele>693.40002441406</ele>
        <time>2022-05-10T12:13:20Z</time>
      </trkpt>
      <trkpt lat="45.28495" lon="5.36795">
        <ele>693.40002441406</ele>
        <time>2022-05-10T12:13:21Z</time>
      </trkpt>
      <trkpt lat="45.28495" lon="5.36811">
        <ele>693.40002441406</ele>
        <time>2022-05-10T12:13:23Z</time>
      </trkpt>
      <trkpt lat="45.28499" lon="5.36831">
        <ele>693.40002441406</ele>
        <time>2022-05-10T12:13:25Z</time>
      </trkpt>
      <trkpt lat="45.285" lon="5.36842">
        <ele>693.40002441406</ele>
        <time>2022-05-10T12:13:26Z</time>
      </trkpt>
      <trkpt lat="45.285" lon="5.36853">
        <ele>693.20001220703</ele>
        <time>2022-05-10T12:13:27Z</time>
      </trkpt>
      <trkpt lat="45.28499" lon="5.36862">
        <ele>693</ele>
        <time>2022-05-10T12:13:28Z</time>
      </trkpt>
      <trkpt lat="45.28491" lon="5.36877">
        <ele>692.40002441406</ele>
        <time>2022-05-10T12:13:30Z</time>
      </trkpt>
      <trkpt lat="45.28486" lon="5.36883">
        <ele>692</ele>
        <time>2022-05-10T12:13:31Z</time>
      </trkpt>
      <trkpt lat="45.28472" lon="5.36897">
        <ele>691.40002441406</ele>
        <time>2022-05-10T12:13:34Z</time>
      </trkpt>
      <trkpt lat="45.28464" lon="5.36906">
        <ele>691.20001220703</ele>
        <time>2022-05-10T12:13:36Z</time>
      </trkpt>
      <trkpt lat="45.28456" lon="5.36914">
        <ele>691</ele>
        <time>2022-05-10T12:13:38Z</time>
      </trkpt>
      <trkpt lat="45.28441" lon="5.36926">
        <ele>691</ele>
        <time>2022-05-10T12:13:41Z</time>
      </trkpt>
      <trkpt lat="45.28426" lon="5.36935">
        <ele>690.79998779297</ele>
        <time>2022-05-10T12:13:44Z</time>
      </trkpt>
      <trkpt lat="45.28411" lon="5.36945">
        <ele>690.40002441406</ele>
        <time>2022-05-10T12:13:47Z</time>
      </trkpt>
      <trkpt lat="45.28406" lon="5.36946">
        <ele>690.20001220703</ele>
        <time>2022-05-10T12:13:48Z</time>
      </trkpt>
      <trkpt lat="45.28378" lon="5.3695">
        <ele>689.79998779297</ele>
        <time>2022-05-10T12:13:53Z</time>
      </trkpt>
      <trkpt lat="45.28368" lon="5.36958">
        <ele>689.79998779297</ele>
        <time>2022-05-10T12:13:55Z</time>
      </trkpt>
      <trkpt lat="45.28358" lon="5.3697">
        <ele>689.40002441406</ele>
        <time>2022-05-10T12:13:57Z</time>
      </trkpt>
      <trkpt lat="45.28353" lon="5.36982">
        <ele>689</ele>
        <time>2022-05-10T12:14:00Z</time>
      </trkpt>
      <trkpt lat="45.2835" lon="5.3699">
        <ele>688.79998779297</ele>
        <time>2022-05-10T12:14:02Z</time>
      </trkpt>
      <trkpt lat="45.28346" lon="5.36994">
        <ele>688.79998779297</ele>
        <time>2022-05-10T12:14:03Z</time>
      </trkpt>
      <trkpt lat="45.28341" lon="5.37005">
        <ele>689</ele>
        <time>2022-05-10T12:14:06Z</time>
      </trkpt>
      <trkpt lat="45.28332" lon="5.3702">
        <ele>690.20001220703</ele>
        <time>2022-05-10T12:14:11Z</time>
      </trkpt>
      <trkpt lat="45.28327" lon="5.37034">
        <ele>690.79998779297</ele>
        <time>2022-05-10T12:14:14Z</time>
      </trkpt>
      <trkpt lat="45.28323" lon="5.37045">
        <ele>691</ele>
        <time>2022-05-10T12:14:16Z</time>
      </trkpt>
      <trkpt lat="45.28304" lon="5.37066">
        <ele>691.40002441406</ele>
        <time>2022-05-10T12:14:21Z</time>
      </trkpt>
      <trkpt lat="45.28285" lon="5.37069">
        <ele>691.59997558594</ele>
        <time>2022-05-10T12:14:26Z</time>
      </trkpt>
      <trkpt lat="45.28272" lon="5.37065">
        <ele>691.79998779297</ele>
        <time>2022-05-10T12:14:29Z</time>
      </trkpt>
      <trkpt lat="45.28267" lon="5.37065">
        <ele>691.79998779297</ele>
        <time>2022-05-10T12:14:30Z</time>
      </trkpt>
      <trkpt lat="45.28259" lon="5.37067">
        <ele>691.79998779297</ele>
        <time>2022-05-10T12:14:32Z</time>
      </trkpt>
      <trkpt lat="45.28236" lon="5.37081">
        <ele>692.40002441406</ele>
        <time>2022-05-10T12:14:39Z</time>
      </trkpt>
      <trkpt lat="45.28229" lon="5.37089">
        <ele>692.79998779297</ele>
        <time>2022-05-10T12:14:42Z</time>
      </trkpt>
      <trkpt lat="45.2822" lon="5.37103">
        <ele>693.59997558594</ele>
        <time>2022-05-10T12:14:47Z</time>
      </trkpt>
      <trkpt lat="45.28218" lon="5.37105">
        <ele>693.79998779297</ele>
        <time>2022-05-10T12:14:48Z</time>
      </trkpt>
      <trkpt lat="45.28214" lon="5.37117">
        <ele>694.59997558594</ele>
        <time>2022-05-10T12:14:52Z</time>
      </trkpt>
      <trkpt lat="45.28213" lon="5.3712">
        <ele>695</ele>
        <time>2022-05-10T12:14:53Z</time>
      </trkpt>
      <trkpt lat="45.28209" lon="5.3713">
        <ele>696</ele>
        <time>2022-05-10T12:14:57Z</time>
      </trkpt>
      <trkpt lat="45.28205" lon="5.3714">
        <ele>697</ele>
        <time>2022-05-10T12:15:01Z</time>
      </trkpt>
      <trkpt lat="45.28204" lon="5.37143">
        <ele>697.40002441406</ele>
        <time>2022-05-10T12:15:02Z</time>
      </trkpt>
      <trkpt lat="45.282" lon="5.37153">
        <ele>698.59997558594</ele>
        <time>2022-05-10T12:15:06Z</time>
      </trkpt>
      <trkpt lat="45.28199" lon="5.3716">
        <ele>698.79998779297</ele>
        <time>2022-05-10T12:15:08Z</time>
      </trkpt>
      <trkpt lat="45.28189" lon="5.37174">
        <ele>699.20001220703</ele>
        <time>2022-05-10T12:15:12Z</time>
      </trkpt>
      <trkpt lat="45.28182" lon="5.37183">
        <ele>699.20001220703</ele>
        <time>2022-05-10T12:15:14Z</time>
      </trkpt>
      <trkpt lat="45.28174" lon="5.37193">
        <ele>699.40002441406</ele>
        <time>2022-05-10T12:15:16Z</time>
      </trkpt>
      <trkpt lat="45.28153" lon="5.37221">
        <ele>699.59997558594</ele>
        <time>2022-05-10T12:15:22Z</time>
      </trkpt>
      <trkpt lat="45.28147" lon="5.37231">
        <ele>699.59997558594</ele>
        <time>2022-05-10T12:15:24Z</time>
      </trkpt>
      <trkpt lat="45.28126" lon="5.37265">
        <ele>700.20001220703</ele>
        <time>2022-05-10T12:15:31Z</time>
      </trkpt>
      <trkpt lat="45.28119" lon="5.3728">
        <ele>700.59997558594</ele>
        <time>2022-05-10T12:15:34Z</time>
      </trkpt>
      <trkpt lat="45.28116" lon="5.3729">
        <ele>701</ele>
        <time>2022-05-10T12:15:36Z</time>
      </trkpt>
      <trkpt lat="45.28115" lon="5.37296">
        <ele>701</ele>
        <time>2022-05-10T12:15:37Z</time>
      </trkpt>
      <trkpt lat="45.28111" lon="5.37314">
        <ele>701.59997558594</ele>
        <time>2022-05-10T12:15:41Z</time>
      </trkpt>
      <trkpt lat="45.2811" lon="5.37319">
        <ele>701.79998779297</ele>
        <time>2022-05-10T12:15:42Z</time>
      </trkpt>
      <trkpt lat="45.28106" lon="5.37342">
        <ele>702.79998779297</ele>
        <time>2022-05-10T12:15:47Z</time>
      </trkpt>
      <trkpt lat="45.28104" lon="5.37353">
        <ele>703</ele>
        <time>2022-05-10T12:15:49Z</time>
      </trkpt>
      <trkpt lat="45.28103" lon="5.37372">
        <ele>704.20001220703</ele>
        <time>2022-05-10T12:15:54Z</time>
      </trkpt>
      <trkpt lat="45.28104" lon="5.37379">
        <ele>704.40002441406</ele>
        <time>2022-05-10T12:15:56Z</time>
      </trkpt>
      <trkpt lat="45.28103" lon="5.37389">
        <ele>705.40002441406</ele>
        <time>2022-05-10T12:15:59Z</time>
      </trkpt>
      <trkpt lat="45.28103" lon="5.37404">
        <ele>706.20001220703</ele>
        <time>2022-05-10T12:16:03Z</time>
      </trkpt>
      <trkpt lat="45.28103" lon="5.37411">
        <ele>706.79998779297</ele>
        <time>2022-05-10T12:16:05Z</time>
      </trkpt>
      <trkpt lat="45.28103" lon="5.37425">
        <ele>707.79998779297</ele>
        <time>2022-05-10T12:16:09Z</time>
      </trkpt>
      <trkpt lat="45.28104" lon="5.37432">
        <ele>708.20001220703</ele>
        <time>2022-05-10T12:16:11Z</time>
      </trkpt>
      <trkpt lat="45.28104" lon="5.37445">
        <ele>709</ele>
        <time>2022-05-10T12:16:14Z</time>
      </trkpt>
      <trkpt lat="45.28106" lon="5.37462">
        <ele>709.79998779297</ele>
        <time>2022-05-10T12:16:18Z</time>
      </trkpt>
      <trkpt lat="45.28107" lon="5.3747">
        <ele>710</ele>
        <time>2022-05-10T12:16:20Z</time>
      </trkpt>
      <trkpt lat="45.2811" lon="5.37496">
        <ele>710.40002441406</ele>
        <time>2022-05-10T12:16:25Z</time>
      </trkpt>
      <trkpt lat="45.2811" lon="5.37517">
        <ele>711</ele>
        <time>2022-05-10T12:16:29Z</time>
      </trkpt>
      <trkpt lat="45.2811" lon="5.37532">
        <ele>711.20001220703</ele>
        <time>2022-05-10T12:16:32Z</time>
      </trkpt>
      <trkpt lat="45.28101" lon="5.37578">
        <ele>711.59997558594</ele>
        <time>2022-05-10T12:16:41Z</time>
      </trkpt>
      <trkpt lat="45.28094" lon="5.37606">
        <ele>712</ele>
        <time>2022-05-10T12:16:47Z</time>
      </trkpt>
      <trkpt lat="45.28087" lon="5.37634">
        <ele>712.59997558594</ele>
        <time>2022-05-10T12:16:53Z</time>
      </trkpt>
      <trkpt lat="45.28084" lon="5.37646">
        <ele>713</ele>
        <time>2022-05-10T12:16:57Z</time>
      </trkpt>
      <trkpt lat="45.28081" lon="5.37654">
        <ele>713.59997558594</ele>
        <time>2022-05-10T12:17:00Z</time>
      </trkpt>
      <trkpt lat="45.28079" lon="5.37658">
        <ele>714.20001220703</ele>
        <time>2022-05-10T12:17:02Z</time>
      </trkpt>
      <trkpt lat="45.28075" lon="5.37669">
        <ele>715.40002441406</ele>
        <time>2022-05-10T12:17:07Z</time>
      </trkpt>
      <trkpt lat="45.28074" lon="5.37672">
        <ele>715.59997558594</ele>
        <time>2022-05-10T12:17:08Z</time>
      </trkpt>
      <trkpt lat="45.28068" lon="5.37679">
        <ele>716.79998779297</ele>
        <time>2022-05-10T12:17:12Z</time>
      </trkpt>
      <trkpt lat="45.28064" lon="5.37687">
        <ele>717.59997558594</ele>
        <time>2022-05-10T12:17:16Z</time>
      </trkpt>
      <trkpt lat="45.28061" lon="5.3769">
        <ele>718</ele>
        <time>2022-05-10T12:17:18Z</time>
      </trkpt>
      <trkpt lat="45.28058" lon="5.37696">
        <ele>719.20001220703</ele>
        <time>2022-05-10T12:17:21Z</time>
      </trkpt>
      <trkpt lat="45.28054" lon="5.37702">
        <ele>719.79998779297</ele>
        <time>2022-05-10T12:17:24Z</time>
      </trkpt>
      <trkpt lat="45.28051" lon="5.37706">
        <ele>720.40002441406</ele>
        <time>2022-05-10T12:17:27Z</time>
      </trkpt>
      <trkpt lat="45.28044" lon="5.37715">
        <ele>721.59997558594</ele>
        <time>2022-05-10T12:17:32Z</time>
      </trkpt>
      <trkpt lat="45.28042" lon="5.37721">
        <ele>722</ele>
        <time>2022-05-10T12:17:35Z</time>
      </trkpt>
      <trkpt lat="45.28039" lon="5.37722">
        <ele>722.79998779297</ele>
        <time>2022-05-10T12:17:37Z</time>
      </trkpt>
      <trkpt lat="45.28038" lon="5.37723">
        <ele>723</ele>
        <time>2022-05-10T12:17:38Z</time>
      </trkpt>
      <trkpt lat="45.28034" lon="5.37731">
        <ele>723.79998779297</ele>
        <time>2022-05-10T12:17:42Z</time>
      </trkpt>
      <trkpt lat="45.28031" lon="5.3774">
        <ele>725.20001220703</ele>
        <time>2022-05-10T12:17:46Z</time>
      </trkpt>
      <trkpt lat="45.2803" lon="5.37744">
        <ele>725.59997558594</ele>
        <time>2022-05-10T12:17:48Z</time>
      </trkpt>
      <trkpt lat="45.2803" lon="5.37747">
        <ele>726.20001220703</ele>
        <time>2022-05-10T12:17:50Z</time>
      </trkpt>
      <trkpt lat="45.28031" lon="5.37754">
        <ele>727</ele>
        <time>2022-05-10T12:17:53Z</time>
      </trkpt>
      <trkpt lat="45.28032" lon="5.37759">
        <ele>727.40002441406</ele>
        <time>2022-05-10T12:17:55Z</time>
      </trkpt>
      <trkpt lat="45.28034" lon="5.37769">
        <ele>728.59997558594</ele>
        <time>2022-05-10T12:17:59Z</time>
      </trkpt>
      <trkpt lat="45.28034" lon="5.37772">
        <ele>728.79998779297</ele>
        <time>2022-05-10T12:18:00Z</time>
      </trkpt>
      <trkpt lat="45.28036" lon="5.37783">
        <ele>729.59997558594</ele>
        <time>2022-05-10T12:18:04Z</time>
      </trkpt>
      <trkpt lat="45.28038" lon="5.37792">
        <ele>730.40002441406</ele>
        <time>2022-05-10T12:18:09Z</time>
      </trkpt>
      <trkpt lat="45.28038" lon="5.37794">
        <ele>730.40002441406</ele>
        <time>2022-05-10T12:18:10Z</time>
      </trkpt>
      <trkpt lat="45.28038" lon="5.37794">
        <ele>730.59997558594</ele>
        <time>2022-05-10T12:18:12Z</time>
      </trkpt>
      <trkpt lat="45.28039" lon="5.37794">
        <ele>730.79998779297</ele>
        <time>2022-05-10T12:21:23Z</time>
      </trkpt>
      <trkpt lat="45.2804" lon="5.37801">
        <ele>730.79998779297</ele>
        <time>2022-05-10T12:21:26Z</time>
      </trkpt>
      <trkpt lat="45.28042" lon="5.37821">
        <ele>731</ele>
        <time>2022-05-10T12:21:31Z</time>
      </trkpt>
      <trkpt lat="45.28043" lon="5.37847">
        <ele>731</ele>
        <time>2022-05-10T12:21:35Z</time>
      </trkpt>
      <trkpt lat="45.28043" lon="5.37864">
        <ele>731</ele>
        <time>2022-05-10T12:21:37Z</time>
      </trkpt>
      <trkpt lat="45.28041" lon="5.37881">
        <ele>731</ele>
        <time>2022-05-10T12:21:39Z</time>
      </trkpt>
      <trkpt lat="45.28039" lon="5.37927">
        <ele>730.20001220703</ele>
        <time>2022-05-10T12:21:44Z</time>
      </trkpt>
      <trkpt lat="45.2804" lon="5.37949">
        <ele>729.79998779297</ele>
        <time>2022-05-10T12:21:47Z</time>
      </trkpt>
      <trkpt lat="45.28041" lon="5.37962">
        <ele>729.59997558594</ele>
        <time>2022-05-10T12:21:49Z</time>
      </trkpt>
      <trkpt lat="45.28043" lon="5.37974">
        <ele>729.40002441406</ele>
        <time>2022-05-10T12:21:51Z</time>
      </trkpt>
      <trkpt lat="45.28051" lon="5.37999">
        <ele>729.40002441406</ele>
        <time>2022-05-10T12:21:55Z</time>
      </trkpt>
      <trkpt lat="45.28067" lon="5.38042">
        <ele>729</ele>
        <time>2022-05-10T12:22:00Z</time>
      </trkpt>
      <trkpt lat="45.28071" lon="5.38051">
        <ele>728.59997558594</ele>
        <time>2022-05-10T12:22:01Z</time>
      </trkpt>
      <trkpt lat="45.28082" lon="5.38067">
        <ele>728</ele>
        <time>2022-05-10T12:22:03Z</time>
      </trkpt>
      <trkpt lat="45.28086" lon="5.38076">
        <ele>727.79998779297</ele>
        <time>2022-05-10T12:22:04Z</time>
      </trkpt>
      <trkpt lat="45.28089" lon="5.38086">
        <ele>727.40002441406</ele>
        <time>2022-05-10T12:22:05Z</time>
      </trkpt>
      <trkpt lat="45.28091" lon="5.38096">
        <ele>727.40002441406</ele>
        <time>2022-05-10T12:22:06Z</time>
      </trkpt>
      <trkpt lat="45.28092" lon="5.38107">
        <ele>727</ele>
        <time>2022-05-10T12:22:07Z</time>
      </trkpt>
      <trkpt lat="45.28089" lon="5.3813">
        <ele>726.40002441406</ele>
        <time>2022-05-10T12:22:09Z</time>
      </trkpt>
      <trkpt lat="45.28087" lon="5.38154">
        <ele>725.79998779297</ele>
        <time>2022-05-10T12:22:11Z</time>
      </trkpt>
      <trkpt lat="45.28087" lon="5.38177">
        <ele>725.40002441406</ele>
        <time>2022-05-10T12:22:13Z</time>
      </trkpt>
      <trkpt lat="45.28087" lon="5.382">
        <ele>724</ele>
        <time>2022-05-10T12:22:15Z</time>
      </trkpt>
      <trkpt lat="45.28087" lon="5.38241">
        <ele>722.79998779297</ele>
        <time>2022-05-10T12:22:19Z</time>
      </trkpt>
      <trkpt lat="45.28088" lon="5.3825">
        <ele>722.59997558594</ele>
        <time>2022-05-10T12:22:20Z</time>
      </trkpt>
      <trkpt lat="45.28089" lon="5.38291">
        <ele>722.40002441406</ele>
        <time>2022-05-10T12:22:25Z</time>
      </trkpt>
      <trkpt lat="45.28088" lon="5.38299">
        <ele>722.40002441406</ele>
        <time>2022-05-10T12:22:26Z</time>
      </trkpt>
      <trkpt lat="45.28079" lon="5.38363">
        <ele>721.59997558594</ele>
        <time>2022-05-10T12:22:33Z</time>
      </trkpt>
      <trkpt lat="45.28078" lon="5.38373">
        <ele>721.59997558594</ele>
        <time>2022-05-10T12:22:34Z</time>
      </trkpt>
      <trkpt lat="45.28073" lon="5.38399">
        <ele>720</ele>
        <time>2022-05-10T12:22:37Z</time>
      </trkpt>
      <trkpt lat="45.28069" lon="5.38427">
        <ele>718.40002441406</ele>
        <time>2022-05-10T12:22:40Z</time>
      </trkpt>
      <trkpt lat="45.28066" lon="5.38454">
        <ele>718.40002441406</ele>
        <time>2022-05-10T12:22:43Z</time>
      </trkpt>
      <trkpt lat="45.28062" lon="5.38488">
        <ele>717.79998779297</ele>
        <time>2022-05-10T12:22:47Z</time>
      </trkpt>
      <trkpt lat="45.28059" lon="5.38531">
        <ele>717.40002441406</ele>
        <time>2022-05-10T12:22:52Z</time>
      </trkpt>
      <trkpt lat="45.28057" lon="5.3858">
        <ele>716.79998779297</ele>
        <time>2022-05-10T12:22:58Z</time>
      </trkpt>
      <trkpt lat="45.28056" lon="5.38595">
        <ele>716.40002441406</ele>
        <time>2022-05-10T12:23:00Z</time>
      </trkpt>
      <trkpt lat="45.2806" lon="5.38643">
        <ele>716.20001220703</ele>
        <time>2022-05-10T12:23:06Z</time>
      </trkpt>
      <trkpt lat="45.28065" lon="5.38673">
        <ele>716.20001220703</ele>
        <time>2022-05-10T12:23:10Z</time>
      </trkpt>
      <trkpt lat="45.28066" lon="5.38689">
        <ele>716.20001220703</ele>
        <time>2022-05-10T12:23:12Z</time>
      </trkpt>
      <trkpt lat="45.28062" lon="5.38703">
        <ele>716.40002441406</ele>
        <time>2022-05-10T12:23:14Z</time>
      </trkpt>
      <trkpt lat="45.28057" lon="5.38717">
        <ele>716.20001220703</ele>
        <time>2022-05-10T12:23:16Z</time>
      </trkpt>
      <trkpt lat="45.28055" lon="5.38723">
        <ele>716.20001220703</ele>
        <time>2022-05-10T12:23:17Z</time>
      </trkpt>
      <trkpt lat="45.28043" lon="5.38749">
        <ele>716.20001220703</ele>
        <time>2022-05-10T12:23:21Z</time>
      </trkpt>
      <trkpt lat="45.2802" lon="5.38803">
        <ele>715.40002441406</ele>
        <time>2022-05-10T12:23:27Z</time>
      </trkpt>
      <trkpt lat="45.28006" lon="5.38851">
        <ele>714</ele>
        <time>2022-05-10T12:23:31Z</time>
      </trkpt>
      <trkpt lat="45.27998" lon="5.38876">
        <ele>713.20001220703</ele>
        <time>2022-05-10T12:23:33Z</time>
      </trkpt>
      <trkpt lat="45.27995" lon="5.38888">
        <ele>712.79998779297</ele>
        <time>2022-05-10T12:23:34Z</time>
      </trkpt>
      <trkpt lat="45.27988" lon="5.38914">
        <ele>711.59997558594</ele>
        <time>2022-05-10T12:23:36Z</time>
      </trkpt>
      <trkpt lat="45.27977" lon="5.38953">
        <ele>709.79998779297</ele>
        <time>2022-05-10T12:23:39Z</time>
      </trkpt>
      <trkpt lat="45.27971" lon="5.38981">
        <ele>708.79998779297</ele>
        <time>2022-05-10T12:23:41Z</time>
      </trkpt>
      <trkpt lat="45.27963" lon="5.39036">
        <ele>707.40002441406</ele>
        <time>2022-05-10T12:23:45Z</time>
      </trkpt>
      <trkpt lat="45.27962" lon="5.39048">
        <ele>707</ele>
        <time>2022-05-10T12:23:46Z</time>
      </trkpt>
      <trkpt lat="45.2796" lon="5.39068">
        <ele>706</ele>
        <time>2022-05-10T12:23:48Z</time>
      </trkpt>
      <trkpt lat="45.2796" lon="5.39075">
        <ele>705.59997558594</ele>
        <time>2022-05-10T12:23:49Z</time>
      </trkpt>
      <trkpt lat="45.2796" lon="5.39082">
        <ele>704.59997558594</ele>
        <time>2022-05-10T12:23:50Z</time>
      </trkpt>
      <trkpt lat="45.2796" lon="5.39088">
        <ele>704.20001220703</ele>
        <time>2022-05-10T12:23:51Z</time>
      </trkpt>
      <trkpt lat="45.27959" lon="5.39093">
        <ele>703.40002441406</ele>
        <time>2022-05-10T12:23:52Z</time>
      </trkpt>
      <trkpt lat="45.27958" lon="5.39097">
        <ele>703</ele>
        <time>2022-05-10T12:23:53Z</time>
      </trkpt>
      <trkpt lat="45.27959" lon="5.39102">
        <ele>702</ele>
        <time>2022-05-10T12:23:54Z</time>
      </trkpt>
      <trkpt lat="45.27962" lon="5.39106">
        <ele>701</ele>
        <time>2022-05-10T12:23:56Z</time>
      </trkpt>
      <trkpt lat="45.27965" lon="5.39108">
        <ele>700</ele>
        <time>2022-05-10T12:23:58Z</time>
      </trkpt>
      <trkpt lat="45.2797" lon="5.39112">
        <ele>699.40002441406</ele>
        <time>2022-05-10T12:24:01Z</time>
      </trkpt>
      <trkpt lat="45.27976" lon="5.39123">
        <ele>699.40002441406</ele>
        <time>2022-05-10T12:24:06Z</time>
      </trkpt>
      <trkpt lat="45.27974" lon="5.39152">
        <ele>699.79998779297</ele>
        <time>2022-05-10T12:24:13Z</time>
      </trkpt>
      <trkpt lat="45.27968" lon="5.3919">
        <ele>700.40002441406</ele>
        <time>2022-05-10T12:24:19Z</time>
      </trkpt>
      <trkpt lat="45.27963" lon="5.39222">
        <ele>701</ele>
        <time>2022-05-10T12:24:24Z</time>
      </trkpt>
      <trkpt lat="45.27962" lon="5.39228">
        <ele>701.20001220703</ele>
        <time>2022-05-10T12:24:25Z</time>
      </trkpt>
      <trkpt lat="45.27963" lon="5.39241">
        <ele>701.59997558594</ele>
        <time>2022-05-10T12:24:27Z</time>
      </trkpt>
      <trkpt lat="45.27966" lon="5.39262">
        <ele>702</ele>
        <time>2022-05-10T12:24:30Z</time>
      </trkpt>
      <trkpt lat="45.27967" lon="5.39269">
        <ele>702.20001220703</ele>
        <time>2022-05-10T12:24:31Z</time>
      </trkpt>
      <trkpt lat="45.27971" lon="5.39296">
        <ele>703</ele>
        <time>2022-05-10T12:24:35Z</time>
      </trkpt>
      <trkpt lat="45.27974" lon="5.3932">
        <ele>703.59997558594</ele>
        <time>2022-05-10T12:24:39Z</time>
      </trkpt>
      <trkpt lat="45.27978" lon="5.39371">
        <ele>704.20001220703</ele>
        <time>2022-05-10T12:24:47Z</time>
      </trkpt>
      <trkpt lat="45.27979" lon="5.39385">
        <ele>704.40002441406</ele>
        <time>2022-05-10T12:24:49Z</time>
      </trkpt>
      <trkpt lat="45.27978" lon="5.39428">
        <ele>705.40002441406</ele>
        <time>2022-05-10T12:24:56Z</time>
      </trkpt>
      <trkpt lat="45.27977" lon="5.39433">
        <ele>705.59997558594</ele>
        <time>2022-05-10T12:24:57Z</time>
      </trkpt>
      <trkpt lat="45.27976" lon="5.39437">
        <ele>705.79998779297</ele>
        <time>2022-05-10T12:24:58Z</time>
      </trkpt>
      <trkpt lat="45.27971" lon="5.39449">
        <ele>706.40002441406</ele>
        <time>2022-05-10T12:25:01Z</time>
      </trkpt>
      <trkpt lat="45.27968" lon="5.39454">
        <ele>706.59997558594</ele>
        <time>2022-05-10T12:25:02Z</time>
      </trkpt>
      <trkpt lat="45.27964" lon="5.39457">
        <ele>706.59997558594</ele>
        <time>2022-05-10T12:25:03Z</time>
      </trkpt>
      <trkpt lat="45.27949" lon="5.39468">
        <ele>706.79998779297</ele>
        <time>2022-05-10T12:25:06Z</time>
      </trkpt>
      <trkpt lat="45.27922" lon="5.39487">
        <ele>706.20001220703</ele>
        <time>2022-05-10T12:25:11Z</time>
      </trkpt>
      <trkpt lat="45.27907" lon="5.39498">
        <ele>705.20001220703</ele>
        <time>2022-05-10T12:25:14Z</time>
      </trkpt>
      <trkpt lat="45.27882" lon="5.39519">
        <ele>704</ele>
        <time>2022-05-10T12:25:19Z</time>
      </trkpt>
      <trkpt lat="45.27868" lon="5.39536">
        <ele>702.79998779297</ele>
        <time>2022-05-10T12:25:22Z</time>
      </trkpt>
      <trkpt lat="45.27863" lon="5.39552">
        <ele>702.20001220703</ele>
        <time>2022-05-10T12:25:24Z</time>
      </trkpt>
      <trkpt lat="45.27862" lon="5.39559">
        <ele>702.20001220703</ele>
        <time>2022-05-10T12:25:25Z</time>
      </trkpt>
      <trkpt lat="45.27863" lon="5.39567">
        <ele>702</ele>
        <time>2022-05-10T12:25:26Z</time>
      </trkpt>
      <trkpt lat="45.27864" lon="5.39582">
        <ele>701.79998779297</ele>
        <time>2022-05-10T12:25:28Z</time>
      </trkpt>
      <trkpt lat="45.27864" lon="5.39589">
        <ele>701.79998779297</ele>
        <time>2022-05-10T12:25:29Z</time>
      </trkpt>
      <trkpt lat="45.27864" lon="5.39595">
        <ele>701.79998779297</ele>
        <time>2022-05-10T12:25:30Z</time>
      </trkpt>
      <trkpt lat="45.27861" lon="5.39612">
        <ele>701.79998779297</ele>
        <time>2022-05-10T12:25:33Z</time>
      </trkpt>
      <trkpt lat="45.27855" lon="5.39631">
        <ele>702.40002441406</ele>
        <time>2022-05-10T12:25:38Z</time>
      </trkpt>
      <trkpt lat="45.27855" lon="5.39633">
        <ele>702.79998779297</ele>
        <time>2022-05-10T12:25:39Z</time>
      </trkpt>
      <trkpt lat="45.27852" lon="5.39644">
        <ele>704</ele>
        <time>2022-05-10T12:25:42Z</time>
      </trkpt>
      <trkpt lat="45.27851" lon="5.39647">
        <ele>704.20001220703</ele>
        <time>2022-05-10T12:25:43Z</time>
      </trkpt>
      <trkpt lat="45.27837" lon="5.39663">
        <ele>705.20001220703</ele>
        <time>2022-05-10T12:25:48Z</time>
      </trkpt>
      <trkpt lat="45.27835" lon="5.39666">
        <ele>705.20001220703</ele>
        <time>2022-05-10T12:25:49Z</time>
      </trkpt>
      <trkpt lat="45.27826" lon="5.3968">
        <ele>705.40002441406</ele>
        <time>2022-05-10T12:25:52Z</time>
      </trkpt>
      <trkpt lat="45.27816" lon="5.39691">
        <ele>705.59997558594</ele>
        <time>2022-05-10T12:25:54Z</time>
      </trkpt>
      <trkpt lat="45.27782" lon="5.39717">
        <ele>704.79998779297</ele>
        <time>2022-05-10T12:25:59Z</time>
      </trkpt>
      <trkpt lat="45.27771" lon="5.3973">
        <ele>704.40002441406</ele>
        <time>2022-05-10T12:26:01Z</time>
      </trkpt>
      <trkpt lat="45.27766" lon="5.39739">
        <ele>704</ele>
        <time>2022-05-10T12:26:02Z</time>
      </trkpt>
      <trkpt lat="45.27763" lon="5.39749">
        <ele>703.79998779297</ele>
        <time>2022-05-10T12:26:03Z</time>
      </trkpt>
      <trkpt lat="45.27765" lon="5.39768">
        <ele>703.20001220703</ele>
        <time>2022-05-10T12:26:05Z</time>
      </trkpt>
      <trkpt lat="45.27768" lon="5.39776">
        <ele>703.20001220703</ele>
        <time>2022-05-10T12:26:06Z</time>
      </trkpt>
      <trkpt lat="45.27773" lon="5.39784">
        <ele>702.79998779297</ele>
        <time>2022-05-10T12:26:07Z</time>
      </trkpt>
      <trkpt lat="45.27777" lon="5.3979">
        <ele>702.59997558594</ele>
        <time>2022-05-10T12:26:08Z</time>
      </trkpt>
      <trkpt lat="45.27787" lon="5.39805">
        <ele>702.20001220703</ele>
        <time>2022-05-10T12:26:11Z</time>
      </trkpt>
      <trkpt lat="45.27792" lon="5.39813">
        <ele>702.20001220703</ele>
        <time>2022-05-10T12:26:13Z</time>
      </trkpt>
      <trkpt lat="45.27816" lon="5.39843">
        <ele>703</ele>
        <time>2022-05-10T12:26:21Z</time>
      </trkpt>
      <trkpt lat="45.27833" lon="5.39861">
        <ele>703.59997558594</ele>
        <time>2022-05-10T12:26:26Z</time>
      </trkpt>
      <trkpt lat="45.27839" lon="5.39869">
        <ele>703.79998779297</ele>
        <time>2022-05-10T12:26:28Z</time>
      </trkpt>
      <trkpt lat="45.27852" lon="5.39885">
        <ele>704.40002441406</ele>
        <time>2022-05-10T12:26:32Z</time>
      </trkpt>
      <trkpt lat="45.27862" lon="5.39899">
        <ele>705.20001220703</ele>
        <time>2022-05-10T12:26:35Z</time>
      </trkpt>
      <trkpt lat="45.27869" lon="5.39916">
        <ele>706</ele>
        <time>2022-05-10T12:26:39Z</time>
      </trkpt>
      <trkpt lat="45.27871" lon="5.39926">
        <ele>706.40002441406</ele>
        <time>2022-05-10T12:26:41Z</time>
      </trkpt>
      <trkpt lat="45.27877" lon="5.39938">
        <ele>707</ele>
        <time>2022-05-10T12:26:44Z</time>
      </trkpt>
      <trkpt lat="45.2788" lon="5.39946">
        <ele>707.59997558594</ele>
        <time>2022-05-10T12:26:46Z</time>
      </trkpt>
      <trkpt lat="45.2789" lon="5.39964">
        <ele>708.59997558594</ele>
        <time>2022-05-10T12:26:51Z</time>
      </trkpt>
      <trkpt lat="45.27892" lon="5.39969">
        <ele>708.59997558594</ele>
        <time>2022-05-10T12:26:52Z</time>
      </trkpt>
      <trkpt lat="45.27896" lon="5.39988">
        <ele>708.59997558594</ele>
        <time>2022-05-10T12:26:56Z</time>
      </trkpt>
      <trkpt lat="45.2789" lon="5.40017">
        <ele>708.59997558594</ele>
        <time>2022-05-10T12:27:02Z</time>
      </trkpt>
      <trkpt lat="45.27881" lon="5.40036">
        <ele>708.40002441406</ele>
        <time>2022-05-10T12:27:06Z</time>
      </trkpt>
      <trkpt lat="45.2787" lon="5.40053">
        <ele>708.20001220703</ele>
        <time>2022-05-10T12:27:10Z</time>
      </trkpt>
      <trkpt lat="45.27851" lon="5.40073">
        <ele>707.79998779297</ele>
        <time>2022-05-10T12:27:14Z</time>
      </trkpt>
      <trkpt lat="45.27844" lon="5.40081">
        <ele>707.59997558594</ele>
        <time>2022-05-10T12:27:15Z</time>
      </trkpt>
      <trkpt lat="45.27811" lon="5.40111">
        <ele>706</ele>
        <time>2022-05-10T12:27:19Z</time>
      </trkpt>
      <trkpt lat="45.27795" lon="5.40126">
        <ele>704.59997558594</ele>
        <time>2022-05-10T12:27:22Z</time>
      </trkpt>
      <trkpt lat="45.27776" lon="5.40145">
        <ele>703.20001220703</ele>
        <time>2022-05-10T12:27:25Z</time>
      </trkpt>
      <trkpt lat="45.27764" lon="5.40156">
        <ele>701.79998779297</ele>
        <time>2022-05-10T12:27:27Z</time>
      </trkpt>
      <trkpt lat="45.27757" lon="5.40162">
        <ele>701.20001220703</ele>
        <time>2022-05-10T12:27:28Z</time>
      </trkpt>
      <trkpt lat="45.27751" lon="5.40163">
        <ele>700</ele>
        <time>2022-05-10T12:27:29Z</time>
      </trkpt>
      <trkpt lat="45.27736" lon="5.40169">
        <ele>698.79998779297</ele>
        <time>2022-05-10T12:27:31Z</time>
      </trkpt>
      <trkpt lat="45.27725" lon="5.40171">
        <ele>698.40002441406</ele>
        <time>2022-05-10T12:27:33Z</time>
      </trkpt>
      <trkpt lat="45.27706" lon="5.40172">
        <ele>697.79998779297</ele>
        <time>2022-05-10T12:27:36Z</time>
      </trkpt>
      <trkpt lat="45.27697" lon="5.40172">
        <ele>697.59997558594</ele>
        <time>2022-05-10T12:27:38Z</time>
      </trkpt>
      <trkpt lat="45.27684" lon="5.40169">
        <ele>698</ele>
        <time>2022-05-10T12:27:42Z</time>
      </trkpt>
      <trkpt lat="45.27683" lon="5.40167">
        <ele>698</ele>
        <time>2022-05-10T12:27:43Z</time>
      </trkpt>
      <trkpt lat="45.27673" lon="5.40186">
        <ele>698.20001220703</ele>
        <time>2022-05-10T12:27:46Z</time>
      </trkpt>
      <trkpt lat="45.27663" lon="5.40218">
        <ele>698.59997558594</ele>
        <time>2022-05-10T12:27:51Z</time>
      </trkpt>
      <trkpt lat="45.27657" lon="5.40232">
        <ele>698.79998779297</ele>
        <time>2022-05-10T12:27:54Z</time>
      </trkpt>
      <trkpt lat="45.27654" lon="5.4024">
        <ele>699.20001220703</ele>
        <time>2022-05-10T12:27:56Z</time>
      </trkpt>
      <trkpt lat="45.27656" lon="5.40252">
        <ele>700</ele>
        <time>2022-05-10T12:27:59Z</time>
      </trkpt>
      <trkpt lat="45.27662" lon="5.40258">
        <ele>701</ele>
        <time>2022-05-10T12:28:01Z</time>
      </trkpt>
      <trkpt lat="45.27676" lon="5.40277">
        <ele>702</ele>
        <time>2022-05-10T12:28:07Z</time>
      </trkpt>
      <trkpt lat="45.27677" lon="5.4028">
        <ele>702.20001220703</ele>
        <time>2022-05-10T12:28:08Z</time>
      </trkpt>
      <trkpt lat="45.27677" lon="5.40297">
        <ele>703.20001220703</ele>
        <time>2022-05-10T12:28:12Z</time>
      </trkpt>
      <trkpt lat="45.27678" lon="5.40299">
        <ele>703.20001220703</ele>
        <time>2022-05-10T12:28:13Z</time>
      </trkpt>
      <trkpt lat="45.27679" lon="5.4031">
        <ele>704.40002441406</ele>
        <time>2022-05-10T12:28:16Z</time>
      </trkpt>
      <trkpt lat="45.27681" lon="5.40311">
        <ele>704.59997558594</ele>
        <time>2022-05-10T12:28:17Z</time>
      </trkpt>
      <trkpt lat="45.27698" lon="5.40326">
        <ele>705</ele>
        <time>2022-05-10T12:28:24Z</time>
      </trkpt>
      <trkpt lat="45.27713" lon="5.40343">
        <ele>704.79998779297</ele>
        <time>2022-05-10T12:28:29Z</time>
      </trkpt>
      <trkpt lat="45.27717" lon="5.40355">
        <ele>703.40002441406</ele>
        <time>2022-05-10T12:28:33Z</time>
      </trkpt>
      <trkpt lat="45.27719" lon="5.40357">
        <ele>703.20001220703</ele>
        <time>2022-05-10T12:28:34Z</time>
      </trkpt>
      <trkpt lat="45.2772" lon="5.40363">
        <ele>702</ele>
        <time>2022-05-10T12:28:39Z</time>
      </trkpt>
      <trkpt lat="45.27721" lon="5.40365">
        <ele>701.59997558594</ele>
        <time>2022-05-10T12:28:40Z</time>
      </trkpt>
      <trkpt lat="45.27722" lon="5.40367">
        <ele>701.20001220703</ele>
        <time>2022-05-10T12:28:41Z</time>
      </trkpt>
      <trkpt lat="45.27724" lon="5.40369">
        <ele>700.79998779297</ele>
        <time>2022-05-10T12:28:42Z</time>
      </trkpt>
      <trkpt lat="45.27727" lon="5.40372">
        <ele>700</ele>
        <time>2022-05-10T12:28:44Z</time>
      </trkpt>
      <trkpt lat="45.27729" lon="5.40374">
        <ele>699.79998779297</ele>
        <time>2022-05-10T12:28:45Z</time>
      </trkpt>
      <trkpt lat="45.27731" lon="5.40376">
        <ele>698.20001220703</ele>
        <time>2022-05-10T12:28:47Z</time>
      </trkpt>
      <trkpt lat="45.27734" lon="5.40378">
        <ele>696.40002441406</ele>
        <time>2022-05-10T12:28:49Z</time>
      </trkpt>
      <trkpt lat="45.27735" lon="5.40378">
        <ele>696</ele>
        <time>2022-05-10T12:28:50Z</time>
      </trkpt>
      <trkpt lat="45.27737" lon="5.4038">
        <ele>695.20001220703</ele>
        <time>2022-05-10T12:28:51Z</time>
      </trkpt>
      <trkpt lat="45.27742" lon="5.40385">
        <ele>694</ele>
        <time>2022-05-10T12:28:54Z</time>
      </trkpt>
      <trkpt lat="45.27745" lon="5.40387">
        <ele>693.59997558594</ele>
        <time>2022-05-10T12:28:55Z</time>
      </trkpt>
      <trkpt lat="45.27751" lon="5.404">
        <ele>693.40002441406</ele>
        <time>2022-05-10T12:29:00Z</time>
      </trkpt>
      <trkpt lat="45.27753" lon="5.4041">
        <ele>693.79998779297</ele>
        <time>2022-05-10T12:29:03Z</time>
      </trkpt>
      <trkpt lat="45.27755" lon="5.40413">
        <ele>695.20001220703</ele>
        <time>2022-05-10T12:29:06Z</time>
      </trkpt>
      <trkpt lat="45.27755" lon="5.40413">
        <ele>696.40002441406</ele>
        <time>2022-05-10T12:29:08Z</time>
      </trkpt>
      <trkpt lat="45.27763" lon="5.40424">
        <ele>699.79998779297</ele>
        <time>2022-05-10T12:29:50Z</time>
      </trkpt>
      <trkpt lat="45.27772" lon="5.40431">
        <ele>700.40002441406</ele>
        <time>2022-05-10T12:29:54Z</time>
      </trkpt>
      <trkpt lat="45.27776" lon="5.40436">
        <ele>701</ele>
        <time>2022-05-10T12:29:57Z</time>
      </trkpt>
      <trkpt lat="45.27778" lon="5.40443">
        <ele>701.20001220703</ele>
        <time>2022-05-10T12:30:01Z</time>
      </trkpt>
      <trkpt lat="45.27775" lon="5.40447">
        <ele>701.40002441406</ele>
        <time>2022-05-10T12:30:04Z</time>
      </trkpt>
      <trkpt lat="45.27773" lon="5.40449">
        <ele>701.59997558594</ele>
        <time>2022-05-10T12:30:06Z</time>
      </trkpt>
      <trkpt lat="45.27772" lon="5.40454">
        <ele>701.79998779297</ele>
        <time>2022-05-10T12:30:08Z</time>
      </trkpt>
      <trkpt lat="45.27765" lon="5.40464">
        <ele>703</ele>
        <time>2022-05-10T12:30:13Z</time>
      </trkpt>
      <trkpt lat="45.27758" lon="5.40476">
        <ele>704</ele>
        <time>2022-05-10T12:30:18Z</time>
      </trkpt>
      <trkpt lat="45.27756" lon="5.40479">
        <ele>704.40002441406</ele>
        <time>2022-05-10T12:30:19Z</time>
      </trkpt>
      <trkpt lat="45.27756" lon="5.40483">
        <ele>705</ele>
        <time>2022-05-10T12:30:21Z</time>
      </trkpt>
      <trkpt lat="45.27755" lon="5.40486">
        <ele>705.40002441406</ele>
        <time>2022-05-10T12:30:22Z</time>
      </trkpt>
      <trkpt lat="45.27754" lon="5.40487">
        <ele>705.59997558594</ele>
        <time>2022-05-10T12:30:23Z</time>
      </trkpt>
      <trkpt lat="45.27751" lon="5.40489">
        <ele>706.59997558594</ele>
        <time>2022-05-10T12:30:26Z</time>
      </trkpt>
      <trkpt lat="45.27749" lon="5.4049">
        <ele>707</ele>
        <time>2022-05-10T12:30:28Z</time>
      </trkpt>
      <trkpt lat="45.27747" lon="5.4049">
        <ele>707.59997558594</ele>
        <time>2022-05-10T12:30:30Z</time>
      </trkpt>
      <trkpt lat="45.27745" lon="5.4049">
        <ele>709</ele>
        <time>2022-05-10T12:30:34Z</time>
      </trkpt>
      <trkpt lat="45.27742" lon="5.4049">
        <ele>709.59997558594</ele>
        <time>2022-05-10T12:30:37Z</time>
      </trkpt>
      <trkpt lat="45.27741" lon="5.4049">
        <ele>710.20001220703</ele>
        <time>2022-05-10T12:30:38Z</time>
      </trkpt>
      <trkpt lat="45.27735" lon="5.40492">
        <ele>711.40002441406</ele>
        <time>2022-05-10T12:30:43Z</time>
      </trkpt>
      <trkpt lat="45.27732" lon="5.40495">
        <ele>712.59997558594</ele>
        <time>2022-05-10T12:30:46Z</time>
      </trkpt>
      <trkpt lat="45.27731" lon="5.40496">
        <ele>713.59997558594</ele>
        <time>2022-05-10T12:30:49Z</time>
      </trkpt>
      <trkpt lat="45.2773" lon="5.40498">
        <ele>713.79998779297</ele>
        <time>2022-05-10T12:30:50Z</time>
      </trkpt>
      <trkpt lat="45.27724" lon="5.40506">
        <ele>715</ele>
        <time>2022-05-10T12:30:54Z</time>
      </trkpt>
      <trkpt lat="45.27715" lon="5.40518">
        <ele>716</ele>
        <time>2022-05-10T12:31:00Z</time>
      </trkpt>
      <trkpt lat="45.27715" lon="5.4052">
        <ele>716.20001220703</ele>
        <time>2022-05-10T12:31:01Z</time>
      </trkpt>
      <trkpt lat="45.27712" lon="5.40525">
        <ele>717.20001220703</ele>
        <time>2022-05-10T12:31:04Z</time>
      </trkpt>
      <trkpt lat="45.2771" lon="5.40529">
        <ele>717.59997558594</ele>
        <time>2022-05-10T12:31:05Z</time>
      </trkpt>
      <trkpt lat="45.27704" lon="5.40539">
        <ele>718.59997558594</ele>
        <time>2022-05-10T12:31:10Z</time>
      </trkpt>
      <trkpt lat="45.27702" lon="5.40541">
        <ele>718.79998779297</ele>
        <time>2022-05-10T12:31:11Z</time>
      </trkpt>
      <trkpt lat="45.27702" lon="5.40543">
        <ele>719.79998779297</ele>
        <time>2022-05-10T12:31:15Z</time>
      </trkpt>
      <trkpt lat="45.27697" lon="5.40548">
        <ele>720.79998779297</ele>
        <time>2022-05-10T12:31:19Z</time>
      </trkpt>
      <trkpt lat="45.27695" lon="5.40549">
        <ele>722</ele>
        <time>2022-05-10T12:31:23Z</time>
      </trkpt>
      <trkpt lat="45.27693" lon="5.40547">
        <ele>723</ele>
        <time>2022-05-10T12:31:26Z</time>
      </trkpt>
      <trkpt lat="45.2769" lon="5.40545">
        <ele>723.40002441406</ele>
        <time>2022-05-10T12:31:28Z</time>
      </trkpt>
      <trkpt lat="45.27688" lon="5.40543">
        <ele>723.79998779297</ele>
        <time>2022-05-10T12:31:33Z</time>
      </trkpt>
      <trkpt lat="45.27687" lon="5.40542">
        <ele>724.40002441406</ele>
        <time>2022-05-10T12:31:35Z</time>
      </trkpt>
      <trkpt lat="45.27686" lon="5.40541">
        <ele>724.40002441406</ele>
        <time>2022-05-10T12:31:36Z</time>
      </trkpt>
      <trkpt lat="45.27681" lon="5.40536">
        <ele>725.59997558594</ele>
        <time>2022-05-10T12:31:40Z</time>
      </trkpt>
      <trkpt lat="45.2768" lon="5.40535">
        <ele>725.79998779297</ele>
        <time>2022-05-10T12:31:41Z</time>
      </trkpt>
      <trkpt lat="45.2767" lon="5.40526">
        <ele>726.40002441406</ele>
        <time>2022-05-10T12:31:46Z</time>
      </trkpt>
      <trkpt lat="45.27669" lon="5.40524">
        <ele>726.79998779297</ele>
        <time>2022-05-10T12:31:48Z</time>
      </trkpt>
      <trkpt lat="45.27653" lon="5.40509">
        <ele>727.40002441406</ele>
        <time>2022-05-10T12:31:54Z</time>
      </trkpt>
      <trkpt lat="45.27641" lon="5.40497">
        <ele>728</ele>
        <time>2022-05-10T12:32:00Z</time>
      </trkpt>
      <trkpt lat="45.2764" lon="5.40495">
        <ele>728</ele>
        <time>2022-05-10T12:32:01Z</time>
      </trkpt>
      <trkpt lat="45.27638" lon="5.40488">
        <ele>729</ele>
        <time>2022-05-10T12:32:08Z</time>
      </trkpt>
      <trkpt lat="45.2763" lon="5.40476">
        <ele>730</ele>
        <time>2022-05-10T12:32:12Z</time>
      </trkpt>
      <trkpt lat="45.27629" lon="5.40474">
        <ele>730.59997558594</ele>
        <time>2022-05-10T12:32:13Z</time>
      </trkpt>
      <trkpt lat="45.27626" lon="5.40469">
        <ele>731.40002441406</ele>
        <time>2022-05-10T12:32:16Z</time>
      </trkpt>
      <trkpt lat="45.27615" lon="5.40447">
        <ele>731.79998779297</ele>
        <time>2022-05-10T12:32:22Z</time>
      </trkpt>
      <trkpt lat="45.27607" lon="5.4044">
        <ele>732.40002441406</ele>
        <time>2022-05-10T12:32:26Z</time>
      </trkpt>
      <trkpt lat="45.27601" lon="5.40433">
        <ele>732.79998779297</ele>
        <time>2022-05-10T12:32:29Z</time>
      </trkpt>
      <trkpt lat="45.27593" lon="5.40424">
        <ele>733.40002441406</ele>
        <time>2022-05-10T12:32:33Z</time>
      </trkpt>
      <trkpt lat="45.27587" lon="5.40418">
        <ele>734</ele>
        <time>2022-05-10T12:32:36Z</time>
      </trkpt>
      <trkpt lat="45.27583" lon="5.40413">
        <ele>734.40002441406</ele>
        <time>2022-05-10T12:32:38Z</time>
      </trkpt>
      <trkpt lat="45.27568" lon="5.40396">
        <ele>735.40002441406</ele>
        <time>2022-05-10T12:32:46Z</time>
      </trkpt>
      <trkpt lat="45.27554" lon="5.40377">
        <ele>736.59997558594</ele>
        <time>2022-05-10T12:32:52Z</time>
      </trkpt>
      <trkpt lat="45.2755" lon="5.40371">
        <ele>736.59997558594</ele>
        <time>2022-05-10T12:32:54Z</time>
      </trkpt>
      <trkpt lat="45.27518" lon="5.40329">
        <ele>737.20001220703</ele>
        <time>2022-05-10T12:33:06Z</time>
      </trkpt>
      <trkpt lat="45.27492" lon="5.40301">
        <ele>737.40002441406</ele>
        <time>2022-05-10T12:33:15Z</time>
      </trkpt>
      <trkpt lat="45.27487" lon="5.40297">
        <ele>737.59997558594</ele>
        <time>2022-05-10T12:33:17Z</time>
      </trkpt>
      <trkpt lat="45.27484" lon="5.40297">
        <ele>737.59997558594</ele>
        <time>2022-05-10T12:33:18Z</time>
      </trkpt>
      <trkpt lat="45.27482" lon="5.40298">
        <ele>737.79998779297</ele>
        <time>2022-05-10T12:33:19Z</time>
      </trkpt>
      <trkpt lat="45.27482" lon="5.403">
        <ele>737.79998779297</ele>
        <time>2022-05-10T12:33:20Z</time>
      </trkpt>
      <trkpt lat="45.27483" lon="5.40303">
        <ele>737.79998779297</ele>
        <time>2022-05-10T12:33:21Z</time>
      </trkpt>
      <trkpt lat="45.2749" lon="5.4033">
        <ele>738.20001220703</ele>
        <time>2022-05-10T12:33:27Z</time>
      </trkpt>
      <trkpt lat="45.27501" lon="5.40375">
        <ele>738.40002441406</ele>
        <time>2022-05-10T12:33:36Z</time>
      </trkpt>
      <trkpt lat="45.27503" lon="5.4038">
        <ele>738.59997558594</ele>
        <time>2022-05-10T12:33:37Z</time>
      </trkpt>
      <trkpt lat="45.2751" lon="5.40408">
        <ele>739.79998779297</ele>
        <time>2022-05-10T12:33:44Z</time>
      </trkpt>
      <trkpt lat="45.27514" lon="5.40429">
        <ele>740.79998779297</ele>
        <time>2022-05-10T12:33:50Z</time>
      </trkpt>
      <trkpt lat="45.27517" lon="5.40445">
        <ele>742.20001220703</ele>
        <time>2022-05-10T12:33:55Z</time>
      </trkpt>
      <trkpt lat="45.27518" lon="5.40448">
        <ele>742.40002441406</ele>
        <time>2022-05-10T12:33:56Z</time>
      </trkpt>
      <trkpt lat="45.2752" lon="5.40458">
        <ele>743.40002441406</ele>
        <time>2022-05-10T12:34:00Z</time>
      </trkpt>
      <trkpt lat="45.27524" lon="5.40466">
        <ele>744</ele>
        <time>2022-05-10T12:34:03Z</time>
      </trkpt>
      <trkpt lat="45.27524" lon="5.40471">
        <ele>744.59997558594</ele>
        <time>2022-05-10T12:34:05Z</time>
      </trkpt>
      <trkpt lat="45.27527" lon="5.40478">
        <ele>745.20001220703</ele>
        <time>2022-05-10T12:34:08Z</time>
      </trkpt>
      <trkpt lat="45.2753" lon="5.40484">
        <ele>745.59997558594</ele>
        <time>2022-05-10T12:34:11Z</time>
      </trkpt>
      <trkpt lat="45.27532" lon="5.40494">
        <ele>746.59997558594</ele>
        <time>2022-05-10T12:34:14Z</time>
      </trkpt>
      <trkpt lat="45.27533" lon="5.40498">
        <ele>746.79998779297</ele>
        <time>2022-05-10T12:34:16Z</time>
      </trkpt>
      <trkpt lat="45.27533" lon="5.40513">
        <ele>747.59997558594</ele>
        <time>2022-05-10T12:34:21Z</time>
      </trkpt>
      <trkpt lat="45.27534" lon="5.40517">
        <ele>748</ele>
        <time>2022-05-10T12:34:22Z</time>
      </trkpt>
      <trkpt lat="45.27534" lon="5.4052">
        <ele>748.20001220703</ele>
        <time>2022-05-10T12:34:23Z</time>
      </trkpt>
      <trkpt lat="45.27534" lon="5.40533">
        <ele>748.59997558594</ele>
        <time>2022-05-10T12:34:26Z</time>
      </trkpt>
      <trkpt lat="45.27535" lon="5.40543">
        <ele>749</ele>
        <time>2022-05-10T12:34:28Z</time>
      </trkpt>
      <trkpt lat="45.27535" lon="5.4055">
        <ele>749.40002441406</ele>
        <time>2022-05-10T12:34:30Z</time>
      </trkpt>
      <trkpt lat="45.27538" lon="5.4056">
        <ele>750</ele>
        <time>2022-05-10T12:34:34Z</time>
      </trkpt>
      <trkpt lat="45.2754" lon="5.40565">
        <ele>750</ele>
        <time>2022-05-10T12:34:35Z</time>
      </trkpt>
      <trkpt lat="45.27555" lon="5.40601">
        <ele>750.79998779297</ele>
        <time>2022-05-10T12:34:41Z</time>
      </trkpt>
      <trkpt lat="45.27553" lon="5.40612">
        <ele>751.20001220703</ele>
        <time>2022-05-10T12:34:43Z</time>
      </trkpt>
      <trkpt lat="45.27555" lon="5.40622">
        <ele>751.20001220703</ele>
        <time>2022-05-10T12:34:45Z</time>
      </trkpt>
      <trkpt lat="45.27565" lon="5.40655">
        <ele>751.20001220703</ele>
        <time>2022-05-10T12:34:52Z</time>
      </trkpt>
      <trkpt lat="45.27569" lon="5.40684">
        <ele>751.20001220703</ele>
        <time>2022-05-10T12:34:58Z</time>
      </trkpt>
      <trkpt lat="45.27565" lon="5.40713">
        <ele>751.79998779297</ele>
        <time>2022-05-10T12:35:03Z</time>
      </trkpt>
      <trkpt lat="45.27569" lon="5.40723">
        <ele>752</ele>
        <time>2022-05-10T12:35:05Z</time>
      </trkpt>
      <trkpt lat="45.27569" lon="5.40728">
        <ele>752.20001220703</ele>
        <time>2022-05-10T12:35:06Z</time>
      </trkpt>
      <trkpt lat="45.27572" lon="5.40737">
        <ele>752.40002441406</ele>
        <time>2022-05-10T12:35:08Z</time>
      </trkpt>
      <trkpt lat="45.27572" lon="5.40753">
        <ele>752.79998779297</ele>
        <time>2022-05-10T12:35:12Z</time>
      </trkpt>
      <trkpt lat="45.27571" lon="5.40758">
        <ele>753</ele>
        <time>2022-05-10T12:35:13Z</time>
      </trkpt>
      <trkpt lat="45.27569" lon="5.40767">
        <ele>753.20001220703</ele>
        <time>2022-05-10T12:35:15Z</time>
      </trkpt>
      <trkpt lat="45.2757" lon="5.40784">
        <ele>753.59997558594</ele>
        <time>2022-05-10T12:35:19Z</time>
      </trkpt>
      <trkpt lat="45.27575" lon="5.408">
        <ele>754.20001220703</ele>
        <time>2022-05-10T12:35:23Z</time>
      </trkpt>
      <trkpt lat="45.2758" lon="5.40812">
        <ele>754.79998779297</ele>
        <time>2022-05-10T12:35:26Z</time>
      </trkpt>
      <trkpt lat="45.27587" lon="5.40828">
        <ele>755.40002441406</ele>
        <time>2022-05-10T12:35:30Z</time>
      </trkpt>
      <trkpt lat="45.27591" lon="5.40837">
        <ele>755.79998779297</ele>
        <time>2022-05-10T12:35:33Z</time>
      </trkpt>
      <trkpt lat="45.27598" lon="5.40846">
        <ele>756.40002441406</ele>
        <time>2022-05-10T12:35:36Z</time>
      </trkpt>
      <trkpt lat="45.27604" lon="5.40854">
        <ele>756.79998779297</ele>
        <time>2022-05-10T12:35:38Z</time>
      </trkpt>
      <trkpt lat="45.27606" lon="5.40855">
        <ele>757.40002441406</ele>
        <time>2022-05-10T12:35:40Z</time>
      </trkpt>
      <trkpt lat="45.2761" lon="5.40861">
        <ele>758</ele>
        <time>2022-05-10T12:35:42Z</time>
      </trkpt>
      <trkpt lat="45.27619" lon="5.40875">
        <ele>758.59997558594</ele>
        <time>2022-05-10T12:35:45Z</time>
      </trkpt>
      <trkpt lat="45.27623" lon="5.40881">
        <ele>758.79998779297</ele>
        <time>2022-05-10T12:35:47Z</time>
      </trkpt>
      <trkpt lat="45.27635" lon="5.40903">
        <ele>759.79998779297</ele>
        <time>2022-05-10T12:35:54Z</time>
      </trkpt>
      <trkpt lat="45.27638" lon="5.40907">
        <ele>760.20001220703</ele>
        <time>2022-05-10T12:35:56Z</time>
      </trkpt>
      <trkpt lat="45.27643" lon="5.40916">
        <ele>760.79998779297</ele>
        <time>2022-05-10T12:35:59Z</time>
      </trkpt>
      <trkpt lat="45.27647" lon="5.40921">
        <ele>761</ele>
        <time>2022-05-10T12:36:00Z</time>
      </trkpt>
      <trkpt lat="45.27652" lon="5.4093">
        <ele>761.79998779297</ele>
        <time>2022-05-10T12:36:03Z</time>
      </trkpt>
      <trkpt lat="45.27654" lon="5.40939">
        <ele>762.59997558594</ele>
        <time>2022-05-10T12:36:07Z</time>
      </trkpt>
      <trkpt lat="45.27657" lon="5.40945">
        <ele>763</ele>
        <time>2022-05-10T12:36:09Z</time>
      </trkpt>
      <trkpt lat="45.27658" lon="5.40949">
        <ele>763.40002441406</ele>
        <time>2022-05-10T12:36:11Z</time>
      </trkpt>
      <trkpt lat="45.27659" lon="5.40951">
        <ele>763.79998779297</ele>
        <time>2022-05-10T12:36:12Z</time>
      </trkpt>
      <trkpt lat="45.2766" lon="5.40955">
        <ele>764</ele>
        <time>2022-05-10T12:36:14Z</time>
      </trkpt>
      <trkpt lat="45.27668" lon="5.40964">
        <ele>765.20001220703</ele>
        <time>2022-05-10T12:36:19Z</time>
      </trkpt>
      <trkpt lat="45.27673" lon="5.40978">
        <ele>766.20001220703</ele>
        <time>2022-05-10T12:36:24Z</time>
      </trkpt>
      <trkpt lat="45.27677" lon="5.40986">
        <ele>766.59997558594</ele>
        <time>2022-05-10T12:36:26Z</time>
      </trkpt>
      <trkpt lat="45.27684" lon="5.41004">
        <ele>767</ele>
        <time>2022-05-10T12:36:31Z</time>
      </trkpt>
      <trkpt lat="45.27685" lon="5.41007">
        <ele>767.20001220703</ele>
        <time>2022-05-10T12:36:32Z</time>
      </trkpt>
      <trkpt lat="45.27687" lon="5.41013">
        <ele>767.40002441406</ele>
        <time>2022-05-10T12:36:34Z</time>
      </trkpt>
      <trkpt lat="45.27693" lon="5.41031">
        <ele>768.59997558594</ele>
        <time>2022-05-10T12:36:39Z</time>
      </trkpt>
      <trkpt lat="45.27699" lon="5.41049">
        <ele>769.20001220703</ele>
        <time>2022-05-10T12:36:43Z</time>
      </trkpt>
      <trkpt lat="45.27701" lon="5.41054">
        <ele>769.59997558594</ele>
        <time>2022-05-10T12:36:44Z</time>
      </trkpt>
      <trkpt lat="45.27703" lon="5.4106">
        <ele>770.20001220703</ele>
        <time>2022-05-10T12:36:46Z</time>
      </trkpt>
      <trkpt lat="45.27705" lon="5.41066">
        <ele>770.79998779297</ele>
        <time>2022-05-10T12:36:48Z</time>
      </trkpt>
      <trkpt lat="45.27711" lon="5.41085">
        <ele>771.20001220703</ele>
        <time>2022-05-10T12:36:52Z</time>
      </trkpt>
      <trkpt lat="45.27716" lon="5.411">
        <ele>771.59997558594</ele>
        <time>2022-05-10T12:36:57Z</time>
      </trkpt>
      <trkpt lat="45.27717" lon="5.41104">
        <ele>771.59997558594</ele>
        <time>2022-05-10T12:36:58Z</time>
      </trkpt>
      <trkpt lat="45.27722" lon="5.4111">
        <ele>771.79998779297</ele>
        <time>2022-05-10T12:37:00Z</time>
      </trkpt>
      <trkpt lat="45.27733" lon="5.41119">
        <ele>771.79998779297</ele>
        <time>2022-05-10T12:37:03Z</time>
      </trkpt>
      <trkpt lat="45.2775" lon="5.41137">
        <ele>771.79998779297</ele>
        <time>2022-05-10T12:37:09Z</time>
      </trkpt>
      <trkpt lat="45.27756" lon="5.4115">
        <ele>772</ele>
        <time>2022-05-10T12:37:14Z</time>
      </trkpt>
      <trkpt lat="45.27762" lon="5.41157">
        <ele>772</ele>
        <time>2022-05-10T12:37:16Z</time>
      </trkpt>
      <trkpt lat="45.27773" lon="5.41167">
        <ele>772</ele>
        <time>2022-05-10T12:37:19Z</time>
      </trkpt>
      <trkpt lat="45.2779" lon="5.41186">
        <ele>772.59997558594</ele>
        <time>2022-05-10T12:37:25Z</time>
      </trkpt>
      <trkpt lat="45.27796" lon="5.4119">
        <ele>772.79998779297</ele>
        <time>2022-05-10T12:37:27Z</time>
      </trkpt>
      <trkpt lat="45.27808" lon="5.41196">
        <ele>773</ele>
        <time>2022-05-10T12:37:32Z</time>
      </trkpt>
      <trkpt lat="45.27823" lon="5.41207">
        <ele>773</ele>
        <time>2022-05-10T12:37:40Z</time>
      </trkpt>
      <trkpt lat="45.27827" lon="5.41211">
        <ele>773.20001220703</ele>
        <time>2022-05-10T12:37:42Z</time>
      </trkpt>
      <trkpt lat="45.27836" lon="5.4122">
        <ele>773.20001220703</ele>
        <time>2022-05-10T12:37:45Z</time>
      </trkpt>
      <trkpt lat="45.2785" lon="5.41231">
        <ele>773.20001220703</ele>
        <time>2022-05-10T12:37:51Z</time>
      </trkpt>
      <trkpt lat="45.27851" lon="5.41232">
        <ele>773</ele>
        <time>2022-05-10T12:37:55Z</time>
      </trkpt>
      <trkpt lat="45.27851" lon="5.41232">
        <ele>772.59997558594</ele>
        <time>2022-05-10T12:39:35Z</time>
      </trkpt>
      <trkpt lat="45.2786" lon="5.41237">
        <ele>772.59997558594</ele>
        <time>2022-05-10T12:39:38Z</time>
      </trkpt>
      <trkpt lat="45.27885" lon="5.4125">
        <ele>772.20001220703</ele>
        <time>2022-05-10T12:39:44Z</time>
      </trkpt>
      <trkpt lat="45.27907" lon="5.41258">
        <ele>772</ele>
        <time>2022-05-10T12:39:49Z</time>
      </trkpt>
      <trkpt lat="45.27911" lon="5.4126">
        <ele>771.79998779297</ele>
        <time>2022-05-10T12:39:50Z</time>
      </trkpt>
      <trkpt lat="45.27928" lon="5.41268">
        <ele>771.40002441406</ele>
        <time>2022-05-10T12:39:54Z</time>
      </trkpt>
      <trkpt lat="45.27933" lon="5.41271">
        <ele>771.20001220703</ele>
        <time>2022-05-10T12:39:55Z</time>
      </trkpt>
      <trkpt lat="45.27941" lon="5.41271">
        <ele>771</ele>
        <time>2022-05-10T12:39:57Z</time>
      </trkpt>
      <trkpt lat="45.27948" lon="5.41271">
        <ele>770.79998779297</ele>
        <time>2022-05-10T12:39:59Z</time>
      </trkpt>
      <trkpt lat="45.27963" lon="5.41269">
        <ele>770</ele>
        <time>2022-05-10T12:40:04Z</time>
      </trkpt>
      <trkpt lat="45.27977" lon="5.41273">
        <ele>769.79998779297</ele>
        <time>2022-05-10T12:40:08Z</time>
      </trkpt>
      <trkpt lat="45.27981" lon="5.41272">
        <ele>769.79998779297</ele>
        <time>2022-05-10T12:40:10Z</time>
      </trkpt>
      <trkpt lat="45.27999" lon="5.41277">
        <ele>770.20001220703</ele>
        <time>2022-05-10T12:40:15Z</time>
      </trkpt>
      <trkpt lat="45.28021" lon="5.41288">
        <ele>770.59997558594</ele>
        <time>2022-05-10T12:40:21Z</time>
      </trkpt>
      <trkpt lat="45.28031" lon="5.41284">
        <ele>770.59997558594</ele>
        <time>2022-05-10T12:40:26Z</time>
      </trkpt>
      <trkpt lat="45.28044" lon="5.41288">
        <ele>770.59997558594</ele>
        <time>2022-05-10T12:40:31Z</time>
      </trkpt>
      <trkpt lat="45.2806" lon="5.41296">
        <ele>770.59997558594</ele>
        <time>2022-05-10T12:40:37Z</time>
      </trkpt>
      <trkpt lat="45.28081" lon="5.41295">
        <ele>770.59997558594</ele>
        <time>2022-05-10T12:40:43Z</time>
      </trkpt>
      <trkpt lat="45.28102" lon="5.41298">
        <ele>770.20001220703</ele>
        <time>2022-05-10T12:40:50Z</time>
      </trkpt>
      <trkpt lat="45.2813" lon="5.41312">
        <ele>770.20001220703</ele>
        <time>2022-05-10T12:40:57Z</time>
      </trkpt>
      <trkpt lat="45.28158" lon="5.41319">
        <ele>770.79998779297</ele>
        <time>2022-05-10T12:41:03Z</time>
      </trkpt>
      <trkpt lat="45.28165" lon="5.41316">
        <ele>771</ele>
        <time>2022-05-10T12:41:05Z</time>
      </trkpt>
      <trkpt lat="45.2817" lon="5.41311">
        <ele>771</ele>
        <time>2022-05-10T12:41:07Z</time>
      </trkpt>
      <trkpt lat="45.28171" lon="5.41291">
        <ele>771.79998779297</ele>
        <time>2022-05-10T12:41:12Z</time>
      </trkpt>
      <trkpt lat="45.28196" lon="5.41299">
        <ele>772.79998779297</ele>
        <time>2022-05-10T12:41:17Z</time>
      </trkpt>
      <trkpt lat="45.282" lon="5.41298">
        <ele>773.40002441406</ele>
        <time>2022-05-10T12:41:18Z</time>
      </trkpt>
      <trkpt lat="45.28213" lon="5.41291">
        <ele>774.40002441406</ele>
        <time>2022-05-10T12:41:22Z</time>
      </trkpt>
      <trkpt lat="45.28224" lon="5.41287">
        <ele>775.20001220703</ele>
        <time>2022-05-10T12:41:25Z</time>
      </trkpt>
      <trkpt lat="45.2823" lon="5.41283">
        <ele>775.59997558594</ele>
        <time>2022-05-10T12:41:27Z</time>
      </trkpt>
      <trkpt lat="45.28247" lon="5.41276">
        <ele>776.79998779297</ele>
        <time>2022-05-10T12:41:32Z</time>
      </trkpt>
      <trkpt lat="45.28278" lon="5.41272">
        <ele>777.79998779297</ele>
        <time>2022-05-10T12:41:39Z</time>
      </trkpt>
      <trkpt lat="45.28284" lon="5.41273">
        <ele>777.79998779297</ele>
        <time>2022-05-10T12:41:40Z</time>
      </trkpt>
      <trkpt lat="45.28311" lon="5.41281">
        <ele>777</ele>
        <time>2022-05-10T12:41:44Z</time>
      </trkpt>
      <trkpt lat="45.28336" lon="5.41288">
        <ele>775.59997558594</ele>
        <time>2022-05-10T12:41:48Z</time>
      </trkpt>
      <trkpt lat="45.28347" lon="5.41293">
        <ele>774.59997558594</ele>
        <time>2022-05-10T12:41:50Z</time>
      </trkpt>
      <trkpt lat="45.28354" lon="5.41297">
        <ele>774.40002441406</ele>
        <time>2022-05-10T12:41:51Z</time>
      </trkpt>
      <trkpt lat="45.28368" lon="5.41303">
        <ele>773.20001220703</ele>
        <time>2022-05-10T12:41:53Z</time>
      </trkpt>
      <trkpt lat="45.28381" lon="5.4131">
        <ele>772</ele>
        <time>2022-05-10T12:41:55Z</time>
      </trkpt>
      <trkpt lat="45.28392" lon="5.41317">
        <ele>770.79998779297</ele>
        <time>2022-05-10T12:41:57Z</time>
      </trkpt>
      <trkpt lat="45.28414" lon="5.41334">
        <ele>769.40002441406</ele>
        <time>2022-05-10T12:42:01Z</time>
      </trkpt>
      <trkpt lat="45.2842" lon="5.41339">
        <ele>768.59997558594</ele>
        <time>2022-05-10T12:42:02Z</time>
      </trkpt>
      <trkpt lat="45.28425" lon="5.41342">
        <ele>768.20001220703</ele>
        <time>2022-05-10T12:42:03Z</time>
      </trkpt>
      <trkpt lat="45.28431" lon="5.41346">
        <ele>767</ele>
        <time>2022-05-10T12:42:04Z</time>
      </trkpt>
      <trkpt lat="45.28443" lon="5.41354">
        <ele>766.20001220703</ele>
        <time>2022-05-10T12:42:06Z</time>
      </trkpt>
      <trkpt lat="45.28457" lon="5.41362">
        <ele>765</ele>
        <time>2022-05-10T12:42:08Z</time>
      </trkpt>
      <trkpt lat="45.28475" lon="5.41375">
        <ele>763.40002441406</ele>
        <time>2022-05-10T12:42:11Z</time>
      </trkpt>
      <trkpt lat="45.28486" lon="5.41384">
        <ele>762.79998779297</ele>
        <time>2022-05-10T12:42:13Z</time>
      </trkpt>
      <trkpt lat="45.28498" lon="5.41393">
        <ele>761.59997558594</ele>
        <time>2022-05-10T12:42:15Z</time>
      </trkpt>
      <trkpt lat="45.28513" lon="5.41405">
        <ele>760.20001220703</ele>
        <time>2022-05-10T12:42:17Z</time>
      </trkpt>
      <trkpt lat="45.2852" lon="5.41411">
        <ele>759.59997558594</ele>
        <time>2022-05-10T12:42:18Z</time>
      </trkpt>
      <trkpt lat="45.28527" lon="5.41419">
        <ele>759</ele>
        <time>2022-05-10T12:42:19Z</time>
      </trkpt>
      <trkpt lat="45.28538" lon="5.41433">
        <ele>758</ele>
        <time>2022-05-10T12:42:21Z</time>
      </trkpt>
      <trkpt lat="45.28544" lon="5.41444">
        <ele>757.59997558594</ele>
        <time>2022-05-10T12:42:22Z</time>
      </trkpt>
      <trkpt lat="45.28548" lon="5.41454">
        <ele>756.79998779297</ele>
        <time>2022-05-10T12:42:23Z</time>
      </trkpt>
      <trkpt lat="45.28553" lon="5.41462">
        <ele>755.40002441406</ele>
        <time>2022-05-10T12:42:24Z</time>
      </trkpt>
      <trkpt lat="45.28563" lon="5.41478">
        <ele>753.79998779297</ele>
        <time>2022-05-10T12:42:26Z</time>
      </trkpt>
      <trkpt lat="45.28576" lon="5.415">
        <ele>752.59997558594</ele>
        <time>2022-05-10T12:42:29Z</time>
      </trkpt>
      <trkpt lat="45.28591" lon="5.41527">
        <ele>752.20001220703</ele>
        <time>2022-05-10T12:42:33Z</time>
      </trkpt>
      <trkpt lat="45.28594" lon="5.41533">
        <ele>752</ele>
        <time>2022-05-10T12:42:34Z</time>
      </trkpt>
      <trkpt lat="45.28604" lon="5.41548">
        <ele>751.40002441406</ele>
        <time>2022-05-10T12:42:37Z</time>
      </trkpt>
      <trkpt lat="45.28608" lon="5.41555">
        <ele>751.20001220703</ele>
        <time>2022-05-10T12:42:38Z</time>
      </trkpt>
      <trkpt lat="45.28614" lon="5.41568">
        <ele>751.20001220703</ele>
        <time>2022-05-10T12:42:40Z</time>
      </trkpt>
      <trkpt lat="45.28632" lon="5.41605">
        <ele>750.59997558594</ele>
        <time>2022-05-10T12:42:46Z</time>
      </trkpt>
      <trkpt lat="45.28638" lon="5.41617">
        <ele>750.40002441406</ele>
        <time>2022-05-10T12:42:48Z</time>
      </trkpt>
      <trkpt lat="45.28656" lon="5.41655">
        <ele>750</ele>
        <time>2022-05-10T12:42:53Z</time>
      </trkpt>
      <trkpt lat="45.28662" lon="5.41666">
        <ele>749.79998779297</ele>
        <time>2022-05-10T12:42:54Z</time>
      </trkpt>
      <trkpt lat="45.28666" lon="5.41674">
        <ele>749.40002441406</ele>
        <time>2022-05-10T12:42:55Z</time>
      </trkpt>
      <trkpt lat="45.28676" lon="5.41692">
        <ele>748.40002441406</ele>
        <time>2022-05-10T12:42:57Z</time>
      </trkpt>
      <trkpt lat="45.2868" lon="5.41702">
        <ele>747.59997558594</ele>
        <time>2022-05-10T12:42:58Z</time>
      </trkpt>
      <trkpt lat="45.28683" lon="5.41711">
        <ele>747.40002441406</ele>
        <time>2022-05-10T12:42:59Z</time>
      </trkpt>
      <trkpt lat="45.28685" lon="5.4172">
        <ele>746.79998779297</ele>
        <time>2022-05-10T12:43:00Z</time>
      </trkpt>
      <trkpt lat="45.28687" lon="5.41728">
        <ele>746.20001220703</ele>
        <time>2022-05-10T12:43:01Z</time>
      </trkpt>
      <trkpt lat="45.2869" lon="5.41755">
        <ele>745.20001220703</ele>
        <time>2022-05-10T12:43:04Z</time>
      </trkpt>
      <trkpt lat="45.287" lon="5.41801">
        <ele>745</ele>
        <time>2022-05-10T12:43:10Z</time>
      </trkpt>
      <trkpt lat="45.28706" lon="5.41838">
        <ele>746.20001220703</ele>
        <time>2022-05-10T12:43:16Z</time>
      </trkpt>
      <trkpt lat="45.28708" lon="5.4185">
        <ele>746.40002441406</ele>
        <time>2022-05-10T12:43:18Z</time>
      </trkpt>
      <trkpt lat="45.28708" lon="5.41854">
        <ele>746.59997558594</ele>
        <time>2022-05-10T12:43:19Z</time>
      </trkpt>
      <trkpt lat="45.2871" lon="5.41868">
        <ele>747</ele>
        <time>2022-05-10T12:43:21Z</time>
      </trkpt>
      <trkpt lat="45.28711" lon="5.41874">
        <ele>747.20001220703</ele>
        <time>2022-05-10T12:43:22Z</time>
      </trkpt>
      <trkpt lat="45.28712" lon="5.4188">
        <ele>747.59997558594</ele>
        <time>2022-05-10T12:43:23Z</time>
      </trkpt>
      <trkpt lat="45.28712" lon="5.41885">
        <ele>747.59997558594</ele>
        <time>2022-05-10T12:43:24Z</time>
      </trkpt>
      <trkpt lat="45.28713" lon="5.419">
        <ele>748.40002441406</ele>
        <time>2022-05-10T12:43:26Z</time>
      </trkpt>
      <trkpt lat="45.28715" lon="5.41911">
        <ele>749</ele>
        <time>2022-05-10T12:43:28Z</time>
      </trkpt>
      <trkpt lat="45.2872" lon="5.41942">
        <ele>749.20001220703</ele>
        <time>2022-05-10T12:43:33Z</time>
      </trkpt>
      <trkpt lat="45.28726" lon="5.41945">
        <ele>744.1</ele>
      </trkpt>
      <trkpt lat="45.28733" lon="5.41956">
        <ele>747.59997558594</ele>
        <time>2022-05-10T12:45:25Z</time>
      </trkpt>
      <trkpt lat="45.28737" lon="5.41965">
        <ele>747.79998779297</ele>
        <time>2022-05-10T12:45:31Z</time>
      </trkpt>
      <trkpt lat="45.28737" lon="5.41966">
        <ele>747.59997558594</ele>
        <time>2022-05-10T12:45:37Z</time>
      </trkpt>
      <trkpt lat="45.28737" lon="5.41974">
        <ele>747.40002441406</ele>
        <time>2022-05-10T12:45:44Z</time>
      </trkpt>
      <trkpt lat="45.28741" lon="5.41996">
        <ele>746.79998779297</ele>
        <time>2022-05-10T12:45:50Z</time>
      </trkpt>
      <trkpt lat="45.28742" lon="5.42001">
        <ele>746.59997558594</ele>
        <time>2022-05-10T12:45:51Z</time>
      </trkpt>
      <trkpt lat="45.28745" lon="5.42012">
        <ele>746.20001220703</ele>
        <time>2022-05-10T12:45:54Z</time>
      </trkpt>
      <trkpt lat="45.28747" lon="5.42016">
        <ele>745.40002441406</ele>
        <time>2022-05-10T12:45:56Z</time>
      </trkpt>
      <trkpt lat="45.28751" lon="5.42022">
        <ele>744.40002441406</ele>
        <time>2022-05-10T12:45:58Z</time>
      </trkpt>
      <trkpt lat="45.28752" lon="5.42027">
        <ele>743.79998779297</ele>
        <time>2022-05-10T12:45:59Z</time>
      </trkpt>
      <trkpt lat="45.28753" lon="5.42031">
        <ele>743.20001220703</ele>
        <time>2022-05-10T12:46:00Z</time>
      </trkpt>
      <trkpt lat="45.28756" lon="5.42042">
        <ele>742.59997558594</ele>
        <time>2022-05-10T12:46:02Z</time>
      </trkpt>
      <trkpt lat="45.2876" lon="5.42065">
        <ele>741.79998779297</ele>
        <time>2022-05-10T12:46:05Z</time>
      </trkpt>
      <trkpt lat="45.28762" lon="5.42074">
        <ele>741.40002441406</ele>
        <time>2022-05-10T12:46:06Z</time>
      </trkpt>
      <trkpt lat="45.28762" lon="5.42084">
        <ele>740.59997558594</ele>
        <time>2022-05-10T12:46:07Z</time>
      </trkpt>
      <trkpt lat="45.28764" lon="5.42102">
        <ele>739.59997558594</ele>
        <time>2022-05-10T12:46:09Z</time>
      </trkpt>
      <trkpt lat="45.28763" lon="5.4212">
        <ele>738.40002441406</ele>
        <time>2022-05-10T12:46:11Z</time>
      </trkpt>
      <trkpt lat="45.28763" lon="5.42128">
        <ele>738</ele>
        <time>2022-05-10T12:46:12Z</time>
      </trkpt>
      <trkpt lat="45.2876" lon="5.42148">
        <ele>737.20001220703</ele>
        <time>2022-05-10T12:46:14Z</time>
      </trkpt>
      <trkpt lat="45.28759" lon="5.42163">
        <ele>736.20001220703</ele>
        <time>2022-05-10T12:46:16Z</time>
      </trkpt>
      <trkpt lat="45.28756" lon="5.42175">
        <ele>736</ele>
        <time>2022-05-10T12:46:17Z</time>
      </trkpt>
      <trkpt lat="45.28747" lon="5.42206">
        <ele>735</ele>
        <time>2022-05-10T12:46:21Z</time>
      </trkpt>
      <trkpt lat="45.28745" lon="5.42217">
        <ele>733.59997558594</ele>
        <time>2022-05-10T12:46:24Z</time>
      </trkpt>
      <trkpt lat="45.28745" lon="5.42222">
        <ele>733.40002441406</ele>
        <time>2022-05-10T12:46:25Z</time>
      </trkpt>
      <trkpt lat="45.28743" lon="5.42229">
        <ele>733.20001220703</ele>
        <time>2022-05-10T12:46:26Z</time>
      </trkpt>
      <trkpt lat="45.28738" lon="5.42248">
        <ele>733.20001220703</ele>
        <time>2022-05-10T12:46:29Z</time>
      </trkpt>
      <trkpt lat="45.28735" lon="5.42276">
        <ele>733.40002441406</ele>
        <time>2022-05-10T12:46:34Z</time>
      </trkpt>
      <trkpt lat="45.28731" lon="5.42303">
        <ele>733.20001220703</ele>
        <time>2022-05-10T12:46:39Z</time>
      </trkpt>
      <trkpt lat="45.28727" lon="5.4233">
        <ele>733</ele>
        <time>2022-05-10T12:46:43Z</time>
      </trkpt>
      <trkpt lat="45.28725" lon="5.4234">
        <ele>733</ele>
        <time>2022-05-10T12:46:45Z</time>
      </trkpt>
      <trkpt lat="45.28725" lon="5.42351">
        <ele>732.59997558594</ele>
        <time>2022-05-10T12:46:47Z</time>
      </trkpt>
      <trkpt lat="45.28722" lon="5.42381">
        <ele>732.20001220703</ele>
        <time>2022-05-10T12:46:52Z</time>
      </trkpt>
      <trkpt lat="45.28721" lon="5.42392">
        <ele>732.40002441406</ele>
        <time>2022-05-10T12:46:54Z</time>
      </trkpt>
      <trkpt lat="45.28721" lon="5.42403">
        <ele>732.59997558594</ele>
        <time>2022-05-10T12:46:56Z</time>
      </trkpt>
      <trkpt lat="45.2872" lon="5.42418">
        <ele>732.59997558594</ele>
        <time>2022-05-10T12:46:59Z</time>
      </trkpt>
      <trkpt lat="45.2872" lon="5.42423">
        <ele>732.59997558594</ele>
        <time>2022-05-10T12:47:00Z</time>
      </trkpt>
      <trkpt lat="45.28714" lon="5.42458">
        <ele>733</ele>
        <time>2022-05-10T12:47:06Z</time>
      </trkpt>
      <trkpt lat="45.28712" lon="5.42501">
        <ele>733.40002441406</ele>
        <time>2022-05-10T12:47:13Z</time>
      </trkpt>
      <trkpt lat="45.28701" lon="5.42537">
        <ele>733</ele>
        <time>2022-05-10T12:47:19Z</time>
      </trkpt>
      <trkpt lat="45.28691" lon="5.42563">
        <ele>733</ele>
        <time>2022-05-10T12:47:23Z</time>
      </trkpt>
      <trkpt lat="45.28676" lon="5.42579">
        <ele>733</ele>
        <time>2022-05-10T12:47:27Z</time>
      </trkpt>
      <trkpt lat="45.28665" lon="5.42581">
        <ele>733.20001220703</ele>
        <time>2022-05-10T12:47:31Z</time>
      </trkpt>
      <trkpt lat="45.28656" lon="5.42581">
        <ele>734</ele>
        <time>2022-05-10T12:47:35Z</time>
      </trkpt>
      <trkpt lat="45.28647" lon="5.42583">
        <ele>735.20001220703</ele>
        <time>2022-05-10T12:47:39Z</time>
      </trkpt>
      <trkpt lat="45.28642" lon="5.42585">
        <ele>735.79998779297</ele>
        <time>2022-05-10T12:47:41Z</time>
      </trkpt>
      <trkpt lat="45.28637" lon="5.42584">
        <ele>736.20001220703</ele>
        <time>2022-05-10T12:47:43Z</time>
      </trkpt>
      <trkpt lat="45.28635" lon="5.42583">
        <ele>736.40002441406</ele>
        <time>2022-05-10T12:47:44Z</time>
      </trkpt>
      <trkpt lat="45.28633" lon="5.42581">
        <ele>736.40002441406</ele>
        <time>2022-05-10T12:47:45Z</time>
      </trkpt>
      <trkpt lat="45.28624" lon="5.42577">
        <ele>737</ele>
        <time>2022-05-10T12:47:49Z</time>
      </trkpt>
      <trkpt lat="45.2862" lon="5.42579">
        <ele>737</ele>
        <time>2022-05-10T12:47:51Z</time>
      </trkpt>
      <trkpt lat="45.28612" lon="5.42596">
        <ele>736.79998779297</ele>
        <time>2022-05-10T12:47:55Z</time>
      </trkpt>
      <trkpt lat="45.28603" lon="5.42625">
        <ele>735.59997558594</ele>
        <time>2022-05-10T12:48:01Z</time>
      </trkpt>
      <trkpt lat="45.28598" lon="5.42641">
        <ele>734.59997558594</ele>
        <time>2022-05-10T12:48:04Z</time>
      </trkpt>
      <trkpt lat="45.28586" lon="5.42659">
        <ele>734</ele>
        <time>2022-05-10T12:48:08Z</time>
      </trkpt>
      <trkpt lat="45.28582" lon="5.42665">
        <ele>733.40002441406</ele>
        <time>2022-05-10T12:48:09Z</time>
      </trkpt>
      <trkpt lat="45.2858" lon="5.42669">
        <ele>733</ele>
        <time>2022-05-10T12:48:10Z</time>
      </trkpt>
      <trkpt lat="45.28575" lon="5.42679">
        <ele>732.20001220703</ele>
        <time>2022-05-10T12:48:12Z</time>
      </trkpt>
      <trkpt lat="45.28572" lon="5.42685">
        <ele>731.40002441406</ele>
        <time>2022-05-10T12:48:13Z</time>
      </trkpt>
      <trkpt lat="45.28569" lon="5.42691">
        <ele>730.59997558594</ele>
        <time>2022-05-10T12:48:14Z</time>
      </trkpt>
      <trkpt lat="45.28567" lon="5.42694">
        <ele>730</ele>
        <time>2022-05-10T12:48:15Z</time>
      </trkpt>
      <trkpt lat="45.28563" lon="5.427">
        <ele>729.20001220703</ele>
        <time>2022-05-10T12:48:16Z</time>
      </trkpt>
      <trkpt lat="45.28555" lon="5.42709">
        <ele>728.59997558594</ele>
        <time>2022-05-10T12:48:18Z</time>
      </trkpt>
      <trkpt lat="45.28546" lon="5.4272">
        <ele>727.79998779297</ele>
        <time>2022-05-10T12:48:20Z</time>
      </trkpt>
      <trkpt lat="45.28541" lon="5.42728">
        <ele>726.79998779297</ele>
        <time>2022-05-10T12:48:22Z</time>
      </trkpt>
      <trkpt lat="45.28538" lon="5.42733">
        <ele>726.59997558594</ele>
        <time>2022-05-10T12:48:23Z</time>
      </trkpt>
      <trkpt lat="45.28536" lon="5.42744">
        <ele>726</ele>
        <time>2022-05-10T12:48:25Z</time>
      </trkpt>
      <trkpt lat="45.28535" lon="5.4275">
        <ele>725.79998779297</ele>
        <time>2022-05-10T12:48:26Z</time>
      </trkpt>
      <trkpt lat="45.28537" lon="5.42765">
        <ele>724.79998779297</ele>
        <time>2022-05-10T12:48:28Z</time>
      </trkpt>
      <trkpt lat="45.28539" lon="5.42774">
        <ele>724.20001220703</ele>
        <time>2022-05-10T12:48:29Z</time>
      </trkpt>
      <trkpt lat="45.28542" lon="5.42783">
        <ele>724.20001220703</ele>
        <time>2022-05-10T12:48:30Z</time>
      </trkpt>
      <trkpt lat="45.28547" lon="5.42799">
        <ele>722.79998779297</ele>
        <time>2022-05-10T12:48:32Z</time>
      </trkpt>
      <trkpt lat="45.28553" lon="5.42812">
        <ele>721.40002441406</ele>
        <time>2022-05-10T12:48:34Z</time>
      </trkpt>
      <trkpt lat="45.28556" lon="5.42818">
        <ele>721</ele>
        <time>2022-05-10T12:48:35Z</time>
      </trkpt>
      <trkpt lat="45.28558" lon="5.42826">
        <ele>720.20001220703</ele>
        <time>2022-05-10T12:48:37Z</time>
      </trkpt>
      <trkpt lat="45.28559" lon="5.42829">
        <ele>719.79998779297</ele>
        <time>2022-05-10T12:48:38Z</time>
      </trkpt>
      <trkpt lat="45.28568" lon="5.42839">
        <ele>719</ele>
        <time>2022-05-10T12:48:41Z</time>
      </trkpt>
      <trkpt lat="45.28572" lon="5.42842">
        <ele>718.79998779297</ele>
        <time>2022-05-10T12:48:43Z</time>
      </trkpt>
      <trkpt lat="45.28579" lon="5.42862">
        <ele>718.59997558594</ele>
        <time>2022-05-10T12:48:48Z</time>
      </trkpt>
      <trkpt lat="45.28577" lon="5.42884">
        <ele>718.79998779297</ele>
        <time>2022-05-10T12:48:53Z</time>
      </trkpt>
      <trkpt lat="45.28582" lon="5.42911">
        <ele>719</ele>
        <time>2022-05-10T12:48:58Z</time>
      </trkpt>
      <trkpt lat="45.28592" lon="5.42934">
        <ele>719.40002441406</ele>
        <time>2022-05-10T12:49:03Z</time>
      </trkpt>
      <trkpt lat="45.28598" lon="5.42947">
        <ele>719.79998779297</ele>
        <time>2022-05-10T12:49:07Z</time>
      </trkpt>
      <trkpt lat="45.28602" lon="5.42958">
        <ele>720.40002441406</ele>
        <time>2022-05-10T12:49:10Z</time>
      </trkpt>
      <trkpt lat="45.28608" lon="5.42968">
        <ele>721.59997558594</ele>
        <time>2022-05-10T12:49:13Z</time>
      </trkpt>
      <trkpt lat="45.28612" lon="5.42982">
        <ele>722.59997558594</ele>
        <time>2022-05-10T12:49:17Z</time>
      </trkpt>
      <trkpt lat="45.28612" lon="5.42985">
        <ele>722.79998779297</ele>
        <time>2022-05-10T12:49:18Z</time>
      </trkpt>
      <trkpt lat="45.28612" lon="5.43002">
        <ele>724</ele>
        <time>2022-05-10T12:49:22Z</time>
      </trkpt>
      <trkpt lat="45.28611" lon="5.43004">
        <ele>724.40002441406</ele>
        <time>2022-05-10T12:49:23Z</time>
      </trkpt>
      <trkpt lat="45.28611" lon="5.43007">
        <ele>724.79998779297</ele>
        <time>2022-05-10T12:49:24Z</time>
      </trkpt>
      <trkpt lat="45.2861" lon="5.43018">
        <ele>725</ele>
        <time>2022-05-10T12:49:26Z</time>
      </trkpt>
      <trkpt lat="45.28608" lon="5.43026">
        <ele>725.40002441406</ele>
        <time>2022-05-10T12:49:28Z</time>
      </trkpt>
      <trkpt lat="45.28606" lon="5.43034">
        <ele>726.40002441406</ele>
        <time>2022-05-10T12:49:31Z</time>
      </trkpt>
      <trkpt lat="45.28606" lon="5.43045">
        <ele>727.79998779297</ele>
        <time>2022-05-10T12:49:35Z</time>
      </trkpt>
      <trkpt lat="45.28601" lon="5.43058">
        <ele>728.79998779297</ele>
        <time>2022-05-10T12:49:39Z</time>
      </trkpt>
      <trkpt lat="45.28601" lon="5.43068">
        <ele>730</ele>
        <time>2022-05-10T12:49:42Z</time>
      </trkpt>
      <trkpt lat="45.28601" lon="5.43073">
        <ele>730.40002441406</ele>
        <time>2022-05-10T12:49:44Z</time>
      </trkpt>
      <trkpt lat="45.28605" lon="5.43084">
        <ele>731</ele>
        <time>2022-05-10T12:49:47Z</time>
      </trkpt>
      <trkpt lat="45.28606" lon="5.43087">
        <ele>731.20001220703</ele>
        <time>2022-05-10T12:49:48Z</time>
      </trkpt>
      <trkpt lat="45.28608" lon="5.43099">
        <ele>732.20001220703</ele>
        <time>2022-05-10T12:49:51Z</time>
      </trkpt>
      <trkpt lat="45.28613" lon="5.43114">
        <ele>732.59997558594</ele>
        <time>2022-05-10T12:49:55Z</time>
      </trkpt>
      <trkpt lat="45.28615" lon="5.43129">
        <ele>733.20001220703</ele>
        <time>2022-05-10T12:49:58Z</time>
      </trkpt>
      <trkpt lat="45.28619" lon="5.43158">
        <ele>733.79998779297</ele>
        <time>2022-05-10T12:50:04Z</time>
      </trkpt>
      <trkpt lat="45.28621" lon="5.43173">
        <ele>734.40002441406</ele>
        <time>2022-05-10T12:50:07Z</time>
      </trkpt>
      <trkpt lat="45.28619" lon="5.43196">
        <ele>734.59997558594</ele>
        <time>2022-05-10T12:50:11Z</time>
      </trkpt>
      <trkpt lat="45.28627" lon="5.43227">
        <ele>734.79998779297</ele>
        <time>2022-05-10T12:50:17Z</time>
      </trkpt>
      <trkpt lat="45.28637" lon="5.43255">
        <ele>734.40002441406</ele>
        <time>2022-05-10T12:50:23Z</time>
      </trkpt>
      <trkpt lat="45.28645" lon="5.43267">
        <ele>733.20001220703</ele>
        <time>2022-05-10T12:50:26Z</time>
      </trkpt>
      <trkpt lat="45.28651" lon="5.43273">
        <ele>732.40002441406</ele>
        <time>2022-05-10T12:50:28Z</time>
      </trkpt>
      <trkpt lat="45.28656" lon="5.43278">
        <ele>732.20001220703</ele>
        <time>2022-05-10T12:50:30Z</time>
      </trkpt>
      <trkpt lat="45.28662" lon="5.43282">
        <ele>731</ele>
        <time>2022-05-10T12:50:32Z</time>
      </trkpt>
      <trkpt lat="45.28667" lon="5.43285">
        <ele>729.59997558594</ele>
        <time>2022-05-10T12:50:34Z</time>
      </trkpt>
      <trkpt lat="45.28676" lon="5.43287">
        <ele>728.20001220703</ele>
        <time>2022-05-10T12:50:36Z</time>
      </trkpt>
      <trkpt lat="45.28687" lon="5.43281">
        <ele>727.20001220703</ele>
        <time>2022-05-10T12:50:39Z</time>
      </trkpt>
      <trkpt lat="45.28705" lon="5.43266">
        <ele>726.20001220703</ele>
        <time>2022-05-10T12:50:43Z</time>
      </trkpt>
      <trkpt lat="45.2871" lon="5.43263">
        <ele>725.79998779297</ele>
        <time>2022-05-10T12:50:44Z</time>
      </trkpt>
      <trkpt lat="45.28719" lon="5.43259">
        <ele>725</ele>
        <time>2022-05-10T12:50:46Z</time>
      </trkpt>
      <trkpt lat="45.28724" lon="5.43259">
        <ele>724.59997558594</ele>
        <time>2022-05-10T12:50:48Z</time>
      </trkpt>
      <trkpt lat="45.28727" lon="5.43259">
        <ele>723.79998779297</ele>
        <time>2022-05-10T12:50:50Z</time>
      </trkpt>
      <trkpt lat="45.28727" lon="5.43259">
        <ele>722.40002441406</ele>
        <time>2022-05-10T12:52:19Z</time>
      </trkpt>
      <trkpt lat="45.28735" lon="5.43257">
        <ele>722.40002441406</ele>
        <time>2022-05-10T12:52:32Z</time>
      </trkpt>
      <trkpt lat="45.28752" lon="5.4325">
        <ele>722.40002441406</ele>
        <time>2022-05-10T12:52:39Z</time>
      </trkpt>
      <trkpt lat="45.28764" lon="5.43244">
        <ele>723</ele>
        <time>2022-05-10T12:52:45Z</time>
      </trkpt>
      <trkpt lat="45.2877" lon="5.43239">
        <ele>723.79998779297</ele>
        <time>2022-05-10T12:52:50Z</time>
      </trkpt>
      <trkpt lat="45.28773" lon="5.43238">
        <ele>724.20001220703</ele>
        <time>2022-05-10T12:52:52Z</time>
      </trkpt>
      <trkpt lat="45.28777" lon="5.43234">
        <ele>725.20001220703</ele>
        <time>2022-05-10T12:52:56Z</time>
      </trkpt>
      <trkpt lat="45.28777" lon="5.43234">
        <ele>725.40002441406</ele>
        <time>2022-05-10T12:52:57Z</time>
      </trkpt>
      <trkpt lat="45.28782" lon="5.43231">
        <ele>726.40002441406</ele>
        <time>2022-05-10T12:53:01Z</time>
      </trkpt>
      <trkpt lat="45.28783" lon="5.4323">
        <ele>726.59997558594</ele>
        <time>2022-05-10T12:53:02Z</time>
      </trkpt>
      <trkpt lat="45.28796" lon="5.43223">
        <ele>727.40002441406</ele>
        <time>2022-05-10T12:53:07Z</time>
      </trkpt>
      <trkpt lat="45.28806" lon="5.43214">
        <ele>728.59997558594</ele>
        <time>2022-05-10T12:53:11Z</time>
      </trkpt>
      <trkpt lat="45.28808" lon="5.43212">
        <ele>728.79998779297</ele>
        <time>2022-05-10T12:53:12Z</time>
      </trkpt>
      <trkpt lat="45.28816" lon="5.43208">
        <ele>729.20001220703</ele>
        <time>2022-05-10T12:53:17Z</time>
      </trkpt>
      <trkpt lat="45.28819" lon="5.43208">
        <ele>729.40002441406</ele>
        <time>2022-05-10T12:53:18Z</time>
      </trkpt>
      <trkpt lat="45.28825" lon="5.4321">
        <ele>729.59997558594</ele>
        <time>2022-05-10T12:53:20Z</time>
      </trkpt>
      <trkpt lat="45.28827" lon="5.43209">
        <ele>729.59997558594</ele>
        <time>2022-05-10T12:53:21Z</time>
      </trkpt>
      <trkpt lat="45.28837" lon="5.43199">
        <ele>730.59997558594</ele>
        <time>2022-05-10T12:53:27Z</time>
      </trkpt>
      <trkpt lat="45.28841" lon="5.43196">
        <ele>731</ele>
        <time>2022-05-10T12:53:29Z</time>
      </trkpt>
      <trkpt lat="45.28852" lon="5.43183">
        <ele>731.40002441406</ele>
        <time>2022-05-10T12:53:35Z</time>
      </trkpt>
      <trkpt lat="45.28859" lon="5.43178">
        <ele>732.20001220703</ele>
        <time>2022-05-10T12:53:38Z</time>
      </trkpt>
      <trkpt lat="45.28865" lon="5.43173">
        <ele>733.40002441406</ele>
        <time>2022-05-10T12:53:41Z</time>
      </trkpt>
      <trkpt lat="45.28869" lon="5.43169">
        <ele>734</ele>
        <time>2022-05-10T12:53:43Z</time>
      </trkpt>
      <trkpt lat="45.28873" lon="5.43165">
        <ele>734.40002441406</ele>
        <time>2022-05-10T12:53:45Z</time>
      </trkpt>
      <trkpt lat="45.28882" lon="5.4316">
        <ele>735.40002441406</ele>
        <time>2022-05-10T12:53:49Z</time>
      </trkpt>
      <trkpt lat="45.28884" lon="5.43159">
        <ele>735.40002441406</ele>
        <time>2022-05-10T12:53:50Z</time>
      </trkpt>
      <trkpt lat="45.28895" lon="5.43155">
        <ele>736.20001220703</ele>
        <time>2022-05-10T12:53:55Z</time>
      </trkpt>
      <trkpt lat="45.289" lon="5.43153">
        <ele>736.79998779297</ele>
        <time>2022-05-10T12:53:57Z</time>
      </trkpt>
      <trkpt lat="45.28905" lon="5.43151">
        <ele>737.20001220703</ele>
        <time>2022-05-10T12:54:00Z</time>
      </trkpt>
      <trkpt lat="45.28909" lon="5.43151">
        <ele>737.79998779297</ele>
        <time>2022-05-10T12:54:02Z</time>
      </trkpt>
      <trkpt lat="45.28916" lon="5.43149">
        <ele>739</ele>
        <time>2022-05-10T12:54:06Z</time>
      </trkpt>
      <trkpt lat="45.28924" lon="5.43147">
        <ele>740</ele>
        <time>2022-05-10T12:54:10Z</time>
      </trkpt>
      <trkpt lat="45.28926" lon="5.43147">
        <ele>740.20001220703</ele>
        <time>2022-05-10T12:54:11Z</time>
      </trkpt>
      <trkpt lat="45.28934" lon="5.43146">
        <ele>741.40002441406</ele>
        <time>2022-05-10T12:54:15Z</time>
      </trkpt>
      <trkpt lat="45.28939" lon="5.43145">
        <ele>741.79998779297</ele>
        <time>2022-05-10T12:54:17Z</time>
      </trkpt>
      <trkpt lat="45.28948" lon="5.43143">
        <ele>742.59997558594</ele>
        <time>2022-05-10T12:54:21Z</time>
      </trkpt>
      <trkpt lat="45.28952" lon="5.43142">
        <ele>742.79998779297</ele>
        <time>2022-05-10T12:54:23Z</time>
      </trkpt>
      <trkpt lat="45.28962" lon="5.43137">
        <ele>743.59997558594</ele>
        <time>2022-05-10T12:54:28Z</time>
      </trkpt>
      <trkpt lat="45.28964" lon="5.43135">
        <ele>743.59997558594</ele>
        <time>2022-05-10T12:54:29Z</time>
      </trkpt>
      <trkpt lat="45.28977" lon="5.43127">
        <ele>744.59997558594</ele>
        <time>2022-05-10T12:54:36Z</time>
      </trkpt>
      <trkpt lat="45.28979" lon="5.43126">
        <ele>744.79998779297</ele>
        <time>2022-05-10T12:54:37Z</time>
      </trkpt>
      <trkpt lat="45.28981" lon="5.43125">
        <ele>744.79998779297</ele>
        <time>2022-05-10T12:54:38Z</time>
      </trkpt>
      <trkpt lat="45.28989" lon="5.43122">
        <ele>745</ele>
        <time>2022-05-10T12:54:41Z</time>
      </trkpt>
      <trkpt lat="45.28994" lon="5.43118">
        <ele>745</ele>
        <time>2022-05-10T12:54:43Z</time>
      </trkpt>
      <trkpt lat="45.28998" lon="5.43115">
        <ele>745</ele>
        <time>2022-05-10T12:54:45Z</time>
      </trkpt>
      <trkpt lat="45.29003" lon="5.43112">
        <ele>745.20001220703</ele>
        <time>2022-05-10T12:54:47Z</time>
      </trkpt>
      <trkpt lat="45.29018" lon="5.43113">
        <ele>745.59997558594</ele>
        <time>2022-05-10T12:54:54Z</time>
      </trkpt>
      <trkpt lat="45.29022" lon="5.43113">
        <ele>745.79998779297</ele>
        <time>2022-05-10T12:54:56Z</time>
      </trkpt>
      <trkpt lat="45.29031" lon="5.43113">
        <ele>746.20001220703</ele>
        <time>2022-05-10T12:55:01Z</time>
      </trkpt>
      <trkpt lat="45.29032" lon="5.43113">
        <ele>746.20001220703</ele>
        <time>2022-05-10T12:55:02Z</time>
      </trkpt>
      <trkpt lat="45.29045" lon="5.43118">
        <ele>746.40002441406</ele>
        <time>2022-05-10T12:55:09Z</time>
      </trkpt>
      <trkpt lat="45.29052" lon="5.4312">
        <ele>747</ele>
        <time>2022-05-10T12:55:14Z</time>
      </trkpt>
      <trkpt lat="45.2906" lon="5.43122">
        <ele>747</ele>
        <time>2022-05-10T12:55:17Z</time>
      </trkpt>
      <trkpt lat="45.29087" lon="5.43131">
        <ele>748</ele>
        <time>2022-05-10T12:55:26Z</time>
      </trkpt>
      <trkpt lat="45.29089" lon="5.43132">
        <ele>748</ele>
        <time>2022-05-10T12:55:27Z</time>
      </trkpt>
      <trkpt lat="45.29106" lon="5.43135">
        <ele>748.40002441406</ele>
        <time>2022-05-10T12:55:34Z</time>
      </trkpt>
      <trkpt lat="45.2912" lon="5.43148">
        <ele>749</ele>
        <time>2022-05-10T12:55:40Z</time>
      </trkpt>
      <trkpt lat="45.29121" lon="5.43149">
        <ele>749</ele>
        <time>2022-05-10T12:55:41Z</time>
      </trkpt>
      <trkpt lat="45.29124" lon="5.43152">
        <ele>749.20001220703</ele>
        <time>2022-05-10T12:55:42Z</time>
      </trkpt>
      <trkpt lat="45.29132" lon="5.43163">
        <ele>749.79998779297</ele>
        <time>2022-05-10T12:55:48Z</time>
      </trkpt>
      <trkpt lat="45.29136" lon="5.43171">
        <ele>750</ele>
        <time>2022-05-10T12:55:51Z</time>
      </trkpt>
      <trkpt lat="45.29143" lon="5.43184">
        <ele>750.59997558594</ele>
        <time>2022-05-10T12:55:56Z</time>
      </trkpt>
      <trkpt lat="45.29151" lon="5.43195">
        <ele>751.20001220703</ele>
        <time>2022-05-10T12:56:00Z</time>
      </trkpt>
      <trkpt lat="45.29154" lon="5.43204">
        <ele>751.59997558594</ele>
        <time>2022-05-10T12:56:03Z</time>
      </trkpt>
      <trkpt lat="45.29167" lon="5.43224">
        <ele>751.79998779297</ele>
        <time>2022-05-10T12:56:11Z</time>
      </trkpt>
      <trkpt lat="45.29167" lon="5.43226">
        <ele>752</ele>
        <time>2022-05-10T12:56:12Z</time>
      </trkpt>
      <trkpt lat="45.29169" lon="5.43234">
        <ele>752.20001220703</ele>
        <time>2022-05-10T12:56:15Z</time>
      </trkpt>
      <trkpt lat="45.29171" lon="5.43242">
        <ele>752.20001220703</ele>
        <time>2022-05-10T12:56:18Z</time>
      </trkpt>
      <trkpt lat="45.29172" lon="5.43244">
        <ele>752.20001220703</ele>
        <time>2022-05-10T12:56:19Z</time>
      </trkpt>
      <trkpt lat="45.29171" lon="5.43247">
        <ele>752.20001220703</ele>
        <time>2022-05-10T12:56:22Z</time>
      </trkpt>
      <trkpt lat="45.29172" lon="5.43248">
        <ele>752.20001220703</ele>
        <time>2022-05-10T12:56:25Z</time>
      </trkpt>
      <trkpt lat="45.29175" lon="5.43254">
        <ele>752.20001220703</ele>
        <time>2022-05-10T12:56:28Z</time>
      </trkpt>
      <trkpt lat="45.2918" lon="5.43269">
        <ele>752</ele>
        <time>2022-05-10T12:56:34Z</time>
      </trkpt>
      <trkpt lat="45.29183" lon="5.4329">
        <ele>751.79998779297</ele>
        <time>2022-05-10T12:56:40Z</time>
      </trkpt>
      <trkpt lat="45.29187" lon="5.43317">
        <ele>751.40002441406</ele>
        <time>2022-05-10T12:56:45Z</time>
      </trkpt>
      <trkpt lat="45.29188" lon="5.43323">
        <ele>751.59997558594</ele>
        <time>2022-05-10T12:56:46Z</time>
      </trkpt>
      <trkpt lat="45.29194" lon="5.43347">
        <ele>751</ele>
        <time>2022-05-10T12:56:50Z</time>
      </trkpt>
      <trkpt lat="45.29195" lon="5.43354">
        <ele>750.79998779297</ele>
        <time>2022-05-10T12:56:51Z</time>
      </trkpt>
      <trkpt lat="45.292" lon="5.43381">
        <ele>749.40002441406</ele>
        <time>2022-05-10T12:56:56Z</time>
      </trkpt>
      <trkpt lat="45.29211" lon="5.43401">
        <ele>748.59997558594</ele>
        <time>2022-05-10T12:57:00Z</time>
      </trkpt>
      <trkpt lat="45.29213" lon="5.43404">
        <ele>748.40002441406</ele>
        <time>2022-05-10T12:57:01Z</time>
      </trkpt>
      <trkpt lat="45.29223" lon="5.43422">
        <ele>747.20001220703</ele>
        <time>2022-05-10T12:57:05Z</time>
      </trkpt>
      <trkpt lat="45.29226" lon="5.43427">
        <ele>746.79998779297</ele>
        <time>2022-05-10T12:57:06Z</time>
      </trkpt>
      <trkpt lat="45.29228" lon="5.43435">
        <ele>745.59997558594</ele>
        <time>2022-05-10T12:57:08Z</time>
      </trkpt>
      <trkpt lat="45.29232" lon="5.43448">
        <ele>744.40002441406</ele>
        <time>2022-05-10T12:57:11Z</time>
      </trkpt>
      <trkpt lat="45.29235" lon="5.43453">
        <ele>743.40002441406</ele>
        <time>2022-05-10T12:57:12Z</time>
      </trkpt>
      <trkpt lat="45.29238" lon="5.43458">
        <ele>742.79998779297</ele>
        <time>2022-05-10T12:57:13Z</time>
      </trkpt>
      <trkpt lat="45.29242" lon="5.43463">
        <ele>741.79998779297</ele>
        <time>2022-05-10T12:57:14Z</time>
      </trkpt>
      <trkpt lat="45.29247" lon="5.43471">
        <ele>740.40002441406</ele>
        <time>2022-05-10T12:57:16Z</time>
      </trkpt>
      <trkpt lat="45.29249" lon="5.43475">
        <ele>739.59997558594</ele>
        <time>2022-05-10T12:57:17Z</time>
      </trkpt>
      <trkpt lat="45.29251" lon="5.43479">
        <ele>738.79998779297</ele>
        <time>2022-05-10T12:57:18Z</time>
      </trkpt>
      <trkpt lat="45.29254" lon="5.43483">
        <ele>737.79998779297</ele>
        <time>2022-05-10T12:57:19Z</time>
      </trkpt>
      <trkpt lat="45.29259" lon="5.43491">
        <ele>736.20001220703</ele>
        <time>2022-05-10T12:57:21Z</time>
      </trkpt>
      <trkpt lat="45.2926" lon="5.43496">
        <ele>735.59997558594</ele>
        <time>2022-05-10T12:57:22Z</time>
      </trkpt>
      <trkpt lat="45.29261" lon="5.43502">
        <ele>734.59997558594</ele>
        <time>2022-05-10T12:57:23Z</time>
      </trkpt>
      <trkpt lat="45.29263" lon="5.43512">
        <ele>733</ele>
        <time>2022-05-10T12:57:25Z</time>
      </trkpt>
      <trkpt lat="45.29264" lon="5.43515">
        <ele>732</ele>
        <time>2022-05-10T12:57:26Z</time>
      </trkpt>
      <trkpt lat="45.29266" lon="5.43524">
        <ele>730.20001220703</ele>
        <time>2022-05-10T12:57:28Z</time>
      </trkpt>
      <trkpt lat="45.29268" lon="5.43533">
        <ele>729</ele>
        <time>2022-05-10T12:57:30Z</time>
      </trkpt>
      <trkpt lat="45.2927" lon="5.43538">
        <ele>728.59997558594</ele>
        <time>2022-05-10T12:57:31Z</time>
      </trkpt>
      <trkpt lat="45.29271" lon="5.43544">
        <ele>727.79998779297</ele>
        <time>2022-05-10T12:57:32Z</time>
      </trkpt>
      <trkpt lat="45.29276" lon="5.43555">
        <ele>726.40002441406</ele>
        <time>2022-05-10T12:57:34Z</time>
      </trkpt>
      <trkpt lat="45.29279" lon="5.4356">
        <ele>725.20001220703</ele>
        <time>2022-05-10T12:57:35Z</time>
      </trkpt>
      <trkpt lat="45.29283" lon="5.43569">
        <ele>724</ele>
        <time>2022-05-10T12:57:37Z</time>
      </trkpt>
      <trkpt lat="45.29288" lon="5.43577">
        <ele>722.79998779297</ele>
        <time>2022-05-10T12:57:39Z</time>
      </trkpt>
      <trkpt lat="45.29292" lon="5.43585">
        <ele>721.59997558594</ele>
        <time>2022-05-10T12:57:41Z</time>
      </trkpt>
      <trkpt lat="45.29294" lon="5.43598">
        <ele>720.40002441406</ele>
        <time>2022-05-10T12:57:43Z</time>
      </trkpt>
      <trkpt lat="45.29296" lon="5.43609">
        <ele>719.20001220703</ele>
        <time>2022-05-10T12:57:45Z</time>
      </trkpt>
      <trkpt lat="45.29297" lon="5.43614">
        <ele>718</ele>
        <time>2022-05-10T12:57:46Z</time>
      </trkpt>
      <trkpt lat="45.29302" lon="5.43622">
        <ele>716.40002441406</ele>
        <time>2022-05-10T12:57:48Z</time>
      </trkpt>
      <trkpt lat="45.29304" lon="5.43626">
        <ele>715.20001220703</ele>
        <time>2022-05-10T12:57:49Z</time>
      </trkpt>
      <trkpt lat="45.29307" lon="5.43637">
        <ele>714.20001220703</ele>
        <time>2022-05-10T12:57:51Z</time>
      </trkpt>
      <trkpt lat="45.29308" lon="5.43649">
        <ele>713.20001220703</ele>
        <time>2022-05-10T12:57:53Z</time>
      </trkpt>
      <trkpt lat="45.2931" lon="5.43655">
        <ele>712.79998779297</ele>
        <time>2022-05-10T12:57:54Z</time>
      </trkpt>
      <trkpt lat="45.29311" lon="5.4366">
        <ele>711.79998779297</ele>
        <time>2022-05-10T12:57:55Z</time>
      </trkpt>
      <trkpt lat="45.29312" lon="5.4367">
        <ele>710.59997558594</ele>
        <time>2022-05-10T12:57:57Z</time>
      </trkpt>
      <trkpt lat="45.29314" lon="5.43679">
        <ele>709.79998779297</ele>
        <time>2022-05-10T12:57:59Z</time>
      </trkpt>
      <trkpt lat="45.29316" lon="5.43684">
        <ele>709.40002441406</ele>
        <time>2022-05-10T12:58:00Z</time>
      </trkpt>
      <trkpt lat="45.29322" lon="5.437">
        <ele>708.20001220703</ele>
        <time>2022-05-10T12:58:03Z</time>
      </trkpt>
      <trkpt lat="45.29324" lon="5.43711">
        <ele>706.59997558594</ele>
        <time>2022-05-10T12:58:05Z</time>
      </trkpt>
      <trkpt lat="45.29324" lon="5.43716">
        <ele>706.20001220703</ele>
        <time>2022-05-10T12:58:06Z</time>
      </trkpt>
      <trkpt lat="45.29323" lon="5.43726">
        <ele>705.59997558594</ele>
        <time>2022-05-10T12:58:08Z</time>
      </trkpt>
      <trkpt lat="45.29325" lon="5.4374">
        <ele>704.40002441406</ele>
        <time>2022-05-10T12:58:11Z</time>
      </trkpt>
      <trkpt lat="45.29326" lon="5.43747">
        <ele>703.40002441406</ele>
        <time>2022-05-10T12:58:13Z</time>
      </trkpt>
      <trkpt lat="45.2933" lon="5.43753">
        <ele>701.79998779297</ele>
        <time>2022-05-10T12:58:15Z</time>
      </trkpt>
      <trkpt lat="45.29333" lon="5.43757">
        <ele>700.59997558594</ele>
        <time>2022-05-10T12:58:17Z</time>
      </trkpt>
      <trkpt lat="45.29334" lon="5.4376">
        <ele>699.79998779297</ele>
        <time>2022-05-10T12:58:18Z</time>
      </trkpt>
      <trkpt lat="45.29336" lon="5.43763">
        <ele>699.59997558594</ele>
        <time>2022-05-10T12:58:19Z</time>
      </trkpt>
      <trkpt lat="45.2934" lon="5.43771">
        <ele>698.20001220703</ele>
        <time>2022-05-10T12:58:22Z</time>
      </trkpt>
      <trkpt lat="45.29343" lon="5.43775">
        <ele>697.20001220703</ele>
        <time>2022-05-10T12:58:24Z</time>
      </trkpt>
      <trkpt lat="45.29346" lon="5.43778">
        <ele>696.79998779297</ele>
        <time>2022-05-10T12:58:26Z</time>
      </trkpt>
      <trkpt lat="45.29353" lon="5.43781">
        <ele>696</ele>
        <time>2022-05-10T12:58:29Z</time>
      </trkpt>
      <trkpt lat="45.29357" lon="5.43781">
        <ele>695.20001220703</ele>
        <time>2022-05-10T12:58:31Z</time>
      </trkpt>
      <trkpt lat="45.29359" lon="5.43781">
        <ele>694.79998779297</ele>
        <time>2022-05-10T12:58:32Z</time>
      </trkpt>
      <trkpt lat="45.29364" lon="5.43781">
        <ele>694.20001220703</ele>
        <time>2022-05-10T12:58:34Z</time>
      </trkpt>
      <trkpt lat="45.29369" lon="5.43784">
        <ele>693.59997558594</ele>
        <time>2022-05-10T12:58:36Z</time>
      </trkpt>
      <trkpt lat="45.29372" lon="5.43786">
        <ele>693.40002441406</ele>
        <time>2022-05-10T12:58:37Z</time>
      </trkpt>
      <trkpt lat="45.29375" lon="5.43787">
        <ele>693.40002441406</ele>
        <time>2022-05-10T12:58:38Z</time>
      </trkpt>
      <trkpt lat="45.29381" lon="5.43784">
        <ele>692.79998779297</ele>
        <time>2022-05-10T12:58:40Z</time>
      </trkpt>
      <trkpt lat="45.29383" lon="5.43782">
        <ele>692.20001220703</ele>
        <time>2022-05-10T12:58:41Z</time>
      </trkpt>
      <trkpt lat="45.29393" lon="5.43775">
        <ele>691.59997558594</ele>
        <time>2022-05-10T12:58:45Z</time>
      </trkpt>
      <trkpt lat="45.29414" lon="5.43757">
        <ele>691.79998779297</ele>
        <time>2022-05-10T12:58:53Z</time>
      </trkpt>
      <trkpt lat="45.29435" lon="5.43729">
        <ele>692.79998779297</ele>
        <time>2022-05-10T12:59:02Z</time>
      </trkpt>
      <trkpt lat="45.29446" lon="5.43707">
        <ele>693.20001220703</ele>
        <time>2022-05-10T12:59:08Z</time>
      </trkpt>
      <trkpt lat="45.29448" lon="5.43704">
        <ele>693.40002441406</ele>
        <time>2022-05-10T12:59:09Z</time>
      </trkpt>
      <trkpt lat="45.29461" lon="5.43684">
        <ele>694.40002441406</ele>
        <time>2022-05-10T12:59:14Z</time>
      </trkpt>
      <trkpt lat="45.29463" lon="5.43682">
        <ele>694.59997558594</ele>
        <time>2022-05-10T12:59:15Z</time>
      </trkpt>
      <trkpt lat="45.29465" lon="5.4368">
        <ele>694.79998779297</ele>
        <time>2022-05-10T12:59:16Z</time>
      </trkpt>
      <trkpt lat="45.29468" lon="5.43677">
        <ele>695</ele>
        <time>2022-05-10T12:59:18Z</time>
      </trkpt>
      <trkpt lat="45.29472" lon="5.43675">
        <ele>695.59997558594</ele>
        <time>2022-05-10T12:59:20Z</time>
      </trkpt>
      <trkpt lat="45.29481" lon="5.43668">
        <ele>696.40002441406</ele>
        <time>2022-05-10T12:59:24Z</time>
      </trkpt>
      <trkpt lat="45.29482" lon="5.43667">
        <ele>696.79998779297</ele>
        <time>2022-05-10T12:59:25Z</time>
      </trkpt>
      <trkpt lat="45.29487" lon="5.43665">
        <ele>697.79998779297</ele>
        <time>2022-05-10T12:59:28Z</time>
      </trkpt>
      <trkpt lat="45.29489" lon="5.43662">
        <ele>698.59997558594</ele>
        <time>2022-05-10T12:59:30Z</time>
      </trkpt>
      <trkpt lat="45.2949" lon="5.43661">
        <ele>699.20001220703</ele>
        <time>2022-05-10T12:59:31Z</time>
      </trkpt>
      <trkpt lat="45.29495" lon="5.43657">
        <ele>700</ele>
        <time>2022-05-10T12:59:35Z</time>
      </trkpt>
      <trkpt lat="45.29497" lon="5.43655">
        <ele>700.20001220703</ele>
        <time>2022-05-10T12:59:36Z</time>
      </trkpt>
      <trkpt lat="45.29498" lon="5.43653">
        <ele>700.79998779297</ele>
        <time>2022-05-10T12:59:37Z</time>
      </trkpt>
      <trkpt lat="45.29501" lon="5.43648">
        <ele>701.59997558594</ele>
        <time>2022-05-10T12:59:41Z</time>
      </trkpt>
      <trkpt lat="45.29503" lon="5.43645">
        <ele>701.79998779297</ele>
        <time>2022-05-10T12:59:42Z</time>
      </trkpt>
      <trkpt lat="45.29508" lon="5.43631">
        <ele>702.79998779297</ele>
        <time>2022-05-10T12:59:47Z</time>
      </trkpt>
      <trkpt lat="45.29509" lon="5.43628">
        <ele>703</ele>
        <time>2022-05-10T12:59:48Z</time>
      </trkpt>
      <trkpt lat="45.29514" lon="5.43617">
        <ele>703.59997558594</ele>
        <time>2022-05-10T12:59:52Z</time>
      </trkpt>
      <trkpt lat="45.29515" lon="5.43612">
        <ele>704</ele>
        <time>2022-05-10T12:59:54Z</time>
      </trkpt>
      <trkpt lat="45.29516" lon="5.43611">
        <ele>704</ele>
        <time>2022-05-10T12:59:55Z</time>
      </trkpt>
      <trkpt lat="45.2952" lon="5.43601">
        <ele>704.20001220703</ele>
        <time>2022-05-10T12:59:58Z</time>
      </trkpt>
      <trkpt lat="45.29527" lon="5.43579">
        <ele>704</ele>
        <time>2022-05-10T13:00:03Z</time>
      </trkpt>
      <trkpt lat="45.29529" lon="5.43571">
        <ele>704</ele>
        <time>2022-05-10T13:00:05Z</time>
      </trkpt>
      <trkpt lat="45.29533" lon="5.43563">
        <ele>703.79998779297</ele>
        <time>2022-05-10T13:00:07Z</time>
      </trkpt>
      <trkpt lat="45.29538" lon="5.43544">
        <ele>704.20001220703</ele>
        <time>2022-05-10T13:00:11Z</time>
      </trkpt>
      <trkpt lat="45.29541" lon="5.43539">
        <ele>704.20001220703</ele>
        <time>2022-05-10T13:00:12Z</time>
      </trkpt>
      <trkpt lat="45.29548" lon="5.4352">
        <ele>704.40002441406</ele>
        <time>2022-05-10T13:00:16Z</time>
      </trkpt>
      <trkpt lat="45.29571" lon="5.43482">
        <ele>704.59997558594</ele>
        <time>2022-05-10T13:00:22Z</time>
      </trkpt>
      <trkpt lat="45.29587" lon="5.43461">
        <ele>705</ele>
        <time>2022-05-10T13:00:28Z</time>
      </trkpt>
      <trkpt lat="45.29592" lon="5.43459">
        <ele>705.40002441406</ele>
        <time>2022-05-10T13:00:30Z</time>
      </trkpt>
      <trkpt lat="45.29602" lon="5.43456">
        <ele>706.20001220703</ele>
        <time>2022-05-10T13:00:33Z</time>
      </trkpt>
      <trkpt lat="45.29605" lon="5.43453">
        <ele>706.59997558594</ele>
        <time>2022-05-10T13:00:34Z</time>
      </trkpt>
      <trkpt lat="45.29623" lon="5.43444">
        <ele>707.40002441406</ele>
        <time>2022-05-10T13:00:39Z</time>
      </trkpt>
      <trkpt lat="45.29632" lon="5.43436">
        <ele>707.59997558594</ele>
        <time>2022-05-10T13:00:42Z</time>
      </trkpt>
      <trkpt lat="45.29639" lon="5.43431">
        <ele>707.59997558594</ele>
        <time>2022-05-10T13:00:44Z</time>
      </trkpt>
      <trkpt lat="45.29646" lon="5.43426">
        <ele>707.40002441406</ele>
        <time>2022-05-10T13:00:47Z</time>
      </trkpt>
      <trkpt lat="45.29658" lon="5.43422">
        <ele>707</ele>
        <time>2022-05-10T13:00:49Z</time>
      </trkpt>
      <trkpt lat="45.29672" lon="5.43421">
        <ele>706.40002441406</ele>
        <time>2022-05-10T13:00:52Z</time>
      </trkpt>
      <trkpt lat="45.29685" lon="5.43421">
        <ele>705.79998779297</ele>
        <time>2022-05-10T13:00:54Z</time>
      </trkpt>
      <trkpt lat="45.29701" lon="5.43426">
        <ele>705.20001220703</ele>
        <time>2022-05-10T13:00:57Z</time>
      </trkpt>
      <trkpt lat="45.2971" lon="5.43431">
        <ele>704.79998779297</ele>
        <time>2022-05-10T13:00:59Z</time>
      </trkpt>
      <trkpt lat="45.29715" lon="5.43436">
        <ele>704.59997558594</ele>
        <time>2022-05-10T13:01:00Z</time>
      </trkpt>
      <trkpt lat="45.29721" lon="5.43439">
        <ele>704.20001220703</ele>
        <time>2022-05-10T13:01:01Z</time>
      </trkpt>
      <trkpt lat="45.29726" lon="5.43442">
        <ele>703.79998779297</ele>
        <time>2022-05-10T13:01:02Z</time>
      </trkpt>
      <trkpt lat="45.29734" lon="5.43445">
        <ele>703.20001220703</ele>
        <time>2022-05-10T13:01:04Z</time>
      </trkpt>
      <trkpt lat="45.29745" lon="5.43448">
        <ele>702.79998779297</ele>
        <time>2022-05-10T13:01:06Z</time>
      </trkpt>
      <trkpt lat="45.29761" lon="5.43457">
        <ele>702</ele>
        <time>2022-05-10T13:01:09Z</time>
      </trkpt>
      <trkpt lat="45.29768" lon="5.43459">
        <ele>701.20001220703</ele>
        <time>2022-05-10T13:01:11Z</time>
      </trkpt>
      <trkpt lat="45.29775" lon="5.43461">
        <ele>700</ele>
        <time>2022-05-10T13:01:13Z</time>
      </trkpt>
      <trkpt lat="45.2978" lon="5.43462">
        <ele>699</ele>
        <time>2022-05-10T13:01:15Z</time>
      </trkpt>
      <trkpt lat="45.29782" lon="5.43461">
        <ele>698.79998779297</ele>
        <time>2022-05-10T13:01:16Z</time>
      </trkpt>
      <trkpt lat="45.29785" lon="5.43459">
        <ele>698.20001220703</ele>
        <time>2022-05-10T13:01:18Z</time>
      </trkpt>
      <trkpt lat="45.29788" lon="5.43455">
        <ele>697.59997558594</ele>
        <time>2022-05-10T13:01:21Z</time>
      </trkpt>
      <trkpt lat="45.29788" lon="5.43453">
        <ele>697.20001220703</ele>
        <time>2022-05-10T13:01:22Z</time>
      </trkpt>
      <trkpt lat="45.29789" lon="5.4345">
        <ele>696.40002441406</ele>
        <time>2022-05-10T13:01:24Z</time>
      </trkpt>
      <trkpt lat="45.29789" lon="5.43445">
        <ele>695.40002441406</ele>
        <time>2022-05-10T13:01:27Z</time>
      </trkpt>
      <trkpt lat="45.29789" lon="5.43442">
        <ele>695.20001220703</ele>
        <time>2022-05-10T13:01:29Z</time>
      </trkpt>
      <trkpt lat="45.29789" lon="5.43441">
        <ele>695.20001220703</ele>
        <time>2022-05-10T13:01:30Z</time>
      </trkpt>
      <trkpt lat="45.29792" lon="5.43441">
        <ele>695.20001220703</ele>
        <time>2022-05-10T13:01:33Z</time>
      </trkpt>
      <trkpt lat="45.29792" lon="5.43441">
        <ele>695.20001220703</ele>
        <time>2022-05-10T13:01:34Z</time>
      </trkpt>
      <trkpt lat="45.29797" lon="5.43448">
        <ele>696</ele>
        <time>2022-05-10T13:01:38Z</time>
      </trkpt>
      <trkpt lat="45.29801" lon="5.43451">
        <ele>696.79998779297</ele>
        <time>2022-05-10T13:01:40Z</time>
      </trkpt>
      <trkpt lat="45.29804" lon="5.43453">
        <ele>697.20001220703</ele>
        <time>2022-05-10T13:01:42Z</time>
      </trkpt>
      <trkpt lat="45.29805" lon="5.43455">
        <ele>697.59997558594</ele>
        <time>2022-05-10T13:01:43Z</time>
      </trkpt>
      <trkpt lat="45.29809" lon="5.43459">
        <ele>698.40002441406</ele>
        <time>2022-05-10T13:01:45Z</time>
      </trkpt>
      <trkpt lat="45.29815" lon="5.43462">
        <ele>699.59997558594</ele>
        <time>2022-05-10T13:01:49Z</time>
      </trkpt>
      <trkpt lat="45.29817" lon="5.43464">
        <ele>700.20001220703</ele>
        <time>2022-05-10T13:01:50Z</time>
      </trkpt>
      <trkpt lat="45.29823" lon="5.43471">
        <ele>700.59997558594</ele>
        <time>2022-05-10T13:01:53Z</time>
      </trkpt>
      <trkpt lat="45.29827" lon="5.43475">
        <ele>701.20001220703</ele>
        <time>2022-05-10T13:01:55Z</time>
      </trkpt>
      <trkpt lat="45.29832" lon="5.4348">
        <ele>702</ele>
        <time>2022-05-10T13:01:58Z</time>
      </trkpt>
      <trkpt lat="45.2984" lon="5.43489">
        <ele>703.20001220703</ele>
        <time>2022-05-10T13:02:03Z</time>
      </trkpt>
      <trkpt lat="45.2984" lon="5.43493">
        <ele>703.20001220703</ele>
        <time>2022-05-10T13:02:04Z</time>
      </trkpt>
      <trkpt lat="45.29842" lon="5.435">
        <ele>703.79998779297</ele>
        <time>2022-05-10T13:02:07Z</time>
      </trkpt>
      <trkpt lat="45.29847" lon="5.4351">
        <ele>704.20001220703</ele>
        <time>2022-05-10T13:02:10Z</time>
      </trkpt>
      <trkpt lat="45.2985" lon="5.43511">
        <ele>704.79998779297</ele>
        <time>2022-05-10T13:02:13Z</time>
      </trkpt>
      <trkpt lat="45.29855" lon="5.43518">
        <ele>705.40002441406</ele>
        <time>2022-05-10T13:02:16Z</time>
      </trkpt>
      <trkpt lat="45.29858" lon="5.43524">
        <ele>706</ele>
        <time>2022-05-10T13:02:19Z</time>
      </trkpt>
      <trkpt lat="45.29859" lon="5.43528">
        <ele>706.59997558594</ele>
        <time>2022-05-10T13:02:21Z</time>
      </trkpt>
      <trkpt lat="45.29862" lon="5.43535">
        <ele>707.20001220703</ele>
        <time>2022-05-10T13:02:24Z</time>
      </trkpt>
      <trkpt lat="45.29865" lon="5.43538">
        <ele>707.40002441406</ele>
        <time>2022-05-10T13:02:26Z</time>
      </trkpt>
      <trkpt lat="45.29868" lon="5.43541">
        <ele>707.79998779297</ele>
        <time>2022-05-10T13:02:28Z</time>
      </trkpt>
      <trkpt lat="45.29871" lon="5.43547">
        <ele>708.40002441406</ele>
        <time>2022-05-10T13:02:31Z</time>
      </trkpt>
      <trkpt lat="45.29879" lon="5.43556">
        <ele>709.79998779297</ele>
        <time>2022-05-10T13:02:37Z</time>
      </trkpt>
      <trkpt lat="45.29879" lon="5.43557">
        <ele>709.79998779297</ele>
        <time>2022-05-10T13:02:38Z</time>
      </trkpt>
      <trkpt lat="45.2988" lon="5.43563">
        <ele>710.79998779297</ele>
        <time>2022-05-10T13:02:44Z</time>
      </trkpt>
      <trkpt lat="45.29886" lon="5.43588">
        <ele>711.40002441406</ele>
        <time>2022-05-10T13:02:49Z</time>
      </trkpt>
      <trkpt lat="45.29889" lon="5.43605">
        <ele>712</ele>
        <time>2022-05-10T13:02:53Z</time>
      </trkpt>
      <trkpt lat="45.2989" lon="5.43617">
        <ele>712.20001220703</ele>
        <time>2022-05-10T13:02:56Z</time>
      </trkpt>
      <trkpt lat="45.29894" lon="5.43633">
        <ele>712.59997558594</ele>
        <time>2022-05-10T13:02:59Z</time>
      </trkpt>
      <trkpt lat="45.29898" lon="5.43643">
        <ele>712.79998779297</ele>
        <time>2022-05-10T13:03:01Z</time>
      </trkpt>
      <trkpt lat="45.29902" lon="5.43652">
        <ele>713</ele>
        <time>2022-05-10T13:03:03Z</time>
      </trkpt>
      <trkpt lat="45.29907" lon="5.43665">
        <ele>714</ele>
        <time>2022-05-10T13:03:08Z</time>
      </trkpt>
      <trkpt lat="45.29907" lon="5.43669">
        <ele>714.59997558594</ele>
        <time>2022-05-10T13:03:09Z</time>
      </trkpt>
      <trkpt lat="45.29907" lon="5.43677">
        <ele>715</ele>
        <time>2022-05-10T13:03:11Z</time>
      </trkpt>
      <trkpt lat="45.29909" lon="5.4369">
        <ele>716</ele>
        <time>2022-05-10T13:03:15Z</time>
      </trkpt>
      <trkpt lat="45.2991" lon="5.43694">
        <ele>716.20001220703</ele>
        <time>2022-05-10T13:03:16Z</time>
      </trkpt>
      <trkpt lat="45.29915" lon="5.4371">
        <ele>717.40002441406</ele>
        <time>2022-05-10T13:03:22Z</time>
      </trkpt>
      <trkpt lat="45.29914" lon="5.43712">
        <ele>717.59997558594</ele>
        <time>2022-05-10T13:03:23Z</time>
      </trkpt>
      <trkpt lat="45.29916" lon="5.43714">
        <ele>717.59997558594</ele>
        <time>2022-05-10T13:03:24Z</time>
      </trkpt>
      <trkpt lat="45.29919" lon="5.43723">
        <ele>718.40002441406</ele>
        <time>2022-05-10T13:03:28Z</time>
      </trkpt>
      <trkpt lat="45.29919" lon="5.43726">
        <ele>718.59997558594</ele>
        <time>2022-05-10T13:03:29Z</time>
      </trkpt>
      <trkpt lat="45.29919" lon="5.43728">
        <ele>718.59997558594</ele>
        <time>2022-05-10T13:03:30Z</time>
      </trkpt>
      <trkpt lat="45.29922" lon="5.43735">
        <ele>719.59997558594</ele>
        <time>2022-05-10T13:03:33Z</time>
      </trkpt>
      <trkpt lat="45.29925" lon="5.43748">
        <ele>721</ele>
        <time>2022-05-10T13:03:38Z</time>
      </trkpt>
      <trkpt lat="45.29928" lon="5.43755">
        <ele>722</ele>
        <time>2022-05-10T13:03:41Z</time>
      </trkpt>
      <trkpt lat="45.29928" lon="5.43759">
        <ele>722.20001220703</ele>
        <time>2022-05-10T13:03:42Z</time>
      </trkpt>
      <trkpt lat="45.29927" lon="5.4377">
        <ele>722.79998779297</ele>
        <time>2022-05-10T13:03:45Z</time>
      </trkpt>
      <trkpt lat="45.29927" lon="5.43773">
        <ele>723.20001220703</ele>
        <time>2022-05-10T13:03:47Z</time>
      </trkpt>
      <trkpt lat="45.29927" lon="5.43775">
        <ele>723.40002441406</ele>
        <time>2022-05-10T13:03:48Z</time>
      </trkpt>
      <trkpt lat="45.29933" lon="5.43792">
        <ele>724.20001220703</ele>
        <time>2022-05-10T13:03:52Z</time>
      </trkpt>
      <trkpt lat="45.29936" lon="5.43799">
        <ele>724.79998779297</ele>
        <time>2022-05-10T13:03:54Z</time>
      </trkpt>
      <trkpt lat="45.29938" lon="5.43807">
        <ele>725.20001220703</ele>
        <time>2022-05-10T13:03:56Z</time>
      </trkpt>
      <trkpt lat="45.2994" lon="5.43828">
        <ele>725.79998779297</ele>
        <time>2022-05-10T13:04:02Z</time>
      </trkpt>
      <trkpt lat="45.29943" lon="5.43836">
        <ele>726</ele>
        <time>2022-05-10T13:04:04Z</time>
      </trkpt>
      <trkpt lat="45.29945" lon="5.43856">
        <ele>727.20001220703</ele>
        <time>2022-05-10T13:04:09Z</time>
      </trkpt>
      <trkpt lat="45.29945" lon="5.4386">
        <ele>727.40002441406</ele>
        <time>2022-05-10T13:04:10Z</time>
      </trkpt>
      <trkpt lat="45.29946" lon="5.4388">
        <ele>728.20001220703</ele>
        <time>2022-05-10T13:04:16Z</time>
      </trkpt>
      <trkpt lat="45.29946" lon="5.43882">
        <ele>728.40002441406</ele>
        <time>2022-05-10T13:04:17Z</time>
      </trkpt>
      <trkpt lat="45.2995" lon="5.43892">
        <ele>729.20001220703</ele>
        <time>2022-05-10T13:04:22Z</time>
      </trkpt>
      <trkpt lat="45.29951" lon="5.43895">
        <ele>729.40002441406</ele>
        <time>2022-05-10T13:04:23Z</time>
      </trkpt>
      <trkpt lat="45.29952" lon="5.43904">
        <ele>730.40002441406</ele>
        <time>2022-05-10T13:04:26Z</time>
      </trkpt>
      <trkpt lat="45.29951" lon="5.43911">
        <ele>731</ele>
        <time>2022-05-10T13:04:28Z</time>
      </trkpt>
      <trkpt lat="45.29951" lon="5.43917">
        <ele>731.40002441406</ele>
        <time>2022-05-10T13:04:30Z</time>
      </trkpt>
      <trkpt lat="45.2995" lon="5.4393">
        <ele>732</ele>
        <time>2022-05-10T13:04:34Z</time>
      </trkpt>
      <trkpt lat="45.29952" lon="5.43939">
        <ele>732.40002441406</ele>
        <time>2022-05-10T13:04:37Z</time>
      </trkpt>
      <trkpt lat="45.2995" lon="5.43956">
        <ele>733.59997558594</ele>
        <time>2022-05-10T13:04:42Z</time>
      </trkpt>
      <trkpt lat="45.29946" lon="5.43967">
        <ele>734.79998779297</ele>
        <time>2022-05-10T13:04:46Z</time>
      </trkpt>
      <trkpt lat="45.29944" lon="5.43971">
        <ele>735</ele>
        <time>2022-05-10T13:04:48Z</time>
      </trkpt>
      <trkpt lat="45.29943" lon="5.43974">
        <ele>735.20001220703</ele>
        <time>2022-05-10T13:04:49Z</time>
      </trkpt>
      <trkpt lat="45.29941" lon="5.4398">
        <ele>735.79998779297</ele>
        <time>2022-05-10T13:04:51Z</time>
      </trkpt>
      <trkpt lat="45.29938" lon="5.43985">
        <ele>736.40002441406</ele>
        <time>2022-05-10T13:04:54Z</time>
      </trkpt>
      <trkpt lat="45.29938" lon="5.43985">
        <ele>736.59997558594</ele>
        <time>2022-05-10T13:04:55Z</time>
      </trkpt>
      <trkpt lat="45.29936" lon="5.43992">
        <ele>736.79998779297</ele>
        <time>2022-05-10T13:04:57Z</time>
      </trkpt>
      <trkpt lat="45.29935" lon="5.4401">
        <ele>737.79998779297</ele>
        <time>2022-05-10T13:05:01Z</time>
      </trkpt>
      <trkpt lat="45.2994" lon="5.44026">
        <ele>738.79998779297</ele>
        <time>2022-05-10T13:05:05Z</time>
      </trkpt>
      <trkpt lat="45.2994" lon="5.44031">
        <ele>739.40002441406</ele>
        <time>2022-05-10T13:05:07Z</time>
      </trkpt>
      <trkpt lat="45.29942" lon="5.44033">
        <ele>739.79998779297</ele>
        <time>2022-05-10T13:05:09Z</time>
      </trkpt>
      <trkpt lat="45.29944" lon="5.44045">
        <ele>741</ele>
        <time>2022-05-10T13:05:12Z</time>
      </trkpt>
      <trkpt lat="45.29943" lon="5.44049">
        <ele>741.40002441406</ele>
        <time>2022-05-10T13:05:14Z</time>
      </trkpt>
      <trkpt lat="45.29944" lon="5.44062">
        <ele>742.20001220703</ele>
        <time>2022-05-10T13:05:18Z</time>
      </trkpt>
      <trkpt lat="45.29945" lon="5.44065">
        <ele>742.40002441406</ele>
        <time>2022-05-10T13:05:19Z</time>
      </trkpt>
      <trkpt lat="45.29952" lon="5.44076">
        <ele>743.20001220703</ele>
        <time>2022-05-10T13:05:23Z</time>
      </trkpt>
      <trkpt lat="45.29956" lon="5.44079">
        <ele>743.79998779297</ele>
        <time>2022-05-10T13:05:26Z</time>
      </trkpt>
      <trkpt lat="45.29957" lon="5.44079">
        <ele>744.40002441406</ele>
        <time>2022-05-10T13:05:27Z</time>
      </trkpt>
      <trkpt lat="45.2996" lon="5.44081">
        <ele>745</ele>
        <time>2022-05-10T13:05:29Z</time>
      </trkpt>
      <trkpt lat="45.29962" lon="5.44083">
        <ele>745.20001220703</ele>
        <time>2022-05-10T13:05:30Z</time>
      </trkpt>
      <trkpt lat="45.29965" lon="5.44084">
        <ele>745.59997558594</ele>
        <time>2022-05-10T13:05:32Z</time>
      </trkpt>
      <trkpt lat="45.29974" lon="5.44082">
        <ele>746.79998779297</ele>
        <time>2022-05-10T13:05:36Z</time>
      </trkpt>
      <trkpt lat="45.2998" lon="5.44083">
        <ele>748</ele>
        <time>2022-05-10T13:05:39Z</time>
      </trkpt>
      <trkpt lat="45.29983" lon="5.44081">
        <ele>748.79998779297</ele>
        <time>2022-05-10T13:05:41Z</time>
      </trkpt>
      <trkpt lat="45.29984" lon="5.4408">
        <ele>749</ele>
        <time>2022-05-10T13:05:42Z</time>
      </trkpt>
      <trkpt lat="45.29985" lon="5.44079">
        <ele>749.40002441406</ele>
        <time>2022-05-10T13:05:43Z</time>
      </trkpt>
      <trkpt lat="45.29987" lon="5.44077">
        <ele>749.79998779297</ele>
        <time>2022-05-10T13:05:45Z</time>
      </trkpt>
      <trkpt lat="45.29991" lon="5.44074">
        <ele>750.20001220703</ele>
        <time>2022-05-10T13:05:49Z</time>
      </trkpt>
      <trkpt lat="45.29995" lon="5.4407">
        <ele>750.40002441406</ele>
        <time>2022-05-10T13:05:51Z</time>
      </trkpt>
      <trkpt lat="45.29997" lon="5.44069">
        <ele>750.59997558594</ele>
        <time>2022-05-10T13:05:52Z</time>
      </trkpt>
      <trkpt lat="45.30003" lon="5.44064">
        <ele>751</ele>
        <time>2022-05-10T13:05:59Z</time>
      </trkpt>
      <trkpt lat="45.30014" lon="5.44054">
        <ele>751.59997558594</ele>
        <time>2022-05-10T13:06:04Z</time>
      </trkpt>
      <trkpt lat="45.3002" lon="5.44047">
        <ele>752.40002441406</ele>
        <time>2022-05-10T13:06:08Z</time>
      </trkpt>
      <trkpt lat="45.30024" lon="5.4404">
        <ele>752.79998779297</ele>
        <time>2022-05-10T13:06:10Z</time>
      </trkpt>
      <trkpt lat="45.3003" lon="5.44032">
        <ele>753.40002441406</ele>
        <time>2022-05-10T13:06:12Z</time>
      </trkpt>
      <trkpt lat="45.30034" lon="5.4403">
        <ele>753.59997558594</ele>
        <time>2022-05-10T13:06:14Z</time>
      </trkpt>
      <trkpt lat="45.30035" lon="5.4403">
        <ele>753.79998779297</ele>
        <time>2022-05-10T13:06:15Z</time>
      </trkpt>
      <trkpt lat="45.30035" lon="5.44031">
        <ele>754</ele>
        <time>2022-05-10T13:06:16Z</time>
      </trkpt>
      <trkpt lat="45.30045" lon="5.44031">
        <ele>755</ele>
        <time>2022-05-10T13:06:20Z</time>
      </trkpt>
      <trkpt lat="45.30051" lon="5.4403">
        <ele>756.40002441406</ele>
        <time>2022-05-10T13:06:24Z</time>
      </trkpt>
      <trkpt lat="45.30059" lon="5.44027">
        <ele>757.59997558594</ele>
        <time>2022-05-10T13:06:28Z</time>
      </trkpt>
      <trkpt lat="45.3006" lon="5.44027">
        <ele>757.79998779297</ele>
        <time>2022-05-10T13:06:29Z</time>
      </trkpt>
      <trkpt lat="45.30062" lon="5.44027">
        <ele>758</ele>
        <time>2022-05-10T13:06:30Z</time>
      </trkpt>
      <trkpt lat="45.30064" lon="5.44027">
        <ele>758.40002441406</ele>
        <time>2022-05-10T13:06:31Z</time>
      </trkpt>
      <trkpt lat="45.30066" lon="5.44025">
        <ele>758.59997558594</ele>
        <time>2022-05-10T13:06:32Z</time>
      </trkpt>
      <trkpt lat="45.30067" lon="5.44025">
        <ele>759</ele>
        <time>2022-05-10T13:06:33Z</time>
      </trkpt>
      <trkpt lat="45.30073" lon="5.44025">
        <ele>759.59997558594</ele>
        <time>2022-05-10T13:06:36Z</time>
      </trkpt>
      <trkpt lat="45.30075" lon="5.44024">
        <ele>759.79998779297</ele>
        <time>2022-05-10T13:06:37Z</time>
      </trkpt>
      <trkpt lat="45.3008" lon="5.44018">
        <ele>761</ele>
        <time>2022-05-10T13:06:42Z</time>
      </trkpt>
      <trkpt lat="45.30085" lon="5.44015">
        <ele>761.40002441406</ele>
        <time>2022-05-10T13:06:45Z</time>
      </trkpt>
      <trkpt lat="45.3009" lon="5.44007">
        <ele>762</ele>
        <time>2022-05-10T13:06:50Z</time>
      </trkpt>
      <trkpt lat="45.30092" lon="5.44003">
        <ele>762.40002441406</ele>
        <time>2022-05-10T13:06:52Z</time>
      </trkpt>
      <trkpt lat="45.30104" lon="5.43992">
        <ele>762.79998779297</ele>
        <time>2022-05-10T13:07:00Z</time>
      </trkpt>
      <trkpt lat="45.30105" lon="5.43991">
        <ele>762.79998779297</ele>
        <time>2022-05-10T13:07:01Z</time>
      </trkpt>
      <trkpt lat="45.30108" lon="5.43988">
        <ele>762.79998779297</ele>
        <time>2022-05-10T13:07:03Z</time>
      </trkpt>
      <trkpt lat="45.30113" lon="5.43986">
        <ele>762.79998779297</ele>
        <time>2022-05-10T13:07:06Z</time>
      </trkpt>
      <trkpt lat="45.30114" lon="5.43986">
        <ele>762.79998779297</ele>
        <time>2022-05-10T13:07:07Z</time>
      </trkpt>
      <trkpt lat="45.30121" lon="5.43983">
        <ele>762.79998779297</ele>
        <time>2022-05-10T13:07:10Z</time>
      </trkpt>
      <trkpt lat="45.3013" lon="5.43989">
        <ele>762.59997558594</ele>
        <time>2022-05-10T13:07:12Z</time>
      </trkpt>
      <trkpt lat="45.30137" lon="5.44006">
        <ele>762.40002441406</ele>
        <time>2022-05-10T13:07:16Z</time>
      </trkpt>
      <trkpt lat="45.30147" lon="5.44033">
        <ele>763.20001220703</ele>
        <time>2022-05-10T13:07:21Z</time>
      </trkpt>
      <trkpt lat="45.30151" lon="5.44055">
        <ele>763.40002441406</ele>
        <time>2022-05-10T13:07:25Z</time>
      </trkpt>
      <trkpt lat="45.30153" lon="5.44069">
        <ele>763.59997558594</ele>
        <time>2022-05-10T13:07:28Z</time>
      </trkpt>
      <trkpt lat="45.30155" lon="5.44088">
        <ele>764.20001220703</ele>
        <time>2022-05-10T13:07:32Z</time>
      </trkpt>
      <trkpt lat="45.30156" lon="5.44092">
        <ele>764.40002441406</ele>
        <time>2022-05-10T13:07:33Z</time>
      </trkpt>
      <trkpt lat="45.30157" lon="5.44097">
        <ele>764.59997558594</ele>
        <time>2022-05-10T13:07:34Z</time>
      </trkpt>
      <trkpt lat="45.30159" lon="5.44117">
        <ele>764.79998779297</ele>
        <time>2022-05-10T13:07:39Z</time>
      </trkpt>
      <trkpt lat="45.30166" lon="5.44146">
        <ele>764.59997558594</ele>
        <time>2022-05-10T13:07:45Z</time>
      </trkpt>
      <trkpt lat="45.30173" lon="5.44177">
        <ele>764.40002441406</ele>
        <time>2022-05-10T13:07:50Z</time>
      </trkpt>
      <trkpt lat="45.30179" lon="5.442">
        <ele>764.20001220703</ele>
        <time>2022-05-10T13:07:53Z</time>
      </trkpt>
      <trkpt lat="45.3018" lon="5.44217">
        <ele>764</ele>
        <time>2022-05-10T13:07:55Z</time>
      </trkpt>
      <trkpt lat="45.30182" lon="5.44233">
        <ele>763.40002441406</ele>
        <time>2022-05-10T13:07:57Z</time>
      </trkpt>
      <trkpt lat="45.30185" lon="5.44266">
        <ele>762.20001220703</ele>
        <time>2022-05-10T13:08:01Z</time>
      </trkpt>
      <trkpt lat="45.30195" lon="5.44302">
        <ele>761</ele>
        <time>2022-05-10T13:08:06Z</time>
      </trkpt>
      <trkpt lat="45.30197" lon="5.44311">
        <ele>761</ele>
        <time>2022-05-10T13:08:07Z</time>
      </trkpt>
      <trkpt lat="45.30201" lon="5.44328">
        <ele>760.40002441406</ele>
        <time>2022-05-10T13:08:09Z</time>
      </trkpt>
      <trkpt lat="45.30205" lon="5.44346">
        <ele>759.79998779297</ele>
        <time>2022-05-10T13:08:11Z</time>
      </trkpt>
      <trkpt lat="45.30207" lon="5.44355">
        <ele>759.59997558594</ele>
        <time>2022-05-10T13:08:12Z</time>
      </trkpt>
      <trkpt lat="45.30214" lon="5.44387">
        <ele>758.79998779297</ele>
        <time>2022-05-10T13:08:16Z</time>
      </trkpt>
      <trkpt lat="45.30216" lon="5.44395">
        <ele>758</ele>
        <time>2022-05-10T13:08:17Z</time>
      </trkpt>
      <trkpt lat="45.30219" lon="5.44404">
        <ele>757</ele>
        <time>2022-05-10T13:08:18Z</time>
      </trkpt>
      <trkpt lat="45.30224" lon="5.44432">
        <ele>755.79998779297</ele>
        <time>2022-05-10T13:08:21Z</time>
      </trkpt>
      <trkpt lat="45.30227" lon="5.4445">
        <ele>754.59997558594</ele>
        <time>2022-05-10T13:08:23Z</time>
      </trkpt>
      <trkpt lat="45.30229" lon="5.44458">
        <ele>753.20001220703</ele>
        <time>2022-05-10T13:08:24Z</time>
      </trkpt>
      <trkpt lat="45.3023" lon="5.44476">
        <ele>751.40002441406</ele>
        <time>2022-05-10T13:08:26Z</time>
      </trkpt>
      <trkpt lat="45.3023" lon="5.44494">
        <ele>750.59997558594</ele>
        <time>2022-05-10T13:08:28Z</time>
      </trkpt>
      <trkpt lat="45.3023" lon="5.44501">
        <ele>750.20001220703</ele>
        <time>2022-05-10T13:08:29Z</time>
      </trkpt>
      <trkpt lat="45.30229" lon="5.44518">
        <ele>748.79998779297</ele>
        <time>2022-05-10T13:08:31Z</time>
      </trkpt>
      <trkpt lat="45.30227" lon="5.44537">
        <ele>747.20001220703</ele>
        <time>2022-05-10T13:08:33Z</time>
      </trkpt>
      <trkpt lat="45.30226" lon="5.44545">
        <ele>746.79998779297</ele>
        <time>2022-05-10T13:08:34Z</time>
      </trkpt>
      <trkpt lat="45.30224" lon="5.4456">
        <ele>746</ele>
        <time>2022-05-10T13:08:36Z</time>
      </trkpt>
      <trkpt lat="45.30223" lon="5.4457">
        <ele>745.79998779297</ele>
        <time>2022-05-10T13:08:38Z</time>
      </trkpt>
      <trkpt lat="45.30222" lon="5.44588">
        <ele>746</ele>
        <time>2022-05-10T13:08:42Z</time>
      </trkpt>
      <trkpt lat="45.30222" lon="5.44591">
        <ele>746.20001220703</ele>
        <time>2022-05-10T13:08:43Z</time>
      </trkpt>
      <trkpt lat="45.30223" lon="5.44607">
        <ele>746.79998779297</ele>
        <time>2022-05-10T13:08:47Z</time>
      </trkpt>
      <trkpt lat="45.30225" lon="5.44613">
        <ele>747.20001220703</ele>
        <time>2022-05-10T13:08:49Z</time>
      </trkpt>
      <trkpt lat="45.30225" lon="5.44617">
        <ele>747.40002441406</ele>
        <time>2022-05-10T13:08:50Z</time>
      </trkpt>
      <trkpt lat="45.30226" lon="5.44629">
        <ele>748.20001220703</ele>
        <time>2022-05-10T13:08:53Z</time>
      </trkpt>
      <trkpt lat="45.30228" lon="5.44633">
        <ele>748.59997558594</ele>
        <time>2022-05-10T13:08:54Z</time>
      </trkpt>
      <trkpt lat="45.30238" lon="5.4464">
        <ele>749.40002441406</ele>
        <time>2022-05-10T13:08:57Z</time>
      </trkpt>
      <trkpt lat="45.3024" lon="5.44641">
        <ele>749.79998779297</ele>
        <time>2022-05-10T13:08:58Z</time>
      </trkpt>
      <trkpt lat="45.30258" lon="5.44652">
        <ele>750.20001220703</ele>
        <time>2022-05-10T13:09:04Z</time>
      </trkpt>
      <trkpt lat="45.30281" lon="5.44665">
        <ele>749.79998779297</ele>
        <time>2022-05-10T13:09:10Z</time>
      </trkpt>
      <trkpt lat="45.30293" lon="5.4467">
        <ele>748.59997558594</ele>
        <time>2022-05-10T13:09:14Z</time>
      </trkpt>
      <trkpt lat="45.30301" lon="5.44673">
        <ele>747.20001220703</ele>
        <time>2022-05-10T13:09:17Z</time>
      </trkpt>
      <trkpt lat="45.30307" lon="5.44676">
        <ele>745.79998779297</ele>
        <time>2022-05-10T13:09:19Z</time>
      </trkpt>
      <trkpt lat="45.30313" lon="5.44682">
        <ele>744.79998779297</ele>
        <time>2022-05-10T13:09:22Z</time>
      </trkpt>
      <trkpt lat="45.30314" lon="5.44685">
        <ele>744.20001220703</ele>
        <time>2022-05-10T13:09:23Z</time>
      </trkpt>
      <trkpt lat="45.30319" lon="5.44693">
        <ele>743.40002441406</ele>
        <time>2022-05-10T13:09:26Z</time>
      </trkpt>
      <trkpt lat="45.30323" lon="5.44698">
        <ele>742</ele>
        <time>2022-05-10T13:09:28Z</time>
      </trkpt>
      <trkpt lat="45.30326" lon="5.44702">
        <ele>740.79998779297</ele>
        <time>2022-05-10T13:09:30Z</time>
      </trkpt>
      <trkpt lat="45.30331" lon="5.44703">
        <ele>739.79998779297</ele>
        <time>2022-05-10T13:09:32Z</time>
      </trkpt>
      <trkpt lat="45.30337" lon="5.44705">
        <ele>738</ele>
        <time>2022-05-10T13:09:34Z</time>
      </trkpt>
      <trkpt lat="45.30342" lon="5.44707">
        <ele>737</ele>
        <time>2022-05-10T13:09:36Z</time>
      </trkpt>
      <trkpt lat="45.30348" lon="5.44706">
        <ele>735.79998779297</ele>
        <time>2022-05-10T13:09:38Z</time>
      </trkpt>
      <trkpt lat="45.3036" lon="5.44706">
        <ele>734.20001220703</ele>
        <time>2022-05-10T13:09:41Z</time>
      </trkpt>
      <trkpt lat="45.30372" lon="5.44708">
        <ele>732.20001220703</ele>
        <time>2022-05-10T13:09:44Z</time>
      </trkpt>
      <trkpt lat="45.30379" lon="5.44709">
        <ele>731</ele>
        <time>2022-05-10T13:09:46Z</time>
      </trkpt>
      <trkpt lat="45.30385" lon="5.44711">
        <ele>729.59997558594</ele>
        <time>2022-05-10T13:09:48Z</time>
      </trkpt>
      <trkpt lat="45.30394" lon="5.44714">
        <ele>728.40002441406</ele>
        <time>2022-05-10T13:09:51Z</time>
      </trkpt>
      <trkpt lat="45.30402" lon="5.44719">
        <ele>727.20001220703</ele>
        <time>2022-05-10T13:09:53Z</time>
      </trkpt>
      <trkpt lat="45.30416" lon="5.44728">
        <ele>726</ele>
        <time>2022-05-10T13:09:57Z</time>
      </trkpt>
      <trkpt lat="45.30426" lon="5.44733">
        <ele>724.40002441406</ele>
        <time>2022-05-10T13:10:00Z</time>
      </trkpt>
      <trkpt lat="45.30432" lon="5.44736">
        <ele>723.20001220703</ele>
        <time>2022-05-10T13:10:02Z</time>
      </trkpt>
      <trkpt lat="45.30439" lon="5.44739">
        <ele>721.59997558594</ele>
        <time>2022-05-10T13:10:04Z</time>
      </trkpt>
      <trkpt lat="45.30442" lon="5.4474">
        <ele>721.20001220703</ele>
        <time>2022-05-10T13:10:05Z</time>
      </trkpt>
      <trkpt lat="45.30449" lon="5.44744">
        <ele>720.20001220703</ele>
        <time>2022-05-10T13:10:07Z</time>
      </trkpt>
      <trkpt lat="45.30451" lon="5.44745">
        <ele>719.20001220703</ele>
        <time>2022-05-10T13:10:08Z</time>
      </trkpt>
      <trkpt lat="45.30458" lon="5.44746">
        <ele>718</ele>
        <time>2022-05-10T13:10:10Z</time>
      </trkpt>
      <trkpt lat="45.30466" lon="5.44745">
        <ele>717.20001220703</ele>
        <time>2022-05-10T13:10:12Z</time>
      </trkpt>
      <trkpt lat="45.3047" lon="5.44743">
        <ele>716.40002441406</ele>
        <time>2022-05-10T13:10:13Z</time>
      </trkpt>
      <trkpt lat="45.30474" lon="5.44741">
        <ele>715.79998779297</ele>
        <time>2022-05-10T13:10:14Z</time>
      </trkpt>
      <trkpt lat="45.30478" lon="5.44739">
        <ele>714.79998779297</ele>
        <time>2022-05-10T13:10:15Z</time>
      </trkpt>
      <trkpt lat="45.30485" lon="5.44735">
        <ele>713.79998779297</ele>
        <time>2022-05-10T13:10:17Z</time>
      </trkpt>
      <trkpt lat="45.30488" lon="5.44734">
        <ele>713.59997558594</ele>
        <time>2022-05-10T13:10:18Z</time>
      </trkpt>
      <trkpt lat="45.30493" lon="5.44732">
        <ele>712.59997558594</ele>
        <time>2022-05-10T13:10:20Z</time>
      </trkpt>
      <trkpt lat="45.30494" lon="5.44733">
        <ele>712.20001220703</ele>
        <time>2022-05-10T13:10:21Z</time>
      </trkpt>
      <trkpt lat="45.30496" lon="5.44734">
        <ele>711.40002441406</ele>
        <time>2022-05-10T13:10:22Z</time>
      </trkpt>
      <trkpt lat="45.30497" lon="5.44736">
        <ele>711.20001220703</ele>
        <time>2022-05-10T13:10:23Z</time>
      </trkpt>
      <trkpt lat="45.30497" lon="5.44739">
        <ele>710.79998779297</ele>
        <time>2022-05-10T13:10:24Z</time>
      </trkpt>
      <trkpt lat="45.30497" lon="5.44743">
        <ele>710.59997558594</ele>
        <time>2022-05-10T13:10:25Z</time>
      </trkpt>
      <trkpt lat="45.30489" lon="5.44754">
        <ele>710</ele>
        <time>2022-05-10T13:10:29Z</time>
      </trkpt>
      <trkpt lat="45.30485" lon="5.44756">
        <ele>709.79998779297</ele>
        <time>2022-05-10T13:10:30Z</time>
      </trkpt>
      <trkpt lat="45.30475" lon="5.44763">
        <ele>709</ele>
        <time>2022-05-10T13:10:33Z</time>
      </trkpt>
      <trkpt lat="45.30467" lon="5.44768">
        <ele>708.79998779297</ele>
        <time>2022-05-10T13:10:35Z</time>
      </trkpt>
      <trkpt lat="45.30457" lon="5.44777">
        <ele>708.59997558594</ele>
        <time>2022-05-10T13:10:37Z</time>
      </trkpt>
      <trkpt lat="45.30444" lon="5.44791">
        <ele>708.59997558594</ele>
        <time>2022-05-10T13:10:39Z</time>
      </trkpt>
      <trkpt lat="45.30433" lon="5.44806">
        <ele>707.79998779297</ele>
        <time>2022-05-10T13:10:41Z</time>
      </trkpt>
      <trkpt lat="45.30424" lon="5.44818">
        <ele>706.59997558594</ele>
        <time>2022-05-10T13:10:43Z</time>
      </trkpt>
      <trkpt lat="45.30414" lon="5.44829">
        <ele>706.40002441406</ele>
        <time>2022-05-10T13:10:45Z</time>
      </trkpt>
      <trkpt lat="45.30406" lon="5.44838">
        <ele>706.20001220703</ele>
        <time>2022-05-10T13:10:47Z</time>
      </trkpt>
      <trkpt lat="45.304" lon="5.44846">
        <ele>706</ele>
        <time>2022-05-10T13:10:49Z</time>
      </trkpt>
      <trkpt lat="45.30398" lon="5.44849">
        <ele>705.79998779297</ele>
        <time>2022-05-10T13:10:50Z</time>
      </trkpt>
      <trkpt lat="45.30388" lon="5.44859">
        <ele>706</ele>
        <time>2022-05-10T13:10:54Z</time>
      </trkpt>
      <trkpt lat="45.30384" lon="5.44868">
        <ele>706.79998779297</ele>
        <time>2022-05-10T13:10:58Z</time>
      </trkpt>
      <trkpt lat="45.30384" lon="5.44871">
        <ele>707.20001220703</ele>
        <time>2022-05-10T13:10:59Z</time>
      </trkpt>
      <trkpt lat="45.30384" lon="5.44875">
        <ele>707.20001220703</ele>
        <time>2022-05-10T13:11:00Z</time>
      </trkpt>
      <trkpt lat="45.30391" lon="5.44886">
        <ele>707.79998779297</ele>
        <time>2022-05-10T13:11:03Z</time>
      </trkpt>
      <trkpt lat="45.30406" lon="5.44916">
        <ele>707.79998779297</ele>
        <time>2022-05-10T13:11:07Z</time>
      </trkpt>
      <trkpt lat="45.30429" lon="5.44965">
        <ele>706</ele>
        <time>2022-05-10T13:11:12Z</time>
      </trkpt>
      <trkpt lat="45.30435" lon="5.44977">
        <ele>705.79998779297</ele>
        <time>2022-05-10T13:11:13Z</time>
      </trkpt>
      <trkpt lat="45.30449" lon="5.45002">
        <ele>704.79998779297</ele>
        <time>2022-05-10T13:11:16Z</time>
      </trkpt>
      <trkpt lat="45.3046" lon="5.45027">
        <ele>703.40002441406</ele>
        <time>2022-05-10T13:11:19Z</time>
      </trkpt>
      <trkpt lat="45.30469" lon="5.45048">
        <ele>702.79998779297</ele>
        <time>2022-05-10T13:11:22Z</time>
      </trkpt>
      <trkpt lat="45.30475" lon="5.45059">
        <ele>702.40002441406</ele>
        <time>2022-05-10T13:11:24Z</time>
      </trkpt>
      <trkpt lat="45.30476" lon="5.45064">
        <ele>702.40002441406</ele>
        <time>2022-05-10T13:11:25Z</time>
      </trkpt>
      <trkpt lat="45.3048" lon="5.45081">
        <ele>702.40002441406</ele>
        <time>2022-05-10T13:11:28Z</time>
      </trkpt>
      <trkpt lat="45.30484" lon="5.45097">
        <ele>702.59997558594</ele>
        <time>2022-05-10T13:11:32Z</time>
      </trkpt>
      <trkpt lat="45.30486" lon="5.4511">
        <ele>702.40002441406</ele>
        <time>2022-05-10T13:11:34Z</time>
      </trkpt>
      <trkpt lat="45.30487" lon="5.45127">
        <ele>702.40002441406</ele>
        <time>2022-05-10T13:11:36Z</time>
      </trkpt>
      <trkpt lat="45.30486" lon="5.45136">
        <ele>702.59997558594</ele>
        <time>2022-05-10T13:11:37Z</time>
      </trkpt>
      <trkpt lat="45.3048" lon="5.45166">
        <ele>702.40002441406</ele>
        <time>2022-05-10T13:11:40Z</time>
      </trkpt>
      <trkpt lat="45.30474" lon="5.45187">
        <ele>701.20001220703</ele>
        <time>2022-05-10T13:11:42Z</time>
      </trkpt>
      <trkpt lat="45.30469" lon="5.45207">
        <ele>699.40002441406</ele>
        <time>2022-05-10T13:11:44Z</time>
      </trkpt>
      <trkpt lat="45.30469" lon="5.45217">
        <ele>699</ele>
        <time>2022-05-10T13:11:45Z</time>
      </trkpt>
      <trkpt lat="45.3047" lon="5.45226">
        <ele>698.59997558594</ele>
        <time>2022-05-10T13:11:46Z</time>
      </trkpt>
      <trkpt lat="45.30476" lon="5.45243">
        <ele>697.79998779297</ele>
        <time>2022-05-10T13:11:48Z</time>
      </trkpt>
      <trkpt lat="45.30479" lon="5.45247">
        <ele>697.59997558594</ele>
        <time>2022-05-10T13:11:49Z</time>
      </trkpt>
      <trkpt lat="45.30488" lon="5.45257">
        <ele>696.59997558594</ele>
        <time>2022-05-10T13:11:51Z</time>
      </trkpt>
      <trkpt lat="45.30533" lon="5.4529">
        <ele>695.59997558594</ele>
        <time>2022-05-10T13:12:00Z</time>
      </trkpt>
      <trkpt lat="45.30543" lon="5.45296">
        <ele>695.40002441406</ele>
        <time>2022-05-10T13:12:02Z</time>
      </trkpt>
      <trkpt lat="45.30559" lon="5.45309">
        <ele>694.59997558594</ele>
        <time>2022-05-10T13:12:06Z</time>
      </trkpt>
      <trkpt lat="45.30568" lon="5.45316">
        <ele>694.40002441406</ele>
        <time>2022-05-10T13:12:08Z</time>
      </trkpt>
      <trkpt lat="45.30593" lon="5.45334">
        <ele>694.20001220703</ele>
        <time>2022-05-10T13:12:13Z</time>
      </trkpt>
      <trkpt lat="45.30597" lon="5.45338">
        <ele>694.20001220703</ele>
        <time>2022-05-10T13:12:14Z</time>
      </trkpt>
      <trkpt lat="45.30627" lon="5.45373">
        <ele>693.79998779297</ele>
        <time>2022-05-10T13:12:21Z</time>
      </trkpt>
      <trkpt lat="45.30632" lon="5.45387">
        <ele>693.59997558594</ele>
        <time>2022-05-10T13:12:23Z</time>
      </trkpt>
      <trkpt lat="45.30633" lon="5.45403">
        <ele>693.59997558594</ele>
        <time>2022-05-10T13:12:25Z</time>
      </trkpt>
      <trkpt lat="45.30628" lon="5.45427">
        <ele>692.59997558594</ele>
        <time>2022-05-10T13:12:28Z</time>
      </trkpt>
      <trkpt lat="45.30623" lon="5.45443">
        <ele>692</ele>
        <time>2022-05-10T13:12:30Z</time>
      </trkpt>
      <trkpt lat="45.3062" lon="5.45459">
        <ele>691.20001220703</ele>
        <time>2022-05-10T13:12:32Z</time>
      </trkpt>
      <trkpt lat="45.30612" lon="5.45498">
        <ele>690.79998779297</ele>
        <time>2022-05-10T13:12:37Z</time>
      </trkpt>
      <trkpt lat="45.3061" lon="5.45524">
        <ele>690</ele>
        <time>2022-05-10T13:12:41Z</time>
      </trkpt>
      <trkpt lat="45.30609" lon="5.45531">
        <ele>689.79998779297</ele>
        <time>2022-05-10T13:12:42Z</time>
      </trkpt>
      <trkpt lat="45.30608" lon="5.45544">
        <ele>689.40002441406</ele>
        <time>2022-05-10T13:12:44Z</time>
      </trkpt>
      <trkpt lat="45.30603" lon="5.45554">
        <ele>689.20001220703</ele>
        <time>2022-05-10T13:12:46Z</time>
      </trkpt>
      <trkpt lat="45.30587" lon="5.45573">
        <ele>689.79998779297</ele>
        <time>2022-05-10T13:12:52Z</time>
      </trkpt>
      <trkpt lat="45.30566" lon="5.45601">
        <ele>690.20001220703</ele>
        <time>2022-05-10T13:12:58Z</time>
      </trkpt>
      <trkpt lat="45.30552" lon="5.45621">
        <ele>690.40002441406</ele>
        <time>2022-05-10T13:13:03Z</time>
      </trkpt>
      <trkpt lat="45.30545" lon="5.45635">
        <ele>690.59997558594</ele>
        <time>2022-05-10T13:13:06Z</time>
      </trkpt>
      <trkpt lat="45.30545" lon="5.45641">
        <ele>690.79998779297</ele>
        <time>2022-05-10T13:13:07Z</time>
      </trkpt>
      <trkpt lat="45.30549" lon="5.4565">
        <ele>690.79998779297</ele>
        <time>2022-05-10T13:13:09Z</time>
      </trkpt>
      <trkpt lat="45.30552" lon="5.45652">
        <ele>691</ele>
        <time>2022-05-10T13:13:10Z</time>
      </trkpt>
      <trkpt lat="45.30567" lon="5.4566">
        <ele>691.40002441406</ele>
        <time>2022-05-10T13:13:16Z</time>
      </trkpt>
      <trkpt lat="45.30572" lon="5.45663">
        <ele>692</ele>
        <time>2022-05-10T13:13:19Z</time>
      </trkpt>
      <trkpt lat="45.3058" lon="5.45668">
        <ele>693</ele>
        <time>2022-05-10T13:13:23Z</time>
      </trkpt>
      <trkpt lat="45.30581" lon="5.45669">
        <ele>693.40002441406</ele>
        <time>2022-05-10T13:13:24Z</time>
      </trkpt>
      <trkpt lat="45.30591" lon="5.45676">
        <ele>694.40002441406</ele>
        <time>2022-05-10T13:13:30Z</time>
      </trkpt>
      <trkpt lat="45.30593" lon="5.45677">
        <ele>694.79998779297</ele>
        <time>2022-05-10T13:13:31Z</time>
      </trkpt>
      <trkpt lat="45.306" lon="5.45681">
        <ele>696.20001220703</ele>
        <time>2022-05-10T13:13:35Z</time>
      </trkpt>
      <trkpt lat="45.30605" lon="5.45682">
        <ele>696.79998779297</ele>
        <time>2022-05-10T13:13:38Z</time>
      </trkpt>
      <trkpt lat="45.30608" lon="5.45683">
        <ele>697.59997558594</ele>
        <time>2022-05-10T13:13:40Z</time>
      </trkpt>
      <trkpt lat="45.30613" lon="5.45685">
        <ele>698.79998779297</ele>
        <time>2022-05-10T13:13:43Z</time>
      </trkpt>
      <trkpt lat="45.30616" lon="5.45686">
        <ele>699.20001220703</ele>
        <time>2022-05-10T13:13:45Z</time>
      </trkpt>
      <trkpt lat="45.30619" lon="5.45688">
        <ele>700.20001220703</ele>
        <time>2022-05-10T13:13:47Z</time>
      </trkpt>
      <trkpt lat="45.30623" lon="5.4569">
        <ele>700.59997558594</ele>
        <time>2022-05-10T13:13:49Z</time>
      </trkpt>
      <trkpt lat="45.30629" lon="5.45695">
        <ele>701.59997558594</ele>
        <time>2022-05-10T13:13:53Z</time>
      </trkpt>
      <trkpt lat="45.30631" lon="5.45697">
        <ele>701.79998779297</ele>
        <time>2022-05-10T13:13:54Z</time>
      </trkpt>
      <trkpt lat="45.30638" lon="5.45702">
        <ele>702.59997558594</ele>
        <time>2022-05-10T13:13:58Z</time>
      </trkpt>
      <trkpt lat="45.30643" lon="5.45708">
        <ele>703.20001220703</ele>
        <time>2022-05-10T13:14:01Z</time>
      </trkpt>
      <trkpt lat="45.30652" lon="5.45718">
        <ele>703.59997558594</ele>
        <time>2022-05-10T13:14:05Z</time>
      </trkpt>
      <trkpt lat="45.30656" lon="5.45723">
        <ele>703.79998779297</ele>
        <time>2022-05-10T13:14:07Z</time>
      </trkpt>
      <trkpt lat="45.30674" lon="5.45746">
        <ele>704.79998779297</ele>
        <time>2022-05-10T13:14:15Z</time>
      </trkpt>
      <trkpt lat="45.30676" lon="5.45748">
        <ele>705</ele>
        <time>2022-05-10T13:14:16Z</time>
      </trkpt>
      <trkpt lat="45.30691" lon="5.4576">
        <ele>705.79998779297</ele>
        <time>2022-05-10T13:14:22Z</time>
      </trkpt>
      <trkpt lat="45.30697" lon="5.45765">
        <ele>706.40002441406</ele>
        <time>2022-05-10T13:14:25Z</time>
      </trkpt>
      <trkpt lat="45.30705" lon="5.45771">
        <ele>707.20001220703</ele>
        <time>2022-05-10T13:14:29Z</time>
      </trkpt>
      <trkpt lat="45.30713" lon="5.45778">
        <ele>708.20001220703</ele>
        <time>2022-05-10T13:14:33Z</time>
      </trkpt>
      <trkpt lat="45.30715" lon="5.4578">
        <ele>708.59997558594</ele>
        <time>2022-05-10T13:14:34Z</time>
      </trkpt>
      <trkpt lat="45.30721" lon="5.45786">
        <ele>709.20001220703</ele>
        <time>2022-05-10T13:14:37Z</time>
      </trkpt>
      <trkpt lat="45.30738" lon="5.45804">
        <ele>710.59997558594</ele>
        <time>2022-05-10T13:14:45Z</time>
      </trkpt>
      <trkpt lat="45.30757" lon="5.45831">
        <ele>711.40002441406</ele>
        <time>2022-05-10T13:14:54Z</time>
      </trkpt>
      <trkpt lat="45.30759" lon="5.45835">
        <ele>711.59997558594</ele>
        <time>2022-05-10T13:14:55Z</time>
      </trkpt>
      <trkpt lat="45.30773" lon="5.45864">
        <ele>712.20001220703</ele>
        <time>2022-05-10T13:15:03Z</time>
      </trkpt>
      <trkpt lat="45.3078" lon="5.45878">
        <ele>712.59997558594</ele>
        <time>2022-05-10T13:15:07Z</time>
      </trkpt>
      <trkpt lat="45.30787" lon="5.45898">
        <ele>713.20001220703</ele>
        <time>2022-05-10T13:15:12Z</time>
      </trkpt>
      <trkpt lat="45.30795" lon="5.45928">
        <ele>713.59997558594</ele>
        <time>2022-05-10T13:15:18Z</time>
      </trkpt>
      <trkpt lat="45.30804" lon="5.45968">
        <ele>713.40002441406</ele>
        <time>2022-05-10T13:15:25Z</time>
      </trkpt>
      <trkpt lat="45.30821" lon="5.46017">
        <ele>713.20001220703</ele>
        <time>2022-05-10T13:15:34Z</time>
      </trkpt>
      <trkpt lat="45.30839" lon="5.46059">
        <ele>713</ele>
        <time>2022-05-10T13:15:42Z</time>
      </trkpt>
      <trkpt lat="45.30843" lon="5.46069">
        <ele>713</ele>
        <time>2022-05-10T13:15:44Z</time>
      </trkpt>
      <trkpt lat="45.3085" lon="5.46078">
        <ele>713</ele>
        <time>2022-05-10T13:15:46Z</time>
      </trkpt>
      <trkpt lat="45.30854" lon="5.46081">
        <ele>713</ele>
        <time>2022-05-10T13:15:47Z</time>
      </trkpt>
      <trkpt lat="45.30859" lon="5.46083">
        <ele>713</ele>
        <time>2022-05-10T13:15:48Z</time>
      </trkpt>
      <trkpt lat="45.30868" lon="5.46081">
        <ele>713</ele>
        <time>2022-05-10T13:15:50Z</time>
      </trkpt>
      <trkpt lat="45.30891" lon="5.46067">
        <ele>713</ele>
        <time>2022-05-10T13:15:56Z</time>
      </trkpt>
      <trkpt lat="45.30909" lon="5.46052">
        <ele>714</ele>
        <time>2022-05-10T13:16:03Z</time>
      </trkpt>
      <trkpt lat="45.30918" lon="5.46042">
        <ele>715</ele>
        <time>2022-05-10T13:16:09Z</time>
      </trkpt>
      <trkpt lat="45.30919" lon="5.46039">
        <ele>715</ele>
        <time>2022-05-10T13:16:10Z</time>
      </trkpt>
      <trkpt lat="45.30926" lon="5.46033">
        <ele>716</ele>
        <time>2022-05-10T13:16:14Z</time>
      </trkpt>
      <trkpt lat="45.3093" lon="5.46028">
        <ele>716.59997558594</ele>
        <time>2022-05-10T13:16:17Z</time>
      </trkpt>
      <trkpt lat="45.30932" lon="5.46027">
        <ele>717.20001220703</ele>
        <time>2022-05-10T13:16:19Z</time>
      </trkpt>
      <trkpt lat="45.30933" lon="5.46027">
        <ele>718</ele>
        <time>2022-05-10T13:16:21Z</time>
      </trkpt>
      <trkpt lat="45.30934" lon="5.46026">
        <ele>718.20001220703</ele>
        <time>2022-05-10T13:16:22Z</time>
      </trkpt>
      <trkpt lat="45.30935" lon="5.46027">
        <ele>718.79998779297</ele>
        <time>2022-05-10T13:16:23Z</time>
      </trkpt>
      <trkpt lat="45.30937" lon="5.46027">
        <ele>719</ele>
        <time>2022-05-10T13:16:24Z</time>
      </trkpt>
      <trkpt lat="45.30938" lon="5.46028">
        <ele>719.40002441406</ele>
        <time>2022-05-10T13:16:25Z</time>
      </trkpt>
      <trkpt lat="45.3094" lon="5.46028">
        <ele>719.59997558594</ele>
        <time>2022-05-10T13:16:26Z</time>
      </trkpt>
      <trkpt lat="45.30944" lon="5.4603">
        <ele>720.20001220703</ele>
        <time>2022-05-10T13:16:28Z</time>
      </trkpt>
      <trkpt lat="45.30945" lon="5.46031">
        <ele>720.40002441406</ele>
        <time>2022-05-10T13:16:29Z</time>
      </trkpt>
      <trkpt lat="45.30949" lon="5.46033">
        <ele>721.40002441406</ele>
        <time>2022-05-10T13:16:32Z</time>
      </trkpt>
      <trkpt lat="45.30951" lon="5.46033">
        <ele>721.79998779297</ele>
        <time>2022-05-10T13:16:33Z</time>
      </trkpt>
      <trkpt lat="45.30954" lon="5.46035">
        <ele>722.20001220703</ele>
        <time>2022-05-10T13:16:35Z</time>
      </trkpt>
      <trkpt lat="45.30959" lon="5.46036">
        <ele>722.79998779297</ele>
        <time>2022-05-10T13:16:37Z</time>
      </trkpt>
      <trkpt lat="45.30967" lon="5.46037">
        <ele>724.20001220703</ele>
        <time>2022-05-10T13:16:41Z</time>
      </trkpt>
      <trkpt lat="45.3097" lon="5.46038">
        <ele>724.79998779297</ele>
        <time>2022-05-10T13:16:43Z</time>
      </trkpt>
      <trkpt lat="45.30972" lon="5.46039">
        <ele>725.20001220703</ele>
        <time>2022-05-10T13:16:44Z</time>
      </trkpt>
      <trkpt lat="45.30975" lon="5.4604">
        <ele>725.79998779297</ele>
        <time>2022-05-10T13:16:46Z</time>
      </trkpt>
      <trkpt lat="45.30978" lon="5.4604">
        <ele>726.79998779297</ele>
        <time>2022-05-10T13:16:48Z</time>
      </trkpt>
      <trkpt lat="45.30979" lon="5.46041">
        <ele>727</ele>
        <time>2022-05-10T13:16:49Z</time>
      </trkpt>
      <trkpt lat="45.30979" lon="5.46042">
        <ele>727.20001220703</ele>
        <time>2022-05-10T13:16:50Z</time>
      </trkpt>
      <trkpt lat="45.3098" lon="5.46042">
        <ele>727.59997558594</ele>
        <time>2022-05-10T13:16:51Z</time>
      </trkpt>
      <trkpt lat="45.30983" lon="5.46042">
        <ele>727.79998779297</ele>
        <time>2022-05-10T13:16:52Z</time>
      </trkpt>
      <trkpt lat="45.30984" lon="5.46043">
        <ele>728.40002441406</ele>
        <time>2022-05-10T13:16:53Z</time>
      </trkpt>
      <trkpt lat="45.30985" lon="5.46043">
        <ele>728.59997558594</ele>
        <time>2022-05-10T13:16:54Z</time>
      </trkpt>
      <trkpt lat="45.30987" lon="5.46044">
        <ele>729</ele>
        <time>2022-05-10T13:16:55Z</time>
      </trkpt>
      <trkpt lat="45.30991" lon="5.46046">
        <ele>730.20001220703</ele>
        <time>2022-05-10T13:16:58Z</time>
      </trkpt>
      <trkpt lat="45.30994" lon="5.46047">
        <ele>731</ele>
        <time>2022-05-10T13:17:00Z</time>
      </trkpt>
      <trkpt lat="45.30997" lon="5.46048">
        <ele>731.40002441406</ele>
        <time>2022-05-10T13:17:02Z</time>
      </trkpt>
      <trkpt lat="45.31002" lon="5.46049">
        <ele>732.79998779297</ele>
        <time>2022-05-10T13:17:06Z</time>
      </trkpt>
      <trkpt lat="45.31008" lon="5.46052">
        <ele>734</ele>
        <time>2022-05-10T13:17:09Z</time>
      </trkpt>
      <trkpt lat="45.31013" lon="5.46054">
        <ele>734.59997558594</ele>
        <time>2022-05-10T13:17:12Z</time>
      </trkpt>
      <trkpt lat="45.31015" lon="5.46054">
        <ele>735</ele>
        <time>2022-05-10T13:17:13Z</time>
      </trkpt>
      <trkpt lat="45.31016" lon="5.46053">
        <ele>735.20001220703</ele>
        <time>2022-05-10T13:17:14Z</time>
      </trkpt>
      <trkpt lat="45.31022" lon="5.46053">
        <ele>736</ele>
        <time>2022-05-10T13:17:17Z</time>
      </trkpt>
      <trkpt lat="45.31024" lon="5.46053">
        <ele>736.20001220703</ele>
        <time>2022-05-10T13:17:18Z</time>
      </trkpt>
      <trkpt lat="45.31029" lon="5.46055">
        <ele>736.79998779297</ele>
        <time>2022-05-10T13:17:21Z</time>
      </trkpt>
      <trkpt lat="45.31031" lon="5.46053">
        <ele>737.59997558594</ele>
        <time>2022-05-10T13:17:22Z</time>
      </trkpt>
      <trkpt lat="45.31033" lon="5.46053">
        <ele>738.20001220703</ele>
        <time>2022-05-10T13:17:23Z</time>
      </trkpt>
      <trkpt lat="45.31035" lon="5.46052">
        <ele>738.59997558594</ele>
        <time>2022-05-10T13:17:24Z</time>
      </trkpt>
      <trkpt lat="45.31036" lon="5.46053">
        <ele>739.20001220703</ele>
        <time>2022-05-10T13:17:25Z</time>
      </trkpt>
      <trkpt lat="45.3104" lon="5.46054">
        <ele>739.79998779297</ele>
        <time>2022-05-10T13:17:27Z</time>
      </trkpt>
      <trkpt lat="45.31043" lon="5.46055">
        <ele>740.20001220703</ele>
        <time>2022-05-10T13:17:28Z</time>
      </trkpt>
      <trkpt lat="45.31048" lon="5.46059">
        <ele>741.40002441406</ele>
        <time>2022-05-10T13:17:31Z</time>
      </trkpt>
      <trkpt lat="45.31051" lon="5.46055">
        <ele>742.20001220703</ele>
        <time>2022-05-10T13:17:33Z</time>
      </trkpt>
      <trkpt lat="45.31052" lon="5.46055">
        <ele>742.79998779297</ele>
        <time>2022-05-10T13:17:34Z</time>
      </trkpt>
      <trkpt lat="45.31063" lon="5.46054">
        <ele>743.79998779297</ele>
        <time>2022-05-10T13:17:39Z</time>
      </trkpt>
      <trkpt lat="45.31066" lon="5.46055">
        <ele>744.20001220703</ele>
        <time>2022-05-10T13:17:41Z</time>
      </trkpt>
      <trkpt lat="45.31068" lon="5.46052">
        <ele>744.20001220703</ele>
        <time>2022-05-10T13:17:42Z</time>
      </trkpt>
      <trkpt lat="45.31071" lon="5.46055">
        <ele>745.20001220703</ele>
        <time>2022-05-10T13:17:45Z</time>
      </trkpt>
      <trkpt lat="45.31076" lon="5.46058">
        <ele>745.59997558594</ele>
        <time>2022-05-10T13:17:47Z</time>
      </trkpt>
      <trkpt lat="45.31082" lon="5.46058">
        <ele>746.20001220703</ele>
        <time>2022-05-10T13:17:50Z</time>
      </trkpt>
      <trkpt lat="45.31085" lon="5.46062">
        <ele>746.59997558594</ele>
        <time>2022-05-10T13:17:52Z</time>
      </trkpt>
      <trkpt lat="45.31091" lon="5.46061">
        <ele>746.79998779297</ele>
        <time>2022-05-10T13:17:54Z</time>
      </trkpt>
      <trkpt lat="45.31095" lon="5.46061">
        <ele>747.40002441406</ele>
        <time>2022-05-10T13:17:56Z</time>
      </trkpt>
      <trkpt lat="45.31101" lon="5.46066">
        <ele>748</ele>
        <time>2022-05-10T13:18:00Z</time>
      </trkpt>
      <trkpt lat="45.31102" lon="5.46067">
        <ele>748.40002441406</ele>
        <time>2022-05-10T13:18:01Z</time>
      </trkpt>
      <trkpt lat="45.31103" lon="5.46068">
        <ele>748.79998779297</ele>
        <time>2022-05-10T13:18:02Z</time>
      </trkpt>
      <trkpt lat="45.31105" lon="5.46071">
        <ele>749.59997558594</ele>
        <time>2022-05-10T13:18:04Z</time>
      </trkpt>
      <trkpt lat="45.31106" lon="5.46072">
        <ele>749.79998779297</ele>
        <time>2022-05-10T13:18:05Z</time>
      </trkpt>
      <trkpt lat="45.31113" lon="5.46079">
        <ele>750.59997558594</ele>
        <time>2022-05-10T13:18:09Z</time>
      </trkpt>
      <trkpt lat="45.31115" lon="5.46081">
        <ele>750.59997558594</ele>
        <time>2022-05-10T13:18:10Z</time>
      </trkpt>
      <trkpt lat="45.31116" lon="5.46084">
        <ele>750.79998779297</ele>
        <time>2022-05-10T13:18:11Z</time>
      </trkpt>
      <trkpt lat="45.31126" lon="5.46103">
        <ele>751</ele>
        <time>2022-05-10T13:18:18Z</time>
      </trkpt>
      <trkpt lat="45.31133" lon="5.46122">
        <ele>751.40002441406</ele>
        <time>2022-05-10T13:18:24Z</time>
      </trkpt>
      <trkpt lat="45.31137" lon="5.46128">
        <ele>751.59997558594</ele>
        <time>2022-05-10T13:18:27Z</time>
      </trkpt>
      <trkpt lat="45.31143" lon="5.46138">
        <ele>752.79998779297</ele>
        <time>2022-05-10T13:18:31Z</time>
      </trkpt>
      <trkpt lat="45.31149" lon="5.46149">
        <ele>753.59997558594</ele>
        <time>2022-05-10T13:18:36Z</time>
      </trkpt>
      <trkpt lat="45.3115" lon="5.46151">
        <ele>753.79998779297</ele>
        <time>2022-05-10T13:18:37Z</time>
      </trkpt>
      <trkpt lat="45.31154" lon="5.46161">
        <ele>754.79998779297</ele>
        <time>2022-05-10T13:18:41Z</time>
      </trkpt>
      <trkpt lat="45.3116" lon="5.46168">
        <ele>755.79998779297</ele>
        <time>2022-05-10T13:18:44Z</time>
      </trkpt>
      <trkpt lat="45.31164" lon="5.46178">
        <ele>756.20001220703</ele>
        <time>2022-05-10T13:18:48Z</time>
      </trkpt>
      <trkpt lat="45.31168" lon="5.46183">
        <ele>756.79998779297</ele>
        <time>2022-05-10T13:18:51Z</time>
      </trkpt>
      <trkpt lat="45.31169" lon="5.46185">
        <ele>756.79998779297</ele>
        <time>2022-05-10T13:18:52Z</time>
      </trkpt>
      <trkpt lat="45.31172" lon="5.46191">
        <ele>758</ele>
        <time>2022-05-10T13:18:55Z</time>
      </trkpt>
      <trkpt lat="45.31176" lon="5.46199">
        <ele>758.79998779297</ele>
        <time>2022-05-10T13:18:59Z</time>
      </trkpt>
      <trkpt lat="45.31176" lon="5.46202">
        <ele>759</ele>
        <time>2022-05-10T13:19:00Z</time>
      </trkpt>
      <trkpt lat="45.31177" lon="5.46207">
        <ele>759.40002441406</ele>
        <time>2022-05-10T13:19:02Z</time>
      </trkpt>
      <trkpt lat="45.3118" lon="5.46215">
        <ele>760.20001220703</ele>
        <time>2022-05-10T13:19:05Z</time>
      </trkpt>
      <trkpt lat="45.31185" lon="5.46229">
        <ele>760.79998779297</ele>
        <time>2022-05-10T13:19:09Z</time>
      </trkpt>
      <trkpt lat="45.31193" lon="5.46245">
        <ele>761.20001220703</ele>
        <time>2022-05-10T13:19:15Z</time>
      </trkpt>
      <trkpt lat="45.31196" lon="5.4625">
        <ele>761.40002441406</ele>
        <time>2022-05-10T13:19:17Z</time>
      </trkpt>
      <trkpt lat="45.31204" lon="5.46267">
        <ele>762</ele>
        <time>2022-05-10T13:19:23Z</time>
      </trkpt>
      <trkpt lat="45.31207" lon="5.46274">
        <ele>762.40002441406</ele>
        <time>2022-05-10T13:19:26Z</time>
      </trkpt>
      <trkpt lat="45.31213" lon="5.46286">
        <ele>763.20001220703</ele>
        <time>2022-05-10T13:19:30Z</time>
      </trkpt>
      <trkpt lat="45.31216" lon="5.46291">
        <ele>763.59997558594</ele>
        <time>2022-05-10T13:19:32Z</time>
      </trkpt>
      <trkpt lat="45.31222" lon="5.46303">
        <ele>764.59997558594</ele>
        <time>2022-05-10T13:19:36Z</time>
      </trkpt>
      <trkpt lat="45.31224" lon="5.4631">
        <ele>765.40002441406</ele>
        <time>2022-05-10T13:19:38Z</time>
      </trkpt>
      <trkpt lat="45.31226" lon="5.46317">
        <ele>765.79998779297</ele>
        <time>2022-05-10T13:19:40Z</time>
      </trkpt>
      <trkpt lat="45.31235" lon="5.4634">
        <ele>766.40002441406</ele>
        <time>2022-05-10T13:19:47Z</time>
      </trkpt>
      <trkpt lat="45.31243" lon="5.46357">
        <ele>766.79998779297</ele>
        <time>2022-05-10T13:19:53Z</time>
      </trkpt>
      <trkpt lat="45.31252" lon="5.46372">
        <ele>766.79998779297</ele>
        <time>2022-05-10T13:19:59Z</time>
      </trkpt>
      <trkpt lat="45.31259" lon="5.46382">
        <ele>766.40002441406</ele>
        <time>2022-05-10T13:20:04Z</time>
      </trkpt>
      <trkpt lat="45.31268" lon="5.46392">
        <ele>766.40002441406</ele>
        <time>2022-05-10T13:20:11Z</time>
      </trkpt>
      <trkpt lat="45.31272" lon="5.46394">
        <ele>766.20001220703</ele>
        <time>2022-05-10T13:20:13Z</time>
      </trkpt>
      <trkpt lat="45.31282" lon="5.46392">
        <ele>766.40002441406</ele>
        <time>2022-05-10T13:20:18Z</time>
      </trkpt>
      <trkpt lat="45.31291" lon="5.46388">
        <ele>767.79998779297</ele>
        <time>2022-05-10T13:20:23Z</time>
      </trkpt>
      <trkpt lat="45.31296" lon="5.46388">
        <ele>768.20001220703</ele>
        <time>2022-05-10T13:20:25Z</time>
      </trkpt>
      <trkpt lat="45.31306" lon="5.46386">
        <ele>768.40002441406</ele>
        <time>2022-05-10T13:20:30Z</time>
      </trkpt>
      <trkpt lat="45.3133" lon="5.4638">
        <ele>768.20001220703</ele>
        <time>2022-05-10T13:20:40Z</time>
      </trkpt>
      <trkpt lat="45.31348" lon="5.4638">
        <ele>768</ele>
        <time>2022-05-10T13:20:45Z</time>
      </trkpt>
      <trkpt lat="45.31374" lon="5.46381">
        <ele>766.79998779297</ele>
        <time>2022-05-10T13:20:52Z</time>
      </trkpt>
      <trkpt lat="45.31378" lon="5.46382">
        <ele>766.59997558594</ele>
        <time>2022-05-10T13:20:53Z</time>
      </trkpt>
      <trkpt lat="45.31388" lon="5.46383">
        <ele>765.20001220703</ele>
        <time>2022-05-10T13:20:56Z</time>
      </trkpt>
      <trkpt lat="45.31392" lon="5.4638">
        <ele>764.79998779297</ele>
        <time>2022-05-10T13:20:57Z</time>
      </trkpt>
      <trkpt lat="45.31395" lon="5.46377">
        <ele>764.40002441406</ele>
        <time>2022-05-10T13:20:58Z</time>
      </trkpt>
      <trkpt lat="45.31398" lon="5.46372">
        <ele>763.79998779297</ele>
        <time>2022-05-10T13:20:59Z</time>
      </trkpt>
      <trkpt lat="45.31401" lon="5.46363">
        <ele>763.59997558594</ele>
        <time>2022-05-10T13:21:01Z</time>
      </trkpt>
      <trkpt lat="45.31404" lon="5.46351">
        <ele>763.20001220703</ele>
        <time>2022-05-10T13:21:03Z</time>
      </trkpt>
      <trkpt lat="45.31408" lon="5.4634">
        <ele>762.79998779297</ele>
        <time>2022-05-10T13:21:05Z</time>
      </trkpt>
      <trkpt lat="45.31411" lon="5.46333">
        <ele>761.59997558594</ele>
        <time>2022-05-10T13:21:06Z</time>
      </trkpt>
      <trkpt lat="45.31414" lon="5.46325">
        <ele>760.40002441406</ele>
        <time>2022-05-10T13:21:08Z</time>
      </trkpt>
      <trkpt lat="45.31421" lon="5.46319">
        <ele>759.20001220703</ele>
        <time>2022-05-10T13:21:12Z</time>
      </trkpt>
      <trkpt lat="45.31424" lon="5.46318">
        <ele>759</ele>
        <time>2022-05-10T13:21:13Z</time>
      </trkpt>
      <trkpt lat="45.3143" lon="5.46315">
        <ele>758</ele>
        <time>2022-05-10T13:21:15Z</time>
      </trkpt>
      <trkpt lat="45.31432" lon="5.46316">
        <ele>757.79998779297</ele>
        <time>2022-05-10T13:21:16Z</time>
      </trkpt>
      <trkpt lat="45.31434" lon="5.46316">
        <ele>756.79998779297</ele>
        <time>2022-05-10T13:21:18Z</time>
      </trkpt>
      <trkpt lat="45.31437" lon="5.46315">
        <ele>754.59997558594</ele>
        <time>2022-05-10T13:21:26Z</time>
      </trkpt>
      <trkpt lat="45.31437" lon="5.46315">
        <ele>754.20001220703</ele>
        <time>2022-05-10T13:21:30Z</time>
      </trkpt>
      <trkpt lat="45.31439" lon="5.46315">
        <ele>754</ele>
        <time>2022-05-10T13:21:31Z</time>
      </trkpt>
      <trkpt lat="45.31439" lon="5.46316">
        <ele>754</ele>
        <time>2022-05-10T13:21:32Z</time>
      </trkpt>
      <trkpt lat="45.3144" lon="5.46316">
        <ele>753.79998779297</ele>
        <time>2022-05-10T13:21:45Z</time>
      </trkpt>
      <trkpt lat="45.31448" lon="5.46314">
        <ele>753.59997558594</ele>
        <time>2022-05-10T13:21:48Z</time>
      </trkpt>
      <trkpt lat="45.31458" lon="5.46312">
        <ele>753.40002441406</ele>
        <time>2022-05-10T13:21:50Z</time>
      </trkpt>
      <trkpt lat="45.31465" lon="5.46309">
        <ele>753.40002441406</ele>
        <time>2022-05-10T13:21:51Z</time>
      </trkpt>
      <trkpt lat="45.31476" lon="5.46308">
        <ele>752.79998779297</ele>
        <time>2022-05-10T13:21:53Z</time>
      </trkpt>
      <trkpt lat="45.31487" lon="5.46306">
        <ele>751.59997558594</ele>
        <time>2022-05-10T13:21:55Z</time>
      </trkpt>
      <trkpt lat="45.31492" lon="5.46305">
        <ele>750.79998779297</ele>
        <time>2022-05-10T13:21:56Z</time>
      </trkpt>
      <trkpt lat="45.31495" lon="5.46304">
        <ele>750.20001220703</ele>
        <time>2022-05-10T13:21:57Z</time>
      </trkpt>
      <trkpt lat="45.31503" lon="5.46304">
        <ele>749</ele>
        <time>2022-05-10T13:21:59Z</time>
      </trkpt>
      <trkpt lat="45.31507" lon="5.46303">
        <ele>748</ele>
        <time>2022-05-10T13:22:00Z</time>
      </trkpt>
      <trkpt lat="45.31513" lon="5.46304">
        <ele>747.59997558594</ele>
        <time>2022-05-10T13:22:01Z</time>
      </trkpt>
      <trkpt lat="45.31517" lon="5.46303">
        <ele>746.79998779297</ele>
        <time>2022-05-10T13:22:02Z</time>
      </trkpt>
      <trkpt lat="45.31525" lon="5.463">
        <ele>745.59997558594</ele>
        <time>2022-05-10T13:22:04Z</time>
      </trkpt>
      <trkpt lat="45.31532" lon="5.46297">
        <ele>744.79998779297</ele>
        <time>2022-05-10T13:22:06Z</time>
      </trkpt>
      <trkpt lat="45.31536" lon="5.46295">
        <ele>743.79998779297</ele>
        <time>2022-05-10T13:22:07Z</time>
      </trkpt>
      <trkpt lat="45.31545" lon="5.46291">
        <ele>742.40002441406</ele>
        <time>2022-05-10T13:22:10Z</time>
      </trkpt>
      <trkpt lat="45.31548" lon="5.4629">
        <ele>741.40002441406</ele>
        <time>2022-05-10T13:22:11Z</time>
      </trkpt>
      <trkpt lat="45.31558" lon="5.46288">
        <ele>739.59997558594</ele>
        <time>2022-05-10T13:22:14Z</time>
      </trkpt>
      <trkpt lat="45.31569" lon="5.46289">
        <ele>737.79998779297</ele>
        <time>2022-05-10T13:22:18Z</time>
      </trkpt>
      <trkpt lat="45.3158" lon="5.46288">
        <ele>736.59997558594</ele>
        <time>2022-05-10T13:22:21Z</time>
      </trkpt>
      <trkpt lat="45.31587" lon="5.4629">
        <ele>736</ele>
        <time>2022-05-10T13:22:23Z</time>
      </trkpt>
      <trkpt lat="45.31594" lon="5.4629">
        <ele>734.59997558594</ele>
        <time>2022-05-10T13:22:25Z</time>
      </trkpt>
      <trkpt lat="45.31599" lon="5.46291">
        <ele>733</ele>
        <time>2022-05-10T13:22:27Z</time>
      </trkpt>
      <trkpt lat="45.31603" lon="5.46291">
        <ele>732.40002441406</ele>
        <time>2022-05-10T13:22:28Z</time>
      </trkpt>
      <trkpt lat="45.31607" lon="5.46293">
        <ele>731.79998779297</ele>
        <time>2022-05-10T13:22:29Z</time>
      </trkpt>
      <trkpt lat="45.31616" lon="5.46292">
        <ele>730.40002441406</ele>
        <time>2022-05-10T13:22:32Z</time>
      </trkpt>
      <trkpt lat="45.31625" lon="5.46291">
        <ele>729.20001220703</ele>
        <time>2022-05-10T13:22:35Z</time>
      </trkpt>
      <trkpt lat="45.3163" lon="5.46289">
        <ele>727.40002441406</ele>
        <time>2022-05-10T13:22:37Z</time>
      </trkpt>
      <trkpt lat="45.31633" lon="5.46286">
        <ele>726.40002441406</ele>
        <time>2022-05-10T13:22:39Z</time>
      </trkpt>
      <trkpt lat="45.31635" lon="5.46285">
        <ele>726.20001220703</ele>
        <time>2022-05-10T13:22:40Z</time>
      </trkpt>
      <trkpt lat="45.31637" lon="5.46284">
        <ele>725.40002441406</ele>
        <time>2022-05-10T13:22:41Z</time>
      </trkpt>
      <trkpt lat="45.31639" lon="5.46283">
        <ele>725</ele>
        <time>2022-05-10T13:22:42Z</time>
      </trkpt>
      <trkpt lat="45.31641" lon="5.4628">
        <ele>723.79998779297</ele>
        <time>2022-05-10T13:22:44Z</time>
      </trkpt>
      <trkpt lat="45.31644" lon="5.46279">
        <ele>723</ele>
        <time>2022-05-10T13:22:45Z</time>
      </trkpt>
      <trkpt lat="45.31647" lon="5.46276">
        <ele>722.79998779297</ele>
        <time>2022-05-10T13:22:46Z</time>
      </trkpt>
      <trkpt lat="45.31654" lon="5.46273">
        <ele>722</ele>
        <time>2022-05-10T13:22:49Z</time>
      </trkpt>
      <trkpt lat="45.31656" lon="5.46272">
        <ele>721.40002441406</ele>
        <time>2022-05-10T13:22:50Z</time>
      </trkpt>
      <trkpt lat="45.31659" lon="5.46266">
        <ele>720</ele>
        <time>2022-05-10T13:22:52Z</time>
      </trkpt>
      <trkpt lat="45.31665" lon="5.46261">
        <ele>718.59997558594</ele>
        <time>2022-05-10T13:22:54Z</time>
      </trkpt>
      <trkpt lat="45.31667" lon="5.46258">
        <ele>717.59997558594</ele>
        <time>2022-05-10T13:22:55Z</time>
      </trkpt>
      <trkpt lat="45.31669" lon="5.46256">
        <ele>717.20001220703</ele>
        <time>2022-05-10T13:22:56Z</time>
      </trkpt>
      <trkpt lat="45.3167" lon="5.46256">
        <ele>716.20001220703</ele>
        <time>2022-05-10T13:22:57Z</time>
      </trkpt>
      <trkpt lat="45.31673" lon="5.46259">
        <ele>714.79998779297</ele>
        <time>2022-05-10T13:22:59Z</time>
      </trkpt>
      <trkpt lat="45.31675" lon="5.46261">
        <ele>714.40002441406</ele>
        <time>2022-05-10T13:23:00Z</time>
      </trkpt>
      <trkpt lat="45.31677" lon="5.46264">
        <ele>713.59997558594</ele>
        <time>2022-05-10T13:23:01Z</time>
      </trkpt>
      <trkpt lat="45.31683" lon="5.46276">
        <ele>711.79998779297</ele>
        <time>2022-05-10T13:23:04Z</time>
      </trkpt>
      <trkpt lat="45.31685" lon="5.46284">
        <ele>711.20001220703</ele>
        <time>2022-05-10T13:23:06Z</time>
      </trkpt>
      <trkpt lat="45.31686" lon="5.46292">
        <ele>710.79998779297</ele>
        <time>2022-05-10T13:23:08Z</time>
      </trkpt>
      <trkpt lat="45.31687" lon="5.46309">
        <ele>709.79998779297</ele>
        <time>2022-05-10T13:23:12Z</time>
      </trkpt>
      <trkpt lat="45.31688" lon="5.46314">
        <ele>709.20001220703</ele>
        <time>2022-05-10T13:23:13Z</time>
      </trkpt>
      <trkpt lat="45.31688" lon="5.46324">
        <ele>708.20001220703</ele>
        <time>2022-05-10T13:23:15Z</time>
      </trkpt>
      <trkpt lat="45.31685" lon="5.46333">
        <ele>706.59997558594</ele>
        <time>2022-05-10T13:23:17Z</time>
      </trkpt>
      <trkpt lat="45.31684" lon="5.46336">
        <ele>706</ele>
        <time>2022-05-10T13:23:18Z</time>
      </trkpt>
      <trkpt lat="45.31682" lon="5.46342">
        <ele>705.20001220703</ele>
        <time>2022-05-10T13:23:19Z</time>
      </trkpt>
      <trkpt lat="45.31677" lon="5.46356">
        <ele>703.59997558594</ele>
        <time>2022-05-10T13:23:22Z</time>
      </trkpt>
      <trkpt lat="45.31672" lon="5.46366">
        <ele>702.59997558594</ele>
        <time>2022-05-10T13:23:24Z</time>
      </trkpt>
      <trkpt lat="45.3167" lon="5.46369">
        <ele>702.40002441406</ele>
        <time>2022-05-10T13:23:25Z</time>
      </trkpt>
      <trkpt lat="45.31666" lon="5.46378">
        <ele>700.79998779297</ele>
        <time>2022-05-10T13:23:27Z</time>
      </trkpt>
      <trkpt lat="45.3166" lon="5.46396">
        <ele>699.59997558594</ele>
        <time>2022-05-10T13:23:30Z</time>
      </trkpt>
      <trkpt lat="45.31658" lon="5.46401">
        <ele>698.79998779297</ele>
        <time>2022-05-10T13:23:31Z</time>
      </trkpt>
      <trkpt lat="45.31656" lon="5.46408">
        <ele>698.40002441406</ele>
        <time>2022-05-10T13:23:32Z</time>
      </trkpt>
      <trkpt lat="45.31648" lon="5.46431">
        <ele>697.20001220703</ele>
        <time>2022-05-10T13:23:36Z</time>
      </trkpt>
      <trkpt lat="45.31648" lon="5.46435">
        <ele>697</ele>
        <time>2022-05-10T13:23:37Z</time>
      </trkpt>
      <trkpt lat="45.31648" lon="5.4644">
        <ele>696.20001220703</ele>
        <time>2022-05-10T13:23:39Z</time>
      </trkpt>
      <trkpt lat="45.31646" lon="5.46449">
        <ele>695</ele>
        <time>2022-05-10T13:23:42Z</time>
      </trkpt>
      <trkpt lat="45.31645" lon="5.46461">
        <ele>693.40002441406</ele>
        <time>2022-05-10T13:23:45Z</time>
      </trkpt>
      <trkpt lat="45.31645" lon="5.46466">
        <ele>692.59997558594</ele>
        <time>2022-05-10T13:23:47Z</time>
      </trkpt>
      <trkpt lat="45.31646" lon="5.46468">
        <ele>692.40002441406</ele>
        <time>2022-05-10T13:23:48Z</time>
      </trkpt>
      <trkpt lat="45.31645" lon="5.46476">
        <ele>691</ele>
        <time>2022-05-10T13:23:51Z</time>
      </trkpt>
      <trkpt lat="45.31646" lon="5.46483">
        <ele>690.59997558594</ele>
        <time>2022-05-10T13:23:53Z</time>
      </trkpt>
      <trkpt lat="45.31646" lon="5.46493">
        <ele>689.59997558594</ele>
        <time>2022-05-10T13:23:56Z</time>
      </trkpt>
      <trkpt lat="45.31648" lon="5.46499">
        <ele>688.79998779297</ele>
        <time>2022-05-10T13:23:58Z</time>
      </trkpt>
      <trkpt lat="45.3165" lon="5.46502">
        <ele>688.59997558594</ele>
        <time>2022-05-10T13:23:59Z</time>
      </trkpt>
      <trkpt lat="45.31653" lon="5.46504">
        <ele>688.20001220703</ele>
        <time>2022-05-10T13:24:00Z</time>
      </trkpt>
      <trkpt lat="45.31659" lon="5.46503">
        <ele>687.59997558594</ele>
        <time>2022-05-10T13:24:02Z</time>
      </trkpt>
      <trkpt lat="45.3166" lon="5.46502">
        <ele>687</ele>
        <time>2022-05-10T13:24:03Z</time>
      </trkpt>
      <trkpt lat="45.31666" lon="5.46497">
        <ele>685.79998779297</ele>
        <time>2022-05-10T13:24:06Z</time>
      </trkpt>
      <trkpt lat="45.31668" lon="5.46495">
        <ele>685</ele>
        <time>2022-05-10T13:24:07Z</time>
      </trkpt>
      <trkpt lat="45.3167" lon="5.46493">
        <ele>684.59997558594</ele>
        <time>2022-05-10T13:24:08Z</time>
      </trkpt>
      <trkpt lat="45.3168" lon="5.46487">
        <ele>683.59997558594</ele>
        <time>2022-05-10T13:24:13Z</time>
      </trkpt>
      <trkpt lat="45.31683" lon="5.46486">
        <ele>683.20001220703</ele>
        <time>2022-05-10T13:24:14Z</time>
      </trkpt>
      <trkpt lat="45.31692" lon="5.46488">
        <ele>681.79998779297</ele>
        <time>2022-05-10T13:24:17Z</time>
      </trkpt>
      <trkpt lat="45.31698" lon="5.46489">
        <ele>681</ele>
        <time>2022-05-10T13:24:19Z</time>
      </trkpt>
      <trkpt lat="45.31702" lon="5.4649">
        <ele>680.59997558594</ele>
        <time>2022-05-10T13:24:20Z</time>
      </trkpt>
      <trkpt lat="45.31711" lon="5.46489">
        <ele>679.20001220703</ele>
        <time>2022-05-10T13:24:23Z</time>
      </trkpt>
      <trkpt lat="45.31715" lon="5.46489">
        <ele>678</ele>
        <time>2022-05-10T13:24:25Z</time>
      </trkpt>
      <trkpt lat="45.3172" lon="5.46491">
        <ele>677</ele>
        <time>2022-05-10T13:24:27Z</time>
      </trkpt>
      <trkpt lat="45.31722" lon="5.46492">
        <ele>676.20001220703</ele>
        <time>2022-05-10T13:24:28Z</time>
      </trkpt>
      <trkpt lat="45.31723" lon="5.46493">
        <ele>675.79998779297</ele>
        <time>2022-05-10T13:24:29Z</time>
      </trkpt>
      <trkpt lat="45.31724" lon="5.46494">
        <ele>674.20001220703</ele>
        <time>2022-05-10T13:24:30Z</time>
      </trkpt>
      <trkpt lat="45.31726" lon="5.46498">
        <ele>673.20001220703</ele>
        <time>2022-05-10T13:24:32Z</time>
      </trkpt>
      <trkpt lat="45.31727" lon="5.465">
        <ele>672</ele>
        <time>2022-05-10T13:24:33Z</time>
      </trkpt>
      <trkpt lat="45.31729" lon="5.46503">
        <ele>670.40002441406</ele>
        <time>2022-05-10T13:24:35Z</time>
      </trkpt>
      <trkpt lat="45.31732" lon="5.46508">
        <ele>669.79998779297</ele>
        <time>2022-05-10T13:24:38Z</time>
      </trkpt>
      <trkpt lat="45.31733" lon="5.4651">
        <ele>669</ele>
        <time>2022-05-10T13:24:39Z</time>
      </trkpt>
      <trkpt lat="45.31734" lon="5.46513">
        <ele>668.40002441406</ele>
        <time>2022-05-10T13:24:40Z</time>
      </trkpt>
      <trkpt lat="45.31736" lon="5.46519">
        <ele>667.40002441406</ele>
        <time>2022-05-10T13:24:42Z</time>
      </trkpt>
      <trkpt lat="45.31739" lon="5.46526">
        <ele>666.40002441406</ele>
        <time>2022-05-10T13:24:44Z</time>
      </trkpt>
      <trkpt lat="45.3174" lon="5.46529">
        <ele>666.20001220703</ele>
        <time>2022-05-10T13:24:45Z</time>
      </trkpt>
      <trkpt lat="45.31743" lon="5.4654">
        <ele>665</ele>
        <time>2022-05-10T13:24:48Z</time>
      </trkpt>
      <trkpt lat="45.31745" lon="5.46549">
        <ele>664.59997558594</ele>
        <time>2022-05-10T13:24:50Z</time>
      </trkpt>
      <trkpt lat="45.31748" lon="5.46557">
        <ele>664</ele>
        <time>2022-05-10T13:24:52Z</time>
      </trkpt>
      <trkpt lat="45.3175" lon="5.46575">
        <ele>663</ele>
        <time>2022-05-10T13:24:56Z</time>
      </trkpt>
      <trkpt lat="45.3175" lon="5.46579">
        <ele>662.79998779297</ele>
        <time>2022-05-10T13:24:57Z</time>
      </trkpt>
      <trkpt lat="45.31748" lon="5.46592">
        <ele>662.59997558594</ele>
        <time>2022-05-10T13:25:01Z</time>
      </trkpt>
      <trkpt lat="45.31751" lon="5.46604">
        <ele>661.79998779297</ele>
        <time>2022-05-10T13:25:05Z</time>
      </trkpt>
      <trkpt lat="45.31752" lon="5.46619">
        <ele>660.79998779297</ele>
        <time>2022-05-10T13:25:09Z</time>
      </trkpt>
      <trkpt lat="45.31754" lon="5.46624">
        <ele>660.79998779297</ele>
        <time>2022-05-10T13:25:10Z</time>
      </trkpt>
      <trkpt lat="45.31756" lon="5.46627">
        <ele>659.59997558594</ele>
        <time>2022-05-10T13:25:11Z</time>
      </trkpt>
      <trkpt lat="45.31763" lon="5.46633">
        <ele>658.40002441406</ele>
        <time>2022-05-10T13:25:13Z</time>
      </trkpt>
      <trkpt lat="45.31774" lon="5.4663">
        <ele>656.79998779297</ele>
        <time>2022-05-10T13:25:16Z</time>
      </trkpt>
      <trkpt lat="45.3178" lon="5.46626">
        <ele>655.79998779297</ele>
        <time>2022-05-10T13:25:18Z</time>
      </trkpt>
      <trkpt lat="45.31787" lon="5.46618">
        <ele>654.40002441406</ele>
        <time>2022-05-10T13:25:21Z</time>
      </trkpt>
      <trkpt lat="45.3179" lon="5.46616">
        <ele>654</ele>
        <time>2022-05-10T13:25:22Z</time>
      </trkpt>
      <trkpt lat="45.31793" lon="5.46613">
        <ele>653.40002441406</ele>
        <time>2022-05-10T13:25:23Z</time>
      </trkpt>
      <trkpt lat="45.31805" lon="5.46598">
        <ele>651.79998779297</ele>
        <time>2022-05-10T13:25:27Z</time>
      </trkpt>
      <trkpt lat="45.31811" lon="5.46589">
        <ele>651.20001220703</ele>
        <time>2022-05-10T13:25:29Z</time>
      </trkpt>
      <trkpt lat="45.31813" lon="5.46583">
        <ele>650.40002441406</ele>
        <time>2022-05-10T13:25:30Z</time>
      </trkpt>
      <trkpt lat="45.31816" lon="5.46575">
        <ele>648.79998779297</ele>
        <time>2022-05-10T13:25:32Z</time>
      </trkpt>
      <trkpt lat="45.3182" lon="5.46568">
        <ele>647.40002441406</ele>
        <time>2022-05-10T13:25:34Z</time>
      </trkpt>
      <trkpt lat="45.3182" lon="5.46567">
        <ele>647</ele>
        <time>2022-05-10T13:25:35Z</time>
      </trkpt>
      <trkpt lat="45.3182" lon="5.46564">
        <ele>644.59997558594</ele>
        <time>2022-05-10T13:25:42Z</time>
      </trkpt>
      <trkpt lat="45.31821" lon="5.4656">
        <ele>644.40002441406</ele>
        <time>2022-05-10T13:25:44Z</time>
      </trkpt>
      <trkpt lat="45.31822" lon="5.46558">
        <ele>644.40002441406</ele>
        <time>2022-05-10T13:25:45Z</time>
      </trkpt>
      <trkpt lat="45.31825" lon="5.46555">
        <ele>643.79998779297</ele>
        <time>2022-05-10T13:25:47Z</time>
      </trkpt>
      <trkpt lat="45.31826" lon="5.46554">
        <ele>643.40002441406</ele>
        <time>2022-05-10T13:25:48Z</time>
      </trkpt>
      <trkpt lat="45.31828" lon="5.46554">
        <ele>643.40002441406</ele>
        <time>2022-05-10T13:25:49Z</time>
      </trkpt>
      <trkpt lat="45.31829" lon="5.46554">
        <ele>642.79998779297</ele>
        <time>2022-05-10T13:25:50Z</time>
      </trkpt>
      <trkpt lat="45.3183" lon="5.46554">
        <ele>642.40002441406</ele>
        <time>2022-05-10T13:25:51Z</time>
      </trkpt>
      <trkpt lat="45.31832" lon="5.46556">
        <ele>642</ele>
        <time>2022-05-10T13:25:53Z</time>
      </trkpt>
      <trkpt lat="45.31832" lon="5.46558">
        <ele>641.79998779297</ele>
        <time>2022-05-10T13:25:54Z</time>
      </trkpt>
      <trkpt lat="45.31833" lon="5.46559">
        <ele>641.40002441406</ele>
        <time>2022-05-10T13:25:55Z</time>
      </trkpt>
      <trkpt lat="45.31838" lon="5.46567">
        <ele>640.59997558594</ele>
        <time>2022-05-10T13:25:59Z</time>
      </trkpt>
      <trkpt lat="45.31841" lon="5.46573">
        <ele>640.20001220703</ele>
        <time>2022-05-10T13:26:01Z</time>
      </trkpt>
      <trkpt lat="45.31845" lon="5.46589">
        <ele>639.20001220703</ele>
        <time>2022-05-10T13:26:04Z</time>
      </trkpt>
      <trkpt lat="45.31848" lon="5.46594">
        <ele>638</ele>
        <time>2022-05-10T13:26:06Z</time>
      </trkpt>
      <trkpt lat="45.31851" lon="5.46605">
        <ele>637</ele>
        <time>2022-05-10T13:26:08Z</time>
      </trkpt>
      <trkpt lat="45.31856" lon="5.46615">
        <ele>635.40002441406</ele>
        <time>2022-05-10T13:26:11Z</time>
      </trkpt>
      <trkpt lat="45.31862" lon="5.46624">
        <ele>634</ele>
        <time>2022-05-10T13:26:13Z</time>
      </trkpt>
      <trkpt lat="45.31869" lon="5.46634">
        <ele>632.59997558594</ele>
        <time>2022-05-10T13:26:16Z</time>
      </trkpt>
      <trkpt lat="45.31873" lon="5.46643">
        <ele>631.40002441406</ele>
        <time>2022-05-10T13:26:18Z</time>
      </trkpt>
      <trkpt lat="45.31874" lon="5.46647">
        <ele>630.20001220703</ele>
        <time>2022-05-10T13:26:20Z</time>
      </trkpt>
      <trkpt lat="45.31876" lon="5.46659">
        <ele>629.20001220703</ele>
        <time>2022-05-10T13:26:22Z</time>
      </trkpt>
      <trkpt lat="45.31875" lon="5.46666">
        <ele>628.20001220703</ele>
        <time>2022-05-10T13:26:25Z</time>
      </trkpt>
      <trkpt lat="45.31873" lon="5.46674">
        <ele>627</ele>
        <time>2022-05-10T13:26:26Z</time>
      </trkpt>
      <trkpt lat="45.3187" lon="5.46683">
        <ele>625.20001220703</ele>
        <time>2022-05-10T13:26:29Z</time>
      </trkpt>
      <trkpt lat="45.31868" lon="5.46705">
        <ele>624</ele>
        <time>2022-05-10T13:26:32Z</time>
      </trkpt>
      <trkpt lat="45.31868" lon="5.46711">
        <ele>621.79998779297</ele>
        <time>2022-05-10T13:26:34Z</time>
      </trkpt>
      <trkpt lat="45.31868" lon="5.46722">
        <ele>621</ele>
        <time>2022-05-10T13:26:35Z</time>
      </trkpt>
      <trkpt lat="45.31866" lon="5.4674">
        <ele>620.20001220703</ele>
        <time>2022-05-10T13:26:38Z</time>
      </trkpt>
      <trkpt lat="45.31863" lon="5.46751">
        <ele>619.20001220703</ele>
        <time>2022-05-10T13:26:41Z</time>
      </trkpt>
      <trkpt lat="45.31862" lon="5.46766">
        <ele>618</ele>
        <time>2022-05-10T13:26:43Z</time>
      </trkpt>
      <trkpt lat="45.31857" lon="5.46784">
        <ele>616.59997558594</ele>
        <time>2022-05-10T13:26:45Z</time>
      </trkpt>
      <trkpt lat="45.31854" lon="5.46792">
        <ele>615.40002441406</ele>
        <time>2022-05-10T13:26:47Z</time>
      </trkpt>
      <trkpt lat="45.31852" lon="5.46813">
        <ele>613.59997558594</ele>
        <time>2022-05-10T13:26:49Z</time>
      </trkpt>
      <trkpt lat="45.31849" lon="5.46825">
        <ele>612.20001220703</ele>
        <time>2022-05-10T13:26:51Z</time>
      </trkpt>
      <trkpt lat="45.31846" lon="5.46833">
        <ele>610.40002441406</ele>
        <time>2022-05-10T13:26:53Z</time>
      </trkpt>
      <trkpt lat="45.31846" lon="5.46835">
        <ele>609.79998779297</ele>
        <time>2022-05-10T13:26:54Z</time>
      </trkpt>
      <trkpt lat="45.31845" lon="5.46837">
        <ele>609.40002441406</ele>
        <time>2022-05-10T13:26:56Z</time>
      </trkpt>
      <trkpt lat="45.31845" lon="5.46838">
        <ele>608.59997558594</ele>
        <time>2022-05-10T13:27:00Z</time>
      </trkpt>
      <trkpt lat="45.31843" lon="5.46845">
        <ele>608.59997558594</ele>
        <time>2022-05-10T13:27:36Z</time>
      </trkpt>
      <trkpt lat="45.31839" lon="5.46856">
        <ele>608.40002441406</ele>
        <time>2022-05-10T13:27:39Z</time>
      </trkpt>
      <trkpt lat="45.31838" lon="5.46858">
        <ele>608</ele>
        <time>2022-05-10T13:27:41Z</time>
      </trkpt>
      <trkpt lat="45.31833" lon="5.46862">
        <ele>607.59997558594</ele>
        <time>2022-05-10T13:27:42Z</time>
      </trkpt>
      <trkpt lat="45.31829" lon="5.46863">
        <ele>607</ele>
        <time>2022-05-10T13:27:44Z</time>
      </trkpt>
      <trkpt lat="45.31827" lon="5.46864">
        <ele>606.79998779297</ele>
        <time>2022-05-10T13:27:45Z</time>
      </trkpt>
      <trkpt lat="45.31825" lon="5.46864">
        <ele>605.59997558594</ele>
        <time>2022-05-10T13:27:47Z</time>
      </trkpt>
      <trkpt lat="45.3182" lon="5.46864">
        <ele>604.20001220703</ele>
        <time>2022-05-10T13:27:48Z</time>
      </trkpt>
      <trkpt lat="45.31815" lon="5.46865">
        <ele>603.20001220703</ele>
        <time>2022-05-10T13:27:50Z</time>
      </trkpt>
      <trkpt lat="45.3181" lon="5.46866">
        <ele>602</ele>
        <time>2022-05-10T13:27:52Z</time>
      </trkpt>
      <trkpt lat="45.31808" lon="5.46866">
        <ele>601.20001220703</ele>
        <time>2022-05-10T13:27:53Z</time>
      </trkpt>
      <trkpt lat="45.31806" lon="5.46867">
        <ele>600.79998779297</ele>
        <time>2022-05-10T13:27:54Z</time>
      </trkpt>
      <trkpt lat="45.31804" lon="5.46867">
        <ele>600.20001220703</ele>
        <time>2022-05-10T13:27:55Z</time>
      </trkpt>
      <trkpt lat="45.31799" lon="5.46866">
        <ele>599.59997558594</ele>
        <time>2022-05-10T13:27:57Z</time>
      </trkpt>
      <trkpt lat="45.31795" lon="5.46865">
        <ele>599.59997558594</ele>
        <time>2022-05-10T13:27:58Z</time>
      </trkpt>
      <trkpt lat="45.31788" lon="5.46869">
        <ele>598.40002441406</ele>
        <time>2022-05-10T13:28:00Z</time>
      </trkpt>
      <trkpt lat="45.31779" lon="5.46874">
        <ele>597</ele>
        <time>2022-05-10T13:28:03Z</time>
      </trkpt>
      <trkpt lat="45.31775" lon="5.46879">
        <ele>595.79998779297</ele>
        <time>2022-05-10T13:28:05Z</time>
      </trkpt>
      <trkpt lat="45.31769" lon="5.46883">
        <ele>594.40002441406</ele>
        <time>2022-05-10T13:28:07Z</time>
      </trkpt>
      <trkpt lat="45.31761" lon="5.46891">
        <ele>593.20001220703</ele>
        <time>2022-05-10T13:28:09Z</time>
      </trkpt>
      <trkpt lat="45.31755" lon="5.46894">
        <ele>591.79998779297</ele>
        <time>2022-05-10T13:28:11Z</time>
      </trkpt>
      <trkpt lat="45.31745" lon="5.46899">
        <ele>590.59997558594</ele>
        <time>2022-05-10T13:28:14Z</time>
      </trkpt>
      <trkpt lat="45.31742" lon="5.46899">
        <ele>589.40002441406</ele>
        <time>2022-05-10T13:28:15Z</time>
      </trkpt>
      <trkpt lat="45.31739" lon="5.46901">
        <ele>589</ele>
        <time>2022-05-10T13:28:16Z</time>
      </trkpt>
      <trkpt lat="45.31732" lon="5.46903">
        <ele>588.20001220703</ele>
        <time>2022-05-10T13:28:18Z</time>
      </trkpt>
      <trkpt lat="45.31726" lon="5.46902">
        <ele>587.20001220703</ele>
        <time>2022-05-10T13:28:20Z</time>
      </trkpt>
      <trkpt lat="45.31723" lon="5.46902">
        <ele>586.59997558594</ele>
        <time>2022-05-10T13:28:21Z</time>
      </trkpt>
      <trkpt lat="45.31719" lon="5.46904">
        <ele>585</ele>
        <time>2022-05-10T13:28:23Z</time>
      </trkpt>
      <trkpt lat="45.31718" lon="5.46907">
        <ele>584.59997558594</ele>
        <time>2022-05-10T13:28:24Z</time>
      </trkpt>
      <trkpt lat="45.31717" lon="5.46911">
        <ele>584</ele>
        <time>2022-05-10T13:28:25Z</time>
      </trkpt>
      <trkpt lat="45.31717" lon="5.46911">
        <ele>583.59997558594</ele>
        <time>2022-05-10T13:28:26Z</time>
      </trkpt>
      <trkpt lat="45.31717" lon="5.46914">
        <ele>582.40002441406</ele>
        <time>2022-05-10T13:28:28Z</time>
      </trkpt>
      <trkpt lat="45.31717" lon="5.46916">
        <ele>581.59997558594</ele>
        <time>2022-05-10T13:28:29Z</time>
      </trkpt>
      <trkpt lat="45.31718" lon="5.46918">
        <ele>581.20001220703</ele>
        <time>2022-05-10T13:28:30Z</time>
      </trkpt>
      <trkpt lat="45.3172" lon="5.46918">
        <ele>580.59997558594</ele>
        <time>2022-05-10T13:28:31Z</time>
      </trkpt>
      <trkpt lat="45.31722" lon="5.46918">
        <ele>580.20001220703</ele>
        <time>2022-05-10T13:28:32Z</time>
      </trkpt>
      <trkpt lat="45.31736" lon="5.46917">
        <ele>579.79998779297</ele>
        <time>2022-05-10T13:28:37Z</time>
      </trkpt>
      <trkpt lat="45.31757" lon="5.46923">
        <ele>580.40002441406</ele>
        <time>2022-05-10T13:28:43Z</time>
      </trkpt>
      <trkpt lat="45.31778" lon="5.46934">
        <ele>581.40002441406</ele>
        <time>2022-05-10T13:28:50Z</time>
      </trkpt>
      <trkpt lat="45.31801" lon="5.46938">
        <ele>582.40002441406</ele>
        <time>2022-05-10T13:28:57Z</time>
      </trkpt>
      <trkpt lat="45.31811" lon="5.46937">
        <ele>582.79998779297</ele>
        <time>2022-05-10T13:29:00Z</time>
      </trkpt>
      <trkpt lat="45.31821" lon="5.46937">
        <ele>583.59997558594</ele>
        <time>2022-05-10T13:29:03Z</time>
      </trkpt>
      <trkpt lat="45.31831" lon="5.46936">
        <ele>584.20001220703</ele>
        <time>2022-05-10T13:29:07Z</time>
      </trkpt>
      <trkpt lat="45.31838" lon="5.46943">
        <ele>584.59997558594</ele>
        <time>2022-05-10T13:29:09Z</time>
      </trkpt>
      <trkpt lat="45.3184" lon="5.46948">
        <ele>584.79998779297</ele>
        <time>2022-05-10T13:29:10Z</time>
      </trkpt>
      <trkpt lat="45.31842" lon="5.46974">
        <ele>585.59997558594</ele>
        <time>2022-05-10T13:29:15Z</time>
      </trkpt>
      <trkpt lat="45.31841" lon="5.46985">
        <ele>586.20001220703</ele>
        <time>2022-05-10T13:29:18Z</time>
      </trkpt>
      <trkpt lat="45.31841" lon="5.46991">
        <ele>586.40002441406</ele>
        <time>2022-05-10T13:29:20Z</time>
      </trkpt>
      <trkpt lat="45.31839" lon="5.47007">
        <ele>586.79998779297</ele>
        <time>2022-05-10T13:29:24Z</time>
      </trkpt>
      <trkpt lat="45.31838" lon="5.47021">
        <ele>587.59997558594</ele>
        <time>2022-05-10T13:29:27Z</time>
      </trkpt>
      <trkpt lat="45.31838" lon="5.47032">
        <ele>588</ele>
        <time>2022-05-10T13:29:29Z</time>
      </trkpt>
      <trkpt lat="45.31837" lon="5.4704">
        <ele>588</ele>
        <time>2022-05-10T13:29:31Z</time>
      </trkpt>
      <trkpt lat="45.31839" lon="5.47061">
        <ele>588.20001220703</ele>
        <time>2022-05-10T13:29:37Z</time>
      </trkpt>
      <trkpt lat="45.31828" lon="5.47092">
        <ele>588</ele>
        <time>2022-05-10T13:29:42Z</time>
      </trkpt>
      <trkpt lat="45.31825" lon="5.47099">
        <ele>588</ele>
        <time>2022-05-10T13:29:43Z</time>
      </trkpt>
      <trkpt lat="45.31824" lon="5.47107">
        <ele>588.20001220703</ele>
        <time>2022-05-10T13:29:45Z</time>
      </trkpt>
      <trkpt lat="45.31822" lon="5.47139">
        <ele>588.40002441406</ele>
        <time>2022-05-10T13:29:51Z</time>
      </trkpt>
      <trkpt lat="45.31821" lon="5.47145">
        <ele>588.79998779297</ele>
        <time>2022-05-10T13:29:53Z</time>
      </trkpt>
      <trkpt lat="45.31819" lon="5.4715">
        <ele>588.79998779297</ele>
        <time>2022-05-10T13:29:54Z</time>
      </trkpt>
      <trkpt lat="45.31814" lon="5.47165">
        <ele>589.40002441406</ele>
        <time>2022-05-10T13:29:56Z</time>
      </trkpt>
      <trkpt lat="45.31811" lon="5.47174">
        <ele>589.79998779297</ele>
        <time>2022-05-10T13:29:58Z</time>
      </trkpt>
      <trkpt lat="45.31809" lon="5.47189">
        <ele>590</ele>
        <time>2022-05-10T13:30:01Z</time>
      </trkpt>
      <trkpt lat="45.31808" lon="5.47193">
        <ele>590.20001220703</ele>
        <time>2022-05-10T13:30:02Z</time>
      </trkpt>
      <trkpt lat="45.31805" lon="5.47205">
        <ele>590.40002441406</ele>
        <time>2022-05-10T13:30:06Z</time>
      </trkpt>
      <trkpt lat="45.31804" lon="5.47209">
        <ele>590.79998779297</ele>
        <time>2022-05-10T13:30:07Z</time>
      </trkpt>
      <trkpt lat="45.31803" lon="5.47223">
        <ele>591</ele>
        <time>2022-05-10T13:30:10Z</time>
      </trkpt>
      <trkpt lat="45.31797" lon="5.4723">
        <ele>591.59997558594</ele>
        <time>2022-05-10T13:30:12Z</time>
      </trkpt>
      <trkpt lat="45.31797" lon="5.47232">
        <ele>591.59997558594</ele>
        <time>2022-05-10T13:30:13Z</time>
      </trkpt>
      <trkpt lat="45.31797" lon="5.47238">
        <ele>591.79998779297</ele>
        <time>2022-05-10T13:30:16Z</time>
      </trkpt>
      <trkpt lat="45.31797" lon="5.4725">
        <ele>592.59997558594</ele>
        <time>2022-05-10T13:30:20Z</time>
      </trkpt>
      <trkpt lat="45.318" lon="5.4726">
        <ele>592.79998779297</ele>
        <time>2022-05-10T13:30:21Z</time>
      </trkpt>
      <trkpt lat="45.318" lon="5.47261">
        <ele>593.59997558594</ele>
        <time>2022-05-10T13:30:23Z</time>
      </trkpt>
      <trkpt lat="45.318" lon="5.47278">
        <ele>594.79998779297</ele>
        <time>2022-05-10T13:30:27Z</time>
      </trkpt>
      <trkpt lat="45.31799" lon="5.47282">
        <ele>595</ele>
        <time>2022-05-10T13:30:28Z</time>
      </trkpt>
      <trkpt lat="45.318" lon="5.47285">
        <ele>595.20001220703</ele>
        <time>2022-05-10T13:30:29Z</time>
      </trkpt>
      <trkpt lat="45.31799" lon="5.47292">
        <ele>596</ele>
        <time>2022-05-10T13:30:32Z</time>
      </trkpt>
      <trkpt lat="45.31802" lon="5.473">
        <ele>596.79998779297</ele>
        <time>2022-05-10T13:30:36Z</time>
      </trkpt>
      <trkpt lat="45.31802" lon="5.47301">
        <ele>597</ele>
        <time>2022-05-10T13:30:37Z</time>
      </trkpt>
      <trkpt lat="45.31801" lon="5.47304">
        <ele>597.40002441406</ele>
        <time>2022-05-10T13:30:38Z</time>
      </trkpt>
      <trkpt lat="45.31803" lon="5.47309">
        <ele>598.59997558594</ele>
        <time>2022-05-10T13:30:41Z</time>
      </trkpt>
      <trkpt lat="45.31804" lon="5.47312">
        <ele>599.79998779297</ele>
        <time>2022-05-10T13:30:46Z</time>
      </trkpt>
      <trkpt lat="45.31805" lon="5.47318">
        <ele>601</ele>
        <time>2022-05-10T13:30:51Z</time>
      </trkpt>
      <trkpt lat="45.31807" lon="5.4732">
        <ele>602.20001220703</ele>
        <time>2022-05-10T13:30:55Z</time>
      </trkpt>
      <trkpt lat="45.31807" lon="5.4732">
        <ele>603.40002441406</ele>
        <time>2022-05-10T13:31:00Z</time>
      </trkpt>
      <trkpt lat="45.31808" lon="5.47324">
        <ele>605.79998779297</ele>
        <time>2022-05-10T13:31:09Z</time>
      </trkpt>
      <trkpt lat="45.31809" lon="5.47331">
        <ele>606.20001220703</ele>
        <time>2022-05-10T13:31:11Z</time>
      </trkpt>
      <trkpt lat="45.3181" lon="5.47338">
        <ele>606.79998779297</ele>
        <time>2022-05-10T13:31:13Z</time>
      </trkpt>
      <trkpt lat="45.31811" lon="5.47343">
        <ele>607.20001220703</ele>
        <time>2022-05-10T13:31:15Z</time>
      </trkpt>
      <trkpt lat="45.31817" lon="5.47356">
        <ele>607.59997558594</ele>
        <time>2022-05-10T13:31:17Z</time>
      </trkpt>
      <trkpt lat="45.31818" lon="5.47362">
        <ele>608.20001220703</ele>
        <time>2022-05-10T13:31:19Z</time>
      </trkpt>
      <trkpt lat="45.31818" lon="5.47366">
        <ele>608.40002441406</ele>
        <time>2022-05-10T13:31:20Z</time>
      </trkpt>
      <trkpt lat="45.3182" lon="5.47371">
        <ele>608.59997558594</ele>
        <time>2022-05-10T13:31:21Z</time>
      </trkpt>
      <trkpt lat="45.31826" lon="5.4738">
        <ele>609</ele>
        <time>2022-05-10T13:31:24Z</time>
      </trkpt>
      <trkpt lat="45.3183" lon="5.47386">
        <ele>609.20001220703</ele>
        <time>2022-05-10T13:31:26Z</time>
      </trkpt>
      <trkpt lat="45.31831" lon="5.47389">
        <ele>609.40002441406</ele>
        <time>2022-05-10T13:31:27Z</time>
      </trkpt>
      <trkpt lat="45.31835" lon="5.47397">
        <ele>609.59997558594</ele>
        <time>2022-05-10T13:31:30Z</time>
      </trkpt>
      <trkpt lat="45.31836" lon="5.47398">
        <ele>609.79998779297</ele>
        <time>2022-05-10T13:31:31Z</time>
      </trkpt>
      <trkpt lat="45.31838" lon="5.47402">
        <ele>610.20001220703</ele>
        <time>2022-05-10T13:31:35Z</time>
      </trkpt>
      <trkpt lat="45.31838" lon="5.47414">
        <ele>610.20001220703</ele>
        <time>2022-05-10T13:31:38Z</time>
      </trkpt>
      <trkpt lat="45.31836" lon="5.47426">
        <ele>610</ele>
        <time>2022-05-10T13:31:40Z</time>
      </trkpt>
      <trkpt lat="45.31832" lon="5.47453">
        <ele>607.59997558594</ele>
        <time>2022-05-10T13:31:45Z</time>
      </trkpt>
      <trkpt lat="45.31831" lon="5.47459">
        <ele>607.20001220703</ele>
        <time>2022-05-10T13:31:46Z</time>
      </trkpt>
      <trkpt lat="45.31831" lon="5.47468">
        <ele>606.40002441406</ele>
        <time>2022-05-10T13:31:48Z</time>
      </trkpt>
      <trkpt lat="45.31828" lon="5.4748">
        <ele>605.20001220703</ele>
        <time>2022-05-10T13:31:50Z</time>
      </trkpt>
      <trkpt lat="45.31827" lon="5.47487">
        <ele>604</ele>
        <time>2022-05-10T13:31:51Z</time>
      </trkpt>
      <trkpt lat="45.31826" lon="5.47498">
        <ele>602.59997558594</ele>
        <time>2022-05-10T13:31:53Z</time>
      </trkpt>
      <trkpt lat="45.31826" lon="5.47509">
        <ele>601.59997558594</ele>
        <time>2022-05-10T13:31:55Z</time>
      </trkpt>
      <trkpt lat="45.31826" lon="5.47513">
        <ele>600.40002441406</ele>
        <time>2022-05-10T13:31:56Z</time>
      </trkpt>
      <trkpt lat="45.31827" lon="5.47516">
        <ele>600</ele>
        <time>2022-05-10T13:31:57Z</time>
      </trkpt>
      <trkpt lat="45.31828" lon="5.47521">
        <ele>598.79998779297</ele>
        <time>2022-05-10T13:31:58Z</time>
      </trkpt>
      <trkpt lat="45.31832" lon="5.47534">
        <ele>597.59997558594</ele>
        <time>2022-05-10T13:32:00Z</time>
      </trkpt>
      <trkpt lat="45.3184" lon="5.47544">
        <ele>596.59997558594</ele>
        <time>2022-05-10T13:32:02Z</time>
      </trkpt>
      <trkpt lat="45.3185" lon="5.47556">
        <ele>595.40002441406</ele>
        <time>2022-05-10T13:32:04Z</time>
      </trkpt>
      <trkpt lat="45.31857" lon="5.47563">
        <ele>594.20001220703</ele>
        <time>2022-05-10T13:32:06Z</time>
      </trkpt>
      <trkpt lat="45.31868" lon="5.47573">
        <ele>592.20001220703</ele>
        <time>2022-05-10T13:32:08Z</time>
      </trkpt>
      <trkpt lat="45.31883" lon="5.47584">
        <ele>590.59997558594</ele>
        <time>2022-05-10T13:32:10Z</time>
      </trkpt>
      <trkpt lat="45.31884" lon="5.47585">
        <ele>589.59997558594</ele>
        <time>2022-05-10T13:32:12Z</time>
      </trkpt>
      <trkpt lat="45.31885" lon="5.47585">
        <ele>589.20001220703</ele>
        <time>2022-05-10T13:32:13Z</time>
      </trkpt>
      <trkpt lat="45.31888" lon="5.47587">
        <ele>586.40002441406</ele>
        <time>2022-05-10T13:32:16Z</time>
      </trkpt>
      <trkpt lat="45.31893" lon="5.47587">
        <ele>585.40002441406</ele>
        <time>2022-05-10T13:32:19Z</time>
      </trkpt>
      <trkpt lat="45.31896" lon="5.47589">
        <ele>585.40002441406</ele>
        <time>2022-05-10T13:32:20Z</time>
      </trkpt>
      <trkpt lat="45.31898" lon="5.4759">
        <ele>585.20001220703</ele>
        <time>2022-05-10T13:32:21Z</time>
      </trkpt>
      <trkpt lat="45.31901" lon="5.47589">
        <ele>585.20001220703</ele>
        <time>2022-05-10T13:32:24Z</time>
      </trkpt>
      <trkpt lat="45.31909" lon="5.47587">
        <ele>585.20001220703</ele>
        <time>2022-05-10T13:32:30Z</time>
      </trkpt>
      <trkpt lat="45.3191" lon="5.47589">
        <ele>585.20001220703</ele>
        <time>2022-05-10T13:32:31Z</time>
      </trkpt>
      <trkpt lat="45.31912" lon="5.47592">
        <ele>585.40002441406</ele>
        <time>2022-05-10T13:32:32Z</time>
      </trkpt>
      <trkpt lat="45.31923" lon="5.47602">
        <ele>585.59997558594</ele>
        <time>2022-05-10T13:32:36Z</time>
      </trkpt>
      <trkpt lat="45.31928" lon="5.47603">
        <ele>585.59997558594</ele>
        <time>2022-05-10T13:32:38Z</time>
      </trkpt>
      <trkpt lat="45.31937" lon="5.47607">
        <ele>585.59997558594</ele>
        <time>2022-05-10T13:32:41Z</time>
      </trkpt>
      <trkpt lat="45.31939" lon="5.47609">
        <ele>585.59997558594</ele>
        <time>2022-05-10T13:32:42Z</time>
      </trkpt>
      <trkpt lat="45.31947" lon="5.47617">
        <ele>585.40002441406</ele>
        <time>2022-05-10T13:32:44Z</time>
      </trkpt>
      <trkpt lat="45.31955" lon="5.47626">
        <ele>585</ele>
        <time>2022-05-10T13:32:46Z</time>
      </trkpt>
      <trkpt lat="45.31966" lon="5.47636">
        <ele>584.40002441406</ele>
        <time>2022-05-10T13:32:48Z</time>
      </trkpt>
      <trkpt lat="45.31973" lon="5.47638">
        <ele>584</ele>
        <time>2022-05-10T13:32:49Z</time>
      </trkpt>
      <trkpt lat="45.31977" lon="5.4764">
        <ele>583.79998779297</ele>
        <time>2022-05-10T13:32:50Z</time>
      </trkpt>
      <trkpt lat="45.31981" lon="5.47643">
        <ele>583.20001220703</ele>
        <time>2022-05-10T13:32:51Z</time>
      </trkpt>
      <trkpt lat="45.31985" lon="5.47648">
        <ele>582.59997558594</ele>
        <time>2022-05-10T13:32:53Z</time>
      </trkpt>
      <trkpt lat="45.31999" lon="5.47661">
        <ele>582.20001220703</ele>
        <time>2022-05-10T13:32:57Z</time>
      </trkpt>
      <trkpt lat="45.32017" lon="5.47679">
        <ele>582.20001220703</ele>
        <time>2022-05-10T13:33:02Z</time>
      </trkpt>
      <trkpt lat="45.3205" lon="5.47711">
        <ele>583.59997558594</ele>
        <time>2022-05-10T13:33:09Z</time>
      </trkpt>
      <trkpt lat="45.32058" lon="5.47725">
        <ele>584.40002441406</ele>
        <time>2022-05-10T13:33:12Z</time>
      </trkpt>
      <trkpt lat="45.32061" lon="5.47727">
        <ele>584.40002441406</ele>
        <time>2022-05-10T13:33:13Z</time>
      </trkpt>
      <trkpt lat="45.32082" lon="5.47755">
        <ele>585.20001220703</ele>
        <time>2022-05-10T13:33:19Z</time>
      </trkpt>
      <trkpt lat="45.32086" lon="5.47759">
        <ele>585</ele>
        <time>2022-05-10T13:33:20Z</time>
      </trkpt>
      <trkpt lat="45.32098" lon="5.47766">
        <ele>583.59997558594</ele>
        <time>2022-05-10T13:33:23Z</time>
      </trkpt>
      <trkpt lat="45.32104" lon="5.47768">
        <ele>583</ele>
        <time>2022-05-10T13:33:25Z</time>
      </trkpt>
      <trkpt lat="45.3211" lon="5.47771">
        <ele>582.20001220703</ele>
        <time>2022-05-10T13:33:27Z</time>
      </trkpt>
      <trkpt lat="45.32113" lon="5.47774">
        <ele>581.79998779297</ele>
        <time>2022-05-10T13:33:28Z</time>
      </trkpt>
      <trkpt lat="45.32127" lon="5.47787">
        <ele>580.79998779297</ele>
        <time>2022-05-10T13:33:31Z</time>
      </trkpt>
      <trkpt lat="45.32136" lon="5.47794">
        <ele>580.20001220703</ele>
        <time>2022-05-10T13:33:33Z</time>
      </trkpt>
      <trkpt lat="45.32144" lon="5.478">
        <ele>579.59997558594</ele>
        <time>2022-05-10T13:33:34Z</time>
      </trkpt>
      <trkpt lat="45.3216" lon="5.47806">
        <ele>578.40002441406</ele>
        <time>2022-05-10T13:33:37Z</time>
      </trkpt>
      <trkpt lat="45.32164" lon="5.47809">
        <ele>578.20001220703</ele>
        <time>2022-05-10T13:33:38Z</time>
      </trkpt>
      <trkpt lat="45.32171" lon="5.47813">
        <ele>577</ele>
        <time>2022-05-10T13:33:40Z</time>
      </trkpt>
      <trkpt lat="45.32192" lon="5.47825">
        <ele>575</ele>
        <time>2022-05-10T13:33:43Z</time>
      </trkpt>
      <trkpt lat="45.32204" lon="5.47834">
        <ele>573.79998779297</ele>
        <time>2022-05-10T13:33:45Z</time>
      </trkpt>
      <trkpt lat="45.32213" lon="5.47838">
        <ele>573</ele>
        <time>2022-05-10T13:33:48Z</time>
      </trkpt>
      <trkpt lat="45.32225" lon="5.47841">
        <ele>571.20001220703</ele>
        <time>2022-05-10T13:33:52Z</time>
      </trkpt>
      <trkpt lat="45.32233" lon="5.47845">
        <ele>570.20001220703</ele>
        <time>2022-05-10T13:33:54Z</time>
      </trkpt>
      <trkpt lat="45.32237" lon="5.47848">
        <ele>569.59997558594</ele>
        <time>2022-05-10T13:33:55Z</time>
      </trkpt>
      <trkpt lat="45.32245" lon="5.47851">
        <ele>568.40002441406</ele>
        <time>2022-05-10T13:33:57Z</time>
      </trkpt>
      <trkpt lat="45.32256" lon="5.47852">
        <ele>567.59997558594</ele>
        <time>2022-05-10T13:33:59Z</time>
      </trkpt>
      <trkpt lat="45.32262" lon="5.47852">
        <ele>567.40002441406</ele>
        <time>2022-05-10T13:34:00Z</time>
      </trkpt>
      <trkpt lat="45.3228" lon="5.47856">
        <ele>565.79998779297</ele>
        <time>2022-05-10T13:34:02Z</time>
      </trkpt>
      <trkpt lat="45.32286" lon="5.47857">
        <ele>565.59997558594</ele>
        <time>2022-05-10T13:34:03Z</time>
      </trkpt>
      <trkpt lat="45.32296" lon="5.47854">
        <ele>564.79998779297</ele>
        <time>2022-05-10T13:34:05Z</time>
      </trkpt>
      <trkpt lat="45.32301" lon="5.47852">
        <ele>564</ele>
        <time>2022-05-10T13:34:06Z</time>
      </trkpt>
      <trkpt lat="45.32306" lon="5.47853">
        <ele>563.59997558594</ele>
        <time>2022-05-10T13:34:07Z</time>
      </trkpt>
      <trkpt lat="45.3231" lon="5.47852">
        <ele>563.20001220703</ele>
        <time>2022-05-10T13:34:08Z</time>
      </trkpt>
      <trkpt lat="45.32319" lon="5.47852">
        <ele>562.59997558594</ele>
        <time>2022-05-10T13:34:10Z</time>
      </trkpt>
      <trkpt lat="45.32327" lon="5.47852">
        <ele>561</ele>
        <time>2022-05-10T13:34:12Z</time>
      </trkpt>
      <trkpt lat="45.32329" lon="5.47852">
        <ele>560</ele>
        <time>2022-05-10T13:34:13Z</time>
      </trkpt>
      <trkpt lat="45.32334" lon="5.4785">
        <ele>558.20001220703</ele>
        <time>2022-05-10T13:34:15Z</time>
      </trkpt>
      <trkpt lat="45.32341" lon="5.47851">
        <ele>556.79998779297</ele>
        <time>2022-05-10T13:34:17Z</time>
      </trkpt>
      <trkpt lat="45.32345" lon="5.47853">
        <ele>556.20001220703</ele>
        <time>2022-05-10T13:34:18Z</time>
      </trkpt>
      <trkpt lat="45.32352" lon="5.47856">
        <ele>554.79998779297</ele>
        <time>2022-05-10T13:34:20Z</time>
      </trkpt>
      <trkpt lat="45.32355" lon="5.47858">
        <ele>554.20001220703</ele>
        <time>2022-05-10T13:34:21Z</time>
      </trkpt>
      <trkpt lat="45.32358" lon="5.47858">
        <ele>553.59997558594</ele>
        <time>2022-05-10T13:34:22Z</time>
      </trkpt>
      <trkpt lat="45.32362" lon="5.47859">
        <ele>553.20001220703</ele>
        <time>2022-05-10T13:34:23Z</time>
      </trkpt>
      <trkpt lat="45.32366" lon="5.47862">
        <ele>552.59997558594</ele>
        <time>2022-05-10T13:34:24Z</time>
      </trkpt>
      <trkpt lat="45.32374" lon="5.47863">
        <ele>551.20001220703</ele>
        <time>2022-05-10T13:34:26Z</time>
      </trkpt>
      <trkpt lat="45.3238" lon="5.47861">
        <ele>550.59997558594</ele>
        <time>2022-05-10T13:34:27Z</time>
      </trkpt>
      <trkpt lat="45.32386" lon="5.47858">
        <ele>550.59997558594</ele>
        <time>2022-05-10T13:34:28Z</time>
      </trkpt>
      <trkpt lat="45.32393" lon="5.47857">
        <ele>550.20001220703</ele>
        <time>2022-05-10T13:34:29Z</time>
      </trkpt>
      <trkpt lat="45.324" lon="5.47854">
        <ele>549.79998779297</ele>
        <time>2022-05-10T13:34:30Z</time>
      </trkpt>
      <trkpt lat="45.32412" lon="5.47847">
        <ele>549</ele>
        <time>2022-05-10T13:34:32Z</time>
      </trkpt>
      <trkpt lat="45.32416" lon="5.47843">
        <ele>548</ele>
        <time>2022-05-10T13:34:33Z</time>
      </trkpt>
      <trkpt lat="45.32421" lon="5.47838">
        <ele>546.59997558594</ele>
        <time>2022-05-10T13:34:34Z</time>
      </trkpt>
      <trkpt lat="45.32429" lon="5.47828">
        <ele>545.40002441406</ele>
        <time>2022-05-10T13:34:36Z</time>
      </trkpt>
      <trkpt lat="45.32433" lon="5.47823">
        <ele>545</ele>
        <time>2022-05-10T13:34:37Z</time>
      </trkpt>
      <trkpt lat="45.32439" lon="5.47821">
        <ele>544.59997558594</ele>
        <time>2022-05-10T13:34:39Z</time>
      </trkpt>
      <trkpt lat="45.32445" lon="5.4782">
        <ele>543.79998779297</ele>
        <time>2022-05-10T13:34:41Z</time>
      </trkpt>
      <trkpt lat="45.32452" lon="5.47814">
        <ele>542.79998779297</ele>
        <time>2022-05-10T13:34:43Z</time>
      </trkpt>
      <trkpt lat="45.32459" lon="5.47811">
        <ele>541.79998779297</ele>
        <time>2022-05-10T13:34:45Z</time>
      </trkpt>
      <trkpt lat="45.32465" lon="5.47808">
        <ele>540.40002441406</ele>
        <time>2022-05-10T13:34:47Z</time>
      </trkpt>
      <trkpt lat="45.32471" lon="5.47804">
        <ele>538.59997558594</ele>
        <time>2022-05-10T13:34:49Z</time>
      </trkpt>
      <trkpt lat="45.32475" lon="5.47803">
        <ele>537.59997558594</ele>
        <time>2022-05-10T13:34:50Z</time>
      </trkpt>
      <trkpt lat="45.32485" lon="5.47797">
        <ele>536.40002441406</ele>
        <time>2022-05-10T13:34:53Z</time>
      </trkpt>
      <trkpt lat="45.32502" lon="5.47795">
        <ele>535.40002441406</ele>
        <time>2022-05-10T13:34:56Z</time>
      </trkpt>
      <trkpt lat="45.32508" lon="5.47794">
        <ele>535.40002441406</ele>
        <time>2022-05-10T13:34:57Z</time>
      </trkpt>
      <trkpt lat="45.32518" lon="5.47792">
        <ele>535.20001220703</ele>
        <time>2022-05-10T13:34:59Z</time>
      </trkpt>
      <trkpt lat="45.32528" lon="5.47784">
        <ele>534.59997558594</ele>
        <time>2022-05-10T13:35:01Z</time>
      </trkpt>
      <trkpt lat="45.32533" lon="5.4778">
        <ele>534.40002441406</ele>
        <time>2022-05-10T13:35:02Z</time>
      </trkpt>
      <trkpt lat="45.32542" lon="5.47772">
        <ele>533.20001220703</ele>
        <time>2022-05-10T13:35:04Z</time>
      </trkpt>
      <trkpt lat="45.32551" lon="5.47765">
        <ele>531.79998779297</ele>
        <time>2022-05-10T13:35:06Z</time>
      </trkpt>
      <trkpt lat="45.32559" lon="5.47759">
        <ele>530.59997558594</ele>
        <time>2022-05-10T13:35:08Z</time>
      </trkpt>
      <trkpt lat="45.32569" lon="5.47749">
        <ele>529.40002441406</ele>
        <time>2022-05-10T13:35:11Z</time>
      </trkpt>
      <trkpt lat="45.32578" lon="5.47743">
        <ele>528.20001220703</ele>
        <time>2022-05-10T13:35:14Z</time>
      </trkpt>
      <trkpt lat="45.32581" lon="5.4774">
        <ele>527.59997558594</ele>
        <time>2022-05-10T13:35:15Z</time>
      </trkpt>
      <trkpt lat="45.32587" lon="5.47733">
        <ele>526.79998779297</ele>
        <time>2022-05-10T13:35:17Z</time>
      </trkpt>
      <trkpt lat="45.32599" lon="5.47719">
        <ele>525.59997558594</ele>
        <time>2022-05-10T13:35:21Z</time>
      </trkpt>
      <trkpt lat="45.3261" lon="5.47712">
        <ele>524.59997558594</ele>
        <time>2022-05-10T13:35:24Z</time>
      </trkpt>
      <trkpt lat="45.32616" lon="5.4771">
        <ele>524.40002441406</ele>
        <time>2022-05-10T13:35:26Z</time>
      </trkpt>
      <trkpt lat="45.32624" lon="5.47703">
        <ele>523.79998779297</ele>
        <time>2022-05-10T13:35:28Z</time>
      </trkpt>
      <trkpt lat="45.32634" lon="5.47691">
        <ele>522.79998779297</ele>
        <time>2022-05-10T13:35:30Z</time>
      </trkpt>
      <trkpt lat="45.3264" lon="5.47685">
        <ele>522.20001220703</ele>
        <time>2022-05-10T13:35:31Z</time>
      </trkpt>
      <trkpt lat="45.32655" lon="5.47673">
        <ele>521.59997558594</ele>
        <time>2022-05-10T13:35:34Z</time>
      </trkpt>
      <trkpt lat="45.32661" lon="5.47667">
        <ele>520.59997558594</ele>
        <time>2022-05-10T13:35:36Z</time>
      </trkpt>
      <trkpt lat="45.32663" lon="5.47663">
        <ele>519.59997558594</ele>
        <time>2022-05-10T13:35:37Z</time>
      </trkpt>
      <trkpt lat="45.32672" lon="5.47657">
        <ele>518.40002441406</ele>
        <time>2022-05-10T13:35:40Z</time>
      </trkpt>
      <trkpt lat="45.32675" lon="5.47654">
        <ele>518.20001220703</ele>
        <time>2022-05-10T13:35:41Z</time>
      </trkpt>
      <trkpt lat="45.3268" lon="5.47644">
        <ele>517.20001220703</ele>
        <time>2022-05-10T13:35:44Z</time>
      </trkpt>
      <trkpt lat="45.32682" lon="5.47639">
        <ele>516.79998779297</ele>
        <time>2022-05-10T13:35:45Z</time>
      </trkpt>
      <trkpt lat="45.32686" lon="5.47628">
        <ele>515.79998779297</ele>
        <time>2022-05-10T13:35:48Z</time>
      </trkpt>
      <trkpt lat="45.3269" lon="5.47622">
        <ele>515.40002441406</ele>
        <time>2022-05-10T13:35:49Z</time>
      </trkpt>
      <trkpt lat="45.32702" lon="5.47602">
        <ele>514.59997558594</ele>
        <time>2022-05-10T13:35:53Z</time>
      </trkpt>
      <trkpt lat="45.32705" lon="5.47597">
        <ele>514.40002441406</ele>
        <time>2022-05-10T13:35:54Z</time>
      </trkpt>
      <trkpt lat="45.3272" lon="5.47571">
        <ele>513</ele>
        <time>2022-05-10T13:35:58Z</time>
      </trkpt>
      <trkpt lat="45.32724" lon="5.47565">
        <ele>512.59997558594</ele>
        <time>2022-05-10T13:35:59Z</time>
      </trkpt>
      <trkpt lat="45.32729" lon="5.47558">
        <ele>511.79998779297</ele>
        <time>2022-05-10T13:36:00Z</time>
      </trkpt>
      <trkpt lat="45.32734" lon="5.47553">
        <ele>511.39999389648</ele>
        <time>2022-05-10T13:36:01Z</time>
      </trkpt>
      <trkpt lat="45.32745" lon="5.47542">
        <ele>510.60000610352</ele>
        <time>2022-05-10T13:36:03Z</time>
      </trkpt>
      <trkpt lat="45.3275" lon="5.47537">
        <ele>510</ele>
        <time>2022-05-10T13:36:04Z</time>
      </trkpt>
      <trkpt lat="45.32758" lon="5.47523">
        <ele>509.79998779297</ele>
        <time>2022-05-10T13:36:06Z</time>
      </trkpt>
      <trkpt lat="45.32765" lon="5.47511">
        <ele>509.39999389648</ele>
        <time>2022-05-10T13:36:08Z</time>
      </trkpt>
      <trkpt lat="45.32769" lon="5.47504">
        <ele>509</ele>
        <time>2022-05-10T13:36:09Z</time>
      </trkpt>
      <trkpt lat="45.32776" lon="5.4749">
        <ele>508</ele>
        <time>2022-05-10T13:36:11Z</time>
      </trkpt>
      <trkpt lat="45.32787" lon="5.47468">
        <ele>506.79998779297</ele>
        <time>2022-05-10T13:36:14Z</time>
      </trkpt>
      <trkpt lat="45.32807" lon="5.47448">
        <ele>506.60000610352</ele>
        <time>2022-05-10T13:36:18Z</time>
      </trkpt>
      <trkpt lat="45.32811" lon="5.47441">
        <ele>506.39999389648</ele>
        <time>2022-05-10T13:36:19Z</time>
      </trkpt>
      <trkpt lat="45.32816" lon="5.47435">
        <ele>506.39999389648</ele>
        <time>2022-05-10T13:36:20Z</time>
      </trkpt>
      <trkpt lat="45.3282" lon="5.47431">
        <ele>505.79998779297</ele>
        <time>2022-05-10T13:36:21Z</time>
      </trkpt>
      <trkpt lat="45.3283" lon="5.47425">
        <ele>505.20001220703</ele>
        <time>2022-05-10T13:36:23Z</time>
      </trkpt>
      <trkpt lat="45.32842" lon="5.47416">
        <ele>504.20001220703</ele>
        <time>2022-05-10T13:36:25Z</time>
      </trkpt>
      <trkpt lat="45.32853" lon="5.47406">
        <ele>503.79998779297</ele>
        <time>2022-05-10T13:36:27Z</time>
      </trkpt>
      <trkpt lat="45.3287" lon="5.4739">
        <ele>503.39999389648</ele>
        <time>2022-05-10T13:36:31Z</time>
      </trkpt>
      <trkpt lat="45.32875" lon="5.47387">
        <ele>503.20001220703</ele>
        <time>2022-05-10T13:36:32Z</time>
      </trkpt>
      <trkpt lat="45.32892" lon="5.47375">
        <ele>502.60000610352</ele>
        <time>2022-05-10T13:36:35Z</time>
      </trkpt>
      <trkpt lat="45.32901" lon="5.47372">
        <ele>501.79998779297</ele>
        <time>2022-05-10T13:36:37Z</time>
      </trkpt>
      <trkpt lat="45.32919" lon="5.47369">
        <ele>500.79998779297</ele>
        <time>2022-05-10T13:36:41Z</time>
      </trkpt>
      <trkpt lat="45.32941" lon="5.47359">
        <ele>500</ele>
        <time>2022-05-10T13:36:45Z</time>
      </trkpt>
      <trkpt lat="45.32958" lon="5.47347">
        <ele>499.60000610352</ele>
        <time>2022-05-10T13:36:48Z</time>
      </trkpt>
      <trkpt lat="45.32971" lon="5.47338">
        <ele>499.39999389648</ele>
        <time>2022-05-10T13:36:50Z</time>
      </trkpt>
      <trkpt lat="45.32989" lon="5.47326">
        <ele>498.39999389648</ele>
        <time>2022-05-10T13:36:54Z</time>
      </trkpt>
      <trkpt lat="45.33004" lon="5.47313">
        <ele>497.20001220703</ele>
        <time>2022-05-10T13:36:57Z</time>
      </trkpt>
      <trkpt lat="45.33014" lon="5.473">
        <ele>496.60000610352</ele>
        <time>2022-05-10T13:36:59Z</time>
      </trkpt>
      <trkpt lat="45.33026" lon="5.47291">
        <ele>496</ele>
        <time>2022-05-10T13:37:01Z</time>
      </trkpt>
      <trkpt lat="45.33046" lon="5.4728">
        <ele>494.60000610352</ele>
        <time>2022-05-10T13:37:04Z</time>
      </trkpt>
      <trkpt lat="45.33055" lon="5.47271">
        <ele>493.60000610352</ele>
        <time>2022-05-10T13:37:06Z</time>
      </trkpt>
      <trkpt lat="45.33073" lon="5.47256">
        <ele>492.20001220703</ele>
        <time>2022-05-10T13:37:09Z</time>
      </trkpt>
      <trkpt lat="45.33088" lon="5.47243">
        <ele>491.39999389648</ele>
        <time>2022-05-10T13:37:11Z</time>
      </trkpt>
      <trkpt lat="45.33093" lon="5.47239">
        <ele>491</ele>
        <time>2022-05-10T13:37:12Z</time>
      </trkpt>
      <trkpt lat="45.33105" lon="5.47232">
        <ele>490.39999389648</ele>
        <time>2022-05-10T13:37:14Z</time>
      </trkpt>
      <trkpt lat="45.3312" lon="5.4722">
        <ele>489.60000610352</ele>
        <time>2022-05-10T13:37:17Z</time>
      </trkpt>
      <trkpt lat="45.33125" lon="5.47216">
        <ele>488</ele>
        <time>2022-05-10T13:37:18Z</time>
      </trkpt>
      <trkpt lat="45.33138" lon="5.47209">
        <ele>487</ele>
        <time>2022-05-10T13:37:20Z</time>
      </trkpt>
      <trkpt lat="45.33142" lon="5.47208">
        <ele>486.79998779297</ele>
        <time>2022-05-10T13:37:21Z</time>
      </trkpt>
      <trkpt lat="45.33146" lon="5.47207">
        <ele>486.39999389648</ele>
        <time>2022-05-10T13:37:23Z</time>
      </trkpt>
      <trkpt lat="45.33146" lon="5.47206">
        <ele>486.20001220703</ele>
        <time>2022-05-10T13:37:24Z</time>
      </trkpt>
      <trkpt lat="45.33148" lon="5.47204">
        <ele>485.20001220703</ele>
        <time>2022-05-10T13:37:29Z</time>
      </trkpt>
      <trkpt lat="45.33149" lon="5.47203">
        <ele>484.20001220703</ele>
        <time>2022-05-10T13:37:36Z</time>
      </trkpt>
      <trkpt lat="45.33148" lon="5.47196">
        <ele>483.20001220703</ele>
        <time>2022-05-10T13:38:06Z</time>
      </trkpt>
      <trkpt lat="45.33147" lon="5.47193">
        <ele>483.39999389648</ele>
        <time>2022-05-10T13:38:07Z</time>
      </trkpt>
      <trkpt lat="45.33145" lon="5.47182">
        <ele>483.79998779297</ele>
        <time>2022-05-10T13:38:11Z</time>
      </trkpt>
      <trkpt lat="45.33142" lon="5.47168">
        <ele>485.60000610352</ele>
        <time>2022-05-10T13:38:17Z</time>
      </trkpt>
      <trkpt lat="45.33142" lon="5.47153">
        <ele>486.79998779297</ele>
        <time>2022-05-10T13:38:21Z</time>
      </trkpt>
      <trkpt lat="45.33141" lon="5.47145">
        <ele>487</ele>
        <time>2022-05-10T13:38:23Z</time>
      </trkpt>
      <trkpt lat="45.33141" lon="5.47141">
        <ele>487.20001220703</ele>
        <time>2022-05-10T13:38:24Z</time>
      </trkpt>
      <trkpt lat="45.3314" lon="5.47135">
        <ele>488</ele>
        <time>2022-05-10T13:38:26Z</time>
      </trkpt>
      <trkpt lat="45.33142" lon="5.47117">
        <ele>488.39999389648</ele>
        <time>2022-05-10T13:38:30Z</time>
      </trkpt>
      <trkpt lat="45.33139" lon="5.47092">
        <ele>488.20001220703</ele>
        <time>2022-05-10T13:38:35Z</time>
      </trkpt>
      <trkpt lat="45.33139" lon="5.47057">
        <ele>487.60000610352</ele>
        <time>2022-05-10T13:38:40Z</time>
      </trkpt>
      <trkpt lat="45.33138" lon="5.47047">
        <ele>487.60000610352</ele>
        <time>2022-05-10T13:38:41Z</time>
      </trkpt>
      <trkpt lat="45.33136" lon="5.47023">
        <ele>486.79998779297</ele>
        <time>2022-05-10T13:38:44Z</time>
      </trkpt>
      <trkpt lat="45.3313" lon="5.47005">
        <ele>486.60000610352</ele>
        <time>2022-05-10T13:38:48Z</time>
      </trkpt>
      <trkpt lat="45.3312" lon="5.4696">
        <ele>486.79998779297</ele>
        <time>2022-05-10T13:38:56Z</time>
      </trkpt>
      <trkpt lat="45.33113" lon="5.46937">
        <ele>486.79998779297</ele>
        <time>2022-05-10T13:39:00Z</time>
      </trkpt>
      <trkpt lat="45.33106" lon="5.46915">
        <ele>487.39999389648</ele>
        <time>2022-05-10T13:39:05Z</time>
      </trkpt>
      <trkpt lat="45.331" lon="5.469">
        <ele>488.20001220703</ele>
        <time>2022-05-10T13:39:08Z</time>
      </trkpt>
      <trkpt lat="45.33095" lon="5.46884">
        <ele>489.20001220703</ele>
        <time>2022-05-10T13:39:11Z</time>
      </trkpt>
      <trkpt lat="45.33093" lon="5.46857">
        <ele>490.20001220703</ele>
        <time>2022-05-10T13:39:16Z</time>
      </trkpt>
      <trkpt lat="45.33087" lon="5.46819">
        <ele>491</ele>
        <time>2022-05-10T13:39:22Z</time>
      </trkpt>
      <trkpt lat="45.33084" lon="5.46792">
        <ele>491.20001220703</ele>
        <time>2022-05-10T13:39:25Z</time>
      </trkpt>
      <trkpt lat="45.33084" lon="5.46781">
        <ele>491.20001220703</ele>
        <time>2022-05-10T13:39:26Z</time>
      </trkpt>
      <trkpt lat="45.33082" lon="5.46748">
        <ele>490.79998779297</ele>
        <time>2022-05-10T13:39:31Z</time>
      </trkpt>
      <trkpt lat="45.33081" lon="5.46743">
        <ele>490.60000610352</ele>
        <time>2022-05-10T13:39:32Z</time>
      </trkpt>
      <trkpt lat="45.33079" lon="5.46717">
        <ele>490.60000610352</ele>
        <time>2022-05-10T13:39:36Z</time>
      </trkpt>
      <trkpt lat="45.3308" lon="5.46702">
        <ele>490.60000610352</ele>
        <time>2022-05-10T13:39:38Z</time>
      </trkpt>
      <trkpt lat="45.33083" lon="5.46688">
        <ele>490.39999389648</ele>
        <time>2022-05-10T13:39:40Z</time>
      </trkpt>
      <trkpt lat="45.33085" lon="5.46681">
        <ele>490.39999389648</ele>
        <time>2022-05-10T13:39:41Z</time>
      </trkpt>
      <trkpt lat="45.3309" lon="5.46666">
        <ele>490.39999389648</ele>
        <time>2022-05-10T13:39:43Z</time>
      </trkpt>
      <trkpt lat="45.33099" lon="5.46646">
        <ele>490.20001220703</ele>
        <time>2022-05-10T13:39:46Z</time>
      </trkpt>
      <trkpt lat="45.3311" lon="5.4663">
        <ele>490.20001220703</ele>
        <time>2022-05-10T13:39:49Z</time>
      </trkpt>
      <trkpt lat="45.33114" lon="5.46625">
        <ele>490.20001220703</ele>
        <time>2022-05-10T13:39:50Z</time>
      </trkpt>
      <trkpt lat="45.33117" lon="5.46611">
        <ele>490</ele>
        <time>2022-05-10T13:39:52Z</time>
      </trkpt>
      <trkpt lat="45.33118" lon="5.46605">
        <ele>490</ele>
        <time>2022-05-10T13:39:53Z</time>
      </trkpt>
      <trkpt lat="45.33121" lon="5.46593">
        <ele>490</ele>
        <time>2022-05-10T13:39:55Z</time>
      </trkpt>
      <trkpt lat="45.33123" lon="5.46587">
        <ele>489.79998779297</ele>
        <time>2022-05-10T13:39:56Z</time>
      </trkpt>
      <trkpt lat="45.33126" lon="5.46581">
        <ele>489.79998779297</ele>
        <time>2022-05-10T13:39:57Z</time>
      </trkpt>
      <trkpt lat="45.33131" lon="5.46568">
        <ele>489.39999389648</ele>
        <time>2022-05-10T13:39:59Z</time>
      </trkpt>
      <trkpt lat="45.33133" lon="5.46561">
        <ele>489.20001220703</ele>
        <time>2022-05-10T13:40:00Z</time>
      </trkpt>
      <trkpt lat="45.33136" lon="5.46547">
        <ele>489</ele>
        <time>2022-05-10T13:40:02Z</time>
      </trkpt>
      <trkpt lat="45.33145" lon="5.46523">
        <ele>488.60000610352</ele>
        <time>2022-05-10T13:40:05Z</time>
      </trkpt>
      <trkpt lat="45.33158" lon="5.465">
        <ele>487.79998779297</ele>
        <time>2022-05-10T13:40:08Z</time>
      </trkpt>
      <trkpt lat="45.33163" lon="5.4649">
        <ele>487.60000610352</ele>
        <time>2022-05-10T13:40:09Z</time>
      </trkpt>
      <trkpt lat="45.33167" lon="5.46481">
        <ele>487.60000610352</ele>
        <time>2022-05-10T13:40:10Z</time>
      </trkpt>
      <trkpt lat="45.33175" lon="5.46463">
        <ele>487.60000610352</ele>
        <time>2022-05-10T13:40:12Z</time>
      </trkpt>
      <trkpt lat="45.33196" lon="5.46419">
        <ele>487.20001220703</ele>
        <time>2022-05-10T13:40:17Z</time>
      </trkpt>
      <trkpt lat="45.332" lon="5.4641">
        <ele>486.79998779297</ele>
        <time>2022-05-10T13:40:18Z</time>
      </trkpt>
      <trkpt lat="45.3321" lon="5.4638">
        <ele>485.60000610352</ele>
        <time>2022-05-10T13:40:21Z</time>
      </trkpt>
      <trkpt lat="45.33214" lon="5.46369">
        <ele>485</ele>
        <time>2022-05-10T13:40:22Z</time>
      </trkpt>
      <trkpt lat="45.3322" lon="5.46347">
        <ele>484.60000610352</ele>
        <time>2022-05-10T13:40:24Z</time>
      </trkpt>
      <trkpt lat="45.33228" lon="5.46305">
        <ele>484</ele>
        <time>2022-05-10T13:40:28Z</time>
      </trkpt>
      <trkpt lat="45.33232" lon="5.46284">
        <ele>483.60000610352</ele>
        <time>2022-05-10T13:40:30Z</time>
      </trkpt>
      <trkpt lat="45.33238" lon="5.46243">
        <ele>482.60000610352</ele>
        <time>2022-05-10T13:40:34Z</time>
      </trkpt>
      <trkpt lat="45.3324" lon="5.46223">
        <ele>482.20001220703</ele>
        <time>2022-05-10T13:40:36Z</time>
      </trkpt>
      <trkpt lat="45.33244" lon="5.46173">
        <ele>481.79998779297</ele>
        <time>2022-05-10T13:40:41Z</time>
      </trkpt>
      <trkpt lat="45.33248" lon="5.46113">
        <ele>481.39999389648</ele>
        <time>2022-05-10T13:40:47Z</time>
      </trkpt>
      <trkpt lat="45.33249" lon="5.46103">
        <ele>481.20001220703</ele>
        <time>2022-05-10T13:40:48Z</time>
      </trkpt>
      <trkpt lat="45.33253" lon="5.46085">
        <ele>480.79998779297</ele>
        <time>2022-05-10T13:40:50Z</time>
      </trkpt>
      <trkpt lat="45.33261" lon="5.46059">
        <ele>480.60000610352</ele>
        <time>2022-05-10T13:40:53Z</time>
      </trkpt>
      <trkpt lat="45.33262" lon="5.46049">
        <ele>480.39999389648</ele>
        <time>2022-05-10T13:40:54Z</time>
      </trkpt>
      <trkpt lat="45.33265" lon="5.46031">
        <ele>479.79998779297</ele>
        <time>2022-05-10T13:40:56Z</time>
      </trkpt>
      <trkpt lat="45.33266" lon="5.46013">
        <ele>479.20001220703</ele>
        <time>2022-05-10T13:40:58Z</time>
      </trkpt>
      <trkpt lat="45.33268" lon="5.45983">
        <ele>478.20001220703</ele>
        <time>2022-05-10T13:41:01Z</time>
      </trkpt>
      <trkpt lat="45.33269" lon="5.45973">
        <ele>478.20001220703</ele>
        <time>2022-05-10T13:41:02Z</time>
      </trkpt>
      <trkpt lat="45.33273" lon="5.45953">
        <ele>477.60000610352</ele>
        <time>2022-05-10T13:41:04Z</time>
      </trkpt>
      <trkpt lat="45.3328" lon="5.45933">
        <ele>477</ele>
        <time>2022-05-10T13:41:06Z</time>
      </trkpt>
      <trkpt lat="45.3329" lon="5.459">
        <ele>475.60000610352</ele>
        <time>2022-05-10T13:41:09Z</time>
      </trkpt>
      <trkpt lat="45.33296" lon="5.45878">
        <ele>474</ele>
        <time>2022-05-10T13:41:11Z</time>
      </trkpt>
      <trkpt lat="45.33299" lon="5.45869">
        <ele>473</ele>
        <time>2022-05-10T13:41:12Z</time>
      </trkpt>
      <trkpt lat="45.33303" lon="5.4586">
        <ele>471.79998779297</ele>
        <time>2022-05-10T13:41:13Z</time>
      </trkpt>
      <trkpt lat="45.33311" lon="5.45843">
        <ele>470.79998779297</ele>
        <time>2022-05-10T13:41:15Z</time>
      </trkpt>
      <trkpt lat="45.33317" lon="5.45826">
        <ele>469.20001220703</ele>
        <time>2022-05-10T13:41:17Z</time>
      </trkpt>
      <trkpt lat="45.33322" lon="5.45812">
        <ele>467.79998779297</ele>
        <time>2022-05-10T13:41:19Z</time>
      </trkpt>
      <trkpt lat="45.33328" lon="5.458">
        <ele>466.20001220703</ele>
        <time>2022-05-10T13:41:22Z</time>
      </trkpt>
      <trkpt lat="45.33329" lon="5.45798">
        <ele>465.79998779297</ele>
        <time>2022-05-10T13:41:23Z</time>
      </trkpt>
      <trkpt lat="45.3333" lon="5.45796">
        <ele>464.60000610352</ele>
        <time>2022-05-10T13:41:24Z</time>
      </trkpt>
      <trkpt lat="45.3333" lon="5.45791">
        <ele>462.79998779297</ele>
        <time>2022-05-10T13:41:26Z</time>
      </trkpt>
      <trkpt lat="45.33331" lon="5.45788">
        <ele>462.20001220703</ele>
        <time>2022-05-10T13:41:27Z</time>
      </trkpt>
      <trkpt lat="45.33332" lon="5.45785">
        <ele>461.60000610352</ele>
        <time>2022-05-10T13:41:28Z</time>
      </trkpt>
      <trkpt lat="45.33341" lon="5.45771">
        <ele>460</ele>
        <time>2022-05-10T13:41:31Z</time>
      </trkpt>
      <trkpt lat="45.33344" lon="5.45765">
        <ele>459.79998779297</ele>
        <time>2022-05-10T13:41:32Z</time>
      </trkpt>
      <trkpt lat="45.3335" lon="5.45751">
        <ele>458.60000610352</ele>
        <time>2022-05-10T13:41:35Z</time>
      </trkpt>
      <trkpt lat="45.33352" lon="5.45745">
        <ele>458.39999389648</ele>
        <time>2022-05-10T13:41:36Z</time>
      </trkpt>
      <trkpt lat="45.33359" lon="5.45729">
        <ele>457.20001220703</ele>
        <time>2022-05-10T13:41:38Z</time>
      </trkpt>
      <trkpt lat="45.33362" lon="5.45716">
        <ele>456</ele>
        <time>2022-05-10T13:41:40Z</time>
      </trkpt>
      <trkpt lat="45.33365" lon="5.4571">
        <ele>455.79998779297</ele>
        <time>2022-05-10T13:41:41Z</time>
      </trkpt>
      <trkpt lat="45.33368" lon="5.45696">
        <ele>455.20001220703</ele>
        <time>2022-05-10T13:41:43Z</time>
      </trkpt>
      <trkpt lat="45.33367" lon="5.4569">
        <ele>454.39999389648</ele>
        <time>2022-05-10T13:41:44Z</time>
      </trkpt>
      <trkpt lat="45.33366" lon="5.45685">
        <ele>454.20001220703</ele>
        <time>2022-05-10T13:41:45Z</time>
      </trkpt>
      <trkpt lat="45.3337" lon="5.4567">
        <ele>453</ele>
        <time>2022-05-10T13:41:48Z</time>
      </trkpt>
      <trkpt lat="45.33371" lon="5.45667">
        <ele>452.20001220703</ele>
        <time>2022-05-10T13:41:49Z</time>
      </trkpt>
      <trkpt lat="45.33371" lon="5.45662">
        <ele>452</ele>
        <time>2022-05-10T13:41:50Z</time>
      </trkpt>
      <trkpt lat="45.33374" lon="5.45646">
        <ele>450.79998779297</ele>
        <time>2022-05-10T13:41:53Z</time>
      </trkpt>
      <trkpt lat="45.33376" lon="5.45642">
        <ele>449.79998779297</ele>
        <time>2022-05-10T13:41:54Z</time>
      </trkpt>
      <trkpt lat="45.33381" lon="5.45624">
        <ele>448.60000610352</ele>
        <time>2022-05-10T13:41:58Z</time>
      </trkpt>
      <trkpt lat="45.33381" lon="5.45619">
        <ele>448.60000610352</ele>
        <time>2022-05-10T13:41:59Z</time>
      </trkpt>
      <trkpt lat="45.3338" lon="5.45614">
        <ele>448.20001220703</ele>
        <time>2022-05-10T13:42:00Z</time>
      </trkpt>
      <trkpt lat="45.33378" lon="5.45581">
        <ele>448</ele>
        <time>2022-05-10T13:42:07Z</time>
      </trkpt>
      <trkpt lat="45.33383" lon="5.45561">
        <ele>448.20001220703</ele>
        <time>2022-05-10T13:42:13Z</time>
      </trkpt>
      <trkpt lat="45.33385" lon="5.45532">
        <ele>448.20001220703</ele>
        <time>2022-05-10T13:42:18Z</time>
      </trkpt>
      <trkpt lat="45.33394" lon="5.45493">
        <ele>448</ele>
        <time>2022-05-10T13:42:23Z</time>
      </trkpt>
      <trkpt lat="45.33393" lon="5.45475">
        <ele>447.20001220703</ele>
        <time>2022-05-10T13:42:25Z</time>
      </trkpt>
      <trkpt lat="45.33395" lon="5.45456">
        <ele>446.79998779297</ele>
        <time>2022-05-10T13:42:27Z</time>
      </trkpt>
      <trkpt lat="45.33396" lon="5.45431">
        <ele>446.20001220703</ele>
        <time>2022-05-10T13:42:30Z</time>
      </trkpt>
      <trkpt lat="45.33399" lon="5.45414">
        <ele>445.60000610352</ele>
        <time>2022-05-10T13:42:32Z</time>
      </trkpt>
      <trkpt lat="45.33401" lon="5.45407">
        <ele>445.39999389648</ele>
        <time>2022-05-10T13:42:33Z</time>
      </trkpt>
      <trkpt lat="45.33403" lon="5.454">
        <ele>445</ele>
        <time>2022-05-10T13:42:34Z</time>
      </trkpt>
      <trkpt lat="45.33404" lon="5.45393">
        <ele>444.79998779297</ele>
        <time>2022-05-10T13:42:35Z</time>
      </trkpt>
      <trkpt lat="45.33404" lon="5.45385">
        <ele>444.60000610352</ele>
        <time>2022-05-10T13:42:36Z</time>
      </trkpt>
      <trkpt lat="45.33407" lon="5.45376">
        <ele>444.39999389648</ele>
        <time>2022-05-10T13:42:37Z</time>
      </trkpt>
      <trkpt lat="45.33407" lon="5.4536">
        <ele>444.20001220703</ele>
        <time>2022-05-10T13:42:39Z</time>
      </trkpt>
      <trkpt lat="45.33408" lon="5.45348">
        <ele>444</ele>
        <time>2022-05-10T13:42:41Z</time>
      </trkpt>
      <trkpt lat="45.33411" lon="5.45331">
        <ele>443.60000610352</ele>
        <time>2022-05-10T13:42:44Z</time>
      </trkpt>
      <trkpt lat="45.33416" lon="5.45312">
        <ele>443.39999389648</ele>
        <time>2022-05-10T13:42:49Z</time>
      </trkpt>
      <trkpt lat="45.33423" lon="5.45291">
        <ele>443</ele>
        <time>2022-05-10T13:42:53Z</time>
      </trkpt>
      <trkpt lat="45.33425" lon="5.45286">
        <ele>443</ele>
        <time>2022-05-10T13:42:54Z</time>
      </trkpt>
      <trkpt lat="45.33432" lon="5.45266">
        <ele>442.39999389648</ele>
        <time>2022-05-10T13:42:58Z</time>
      </trkpt>
      <trkpt lat="45.33444" lon="5.45246">
        <ele>441.79998779297</ele>
        <time>2022-05-10T13:43:02Z</time>
      </trkpt>
      <trkpt lat="45.33446" lon="5.45242">
        <ele>441.79998779297</ele>
        <time>2022-05-10T13:43:03Z</time>
      </trkpt>
      <trkpt lat="45.33453" lon="5.45226">
        <ele>441.20001220703</ele>
        <time>2022-05-10T13:43:08Z</time>
      </trkpt>
      <trkpt lat="45.33456" lon="5.4521">
        <ele>440.79998779297</ele>
        <time>2022-05-10T13:43:13Z</time>
      </trkpt>
      <trkpt lat="45.3346" lon="5.45188">
        <ele>440.60000610352</ele>
        <time>2022-05-10T13:43:18Z</time>
      </trkpt>
      <trkpt lat="45.33466" lon="5.45157">
        <ele>441.20001220703</ele>
        <time>2022-05-10T13:43:24Z</time>
      </trkpt>
      <trkpt lat="45.33475" lon="5.4512">
        <ele>441.79998779297</ele>
        <time>2022-05-10T13:43:29Z</time>
      </trkpt>
      <trkpt lat="45.33479" lon="5.45107">
        <ele>442</ele>
        <time>2022-05-10T13:43:32Z</time>
      </trkpt>
      <trkpt lat="45.33481" lon="5.45089">
        <ele>442.20001220703</ele>
        <time>2022-05-10T13:43:35Z</time>
      </trkpt>
      <trkpt lat="45.33481" lon="5.45053">
        <ele>441.79998779297</ele>
        <time>2022-05-10T13:43:40Z</time>
      </trkpt>
      <trkpt lat="45.33484" lon="5.45012">
        <ele>441.60000610352</ele>
        <time>2022-05-10T13:43:45Z</time>
      </trkpt>
      <trkpt lat="45.33489" lon="5.44968">
        <ele>441.20001220703</ele>
        <time>2022-05-10T13:43:50Z</time>
      </trkpt>
      <trkpt lat="45.33492" lon="5.44935">
        <ele>441.39999389648</ele>
        <time>2022-05-10T13:43:54Z</time>
      </trkpt>
      <trkpt lat="45.33492" lon="5.44925">
        <ele>441.39999389648</ele>
        <time>2022-05-10T13:43:55Z</time>
      </trkpt>
      <trkpt lat="45.33501" lon="5.44879">
        <ele>442.39999389648</ele>
        <time>2022-05-10T13:44:01Z</time>
      </trkpt>
      <trkpt lat="45.33508" lon="5.44837">
        <ele>442.39999389648</ele>
        <time>2022-05-10T13:44:07Z</time>
      </trkpt>
      <trkpt lat="45.33509" lon="5.44792">
        <ele>442</ele>
        <time>2022-05-10T13:44:12Z</time>
      </trkpt>
      <trkpt lat="45.33508" lon="5.44768">
        <ele>442</ele>
        <time>2022-05-10T13:44:14Z</time>
      </trkpt>
      <trkpt lat="45.33509" lon="5.4473">
        <ele>441.39999389648</ele>
        <time>2022-05-10T13:44:17Z</time>
      </trkpt>
      <trkpt lat="45.33514" lon="5.44706">
        <ele>441.20001220703</ele>
        <time>2022-05-10T13:44:19Z</time>
      </trkpt>
      <trkpt lat="45.33519" lon="5.44688">
        <ele>441</ele>
        <time>2022-05-10T13:44:21Z</time>
      </trkpt>
      <trkpt lat="45.33526" lon="5.44651">
        <ele>440.39999389648</ele>
        <time>2022-05-10T13:44:25Z</time>
      </trkpt>
      <trkpt lat="45.33526" lon="5.44641">
        <ele>440.20001220703</ele>
        <time>2022-05-10T13:44:26Z</time>
      </trkpt>
      <trkpt lat="45.33526" lon="5.44632">
        <ele>440</ele>
        <time>2022-05-10T13:44:27Z</time>
      </trkpt>
      <trkpt lat="45.33527" lon="5.44614">
        <ele>439.60000610352</ele>
        <time>2022-05-10T13:44:29Z</time>
      </trkpt>
      <trkpt lat="45.33528" lon="5.44595">
        <ele>439.60000610352</ele>
        <time>2022-05-10T13:44:31Z</time>
      </trkpt>
      <trkpt lat="45.33532" lon="5.4456">
        <ele>439.20001220703</ele>
        <time>2022-05-10T13:44:35Z</time>
      </trkpt>
      <trkpt lat="45.33532" lon="5.44553">
        <ele>439</ele>
        <time>2022-05-10T13:44:36Z</time>
      </trkpt>
      <trkpt lat="45.33534" lon="5.4453">
        <ele>438.79998779297</ele>
        <time>2022-05-10T13:44:39Z</time>
      </trkpt>
      <trkpt lat="45.33538" lon="5.44511">
        <ele>438.60000610352</ele>
        <time>2022-05-10T13:44:41Z</time>
      </trkpt>
      <trkpt lat="45.33557" lon="5.4444">
        <ele>438</ele>
        <time>2022-05-10T13:44:49Z</time>
      </trkpt>
      <trkpt lat="45.33567" lon="5.44406">
        <ele>437.79998779297</ele>
        <time>2022-05-10T13:44:53Z</time>
      </trkpt>
      <trkpt lat="45.33568" lon="5.44397">
        <ele>437.60000610352</ele>
        <time>2022-05-10T13:44:54Z</time>
      </trkpt>
      <trkpt lat="45.33569" lon="5.44343">
        <ele>437.60000610352</ele>
        <time>2022-05-10T13:45:00Z</time>
      </trkpt>
      <trkpt lat="45.33571" lon="5.44301">
        <ele>437.39999389648</ele>
        <time>2022-05-10T13:45:05Z</time>
      </trkpt>
      <trkpt lat="45.33571" lon="5.44293">
        <ele>437.20001220703</ele>
        <time>2022-05-10T13:45:06Z</time>
      </trkpt>
      <trkpt lat="45.33572" lon="5.44277">
        <ele>437</ele>
        <time>2022-05-10T13:45:08Z</time>
      </trkpt>
      <trkpt lat="45.33578" lon="5.44265">
        <ele>436.79998779297</ele>
        <time>2022-05-10T13:45:10Z</time>
      </trkpt>
      <trkpt lat="45.33588" lon="5.44259">
        <ele>436.79998779297</ele>
        <time>2022-05-10T13:45:12Z</time>
      </trkpt>
      <trkpt lat="45.33599" lon="5.44253">
        <ele>436.60000610352</ele>
        <time>2022-05-10T13:45:14Z</time>
      </trkpt>
      <trkpt lat="45.33605" lon="5.4425">
        <ele>436.60000610352</ele>
        <time>2022-05-10T13:45:15Z</time>
      </trkpt>
      <trkpt lat="45.33628" lon="5.44233">
        <ele>436.60000610352</ele>
        <time>2022-05-10T13:45:19Z</time>
      </trkpt>
      <trkpt lat="45.33633" lon="5.44228">
        <ele>436.79998779297</ele>
        <time>2022-05-10T13:45:20Z</time>
      </trkpt>
      <trkpt lat="45.33656" lon="5.44206">
        <ele>436.60000610352</ele>
        <time>2022-05-10T13:45:25Z</time>
      </trkpt>
      <trkpt lat="45.33671" lon="5.44193">
        <ele>436.60000610352</ele>
        <time>2022-05-10T13:45:28Z</time>
      </trkpt>
      <trkpt lat="45.3368" lon="5.44185">
        <ele>436.60000610352</ele>
        <time>2022-05-10T13:45:30Z</time>
      </trkpt>
      <trkpt lat="45.33709" lon="5.44157">
        <ele>436.20001220703</ele>
        <time>2022-05-10T13:45:36Z</time>
      </trkpt>
      <trkpt lat="45.33735" lon="5.44137">
        <ele>436.39999389648</ele>
        <time>2022-05-10T13:45:41Z</time>
      </trkpt>
      <trkpt lat="45.33743" lon="5.44131">
        <ele>436.20001220703</ele>
        <time>2022-05-10T13:45:43Z</time>
      </trkpt>
      <trkpt lat="45.33751" lon="5.44122">
        <ele>436.20001220703</ele>
        <time>2022-05-10T13:45:45Z</time>
      </trkpt>
      <trkpt lat="45.33755" lon="5.44118">
        <ele>436</ele>
        <time>2022-05-10T13:45:46Z</time>
      </trkpt>
      <trkpt lat="45.33759" lon="5.44115">
        <ele>436</ele>
        <time>2022-05-10T13:45:47Z</time>
      </trkpt>
      <trkpt lat="45.33765" lon="5.44105">
        <ele>436</ele>
        <time>2022-05-10T13:45:49Z</time>
      </trkpt>
      <trkpt lat="45.33767" lon="5.44098">
        <ele>436.20001220703</ele>
        <time>2022-05-10T13:45:50Z</time>
      </trkpt>
      <trkpt lat="45.33769" lon="5.44079">
        <ele>435.79998779297</ele>
        <time>2022-05-10T13:45:53Z</time>
      </trkpt>
      <trkpt lat="45.33769" lon="5.44064">
        <ele>436</ele>
        <time>2022-05-10T13:45:55Z</time>
      </trkpt>
      <trkpt lat="45.33768" lon="5.44057">
        <ele>436.20001220703</ele>
        <time>2022-05-10T13:45:56Z</time>
      </trkpt>
      <trkpt lat="45.3376" lon="5.44014">
        <ele>436.79998779297</ele>
        <time>2022-05-10T13:46:02Z</time>
      </trkpt>
      <trkpt lat="45.33758" lon="5.44006">
        <ele>436.79998779297</ele>
        <time>2022-05-10T13:46:03Z</time>
      </trkpt>
      <trkpt lat="45.33746" lon="5.4395">
        <ele>437.20001220703</ele>
        <time>2022-05-10T13:46:10Z</time>
      </trkpt>
      <trkpt lat="45.33744" lon="5.43942">
        <ele>437.20001220703</ele>
        <time>2022-05-10T13:46:11Z</time>
      </trkpt>
      <trkpt lat="45.33741" lon="5.43908">
        <ele>437</ele>
        <time>2022-05-10T13:46:15Z</time>
      </trkpt>
      <trkpt lat="45.33741" lon="5.4389">
        <ele>437</ele>
        <time>2022-05-10T13:46:17Z</time>
      </trkpt>
      <trkpt lat="45.3375" lon="5.4383">
        <ele>436.39999389648</ele>
        <time>2022-05-10T13:46:23Z</time>
      </trkpt>
      <trkpt lat="45.33753" lon="5.43807">
        <ele>436.20001220703</ele>
        <time>2022-05-10T13:46:25Z</time>
      </trkpt>
      <trkpt lat="45.33752" lon="5.43785">
        <ele>436</ele>
        <time>2022-05-10T13:46:27Z</time>
      </trkpt>
      <trkpt lat="45.33745" lon="5.43754">
        <ele>435.20001220703</ele>
        <time>2022-05-10T13:46:30Z</time>
      </trkpt>
      <trkpt lat="45.33743" lon="5.43744">
        <ele>435</ele>
        <time>2022-05-10T13:46:31Z</time>
      </trkpt>
      <trkpt lat="45.33739" lon="5.43735">
        <ele>434.79998779297</ele>
        <time>2022-05-10T13:46:32Z</time>
      </trkpt>
      <trkpt lat="45.33724" lon="5.43703">
        <ele>434.20001220703</ele>
        <time>2022-05-10T13:46:36Z</time>
      </trkpt>
      <trkpt lat="45.33719" lon="5.43696">
        <ele>434</ele>
        <time>2022-05-10T13:46:37Z</time>
      </trkpt>
      <trkpt lat="45.3371" lon="5.43683">
        <ele>434</ele>
        <time>2022-05-10T13:46:39Z</time>
      </trkpt>
      <trkpt lat="45.33699" lon="5.43676">
        <ele>433.79998779297</ele>
        <time>2022-05-10T13:46:41Z</time>
      </trkpt>
      <trkpt lat="45.33675" lon="5.43673">
        <ele>433.79998779297</ele>
        <time>2022-05-10T13:46:45Z</time>
      </trkpt>
      <trkpt lat="45.33656" lon="5.43674">
        <ele>434</ele>
        <time>2022-05-10T13:46:48Z</time>
      </trkpt>
      <trkpt lat="45.33643" lon="5.43669">
        <ele>434</ele>
        <time>2022-05-10T13:46:50Z</time>
      </trkpt>
      <trkpt lat="45.33638" lon="5.43665">
        <ele>434</ele>
        <time>2022-05-10T13:46:51Z</time>
      </trkpt>
      <trkpt lat="45.33629" lon="5.43654">
        <ele>434</ele>
        <time>2022-05-10T13:46:53Z</time>
      </trkpt>
      <trkpt lat="45.33596" lon="5.4361">
        <ele>434.60000610352</ele>
        <time>2022-05-10T13:47:01Z</time>
      </trkpt>
      <trkpt lat="45.33584" lon="5.43595">
        <ele>435.39999389648</ele>
        <time>2022-05-10T13:47:04Z</time>
      </trkpt>
      <trkpt lat="45.33569" lon="5.43577">
        <ele>435.79998779297</ele>
        <time>2022-05-10T13:47:08Z</time>
      </trkpt>
      <trkpt lat="45.33553" lon="5.4356">
        <ele>436.20001220703</ele>
        <time>2022-05-10T13:47:13Z</time>
      </trkpt>
      <trkpt lat="45.33549" lon="5.43557">
        <ele>436.39999389648</ele>
        <time>2022-05-10T13:47:14Z</time>
      </trkpt>
      <trkpt lat="45.33541" lon="5.43551">
        <ele>436.79998779297</ele>
        <time>2022-05-10T13:47:16Z</time>
      </trkpt>
      <trkpt lat="45.33529" lon="5.43545">
        <ele>437.20001220703</ele>
        <time>2022-05-10T13:47:19Z</time>
      </trkpt>
      <trkpt lat="45.33525" lon="5.43543">
        <ele>437.39999389648</ele>
        <time>2022-05-10T13:47:20Z</time>
      </trkpt>
      <trkpt lat="45.33521" lon="5.4354">
        <ele>437.60000610352</ele>
        <time>2022-05-10T13:47:21Z</time>
      </trkpt>
      <trkpt lat="45.33509" lon="5.43534">
        <ele>438.20001220703</ele>
        <time>2022-05-10T13:47:24Z</time>
      </trkpt>
      <trkpt lat="45.33505" lon="5.43532">
        <ele>438.20001220703</ele>
        <time>2022-05-10T13:47:25Z</time>
      </trkpt>
      <trkpt lat="45.33491" lon="5.43523">
        <ele>438.79998779297</ele>
        <time>2022-05-10T13:47:29Z</time>
      </trkpt>
      <trkpt lat="45.33479" lon="5.43519">
        <ele>439.20001220703</ele>
        <time>2022-05-10T13:47:32Z</time>
      </trkpt>
      <trkpt lat="45.33467" lon="5.43522">
        <ele>439.60000610352</ele>
        <time>2022-05-10T13:47:36Z</time>
      </trkpt>
      <trkpt lat="45.33466" lon="5.43524">
        <ele>439.79998779297</ele>
        <time>2022-05-10T13:47:37Z</time>
      </trkpt>
      <trkpt lat="45.33465" lon="5.43527">
        <ele>440</ele>
        <time>2022-05-10T13:47:38Z</time>
      </trkpt>
      <trkpt lat="45.33464" lon="5.43534">
        <ele>440.20001220703</ele>
        <time>2022-05-10T13:47:40Z</time>
      </trkpt>
      <trkpt lat="45.33462" lon="5.43545">
        <ele>440.79998779297</ele>
        <time>2022-05-10T13:47:43Z</time>
      </trkpt>
      <trkpt lat="45.33459" lon="5.43553">
        <ele>441.39999389648</ele>
        <time>2022-05-10T13:47:46Z</time>
      </trkpt>
      <trkpt lat="45.33458" lon="5.43559">
        <ele>441.79998779297</ele>
        <time>2022-05-10T13:47:48Z</time>
      </trkpt>
      <trkpt lat="45.33454" lon="5.43568">
        <ele>443</ele>
        <time>2022-05-10T13:47:51Z</time>
      </trkpt>
      <trkpt lat="45.33453" lon="5.43571">
        <ele>443</ele>
        <time>2022-05-10T13:47:52Z</time>
      </trkpt>
      <trkpt lat="45.33449" lon="5.43582">
        <ele>444.20001220703</ele>
        <time>2022-05-10T13:47:56Z</time>
      </trkpt>
      <trkpt lat="45.33449" lon="5.43585">
        <ele>444.39999389648</ele>
        <time>2022-05-10T13:47:57Z</time>
      </trkpt>
      <trkpt lat="45.33444" lon="5.43608">
        <ele>445.20001220703</ele>
        <time>2022-05-10T13:48:04Z</time>
      </trkpt>
      <trkpt lat="45.33443" lon="5.43611">
        <ele>445.60000610352</ele>
        <time>2022-05-10T13:48:05Z</time>
      </trkpt>
      <trkpt lat="45.33435" lon="5.43629">
        <ele>446.39999389648</ele>
        <time>2022-05-10T13:48:12Z</time>
      </trkpt>
      <trkpt lat="45.33422" lon="5.4364">
        <ele>447.20001220703</ele>
        <time>2022-05-10T13:48:19Z</time>
      </trkpt>
      <trkpt lat="45.33421" lon="5.43641">
        <ele>447.60000610352</ele>
        <time>2022-05-10T13:48:20Z</time>
      </trkpt>
      <trkpt lat="45.33417" lon="5.43645">
        <ele>448.20001220703</ele>
        <time>2022-05-10T13:48:23Z</time>
      </trkpt>
      <trkpt lat="45.33413" lon="5.43651">
        <ele>448.60000610352</ele>
        <time>2022-05-10T13:48:26Z</time>
      </trkpt>
      <trkpt lat="45.33407" lon="5.43657">
        <ele>449.60000610352</ele>
        <time>2022-05-10T13:48:30Z</time>
      </trkpt>
      <trkpt lat="45.33402" lon="5.43662">
        <ele>450.79998779297</ele>
        <time>2022-05-10T13:48:34Z</time>
      </trkpt>
      <trkpt lat="45.33401" lon="5.43663">
        <ele>450.79998779297</ele>
        <time>2022-05-10T13:48:35Z</time>
      </trkpt>
      <trkpt lat="45.33398" lon="5.43666">
        <ele>451.79998779297</ele>
        <time>2022-05-10T13:48:38Z</time>
      </trkpt>
      <trkpt lat="45.33397" lon="5.43667">
        <ele>452.20001220703</ele>
        <time>2022-05-10T13:48:39Z</time>
      </trkpt>
      <trkpt lat="45.33396" lon="5.43668">
        <ele>452.39999389648</ele>
        <time>2022-05-10T13:48:40Z</time>
      </trkpt>
      <trkpt lat="45.33393" lon="5.43672">
        <ele>453</ele>
        <time>2022-05-10T13:48:43Z</time>
      </trkpt>
      <trkpt lat="45.33392" lon="5.43673">
        <ele>453.20001220703</ele>
        <time>2022-05-10T13:48:44Z</time>
      </trkpt>
      <trkpt lat="45.33391" lon="5.43673">
        <ele>453.39999389648</ele>
        <time>2022-05-10T13:48:45Z</time>
      </trkpt>
      <trkpt lat="45.33389" lon="5.43674">
        <ele>453.60000610352</ele>
        <time>2022-05-10T13:48:46Z</time>
      </trkpt>
      <trkpt lat="45.33386" lon="5.43676">
        <ele>454</ele>
        <time>2022-05-10T13:48:48Z</time>
      </trkpt>
      <trkpt lat="45.33384" lon="5.43676">
        <ele>454.20001220703</ele>
        <time>2022-05-10T13:48:49Z</time>
      </trkpt>
      <trkpt lat="45.33384" lon="5.43678">
        <ele>454.39999389648</ele>
        <time>2022-05-10T13:48:50Z</time>
      </trkpt>
      <trkpt lat="45.3338" lon="5.43683">
        <ele>455</ele>
        <time>2022-05-10T13:48:53Z</time>
      </trkpt>
      <trkpt lat="45.33377" lon="5.43689">
        <ele>455.60000610352</ele>
        <time>2022-05-10T13:48:55Z</time>
      </trkpt>
      <trkpt lat="45.33371" lon="5.43698">
        <ele>456.20001220703</ele>
        <time>2022-05-10T13:48:59Z</time>
      </trkpt>
      <trkpt lat="45.33365" lon="5.43709">
        <ele>457</ele>
        <time>2022-05-10T13:49:03Z</time>
      </trkpt>
      <trkpt lat="45.33364" lon="5.43711">
        <ele>457.20001220703</ele>
        <time>2022-05-10T13:49:04Z</time>
      </trkpt>
      <trkpt lat="45.33363" lon="5.43712">
        <ele>457.39999389648</ele>
        <time>2022-05-10T13:49:05Z</time>
      </trkpt>
      <trkpt lat="45.33361" lon="5.43728">
        <ele>458.39999389648</ele>
        <time>2022-05-10T13:49:09Z</time>
      </trkpt>
      <trkpt lat="45.33359" lon="5.43734">
        <ele>459</ele>
        <time>2022-05-10T13:49:11Z</time>
      </trkpt>
      <trkpt lat="45.33359" lon="5.4374">
        <ele>459.60000610352</ele>
        <time>2022-05-10T13:49:14Z</time>
      </trkpt>
      <trkpt lat="45.33357" lon="5.43743">
        <ele>459.79998779297</ele>
        <time>2022-05-10T13:49:15Z</time>
      </trkpt>
      <trkpt lat="45.33354" lon="5.4375">
        <ele>460.39999389648</ele>
        <time>2022-05-10T13:49:18Z</time>
      </trkpt>
      <trkpt lat="45.33353" lon="5.43752">
        <ele>460.39999389648</ele>
        <time>2022-05-10T13:49:19Z</time>
      </trkpt>
      <trkpt lat="45.33353" lon="5.43753">
        <ele>460.79998779297</ele>
        <time>2022-05-10T13:49:20Z</time>
      </trkpt>
      <trkpt lat="45.3335" lon="5.43761">
        <ele>461.79998779297</ele>
        <time>2022-05-10T13:49:24Z</time>
      </trkpt>
      <trkpt lat="45.33343" lon="5.43771">
        <ele>462.79998779297</ele>
        <time>2022-05-10T13:49:29Z</time>
      </trkpt>
      <trkpt lat="45.33339" lon="5.43778">
        <ele>463.20001220703</ele>
        <time>2022-05-10T13:49:32Z</time>
      </trkpt>
      <trkpt lat="45.33336" lon="5.43784">
        <ele>464.20001220703</ele>
        <time>2022-05-10T13:49:36Z</time>
      </trkpt>
      <trkpt lat="45.33332" lon="5.43793">
        <ele>465</ele>
        <time>2022-05-10T13:49:40Z</time>
      </trkpt>
      <trkpt lat="45.33331" lon="5.43794">
        <ele>465.20001220703</ele>
        <time>2022-05-10T13:49:41Z</time>
      </trkpt>
      <trkpt lat="45.33327" lon="5.43795">
        <ele>466.20001220703</ele>
        <time>2022-05-10T13:49:44Z</time>
      </trkpt>
      <trkpt lat="45.33322" lon="5.43799">
        <ele>466.60000610352</ele>
        <time>2022-05-10T13:49:46Z</time>
      </trkpt>
      <trkpt lat="45.33316" lon="5.43807">
        <ele>467.20001220703</ele>
        <time>2022-05-10T13:49:49Z</time>
      </trkpt>
      <trkpt lat="45.33315" lon="5.43808">
        <ele>468.20001220703</ele>
        <time>2022-05-10T13:49:52Z</time>
      </trkpt>
      <trkpt lat="45.33314" lon="5.43809">
        <ele>468.39999389648</ele>
        <time>2022-05-10T13:49:53Z</time>
      </trkpt>
      <trkpt lat="45.33308" lon="5.43814">
        <ele>469.39999389648</ele>
        <time>2022-05-10T13:49:57Z</time>
      </trkpt>
      <trkpt lat="45.33305" lon="5.43819">
        <ele>469.79998779297</ele>
        <time>2022-05-10T13:49:59Z</time>
      </trkpt>
      <trkpt lat="45.33304" lon="5.43822">
        <ele>469.79998779297</ele>
        <time>2022-05-10T13:50:00Z</time>
      </trkpt>
      <trkpt lat="45.33302" lon="5.43827">
        <ele>470</ele>
        <time>2022-05-10T13:50:02Z</time>
      </trkpt>
      <trkpt lat="45.33301" lon="5.43831">
        <ele>470.60000610352</ele>
        <time>2022-05-10T13:50:03Z</time>
      </trkpt>
      <trkpt lat="45.33297" lon="5.43838">
        <ele>471.20001220703</ele>
        <time>2022-05-10T13:50:05Z</time>
      </trkpt>
      <trkpt lat="45.33293" lon="5.43848">
        <ele>471.79998779297</ele>
        <time>2022-05-10T13:50:08Z</time>
      </trkpt>
      <trkpt lat="45.33291" lon="5.43851">
        <ele>471.79998779297</ele>
        <time>2022-05-10T13:50:09Z</time>
      </trkpt>
      <trkpt lat="45.33291" lon="5.43853">
        <ele>472</ele>
        <time>2022-05-10T13:50:10Z</time>
      </trkpt>
      <trkpt lat="45.33286" lon="5.43858">
        <ele>472.79998779297</ele>
        <time>2022-05-10T13:50:14Z</time>
      </trkpt>
      <trkpt lat="45.33286" lon="5.43864">
        <ele>473.39999389648</ele>
        <time>2022-05-10T13:50:17Z</time>
      </trkpt>
      <trkpt lat="45.33282" lon="5.43869">
        <ele>474</ele>
        <time>2022-05-10T13:50:21Z</time>
      </trkpt>
      <trkpt lat="45.3328" lon="5.43872">
        <ele>474.60000610352</ele>
        <time>2022-05-10T13:50:25Z</time>
      </trkpt>
      <trkpt lat="45.33278" lon="5.43876">
        <ele>475</ele>
        <time>2022-05-10T13:50:27Z</time>
      </trkpt>
      <trkpt lat="45.33277" lon="5.43878">
        <ele>475.20001220703</ele>
        <time>2022-05-10T13:50:28Z</time>
      </trkpt>
      <trkpt lat="45.33276" lon="5.43883">
        <ele>475.60000610352</ele>
        <time>2022-05-10T13:50:30Z</time>
      </trkpt>
      <trkpt lat="45.33276" lon="5.43885">
        <ele>475.60000610352</ele>
        <time>2022-05-10T13:50:31Z</time>
      </trkpt>
      <trkpt lat="45.33274" lon="5.43892">
        <ele>476</ele>
        <time>2022-05-10T13:50:34Z</time>
      </trkpt>
      <trkpt lat="45.33271" lon="5.439">
        <ele>476.60000610352</ele>
        <time>2022-05-10T13:50:38Z</time>
      </trkpt>
      <trkpt lat="45.33271" lon="5.439">
        <ele>477.39999389648</ele>
        <time>2022-05-10T13:50:40Z</time>
      </trkpt>
      <trkpt lat="45.3327" lon="5.43905">
        <ele>478.39999389648</ele>
        <time>2022-05-10T13:50:43Z</time>
      </trkpt>
      <trkpt lat="45.33269" lon="5.43907">
        <ele>478.60000610352</ele>
        <time>2022-05-10T13:50:44Z</time>
      </trkpt>
      <trkpt lat="45.33268" lon="5.43914">
        <ele>478.79998779297</ele>
        <time>2022-05-10T13:50:47Z</time>
      </trkpt>
      <trkpt lat="45.33266" lon="5.43926">
        <ele>479.60000610352</ele>
        <time>2022-05-10T13:50:50Z</time>
      </trkpt>
      <trkpt lat="45.33266" lon="5.43934">
        <ele>480</ele>
        <time>2022-05-10T13:50:52Z</time>
      </trkpt>
      <trkpt lat="45.33266" lon="5.43954">
        <ele>480.60000610352</ele>
        <time>2022-05-10T13:50:58Z</time>
      </trkpt>
      <trkpt lat="45.33266" lon="5.43958">
        <ele>480.79998779297</ele>
        <time>2022-05-10T13:50:59Z</time>
      </trkpt>
      <trkpt lat="45.33264" lon="5.43967">
        <ele>481.79998779297</ele>
        <time>2022-05-10T13:51:03Z</time>
      </trkpt>
      <trkpt lat="45.33265" lon="5.43974">
        <ele>482.20001220703</ele>
        <time>2022-05-10T13:51:06Z</time>
      </trkpt>
      <trkpt lat="45.33264" lon="5.43982">
        <ele>482.79998779297</ele>
        <time>2022-05-10T13:51:10Z</time>
      </trkpt>
      <trkpt lat="45.33264" lon="5.43992">
        <ele>483.39999389648</ele>
        <time>2022-05-10T13:51:14Z</time>
      </trkpt>
      <trkpt lat="45.33262" lon="5.44002">
        <ele>483.79998779297</ele>
        <time>2022-05-10T13:51:18Z</time>
      </trkpt>
      <trkpt lat="45.33261" lon="5.44014">
        <ele>484.60000610352</ele>
        <time>2022-05-10T13:51:22Z</time>
      </trkpt>
      <trkpt lat="45.33262" lon="5.44019">
        <ele>484.79998779297</ele>
        <time>2022-05-10T13:51:24Z</time>
      </trkpt>
      <trkpt lat="45.3326" lon="5.44034">
        <ele>486.20001220703</ele>
        <time>2022-05-10T13:51:29Z</time>
      </trkpt>
      <trkpt lat="45.33256" lon="5.44044">
        <ele>486.60000610352</ele>
        <time>2022-05-10T13:51:32Z</time>
      </trkpt>
      <trkpt lat="45.33254" lon="5.44051">
        <ele>487.20001220703</ele>
        <time>2022-05-10T13:51:35Z</time>
      </trkpt>
      <trkpt lat="45.3325" lon="5.44062">
        <ele>487.60000610352</ele>
        <time>2022-05-10T13:51:40Z</time>
      </trkpt>
      <trkpt lat="45.33247" lon="5.4407">
        <ele>488.20001220703</ele>
        <time>2022-05-10T13:51:44Z</time>
      </trkpt>
      <trkpt lat="45.33245" lon="5.44074">
        <ele>488.39999389648</ele>
        <time>2022-05-10T13:51:46Z</time>
      </trkpt>
      <trkpt lat="45.3324" lon="5.44091">
        <ele>489.20001220703</ele>
        <time>2022-05-10T13:51:53Z</time>
      </trkpt>
      <trkpt lat="45.33239" lon="5.44094">
        <ele>489.39999389648</ele>
        <time>2022-05-10T13:51:54Z</time>
      </trkpt>
      <trkpt lat="45.33232" lon="5.44103">
        <ele>490</ele>
        <time>2022-05-10T13:51:58Z</time>
      </trkpt>
      <trkpt lat="45.33224" lon="5.44119">
        <ele>490.39999389648</ele>
        <time>2022-05-10T13:52:03Z</time>
      </trkpt>
      <trkpt lat="45.33223" lon="5.44123">
        <ele>490.39999389648</ele>
        <time>2022-05-10T13:52:04Z</time>
      </trkpt>
      <trkpt lat="45.33216" lon="5.44153">
        <ele>491.39999389648</ele>
        <time>2022-05-10T13:52:12Z</time>
      </trkpt>
      <trkpt lat="45.33212" lon="5.44185">
        <ele>492.60000610352</ele>
        <time>2022-05-10T13:52:20Z</time>
      </trkpt>
      <trkpt lat="45.33211" lon="5.44211">
        <ele>493.39999389648</ele>
        <time>2022-05-10T13:52:27Z</time>
      </trkpt>
      <trkpt lat="45.33212" lon="5.44219">
        <ele>493.79998779297</ele>
        <time>2022-05-10T13:52:29Z</time>
      </trkpt>
      <trkpt lat="45.33212" lon="5.44246">
        <ele>494.60000610352</ele>
        <time>2022-05-10T13:52:36Z</time>
      </trkpt>
      <trkpt lat="45.33211" lon="5.44254">
        <ele>495</ele>
        <time>2022-05-10T13:52:38Z</time>
      </trkpt>
      <trkpt lat="45.33207" lon="5.44277">
        <ele>495.60000610352</ele>
        <time>2022-05-10T13:52:44Z</time>
      </trkpt>
      <trkpt lat="45.33204" lon="5.44295">
        <ele>496</ele>
        <time>2022-05-10T13:52:48Z</time>
      </trkpt>
      <trkpt lat="45.33204" lon="5.44307">
        <ele>496.20001220703</ele>
        <time>2022-05-10T13:52:51Z</time>
      </trkpt>
      <trkpt lat="45.33203" lon="5.44331">
        <ele>497</ele>
        <time>2022-05-10T13:52:57Z</time>
      </trkpt>
      <trkpt lat="45.33203" lon="5.44334">
        <ele>497</ele>
        <time>2022-05-10T13:52:58Z</time>
      </trkpt>
      <trkpt lat="45.33204" lon="5.44361">
        <ele>498</ele>
        <time>2022-05-10T13:53:04Z</time>
      </trkpt>
      <trkpt lat="45.33204" lon="5.44366">
        <ele>498.20001220703</ele>
        <time>2022-05-10T13:53:05Z</time>
      </trkpt>
      <trkpt lat="45.33201" lon="5.44394">
        <ele>498.60000610352</ele>
        <time>2022-05-10T13:53:11Z</time>
      </trkpt>
      <trkpt lat="45.33202" lon="5.44428">
        <ele>498.60000610352</ele>
        <time>2022-05-10T13:53:19Z</time>
      </trkpt>
      <trkpt lat="45.33202" lon="5.44441">
        <ele>499.20001220703</ele>
        <time>2022-05-10T13:53:22Z</time>
      </trkpt>
      <trkpt lat="45.33201" lon="5.44457">
        <ele>500.20001220703</ele>
        <time>2022-05-10T13:53:26Z</time>
      </trkpt>
      <trkpt lat="45.33201" lon="5.44461">
        <ele>500.20001220703</ele>
        <time>2022-05-10T13:53:27Z</time>
      </trkpt>
      <trkpt lat="45.33201" lon="5.44479">
        <ele>500.79998779297</ele>
        <time>2022-05-10T13:53:31Z</time>
      </trkpt>
      <trkpt lat="45.33196" lon="5.44504">
        <ele>501.20001220703</ele>
        <time>2022-05-10T13:53:37Z</time>
      </trkpt>
      <trkpt lat="45.33186" lon="5.44526">
        <ele>501.20001220703</ele>
        <time>2022-05-10T13:53:43Z</time>
      </trkpt>
      <trkpt lat="45.33178" lon="5.4453">
        <ele>501.79998779297</ele>
        <time>2022-05-10T13:53:46Z</time>
      </trkpt>
      <trkpt lat="45.33171" lon="5.44532">
        <ele>502</ele>
        <time>2022-05-10T13:53:48Z</time>
      </trkpt>
      <trkpt lat="45.33149" lon="5.44532">
        <ele>502.79998779297</ele>
        <time>2022-05-10T13:53:55Z</time>
      </trkpt>
      <trkpt lat="45.33145" lon="5.44531">
        <ele>502.79998779297</ele>
        <time>2022-05-10T13:53:56Z</time>
      </trkpt>
      <trkpt lat="45.33142" lon="5.44532">
        <ele>502.79998779297</ele>
        <time>2022-05-10T13:53:57Z</time>
      </trkpt>
      <trkpt lat="45.33109" lon="5.44539">
        <ele>504</ele>
        <time>2022-05-10T13:54:07Z</time>
      </trkpt>
      <trkpt lat="45.33106" lon="5.44539">
        <ele>504</ele>
        <time>2022-05-10T13:54:08Z</time>
      </trkpt>
      <trkpt lat="45.33071" lon="5.44541">
        <ele>505</ele>
        <time>2022-05-10T13:54:18Z</time>
      </trkpt>
      <trkpt lat="45.33065" lon="5.44541">
        <ele>505</ele>
        <time>2022-05-10T13:54:20Z</time>
      </trkpt>
      <trkpt lat="45.33049" lon="5.44539">
        <ele>506</ele>
        <time>2022-05-10T13:54:26Z</time>
      </trkpt>
      <trkpt lat="45.33044" lon="5.44539">
        <ele>506.20001220703</ele>
        <time>2022-05-10T13:54:28Z</time>
      </trkpt>
      <trkpt lat="45.33033" lon="5.44536">
        <ele>507.20001220703</ele>
        <time>2022-05-10T13:54:34Z</time>
      </trkpt>
      <trkpt lat="45.33031" lon="5.44535">
        <ele>507.20001220703</ele>
        <time>2022-05-10T13:54:35Z</time>
      </trkpt>
      <trkpt lat="45.33028" lon="5.44535">
        <ele>508.20001220703</ele>
        <time>2022-05-10T13:54:37Z</time>
      </trkpt>
      <trkpt lat="45.3302" lon="5.44534">
        <ele>509.39999389648</ele>
        <time>2022-05-10T13:54:41Z</time>
      </trkpt>
      <trkpt lat="45.33019" lon="5.44534">
        <ele>509.79998779297</ele>
        <time>2022-05-10T13:54:42Z</time>
      </trkpt>
      <trkpt lat="45.33012" lon="5.44535">
        <ele>510.60000610352</ele>
        <time>2022-05-10T13:54:45Z</time>
      </trkpt>
      <trkpt lat="45.33001" lon="5.44539">
        <ele>511.60000610352</ele>
        <time>2022-05-10T13:54:50Z</time>
      </trkpt>
      <trkpt lat="45.32999" lon="5.44541">
        <ele>511.79998779297</ele>
        <time>2022-05-10T13:54:51Z</time>
      </trkpt>
      <trkpt lat="45.32986" lon="5.44552">
        <ele>512.59997558594</ele>
        <time>2022-05-10T13:54:58Z</time>
      </trkpt>
      <trkpt lat="45.32984" lon="5.44554">
        <ele>512.79998779297</ele>
        <time>2022-05-10T13:54:59Z</time>
      </trkpt>
      <trkpt lat="45.3297" lon="5.44561">
        <ele>513.59997558594</ele>
        <time>2022-05-10T13:55:05Z</time>
      </trkpt>
      <trkpt lat="45.32964" lon="5.44564">
        <ele>514</ele>
        <time>2022-05-10T13:55:08Z</time>
      </trkpt>
      <trkpt lat="45.32956" lon="5.44567">
        <ele>514.79998779297</ele>
        <time>2022-05-10T13:55:12Z</time>
      </trkpt>
      <trkpt lat="45.32952" lon="5.44568">
        <ele>515</ele>
        <time>2022-05-10T13:55:14Z</time>
      </trkpt>
      <trkpt lat="45.32937" lon="5.44566">
        <ele>516.20001220703</ele>
        <time>2022-05-10T13:55:21Z</time>
      </trkpt>
      <trkpt lat="45.32925" lon="5.44561">
        <ele>517.40002441406</ele>
        <time>2022-05-10T13:55:26Z</time>
      </trkpt>
      <trkpt lat="45.32917" lon="5.44555">
        <ele>517.59997558594</ele>
        <time>2022-05-10T13:55:29Z</time>
      </trkpt>
      <trkpt lat="45.32899" lon="5.44536">
        <ele>517.59997558594</ele>
        <time>2022-05-10T13:55:36Z</time>
      </trkpt>
      <trkpt lat="45.32875" lon="5.44504">
        <ele>517.20001220703</ele>
        <time>2022-05-10T13:55:44Z</time>
      </trkpt>
      <trkpt lat="45.32872" lon="5.44499">
        <ele>517.20001220703</ele>
        <time>2022-05-10T13:55:45Z</time>
      </trkpt>
      <trkpt lat="45.32861" lon="5.44484">
        <ele>517</ele>
        <time>2022-05-10T13:55:48Z</time>
      </trkpt>
      <trkpt lat="45.3285" lon="5.44468">
        <ele>516.20001220703</ele>
        <time>2022-05-10T13:55:51Z</time>
      </trkpt>
      <trkpt lat="45.32835" lon="5.44447">
        <ele>515.79998779297</ele>
        <time>2022-05-10T13:55:55Z</time>
      </trkpt>
      <trkpt lat="45.32824" lon="5.44431">
        <ele>515.20001220703</ele>
        <time>2022-05-10T13:55:58Z</time>
      </trkpt>
      <trkpt lat="45.3282" lon="5.44426">
        <ele>515</ele>
        <time>2022-05-10T13:55:59Z</time>
      </trkpt>
      <trkpt lat="45.32803" lon="5.44406">
        <ele>514.59997558594</ele>
        <time>2022-05-10T13:56:03Z</time>
      </trkpt>
      <trkpt lat="45.32783" lon="5.44382">
        <ele>514</ele>
        <time>2022-05-10T13:56:07Z</time>
      </trkpt>
      <trkpt lat="45.32768" lon="5.44364">
        <ele>513.40002441406</ele>
        <time>2022-05-10T13:56:10Z</time>
      </trkpt>
      <trkpt lat="45.32759" lon="5.44352">
        <ele>512.79998779297</ele>
        <time>2022-05-10T13:56:12Z</time>
      </trkpt>
      <trkpt lat="45.32741" lon="5.44332">
        <ele>511.79998779297</ele>
        <time>2022-05-10T13:56:16Z</time>
      </trkpt>
      <trkpt lat="45.32737" lon="5.44326">
        <ele>511.60000610352</ele>
        <time>2022-05-10T13:56:17Z</time>
      </trkpt>
      <trkpt lat="45.3271" lon="5.44285">
        <ele>510.79998779297</ele>
        <time>2022-05-10T13:56:25Z</time>
      </trkpt>
      <trkpt lat="45.32701" lon="5.44275">
        <ele>510.79998779297</ele>
        <time>2022-05-10T13:56:27Z</time>
      </trkpt>
      <trkpt lat="45.32681" lon="5.44254">
        <ele>510.60000610352</ele>
        <time>2022-05-10T13:56:32Z</time>
      </trkpt>
      <trkpt lat="45.3267" lon="5.44242">
        <ele>510.39999389648</ele>
        <time>2022-05-10T13:56:35Z</time>
      </trkpt>
      <trkpt lat="45.32656" lon="5.44224">
        <ele>510</ele>
        <time>2022-05-10T13:56:39Z</time>
      </trkpt>
      <trkpt lat="45.32647" lon="5.44208">
        <ele>510</ele>
        <time>2022-05-10T13:56:42Z</time>
      </trkpt>
      <trkpt lat="45.32645" lon="5.44202">
        <ele>509.60000610352</ele>
        <time>2022-05-10T13:56:43Z</time>
      </trkpt>
      <trkpt lat="45.32644" lon="5.44196">
        <ele>509.60000610352</ele>
        <time>2022-05-10T13:56:44Z</time>
      </trkpt>
      <trkpt lat="45.3263" lon="5.44141">
        <ele>509.60000610352</ele>
        <time>2022-05-10T13:56:52Z</time>
      </trkpt>
      <trkpt lat="45.32613" lon="5.44092">
        <ele>509.79998779297</ele>
        <time>2022-05-10T13:56:59Z</time>
      </trkpt>
      <trkpt lat="45.3261" lon="5.44086">
        <ele>510</ele>
        <time>2022-05-10T13:57:00Z</time>
      </trkpt>
      <trkpt lat="45.32607" lon="5.44081">
        <ele>510</ele>
        <time>2022-05-10T13:57:01Z</time>
      </trkpt>
      <trkpt lat="45.32598" lon="5.4407">
        <ele>509.79998779297</ele>
        <time>2022-05-10T13:57:03Z</time>
      </trkpt>
      <trkpt lat="45.3259" lon="5.4406">
        <ele>509.60000610352</ele>
        <time>2022-05-10T13:57:05Z</time>
      </trkpt>
      <trkpt lat="45.32569" lon="5.44031">
        <ele>509.39999389648</ele>
        <time>2022-05-10T13:57:12Z</time>
      </trkpt>
      <trkpt lat="45.32567" lon="5.44026">
        <ele>508.79998779297</ele>
        <time>2022-05-10T13:57:13Z</time>
      </trkpt>
      <trkpt lat="45.32564" lon="5.4402">
        <ele>508.79998779297</ele>
        <time>2022-05-10T13:57:14Z</time>
      </trkpt>
      <trkpt lat="45.32556" lon="5.44004">
        <ele>508.39999389648</ele>
        <time>2022-05-10T13:57:18Z</time>
      </trkpt>
      <trkpt lat="45.32542" lon="5.43983">
        <ele>508.39999389648</ele>
        <time>2022-05-10T13:57:25Z</time>
      </trkpt>
      <trkpt lat="45.3252" lon="5.4396">
        <ele>508.60000610352</ele>
        <time>2022-05-10T13:57:32Z</time>
      </trkpt>
      <trkpt lat="45.3251" lon="5.4395">
        <ele>508.60000610352</ele>
        <time>2022-05-10T13:57:35Z</time>
      </trkpt>
      <trkpt lat="45.325" lon="5.43939">
        <ele>509</ele>
        <time>2022-05-10T13:57:38Z</time>
      </trkpt>
      <trkpt lat="45.32483" lon="5.43912">
        <ele>509.79998779297</ele>
        <time>2022-05-10T13:57:44Z</time>
      </trkpt>
      <trkpt lat="45.32481" lon="5.43906">
        <ele>510</ele>
        <time>2022-05-10T13:57:45Z</time>
      </trkpt>
      <trkpt lat="45.3248" lon="5.439">
        <ele>510</ele>
        <time>2022-05-10T13:57:46Z</time>
      </trkpt>
      <trkpt lat="45.32478" lon="5.43882">
        <ele>510.60000610352</ele>
        <time>2022-05-10T13:57:49Z</time>
      </trkpt>
      <trkpt lat="45.32478" lon="5.43876">
        <ele>510.60000610352</ele>
        <time>2022-05-10T13:57:50Z</time>
      </trkpt>
      <trkpt lat="45.32478" lon="5.43859">
        <ele>511.20001220703</ele>
        <time>2022-05-10T13:57:53Z</time>
      </trkpt>
      <trkpt lat="45.32475" lon="5.43834">
        <ele>512.20001220703</ele>
        <time>2022-05-10T13:57:57Z</time>
      </trkpt>
      <trkpt lat="45.32474" lon="5.43828">
        <ele>512.40002441406</ele>
        <time>2022-05-10T13:57:58Z</time>
      </trkpt>
      <trkpt lat="45.32468" lon="5.43773">
        <ele>513.20001220703</ele>
        <time>2022-05-10T13:58:06Z</time>
      </trkpt>
      <trkpt lat="45.32467" lon="5.43766">
        <ele>513.40002441406</ele>
        <time>2022-05-10T13:58:07Z</time>
      </trkpt>
      <trkpt lat="45.32466" lon="5.43722">
        <ele>513.79998779297</ele>
        <time>2022-05-10T13:58:13Z</time>
      </trkpt>
      <trkpt lat="45.32464" lon="5.43669">
        <ele>513.79998779297</ele>
        <time>2022-05-10T13:58:20Z</time>
      </trkpt>
      <trkpt lat="45.32467" lon="5.4362">
        <ele>513.79998779297</ele>
        <time>2022-05-10T13:58:26Z</time>
      </trkpt>
      <trkpt lat="45.32469" lon="5.43585">
        <ele>513.79998779297</ele>
        <time>2022-05-10T13:58:30Z</time>
      </trkpt>
      <trkpt lat="45.32468" lon="5.43575">
        <ele>513.59997558594</ele>
        <time>2022-05-10T13:58:31Z</time>
      </trkpt>
      <trkpt lat="45.32457" lon="5.43527">
        <ele>513</ele>
        <time>2022-05-10T13:58:36Z</time>
      </trkpt>
      <trkpt lat="45.32449" lon="5.43483">
        <ele>512.20001220703</ele>
        <time>2022-05-10T13:58:41Z</time>
      </trkpt>
      <trkpt lat="45.32454" lon="5.43474">
        <ele>511.60000610352</ele>
        <time>2022-05-10T13:58:43Z</time>
      </trkpt>
      <trkpt lat="45.32458" lon="5.43472">
        <ele>511.39999389648</ele>
        <time>2022-05-10T13:58:44Z</time>
      </trkpt>
      <trkpt lat="45.32469" lon="5.4347">
        <ele>511</ele>
        <time>2022-05-10T13:58:46Z</time>
      </trkpt>
      <trkpt lat="45.3249" lon="5.43466">
        <ele>510.60000610352</ele>
        <time>2022-05-10T13:58:50Z</time>
      </trkpt>
      <trkpt lat="45.32519" lon="5.43466">
        <ele>509.79998779297</ele>
        <time>2022-05-10T13:58:55Z</time>
      </trkpt>
      <trkpt lat="45.32525" lon="5.43466">
        <ele>509.79998779297</ele>
        <time>2022-05-10T13:58:56Z</time>
      </trkpt>
      <trkpt lat="45.32531" lon="5.43465">
        <ele>509.60000610352</ele>
        <time>2022-05-10T13:58:57Z</time>
      </trkpt>
      <trkpt lat="45.32551" lon="5.43459">
        <ele>508.60000610352</ele>
        <time>2022-05-10T13:59:00Z</time>
      </trkpt>
      <trkpt lat="45.32584" lon="5.43443">
        <ele>507.39999389648</ele>
        <time>2022-05-10T13:59:04Z</time>
      </trkpt>
      <trkpt lat="45.32594" lon="5.43439">
        <ele>507.20001220703</ele>
        <time>2022-05-10T13:59:05Z</time>
      </trkpt>
      <trkpt lat="45.32612" lon="5.43428">
        <ele>506.20001220703</ele>
        <time>2022-05-10T13:59:07Z</time>
      </trkpt>
      <trkpt lat="45.32631" lon="5.43418">
        <ele>505</ele>
        <time>2022-05-10T13:59:09Z</time>
      </trkpt>
      <trkpt lat="45.32657" lon="5.43405">
        <ele>504</ele>
        <time>2022-05-10T13:59:12Z</time>
      </trkpt>
      <trkpt lat="45.32722" lon="5.43376">
        <ele>476.5</ele>
      </trkpt>
      <trkpt lat="45.32729" lon="5.43378">
        <ele>476.1</ele>
      </trkpt>
      <trkpt lat="45.3273" lon="5.43377">
        <ele>497.20001220703</ele>
        <time>2022-05-10T13:59:44Z</time>
      </trkpt>
      <trkpt lat="45.32745" lon="5.43375">
        <ele>497</ele>
        <time>2022-05-10T13:59:47Z</time>
      </trkpt>
      <trkpt lat="45.32757" lon="5.43372">
        <ele>496.60000610352</ele>
        <time>2022-05-10T13:59:50Z</time>
      </trkpt>
      <trkpt lat="45.32769" lon="5.4337">
        <ele>495.79998779297</ele>
        <time>2022-05-10T13:59:54Z</time>
      </trkpt>
      <trkpt lat="45.32775" lon="5.4337">
        <ele>495.20001220703</ele>
        <time>2022-05-10T13:59:56Z</time>
      </trkpt>
      <trkpt lat="45.32782" lon="5.43368">
        <ele>494.60000610352</ele>
        <time>2022-05-10T13:59:59Z</time>
      </trkpt>
      <trkpt lat="45.32785" lon="5.43363">
        <ele>494.39999389648</ele>
        <time>2022-05-10T14:00:01Z</time>
      </trkpt>
      <trkpt lat="45.32797" lon="5.43338">
        <ele>494</ele>
        <time>2022-05-10T14:00:07Z</time>
      </trkpt>
      <trkpt lat="45.32811" lon="5.43309">
        <ele>494</ele>
        <time>2022-05-10T14:00:13Z</time>
      </trkpt>
      <trkpt lat="45.32814" lon="5.43296">
        <ele>494.20001220703</ele>
        <time>2022-05-10T14:00:15Z</time>
      </trkpt>
      <trkpt lat="45.32814" lon="5.43289">
        <ele>494</ele>
        <time>2022-05-10T14:00:16Z</time>
      </trkpt>
      <trkpt lat="45.32812" lon="5.43281">
        <ele>494</ele>
        <time>2022-05-10T14:00:17Z</time>
      </trkpt>
      <trkpt lat="45.32806" lon="5.43259">
        <ele>494</ele>
        <time>2022-05-10T14:00:20Z</time>
      </trkpt>
      <trkpt lat="45.32805" lon="5.43244">
        <ele>493.79998779297</ele>
        <time>2022-05-10T14:00:22Z</time>
      </trkpt>
      <trkpt lat="45.32804" lon="5.4323">
        <ele>493.60000610352</ele>
        <time>2022-05-10T14:00:24Z</time>
      </trkpt>
      <trkpt lat="45.32805" lon="5.43223">
        <ele>493.39999389648</ele>
        <time>2022-05-10T14:00:25Z</time>
      </trkpt>
      <trkpt lat="45.32807" lon="5.43209">
        <ele>493.20001220703</ele>
        <time>2022-05-10T14:00:27Z</time>
      </trkpt>
      <trkpt lat="45.32811" lon="5.43167">
        <ele>492.60000610352</ele>
        <time>2022-05-10T14:00:32Z</time>
      </trkpt>
      <trkpt lat="45.32812" lon="5.43158">
        <ele>492.20001220703</ele>
        <time>2022-05-10T14:00:33Z</time>
      </trkpt>
      <trkpt lat="45.32812" lon="5.43142">
        <ele>491.79998779297</ele>
        <time>2022-05-10T14:00:35Z</time>
      </trkpt>
      <trkpt lat="45.32813" lon="5.43135">
        <ele>491.79998779297</ele>
        <time>2022-05-10T14:00:36Z</time>
      </trkpt>
      <trkpt lat="45.32813" lon="5.4312">
        <ele>491.39999389648</ele>
        <time>2022-05-10T14:00:38Z</time>
      </trkpt>
      <trkpt lat="45.32813" lon="5.43095">
        <ele>491.39999389648</ele>
        <time>2022-05-10T14:00:41Z</time>
      </trkpt>
      <trkpt lat="45.32813" lon="5.43086">
        <ele>491.20001220703</ele>
        <time>2022-05-10T14:00:42Z</time>
      </trkpt>
      <trkpt lat="45.32814" lon="5.43059">
        <ele>491.20001220703</ele>
        <time>2022-05-10T14:00:45Z</time>
      </trkpt>
      <trkpt lat="45.32815" lon="5.43042">
        <ele>491.20001220703</ele>
        <time>2022-05-10T14:00:47Z</time>
      </trkpt>
      <trkpt lat="45.32815" lon="5.43034">
        <ele>491</ele>
        <time>2022-05-10T14:00:48Z</time>
      </trkpt>
      <trkpt lat="45.32817" lon="5.4302">
        <ele>491.20001220703</ele>
        <time>2022-05-10T14:00:50Z</time>
      </trkpt>
      <trkpt lat="45.32818" lon="5.43013">
        <ele>491</ele>
        <time>2022-05-10T14:00:51Z</time>
      </trkpt>
      <trkpt lat="45.32819" lon="5.43006">
        <ele>491</ele>
        <time>2022-05-10T14:00:52Z</time>
      </trkpt>
      <trkpt lat="45.32826" lon="5.42982">
        <ele>490.79998779297</ele>
        <time>2022-05-10T14:00:55Z</time>
      </trkpt>
      <trkpt lat="45.32827" lon="5.42973">
        <ele>490.39999389648</ele>
        <time>2022-05-10T14:00:56Z</time>
      </trkpt>
      <trkpt lat="45.32829" lon="5.42963">
        <ele>490.39999389648</ele>
        <time>2022-05-10T14:00:57Z</time>
      </trkpt>
      <trkpt lat="45.32837" lon="5.42924">
        <ele>489.79998779297</ele>
        <time>2022-05-10T14:01:01Z</time>
      </trkpt>
      <trkpt lat="45.32838" lon="5.42914">
        <ele>489.39999389648</ele>
        <time>2022-05-10T14:01:02Z</time>
      </trkpt>
      <trkpt lat="45.32847" lon="5.42871">
        <ele>488.39999389648</ele>
        <time>2022-05-10T14:01:07Z</time>
      </trkpt>
      <trkpt lat="45.32848" lon="5.42863">
        <ele>488.39999389648</ele>
        <time>2022-05-10T14:01:08Z</time>
      </trkpt>
      <trkpt lat="45.3285" lon="5.42856">
        <ele>488</ele>
        <time>2022-05-10T14:01:09Z</time>
      </trkpt>
      <trkpt lat="45.32853" lon="5.42841">
        <ele>487.79998779297</ele>
        <time>2022-05-10T14:01:11Z</time>
      </trkpt>
      <trkpt lat="45.32854" lon="5.42834">
        <ele>487.60000610352</ele>
        <time>2022-05-10T14:01:12Z</time>
      </trkpt>
      <trkpt lat="45.32856" lon="5.42821">
        <ele>487.20001220703</ele>
        <time>2022-05-10T14:01:14Z</time>
      </trkpt>
      <trkpt lat="45.32857" lon="5.42812">
        <ele>487</ele>
        <time>2022-05-10T14:01:16Z</time>
      </trkpt>
      <trkpt lat="45.32858" lon="5.42789">
        <ele>486</ele>
        <time>2022-05-10T14:01:20Z</time>
      </trkpt>
      <trkpt lat="45.32856" lon="5.42772">
        <ele>485.60000610352</ele>
        <time>2022-05-10T14:01:23Z</time>
      </trkpt>
      <trkpt lat="45.32856" lon="5.42762">
        <ele>484.79998779297</ele>
        <time>2022-05-10T14:01:25Z</time>
      </trkpt>
      <trkpt lat="45.32856" lon="5.42755">
        <ele>484</ele>
        <time>2022-05-10T14:01:27Z</time>
      </trkpt>
      <trkpt lat="45.32856" lon="5.42752">
        <ele>483.79998779297</ele>
        <time>2022-05-10T14:01:28Z</time>
      </trkpt>
      <trkpt lat="45.32858" lon="5.42749">
        <ele>482.79998779297</ele>
        <time>2022-05-10T14:01:30Z</time>
      </trkpt>
      <trkpt lat="45.3286" lon="5.4275">
        <ele>482.60000610352</ele>
        <time>2022-05-10T14:01:31Z</time>
      </trkpt>
      <trkpt lat="45.32862" lon="5.42751">
        <ele>482.39999389648</ele>
        <time>2022-05-10T14:01:32Z</time>
      </trkpt>
      <trkpt lat="45.32876" lon="5.42747">
        <ele>481.79998779297</ele>
        <time>2022-05-10T14:01:36Z</time>
      </trkpt>
      <trkpt lat="45.3288" lon="5.42746">
        <ele>481.20001220703</ele>
        <time>2022-05-10T14:01:37Z</time>
      </trkpt>
      <trkpt lat="45.3289" lon="5.42745">
        <ele>480</ele>
        <time>2022-05-10T14:01:40Z</time>
      </trkpt>
      <trkpt lat="45.32894" lon="5.42742">
        <ele>478.60000610352</ele>
        <time>2022-05-10T14:01:41Z</time>
      </trkpt>
      <trkpt lat="45.32906" lon="5.42737">
        <ele>477.60000610352</ele>
        <time>2022-05-10T14:01:44Z</time>
      </trkpt>
      <trkpt lat="45.32913" lon="5.42735">
        <ele>476.20001220703</ele>
        <time>2022-05-10T14:01:46Z</time>
      </trkpt>
      <trkpt lat="45.32917" lon="5.42734">
        <ele>475.79998779297</ele>
        <time>2022-05-10T14:01:47Z</time>
      </trkpt>
      <trkpt lat="45.32919" lon="5.42733">
        <ele>474.79998779297</ele>
        <time>2022-05-10T14:01:48Z</time>
      </trkpt>
      <trkpt lat="45.3293" lon="5.42731">
        <ele>473.79998779297</ele>
        <time>2022-05-10T14:01:51Z</time>
      </trkpt>
      <trkpt lat="45.32933" lon="5.42731">
        <ele>473.39999389648</ele>
        <time>2022-05-10T14:01:52Z</time>
      </trkpt>
      <trkpt lat="45.32939" lon="5.42727">
        <ele>472.20001220703</ele>
        <time>2022-05-10T14:01:54Z</time>
      </trkpt>
      <trkpt lat="45.32941" lon="5.42726">
        <ele>471.79998779297</ele>
        <time>2022-05-10T14:01:55Z</time>
      </trkpt>
      <trkpt lat="45.32942" lon="5.42724">
        <ele>471.39999389648</ele>
        <time>2022-05-10T14:01:56Z</time>
      </trkpt>
      <trkpt lat="45.32943" lon="5.42722">
        <ele>470.79998779297</ele>
        <time>2022-05-10T14:01:57Z</time>
      </trkpt>
      <trkpt lat="45.32945" lon="5.42711">
        <ele>469.60000610352</ele>
        <time>2022-05-10T14:02:00Z</time>
      </trkpt>
      <trkpt lat="45.32945" lon="5.42709">
        <ele>468.79998779297</ele>
        <time>2022-05-10T14:02:01Z</time>
      </trkpt>
      <trkpt lat="45.32943" lon="5.42706">
        <ele>468.39999389648</ele>
        <time>2022-05-10T14:02:02Z</time>
      </trkpt>
      <trkpt lat="45.32941" lon="5.42703">
        <ele>468.20001220703</ele>
        <time>2022-05-10T14:02:03Z</time>
      </trkpt>
      <trkpt lat="45.32936" lon="5.42702">
        <ele>467.39999389648</ele>
        <time>2022-05-10T14:02:05Z</time>
      </trkpt>
      <trkpt lat="45.32933" lon="5.42702">
        <ele>466.60000610352</ele>
        <time>2022-05-10T14:02:06Z</time>
      </trkpt>
      <trkpt lat="45.32927" lon="5.42701">
        <ele>466.20001220703</ele>
        <time>2022-05-10T14:02:08Z</time>
      </trkpt>
      <trkpt lat="45.32915" lon="5.42698">
        <ele>465.39999389648</ele>
        <time>2022-05-10T14:02:11Z</time>
      </trkpt>
      <trkpt lat="45.32906" lon="5.42697">
        <ele>465</ele>
        <time>2022-05-10T14:02:13Z</time>
      </trkpt>
      <trkpt lat="45.32892" lon="5.42695">
        <ele>464.60000610352</ele>
        <time>2022-05-10T14:02:16Z</time>
      </trkpt>
      <trkpt lat="45.32887" lon="5.42694">
        <ele>464.39999389648</ele>
        <time>2022-05-10T14:02:17Z</time>
      </trkpt>
      <trkpt lat="45.32873" lon="5.42687">
        <ele>464</ele>
        <time>2022-05-10T14:02:20Z</time>
      </trkpt>
      <trkpt lat="45.32868" lon="5.42685">
        <ele>464</ele>
        <time>2022-05-10T14:02:21Z</time>
      </trkpt>
      <trkpt lat="45.32861" lon="5.42678">
        <ele>463.79998779297</ele>
        <time>2022-05-10T14:02:23Z</time>
      </trkpt>
      <trkpt lat="45.32834" lon="5.42651">
        <ele>463.79998779297</ele>
        <time>2022-05-10T14:02:30Z</time>
      </trkpt>
      <trkpt lat="45.32815" lon="5.4263">
        <ele>464</ele>
        <time>2022-05-10T14:02:35Z</time>
      </trkpt>
      <trkpt lat="45.32809" lon="5.42619">
        <ele>464.39999389648</ele>
        <time>2022-05-10T14:02:37Z</time>
      </trkpt>
      <trkpt lat="45.32798" lon="5.42593">
        <ele>465.20001220703</ele>
        <time>2022-05-10T14:02:42Z</time>
      </trkpt>
      <trkpt lat="45.32797" lon="5.42589">
        <ele>465.39999389648</ele>
        <time>2022-05-10T14:02:43Z</time>
      </trkpt>
      <trkpt lat="45.32798" lon="5.42585">
        <ele>465.60000610352</ele>
        <time>2022-05-10T14:02:44Z</time>
      </trkpt>
      <trkpt lat="45.32801" lon="5.4258">
        <ele>466</ele>
        <time>2022-05-10T14:02:46Z</time>
      </trkpt>
      <trkpt lat="45.32804" lon="5.42578">
        <ele>466.20001220703</ele>
        <time>2022-05-10T14:02:48Z</time>
      </trkpt>
      <trkpt lat="45.32806" lon="5.42577">
        <ele>466.79998779297</ele>
        <time>2022-05-10T14:02:51Z</time>
      </trkpt>
      <trkpt lat="45.3281" lon="5.42578">
        <ele>467.39999389648</ele>
        <time>2022-05-10T14:02:54Z</time>
      </trkpt>
      <trkpt lat="45.32817" lon="5.42577">
        <ele>467.79998779297</ele>
        <time>2022-05-10T14:02:57Z</time>
      </trkpt>
      <trkpt lat="45.32821" lon="5.42576">
        <ele>468.20001220703</ele>
        <time>2022-05-10T14:02:59Z</time>
      </trkpt>
      <trkpt lat="45.32824" lon="5.42577">
        <ele>468.39999389648</ele>
        <time>2022-05-10T14:03:00Z</time>
      </trkpt>
      <trkpt lat="45.3283" lon="5.4258">
        <ele>469</ele>
        <time>2022-05-10T14:03:02Z</time>
      </trkpt>
      <trkpt lat="45.32837" lon="5.4258">
        <ele>469.60000610352</ele>
        <time>2022-05-10T14:03:04Z</time>
      </trkpt>
      <trkpt lat="45.32847" lon="5.42576">
        <ele>470</ele>
        <time>2022-05-10T14:03:07Z</time>
      </trkpt>
      <trkpt lat="45.32851" lon="5.42574">
        <ele>470.20001220703</ele>
        <time>2022-05-10T14:03:08Z</time>
      </trkpt>
      <trkpt lat="45.32857" lon="5.42574">
        <ele>470.60000610352</ele>
        <time>2022-05-10T14:03:10Z</time>
      </trkpt>
      <trkpt lat="45.32865" lon="5.42575">
        <ele>471</ele>
        <time>2022-05-10T14:03:13Z</time>
      </trkpt>
      <trkpt lat="45.32875" lon="5.42569">
        <ele>471.79998779297</ele>
        <time>2022-05-10T14:03:16Z</time>
      </trkpt>
      <trkpt lat="45.32885" lon="5.42563">
        <ele>472.20001220703</ele>
        <time>2022-05-10T14:03:19Z</time>
      </trkpt>
      <trkpt lat="45.329" lon="5.42568">
        <ele>473</ele>
        <time>2022-05-10T14:03:24Z</time>
      </trkpt>
      <trkpt lat="45.32902" lon="5.42568">
        <ele>473.39999389648</ele>
        <time>2022-05-10T14:03:25Z</time>
      </trkpt>
      <trkpt lat="45.32911" lon="5.4256">
        <ele>474.20001220703</ele>
        <time>2022-05-10T14:03:28Z</time>
      </trkpt>
      <trkpt lat="45.32917" lon="5.42558">
        <ele>474.60000610352</ele>
        <time>2022-05-10T14:03:30Z</time>
      </trkpt>
      <trkpt lat="45.32921" lon="5.42557">
        <ele>475.20001220703</ele>
        <time>2022-05-10T14:03:32Z</time>
      </trkpt>
      <trkpt lat="45.32927" lon="5.42555">
        <ele>476</ele>
        <time>2022-05-10T14:03:34Z</time>
      </trkpt>
      <trkpt lat="45.32933" lon="5.42553">
        <ele>476.60000610352</ele>
        <time>2022-05-10T14:03:36Z</time>
      </trkpt>
      <trkpt lat="45.32935" lon="5.42553">
        <ele>476.79998779297</ele>
        <time>2022-05-10T14:03:37Z</time>
      </trkpt>
      <trkpt lat="45.32942" lon="5.42551">
        <ele>476.79998779297</ele>
        <time>2022-05-10T14:03:39Z</time>
      </trkpt>
      <trkpt lat="45.32952" lon="5.42549">
        <ele>476.79998779297</ele>
        <time>2022-05-10T14:03:43Z</time>
      </trkpt>
      <trkpt lat="45.32971" lon="5.42537">
        <ele>477</ele>
        <time>2022-05-10T14:03:48Z</time>
      </trkpt>
      <trkpt lat="45.32976" lon="5.42536">
        <ele>477</ele>
        <time>2022-05-10T14:03:49Z</time>
      </trkpt>
      <trkpt lat="45.32989" lon="5.42529">
        <ele>477.39999389648</ele>
        <time>2022-05-10T14:03:53Z</time>
      </trkpt>
      <trkpt lat="45.3301" lon="5.42516">
        <ele>477.60000610352</ele>
        <time>2022-05-10T14:03:57Z</time>
      </trkpt>
      <trkpt lat="45.33025" lon="5.42508">
        <ele>477.60000610352</ele>
        <time>2022-05-10T14:03:59Z</time>
      </trkpt>
      <trkpt lat="45.33051" lon="5.42486">
        <ele>477.39999389648</ele>
        <time>2022-05-10T14:04:05Z</time>
      </trkpt>
      <trkpt lat="45.3307" lon="5.42465">
        <ele>477</ele>
        <time>2022-05-10T14:04:11Z</time>
      </trkpt>
      <trkpt lat="45.33076" lon="5.4245">
        <ele>477.20001220703</ele>
        <time>2022-05-10T14:04:14Z</time>
      </trkpt>
      <trkpt lat="45.33081" lon="5.42439">
        <ele>477.60000610352</ele>
        <time>2022-05-10T14:04:16Z</time>
      </trkpt>
      <trkpt lat="45.33088" lon="5.4243">
        <ele>478.20001220703</ele>
        <time>2022-05-10T14:04:20Z</time>
      </trkpt>
      <trkpt lat="45.33088" lon="5.42428">
        <ele>478.60000610352</ele>
        <time>2022-05-10T14:04:22Z</time>
      </trkpt>
      <trkpt lat="45.33088" lon="5.42423">
        <ele>478.79998779297</ele>
        <time>2022-05-10T14:04:23Z</time>
      </trkpt>
      <trkpt lat="45.33092" lon="5.42407">
        <ele>479.60000610352</ele>
        <time>2022-05-10T14:04:26Z</time>
      </trkpt>
      <trkpt lat="45.33096" lon="5.42397">
        <ele>480</ele>
        <time>2022-05-10T14:04:29Z</time>
      </trkpt>
      <trkpt lat="45.33097" lon="5.42395">
        <ele>480</ele>
        <time>2022-05-10T14:04:30Z</time>
      </trkpt>
      <trkpt lat="45.33098" lon="5.42392">
        <ele>480.20001220703</ele>
        <time>2022-05-10T14:04:31Z</time>
      </trkpt>
      <trkpt lat="45.33099" lon="5.42389">
        <ele>480.20001220703</ele>
        <time>2022-05-10T14:04:34Z</time>
      </trkpt>
      <trkpt lat="45.33098" lon="5.42389">
        <ele>480.39999389648</ele>
        <time>2022-05-10T14:04:35Z</time>
      </trkpt>
      <trkpt lat="45.33096" lon="5.42388">
        <ele>480.60000610352</ele>
        <time>2022-05-10T14:04:37Z</time>
      </trkpt>
      <trkpt lat="45.33091" lon="5.42388">
        <ele>480.79998779297</ele>
        <time>2022-05-10T14:04:39Z</time>
      </trkpt>
      <trkpt lat="45.33086" lon="5.4239">
        <ele>481.60000610352</ele>
        <time>2022-05-10T14:04:41Z</time>
      </trkpt>
      <trkpt lat="45.33081" lon="5.42391">
        <ele>482</ele>
        <time>2022-05-10T14:04:44Z</time>
      </trkpt>
      <trkpt lat="45.33075" lon="5.4239">
        <ele>482.60000610352</ele>
        <time>2022-05-10T14:04:47Z</time>
      </trkpt>
      <trkpt lat="45.33068" lon="5.42391">
        <ele>483</ele>
        <time>2022-05-10T14:04:50Z</time>
      </trkpt>
      <trkpt lat="45.33065" lon="5.42392">
        <ele>483.39999389648</ele>
        <time>2022-05-10T14:04:52Z</time>
      </trkpt>
      <trkpt lat="45.33061" lon="5.42393">
        <ele>483.79998779297</ele>
        <time>2022-05-10T14:04:54Z</time>
      </trkpt>
      <trkpt lat="45.33051" lon="5.42395">
        <ele>484.79998779297</ele>
        <time>2022-05-10T14:04:58Z</time>
      </trkpt>
      <trkpt lat="45.33048" lon="5.42396">
        <ele>484.79998779297</ele>
        <time>2022-05-10T14:04:59Z</time>
      </trkpt>
      <trkpt lat="45.33037" lon="5.42396">
        <ele>486</ele>
        <time>2022-05-10T14:05:03Z</time>
      </trkpt>
      <trkpt lat="45.33033" lon="5.424">
        <ele>486.60000610352</ele>
        <time>2022-05-10T14:05:06Z</time>
      </trkpt>
      <trkpt lat="45.3303" lon="5.42401">
        <ele>487.20001220703</ele>
        <time>2022-05-10T14:05:08Z</time>
      </trkpt>
      <trkpt lat="45.33028" lon="5.42401">
        <ele>487.20001220703</ele>
        <time>2022-05-10T14:05:09Z</time>
      </trkpt>
      <trkpt lat="45.33024" lon="5.42401">
        <ele>487.79998779297</ele>
        <time>2022-05-10T14:05:12Z</time>
      </trkpt>
      <trkpt lat="45.33023" lon="5.42401">
        <ele>488.39999389648</ele>
        <time>2022-05-10T14:05:13Z</time>
      </trkpt>
      <trkpt lat="45.33015" lon="5.42405">
        <ele>489.39999389648</ele>
        <time>2022-05-10T14:05:18Z</time>
      </trkpt>
      <trkpt lat="45.33011" lon="5.42406">
        <ele>490.20001220703</ele>
        <time>2022-05-10T14:05:21Z</time>
      </trkpt>
      <trkpt lat="45.33009" lon="5.42407">
        <ele>490.39999389648</ele>
        <time>2022-05-10T14:05:22Z</time>
      </trkpt>
      <trkpt lat="45.32998" lon="5.42411">
        <ele>491.60000610352</ele>
        <time>2022-05-10T14:05:28Z</time>
      </trkpt>
      <trkpt lat="45.32992" lon="5.42414">
        <ele>493</ele>
        <time>2022-05-10T14:05:31Z</time>
      </trkpt>
      <trkpt lat="45.32985" lon="5.4242">
        <ele>494.39999389648</ele>
        <time>2022-05-10T14:05:35Z</time>
      </trkpt>
      <trkpt lat="45.32976" lon="5.42425">
        <ele>495</ele>
        <time>2022-05-10T14:05:39Z</time>
      </trkpt>
      <trkpt lat="45.32973" lon="5.42427">
        <ele>495.39999389648</ele>
        <time>2022-05-10T14:05:40Z</time>
      </trkpt>
      <trkpt lat="45.32971" lon="5.42429">
        <ele>495.79998779297</ele>
        <time>2022-05-10T14:05:41Z</time>
      </trkpt>
      <trkpt lat="45.32968" lon="5.4243">
        <ele>496.60000610352</ele>
        <time>2022-05-10T14:05:44Z</time>
      </trkpt>
      <trkpt lat="45.32964" lon="5.42434">
        <ele>497</ele>
        <time>2022-05-10T14:05:46Z</time>
      </trkpt>
      <trkpt lat="45.32959" lon="5.42437">
        <ele>497.60000610352</ele>
        <time>2022-05-10T14:05:48Z</time>
      </trkpt>
      <trkpt lat="45.32954" lon="5.42439">
        <ele>498.20001220703</ele>
        <time>2022-05-10T14:05:50Z</time>
      </trkpt>
      <trkpt lat="45.32948" lon="5.4244">
        <ele>498.79998779297</ele>
        <time>2022-05-10T14:05:52Z</time>
      </trkpt>
      <trkpt lat="45.32945" lon="5.42441">
        <ele>499</ele>
        <time>2022-05-10T14:05:53Z</time>
      </trkpt>
      <trkpt lat="45.32942" lon="5.4244">
        <ele>499.20001220703</ele>
        <time>2022-05-10T14:05:54Z</time>
      </trkpt>
      <trkpt lat="45.32932" lon="5.42445">
        <ele>499.79998779297</ele>
        <time>2022-05-10T14:05:57Z</time>
      </trkpt>
      <trkpt lat="45.32925" lon="5.42448">
        <ele>499.79998779297</ele>
        <time>2022-05-10T14:05:59Z</time>
      </trkpt>
      <trkpt lat="45.32914" lon="5.42446">
        <ele>500.20001220703</ele>
        <time>2022-05-10T14:06:02Z</time>
      </trkpt>
      <trkpt lat="45.32893" lon="5.42452">
        <ele>500.39999389648</ele>
        <time>2022-05-10T14:06:09Z</time>
      </trkpt>
      <trkpt lat="45.32878" lon="5.42455">
        <ele>500.20001220703</ele>
        <time>2022-05-10T14:06:15Z</time>
      </trkpt>
      <trkpt lat="45.3286" lon="5.42456">
        <ele>501</ele>
        <time>2022-05-10T14:06:20Z</time>
      </trkpt>
      <trkpt lat="45.32851" lon="5.42456">
        <ele>501.20001220703</ele>
        <time>2022-05-10T14:06:22Z</time>
      </trkpt>
      <trkpt lat="45.32819" lon="5.4245">
        <ele>501.39999389648</ele>
        <time>2022-05-10T14:06:29Z</time>
      </trkpt>
      <trkpt lat="45.32789" lon="5.42442">
        <ele>499.60000610352</ele>
        <time>2022-05-10T14:06:35Z</time>
      </trkpt>
      <trkpt lat="45.32782" lon="5.42439">
        <ele>499.60000610352</ele>
        <time>2022-05-10T14:06:36Z</time>
      </trkpt>
      <trkpt lat="45.32776" lon="5.42435">
        <ele>499.39999389648</ele>
        <time>2022-05-10T14:06:37Z</time>
      </trkpt>
      <trkpt lat="45.32759" lon="5.42421">
        <ele>499.20001220703</ele>
        <time>2022-05-10T14:06:41Z</time>
      </trkpt>
      <trkpt lat="45.32727" lon="5.424">
        <ele>499.20001220703</ele>
        <time>2022-05-10T14:06:48Z</time>
      </trkpt>
      <trkpt lat="45.32709" lon="5.42389">
        <ele>500</ele>
        <time>2022-05-10T14:06:54Z</time>
      </trkpt>
      <trkpt lat="45.32692" lon="5.42375">
        <ele>500.79998779297</ele>
        <time>2022-05-10T14:07:00Z</time>
      </trkpt>
      <trkpt lat="45.32689" lon="5.42371">
        <ele>500.79998779297</ele>
        <time>2022-05-10T14:07:01Z</time>
      </trkpt>
      <trkpt lat="45.32665" lon="5.42349">
        <ele>502</ele>
        <time>2022-05-10T14:07:09Z</time>
      </trkpt>
      <trkpt lat="45.3265" lon="5.42337">
        <ele>502.79998779297</ele>
        <time>2022-05-10T14:07:15Z</time>
      </trkpt>
      <trkpt lat="45.32645" lon="5.42332">
        <ele>503.20001220703</ele>
        <time>2022-05-10T14:07:17Z</time>
      </trkpt>
      <trkpt lat="45.32638" lon="5.42322">
        <ele>503.79998779297</ele>
        <time>2022-05-10T14:07:21Z</time>
      </trkpt>
      <trkpt lat="45.32634" lon="5.42316">
        <ele>504.20001220703</ele>
        <time>2022-05-10T14:07:23Z</time>
      </trkpt>
      <trkpt lat="45.32619" lon="5.42301">
        <ele>504.60000610352</ele>
        <time>2022-05-10T14:07:28Z</time>
      </trkpt>
      <trkpt lat="45.32599" lon="5.42278">
        <ele>505.20001220703</ele>
        <time>2022-05-10T14:07:35Z</time>
      </trkpt>
      <trkpt lat="45.32568" lon="5.42248">
        <ele>505.39999389648</ele>
        <time>2022-05-10T14:07:43Z</time>
      </trkpt>
      <trkpt lat="45.32538" lon="5.42219">
        <ele>505.39999389648</ele>
        <time>2022-05-10T14:07:50Z</time>
      </trkpt>
      <trkpt lat="45.32531" lon="5.42209">
        <ele>505.60000610352</ele>
        <time>2022-05-10T14:07:52Z</time>
      </trkpt>
      <trkpt lat="45.32523" lon="5.42197">
        <ele>505.79998779297</ele>
        <time>2022-05-10T14:07:55Z</time>
      </trkpt>
      <trkpt lat="45.3251" lon="5.42169">
        <ele>506</ele>
        <time>2022-05-10T14:08:00Z</time>
      </trkpt>
      <trkpt lat="45.32505" lon="5.42156">
        <ele>506.20001220703</ele>
        <time>2022-05-10T14:08:03Z</time>
      </trkpt>
      <trkpt lat="45.32499" lon="5.42136">
        <ele>506.79998779297</ele>
        <time>2022-05-10T14:08:08Z</time>
      </trkpt>
      <trkpt lat="45.32495" lon="5.42123">
        <ele>507.20001220703</ele>
        <time>2022-05-10T14:08:12Z</time>
      </trkpt>
      <trkpt lat="45.32494" lon="5.42117">
        <ele>507.60000610352</ele>
        <time>2022-05-10T14:08:14Z</time>
      </trkpt>
      <trkpt lat="45.32491" lon="5.42101">
        <ele>508.39999389648</ele>
        <time>2022-05-10T14:08:19Z</time>
      </trkpt>
      <trkpt lat="45.32488" lon="5.42095">
        <ele>509</ele>
        <time>2022-05-10T14:08:21Z</time>
      </trkpt>
      <trkpt lat="45.32487" lon="5.42092">
        <ele>509.60000610352</ele>
        <time>2022-05-10T14:08:22Z</time>
      </trkpt>
      <trkpt lat="45.32484" lon="5.42082">
        <ele>509.79998779297</ele>
        <time>2022-05-10T14:08:25Z</time>
      </trkpt>
      <trkpt lat="45.32481" lon="5.42069">
        <ele>510.20001220703</ele>
        <time>2022-05-10T14:08:28Z</time>
      </trkpt>
      <trkpt lat="45.32477" lon="5.42055">
        <ele>510.79998779297</ele>
        <time>2022-05-10T14:08:31Z</time>
      </trkpt>
      <trkpt lat="45.32471" lon="5.4203">
        <ele>512</ele>
        <time>2022-05-10T14:08:37Z</time>
      </trkpt>
      <trkpt lat="45.32469" lon="5.42009">
        <ele>512.59997558594</ele>
        <time>2022-05-10T14:08:42Z</time>
      </trkpt>
      <trkpt lat="45.32466" lon="5.41992">
        <ele>513</ele>
        <time>2022-05-10T14:08:46Z</time>
      </trkpt>
      <trkpt lat="45.32464" lon="5.41977">
        <ele>514</ele>
        <time>2022-05-10T14:08:50Z</time>
      </trkpt>
      <trkpt lat="45.32463" lon="5.41974">
        <ele>514.20001220703</ele>
        <time>2022-05-10T14:08:51Z</time>
      </trkpt>
      <trkpt lat="45.3246" lon="5.41956">
        <ele>515.40002441406</ele>
        <time>2022-05-10T14:08:56Z</time>
      </trkpt>
      <trkpt lat="45.32456" lon="5.41926">
        <ele>515.79998779297</ele>
        <time>2022-05-10T14:09:03Z</time>
      </trkpt>
      <trkpt lat="45.32449" lon="5.419">
        <ele>516.59997558594</ele>
        <time>2022-05-10T14:09:09Z</time>
      </trkpt>
      <trkpt lat="45.32441" lon="5.41881">
        <ele>517</ele>
        <time>2022-05-10T14:09:14Z</time>
      </trkpt>
      <trkpt lat="45.32431" lon="5.41843">
        <ele>517.20001220703</ele>
        <time>2022-05-10T14:09:23Z</time>
      </trkpt>
      <trkpt lat="45.32427" lon="5.41827">
        <ele>516.79998779297</ele>
        <time>2022-05-10T14:09:26Z</time>
      </trkpt>
      <trkpt lat="45.32425" lon="5.41817">
        <ele>516.59997558594</ele>
        <time>2022-05-10T14:09:29Z</time>
      </trkpt>
      <trkpt lat="45.32425" lon="5.41791">
        <ele>516.79998779297</ele>
        <time>2022-05-10T14:09:37Z</time>
      </trkpt>
      <trkpt lat="45.32426" lon="5.41778">
        <ele>517.79998779297</ele>
        <time>2022-05-10T14:09:41Z</time>
      </trkpt>
      <trkpt lat="45.32426" lon="5.41756">
        <ele>518.59997558594</ele>
        <time>2022-05-10T14:09:47Z</time>
      </trkpt>
      <trkpt lat="45.32423" lon="5.41743">
        <ele>519</ele>
        <time>2022-05-10T14:09:50Z</time>
      </trkpt>
      <trkpt lat="45.32422" lon="5.41731">
        <ele>519.20001220703</ele>
        <time>2022-05-10T14:09:53Z</time>
      </trkpt>
      <trkpt lat="45.32422" lon="5.41708">
        <ele>520.20001220703</ele>
        <time>2022-05-10T14:09:58Z</time>
      </trkpt>
      <trkpt lat="45.32422" lon="5.41698">
        <ele>521</ele>
        <time>2022-05-10T14:10:00Z</time>
      </trkpt>
      <trkpt lat="45.32422" lon="5.41693">
        <ele>521.20001220703</ele>
        <time>2022-05-10T14:10:01Z</time>
      </trkpt>
      <trkpt lat="45.32424" lon="5.41672">
        <ele>522</ele>
        <time>2022-05-10T14:10:05Z</time>
      </trkpt>
      <trkpt lat="45.32425" lon="5.41668">
        <ele>522.20001220703</ele>
        <time>2022-05-10T14:10:06Z</time>
      </trkpt>
      <trkpt lat="45.32424" lon="5.41659">
        <ele>522.40002441406</ele>
        <time>2022-05-10T14:10:08Z</time>
      </trkpt>
      <trkpt lat="45.32421" lon="5.41648">
        <ele>522.59997558594</ele>
        <time>2022-05-10T14:10:10Z</time>
      </trkpt>
      <trkpt lat="45.32413" lon="5.41622">
        <ele>523.20001220703</ele>
        <time>2022-05-10T14:10:16Z</time>
      </trkpt>
      <trkpt lat="45.32404" lon="5.41603">
        <ele>523.40002441406</ele>
        <time>2022-05-10T14:10:22Z</time>
      </trkpt>
      <trkpt lat="45.32398" lon="5.41586">
        <ele>505.4</ele>
      </trkpt>
      <trkpt lat="45.32397" lon="5.41584">
        <ele>524.40002441406</ele>
        <time>2022-05-10T14:17:48Z</time>
      </trkpt>
      <trkpt lat="45.32397" lon="5.41579">
        <ele>524.59997558594</ele>
        <time>2022-05-10T14:17:50Z</time>
      </trkpt>
      <trkpt lat="45.32398" lon="5.41567">
        <ele>525.20001220703</ele>
        <time>2022-05-10T14:17:54Z</time>
      </trkpt>
      <trkpt lat="45.32401" lon="5.41563">
        <ele>525.40002441406</ele>
        <time>2022-05-10T14:17:56Z</time>
      </trkpt>
      <trkpt lat="45.32411" lon="5.41553">
        <ele>526.20001220703</ele>
        <time>2022-05-10T14:18:02Z</time>
      </trkpt>
      <trkpt lat="45.32413" lon="5.41552">
        <ele>526.40002441406</ele>
        <time>2022-05-10T14:18:03Z</time>
      </trkpt>
      <trkpt lat="45.32428" lon="5.41542">
        <ele>527</ele>
        <time>2022-05-10T14:18:10Z</time>
      </trkpt>
      <trkpt lat="45.32436" lon="5.41539">
        <ele>527.59997558594</ele>
        <time>2022-05-10T14:18:14Z</time>
      </trkpt>
      <trkpt lat="45.32451" lon="5.41534">
        <ele>528.59997558594</ele>
        <time>2022-05-10T14:18:20Z</time>
      </trkpt>
      <trkpt lat="45.32453" lon="5.41533">
        <ele>528.79998779297</ele>
        <time>2022-05-10T14:18:21Z</time>
      </trkpt>
      <trkpt lat="45.32472" lon="5.41526">
        <ele>529.59997558594</ele>
        <time>2022-05-10T14:18:28Z</time>
      </trkpt>
      <trkpt lat="45.32491" lon="5.41521">
        <ele>529.59997558594</ele>
        <time>2022-05-10T14:18:33Z</time>
      </trkpt>
      <trkpt lat="45.3251" lon="5.41514">
        <ele>529.79998779297</ele>
        <time>2022-05-10T14:18:39Z</time>
      </trkpt>
      <trkpt lat="45.32522" lon="5.41502">
        <ele>529.79998779297</ele>
        <time>2022-05-10T14:18:44Z</time>
      </trkpt>
      <trkpt lat="45.32527" lon="5.41489">
        <ele>530</ele>
        <time>2022-05-10T14:18:48Z</time>
      </trkpt>
      <trkpt lat="45.32529" lon="5.41486">
        <ele>530</ele>
        <time>2022-05-10T14:18:49Z</time>
      </trkpt>
      <trkpt lat="45.32535" lon="5.41455">
        <ele>530.79998779297</ele>
        <time>2022-05-10T14:18:57Z</time>
      </trkpt>
      <trkpt lat="45.32538" lon="5.41438">
        <ele>531</ele>
        <time>2022-05-10T14:19:01Z</time>
      </trkpt>
      <trkpt lat="45.32538" lon="5.4143">
        <ele>531.20001220703</ele>
        <time>2022-05-10T14:19:03Z</time>
      </trkpt>
      <trkpt lat="45.32541" lon="5.41402">
        <ele>531.59997558594</ele>
        <time>2022-05-10T14:19:11Z</time>
      </trkpt>
      <trkpt lat="45.32544" lon="5.41392">
        <ele>532.20001220703</ele>
        <time>2022-05-10T14:19:14Z</time>
      </trkpt>
      <trkpt lat="45.32548" lon="5.41373">
        <ele>533.20001220703</ele>
        <time>2022-05-10T14:19:20Z</time>
      </trkpt>
      <trkpt lat="45.32554" lon="5.41355">
        <ele>534.40002441406</ele>
        <time>2022-05-10T14:19:26Z</time>
      </trkpt>
      <trkpt lat="45.32557" lon="5.41349">
        <ele>535</ele>
        <time>2022-05-10T14:19:29Z</time>
      </trkpt>
      <trkpt lat="45.32559" lon="5.41345">
        <ele>535.40002441406</ele>
        <time>2022-05-10T14:19:31Z</time>
      </trkpt>
      <trkpt lat="45.32565" lon="5.41338">
        <ele>536.20001220703</ele>
        <time>2022-05-10T14:19:36Z</time>
      </trkpt>
      <trkpt lat="45.32567" lon="5.41337">
        <ele>536.40002441406</ele>
        <time>2022-05-10T14:19:37Z</time>
      </trkpt>
      <trkpt lat="45.32573" lon="5.41335">
        <ele>537.20001220703</ele>
        <time>2022-05-10T14:19:41Z</time>
      </trkpt>
      <trkpt lat="45.32575" lon="5.41335">
        <ele>537.40002441406</ele>
        <time>2022-05-10T14:19:42Z</time>
      </trkpt>
      <trkpt lat="45.32585" lon="5.41334">
        <ele>538.59997558594</ele>
        <time>2022-05-10T14:19:47Z</time>
      </trkpt>
      <trkpt lat="45.3259" lon="5.41333">
        <ele>539.79998779297</ele>
        <time>2022-05-10T14:19:50Z</time>
      </trkpt>
      <trkpt lat="45.32592" lon="5.41333">
        <ele>540</ele>
        <time>2022-05-10T14:19:51Z</time>
      </trkpt>
      <trkpt lat="45.32599" lon="5.41333">
        <ele>541.20001220703</ele>
        <time>2022-05-10T14:19:54Z</time>
      </trkpt>
      <trkpt lat="45.32605" lon="5.41333">
        <ele>542.59997558594</ele>
        <time>2022-05-10T14:19:57Z</time>
      </trkpt>
      <trkpt lat="45.32607" lon="5.41333">
        <ele>543</ele>
        <time>2022-05-10T14:19:58Z</time>
      </trkpt>
      <trkpt lat="45.32611" lon="5.41333">
        <ele>544</ele>
        <time>2022-05-10T14:20:00Z</time>
      </trkpt>
      <trkpt lat="45.32615" lon="5.41333">
        <ele>544.79998779297</ele>
        <time>2022-05-10T14:20:02Z</time>
      </trkpt>
      <trkpt lat="45.32617" lon="5.41333">
        <ele>545.20001220703</ele>
        <time>2022-05-10T14:20:03Z</time>
      </trkpt>
      <trkpt lat="45.32621" lon="5.41334">
        <ele>546.20001220703</ele>
        <time>2022-05-10T14:20:05Z</time>
      </trkpt>
      <trkpt lat="45.32622" lon="5.41334">
        <ele>546.79998779297</ele>
        <time>2022-05-10T14:20:06Z</time>
      </trkpt>
      <trkpt lat="45.32629" lon="5.41332">
        <ele>548.40002441406</ele>
        <time>2022-05-10T14:20:10Z</time>
      </trkpt>
      <trkpt lat="45.3263" lon="5.4133">
        <ele>548.59997558594</ele>
        <time>2022-05-10T14:20:11Z</time>
      </trkpt>
      <trkpt lat="45.32631" lon="5.41329">
        <ele>549.40002441406</ele>
        <time>2022-05-10T14:20:12Z</time>
      </trkpt>
      <trkpt lat="45.32632" lon="5.41327">
        <ele>550.59997558594</ele>
        <time>2022-05-10T14:20:14Z</time>
      </trkpt>
      <trkpt lat="45.32633" lon="5.41324">
        <ele>551.59997558594</ele>
        <time>2022-05-10T14:20:16Z</time>
      </trkpt>
      <trkpt lat="45.32633" lon="5.41322">
        <ele>552.40002441406</ele>
        <time>2022-05-10T14:20:17Z</time>
      </trkpt>
      <trkpt lat="45.32633" lon="5.4132">
        <ele>552.79998779297</ele>
        <time>2022-05-10T14:20:18Z</time>
      </trkpt>
      <trkpt lat="45.32633" lon="5.41318">
        <ele>553.59997558594</ele>
        <time>2022-05-10T14:20:19Z</time>
      </trkpt>
      <trkpt lat="45.32632" lon="5.41315">
        <ele>554.59997558594</ele>
        <time>2022-05-10T14:20:21Z</time>
      </trkpt>
      <trkpt lat="45.32631" lon="5.41311">
        <ele>555.59997558594</ele>
        <time>2022-05-10T14:20:23Z</time>
      </trkpt>
      <trkpt lat="45.32631" lon="5.41309">
        <ele>556</ele>
        <time>2022-05-10T14:20:24Z</time>
      </trkpt>
      <trkpt lat="45.3263" lon="5.41303">
        <ele>556.40002441406</ele>
        <time>2022-05-10T14:20:26Z</time>
      </trkpt>
      <trkpt lat="45.32629" lon="5.413">
        <ele>556.40002441406</ele>
        <time>2022-05-10T14:20:27Z</time>
      </trkpt>
      <trkpt lat="45.32628" lon="5.41298">
        <ele>556.40002441406</ele>
        <time>2022-05-10T14:20:28Z</time>
      </trkpt>
      <trkpt lat="45.32625" lon="5.41286">
        <ele>556.59997558594</ele>
        <time>2022-05-10T14:20:31Z</time>
      </trkpt>
      <trkpt lat="45.32623" lon="5.41278">
        <ele>556.59997558594</ele>
        <time>2022-05-10T14:20:33Z</time>
      </trkpt>
      <trkpt lat="45.32622" lon="5.41271">
        <ele>556.59997558594</ele>
        <time>2022-05-10T14:20:35Z</time>
      </trkpt>
      <trkpt lat="45.32621" lon="5.41268">
        <ele>556.59997558594</ele>
        <time>2022-05-10T14:20:37Z</time>
      </trkpt>
      <trkpt lat="45.32621" lon="5.41268">
        <ele>556</ele>
        <time>2022-05-10T14:21:00Z</time>
      </trkpt>
      <trkpt lat="45.32619" lon="5.41257">
        <ele>555.59997558594</ele>
        <time>2022-05-10T14:21:17Z</time>
      </trkpt>
      <trkpt lat="45.32615" lon="5.41234">
        <ele>555.59997558594</ele>
        <time>2022-05-10T14:21:22Z</time>
      </trkpt>
      <trkpt lat="45.32611" lon="5.41217">
        <ele>555.59997558594</ele>
        <time>2022-05-10T14:21:27Z</time>
      </trkpt>
      <trkpt lat="45.3261" lon="5.41213">
        <ele>555.59997558594</ele>
        <time>2022-05-10T14:21:28Z</time>
      </trkpt>
      <trkpt lat="45.326" lon="5.41191">
        <ele>555.59997558594</ele>
        <time>2022-05-10T14:21:34Z</time>
      </trkpt>
      <trkpt lat="45.32598" lon="5.41187">
        <ele>555.59997558594</ele>
        <time>2022-05-10T14:21:35Z</time>
      </trkpt>
      <trkpt lat="45.32593" lon="5.41171">
        <ele>555.40002441406</ele>
        <time>2022-05-10T14:21:39Z</time>
      </trkpt>
      <trkpt lat="45.32585" lon="5.41149">
        <ele>555.40002441406</ele>
        <time>2022-05-10T14:21:45Z</time>
      </trkpt>
      <trkpt lat="45.32574" lon="5.41126">
        <ele>555.40002441406</ele>
        <time>2022-05-10T14:21:51Z</time>
      </trkpt>
      <trkpt lat="45.32567" lon="5.41098">
        <ele>555.79998779297</ele>
        <time>2022-05-10T14:21:55Z</time>
      </trkpt>
      <trkpt lat="45.32565" lon="5.41092">
        <ele>556.20001220703</ele>
        <time>2022-05-10T14:21:57Z</time>
      </trkpt>
      <trkpt lat="45.32564" lon="5.41088">
        <ele>556.79998779297</ele>
        <time>2022-05-10T14:21:59Z</time>
      </trkpt>
      <trkpt lat="45.32561" lon="5.41069">
        <ele>557.59997558594</ele>
        <time>2022-05-10T14:22:05Z</time>
      </trkpt>
      <trkpt lat="45.32561" lon="5.41066">
        <ele>557.79998779297</ele>
        <time>2022-05-10T14:22:06Z</time>
      </trkpt>
      <trkpt lat="45.3256" lon="5.4105">
        <ele>558</ele>
        <time>2022-05-10T14:22:10Z</time>
      </trkpt>
      <trkpt lat="45.32559" lon="5.41034">
        <ele>558.79998779297</ele>
        <time>2022-05-10T14:22:15Z</time>
      </trkpt>
      <trkpt lat="45.32559" lon="5.4103">
        <ele>559</ele>
        <time>2022-05-10T14:22:16Z</time>
      </trkpt>
      <trkpt lat="45.32556" lon="5.4101">
        <ele>559.79998779297</ele>
        <time>2022-05-10T14:22:22Z</time>
      </trkpt>
      <trkpt lat="45.32551" lon="5.40989">
        <ele>560</ele>
        <time>2022-05-10T14:22:27Z</time>
      </trkpt>
      <trkpt lat="45.32548" lon="5.40973">
        <ele>560.20001220703</ele>
        <time>2022-05-10T14:22:31Z</time>
      </trkpt>
      <trkpt lat="45.32547" lon="5.40943">
        <ele>560.20001220703</ele>
        <time>2022-05-10T14:22:37Z</time>
      </trkpt>
      <trkpt lat="45.32543" lon="5.40915">
        <ele>560</ele>
        <time>2022-05-10T14:22:42Z</time>
      </trkpt>
      <trkpt lat="45.32541" lon="5.40881">
        <ele>560</ele>
        <time>2022-05-10T14:22:48Z</time>
      </trkpt>
      <trkpt lat="45.32539" lon="5.40874">
        <ele>560.79998779297</ele>
        <time>2022-05-10T14:22:52Z</time>
      </trkpt>
      <trkpt lat="45.32539" lon="5.40872">
        <ele>560.79998779297</ele>
        <time>2022-05-10T14:22:53Z</time>
      </trkpt>
      <trkpt lat="45.32539" lon="5.40872">
        <ele>561.40002441406</ele>
        <time>2022-05-10T14:22:54Z</time>
      </trkpt>
      <trkpt lat="45.32539" lon="5.40866">
        <ele>562.79998779297</ele>
        <time>2022-05-10T14:22:58Z</time>
      </trkpt>
      <trkpt lat="45.3254" lon="5.40865">
        <ele>563.20001220703</ele>
        <time>2022-05-10T14:22:59Z</time>
      </trkpt>
      <trkpt lat="45.3254" lon="5.40861">
        <ele>564.20001220703</ele>
        <time>2022-05-10T14:23:02Z</time>
      </trkpt>
      <trkpt lat="45.3254" lon="5.40858">
        <ele>565.20001220703</ele>
        <time>2022-05-10T14:23:04Z</time>
      </trkpt>
      <trkpt lat="45.3254" lon="5.40858">
        <ele>565.79998779297</ele>
        <time>2022-05-10T14:23:05Z</time>
      </trkpt>
      <trkpt lat="45.3254" lon="5.40855">
        <ele>566.40002441406</ele>
        <time>2022-05-10T14:23:06Z</time>
      </trkpt>
      <trkpt lat="45.3254" lon="5.40849">
        <ele>567.40002441406</ele>
        <time>2022-05-10T14:23:09Z</time>
      </trkpt>
      <trkpt lat="45.3254" lon="5.40848">
        <ele>568</ele>
        <time>2022-05-10T14:23:11Z</time>
      </trkpt>
      <trkpt lat="45.3254" lon="5.40842">
        <ele>568.59997558594</ele>
        <time>2022-05-10T14:23:12Z</time>
      </trkpt>
      <trkpt lat="45.32541" lon="5.40835">
        <ele>569.79998779297</ele>
        <time>2022-05-10T14:23:14Z</time>
      </trkpt>
      <trkpt lat="45.32542" lon="5.40828">
        <ele>571.20001220703</ele>
        <time>2022-05-10T14:23:17Z</time>
      </trkpt>
      <trkpt lat="45.32542" lon="5.40821">
        <ele>572</ele>
        <time>2022-05-10T14:23:19Z</time>
      </trkpt>
      <trkpt lat="45.32541" lon="5.40811">
        <ele>572.79998779297</ele>
        <time>2022-05-10T14:23:21Z</time>
      </trkpt>
      <trkpt lat="45.3254" lon="5.40795">
        <ele>573.79998779297</ele>
        <time>2022-05-10T14:23:25Z</time>
      </trkpt>
      <trkpt lat="45.3254" lon="5.40787">
        <ele>574.20001220703</ele>
        <time>2022-05-10T14:23:27Z</time>
      </trkpt>
      <trkpt lat="45.32539" lon="5.40776">
        <ele>575</ele>
        <time>2022-05-10T14:23:30Z</time>
      </trkpt>
      <trkpt lat="45.32538" lon="5.40773">
        <ele>575.20001220703</ele>
        <time>2022-05-10T14:23:31Z</time>
      </trkpt>
      <trkpt lat="45.32538" lon="5.40771">
        <ele>575.59997558594</ele>
        <time>2022-05-10T14:23:33Z</time>
      </trkpt>
      <trkpt lat="45.32538" lon="5.40767">
        <ele>576.20001220703</ele>
        <time>2022-05-10T14:23:36Z</time>
      </trkpt>
      <trkpt lat="45.32536" lon="5.40753">
        <ele>576.79998779297</ele>
        <time>2022-05-10T14:23:41Z</time>
      </trkpt>
      <trkpt lat="45.32533" lon="5.40737">
        <ele>577.20001220703</ele>
        <time>2022-05-10T14:23:44Z</time>
      </trkpt>
      <trkpt lat="45.32531" lon="5.4073">
        <ele>577.40002441406</ele>
        <time>2022-05-10T14:23:46Z</time>
      </trkpt>
      <trkpt lat="45.32527" lon="5.407">
        <ele>577.59997558594</ele>
        <time>2022-05-10T14:23:51Z</time>
      </trkpt>
      <trkpt lat="45.32525" lon="5.40675">
        <ele>577.20001220703</ele>
        <time>2022-05-10T14:23:55Z</time>
      </trkpt>
      <trkpt lat="45.32522" lon="5.40648">
        <ele>576.20001220703</ele>
        <time>2022-05-10T14:24:00Z</time>
      </trkpt>
      <trkpt lat="45.3252" lon="5.40642">
        <ele>576.20001220703</ele>
        <time>2022-05-10T14:24:01Z</time>
      </trkpt>
      <trkpt lat="45.32516" lon="5.40622">
        <ele>575</ele>
        <time>2022-05-10T14:24:06Z</time>
      </trkpt>
      <trkpt lat="45.32513" lon="5.40613">
        <ele>574.79998779297</ele>
        <time>2022-05-10T14:24:07Z</time>
      </trkpt>
      <trkpt lat="45.32511" lon="5.40601">
        <ele>574.20001220703</ele>
        <time>2022-05-10T14:24:09Z</time>
      </trkpt>
      <trkpt lat="45.32508" lon="5.40591">
        <ele>574</ele>
        <time>2022-05-10T14:24:10Z</time>
      </trkpt>
      <trkpt lat="45.32506" lon="5.40583">
        <ele>572.59997558594</ele>
        <time>2022-05-10T14:24:11Z</time>
      </trkpt>
      <trkpt lat="45.32501" lon="5.40563">
        <ele>571.59997558594</ele>
        <time>2022-05-10T14:24:13Z</time>
      </trkpt>
      <trkpt lat="45.32499" lon="5.40556">
        <ele>571.20001220703</ele>
        <time>2022-05-10T14:24:14Z</time>
      </trkpt>
      <trkpt lat="45.32498" lon="5.40548">
        <ele>571</ele>
        <time>2022-05-10T14:24:15Z</time>
      </trkpt>
      <trkpt lat="45.32498" lon="5.40535">
        <ele>570.40002441406</ele>
        <time>2022-05-10T14:24:17Z</time>
      </trkpt>
      <trkpt lat="45.32498" lon="5.4053">
        <ele>569.79998779297</ele>
        <time>2022-05-10T14:24:18Z</time>
      </trkpt>
      <trkpt lat="45.32497" lon="5.40526">
        <ele>569.40002441406</ele>
        <time>2022-05-10T14:24:19Z</time>
      </trkpt>
      <trkpt lat="45.32497" lon="5.40521">
        <ele>568.79998779297</ele>
        <time>2022-05-10T14:24:20Z</time>
      </trkpt>
      <trkpt lat="45.32497" lon="5.40511">
        <ele>568</ele>
        <time>2022-05-10T14:24:21Z</time>
      </trkpt>
      <trkpt lat="45.32495" lon="5.40503">
        <ele>567.40002441406</ele>
        <time>2022-05-10T14:24:22Z</time>
      </trkpt>
      <trkpt lat="45.32495" lon="5.40497">
        <ele>566.79998779297</ele>
        <time>2022-05-10T14:24:23Z</time>
      </trkpt>
      <trkpt lat="45.32497" lon="5.40486">
        <ele>566</ele>
        <time>2022-05-10T14:24:25Z</time>
      </trkpt>
      <trkpt lat="45.32499" lon="5.40483">
        <ele>565.79998779297</ele>
        <time>2022-05-10T14:24:26Z</time>
      </trkpt>
      <trkpt lat="45.32501" lon="5.4048">
        <ele>565.40002441406</ele>
        <time>2022-05-10T14:24:27Z</time>
      </trkpt>
      <trkpt lat="45.32511" lon="5.40465">
        <ele>564</ele>
        <time>2022-05-10T14:24:30Z</time>
      </trkpt>
      <trkpt lat="45.32513" lon="5.40459">
        <ele>563.59997558594</ele>
        <time>2022-05-10T14:24:31Z</time>
      </trkpt>
      <trkpt lat="45.32515" lon="5.40446">
        <ele>562.79998779297</ele>
        <time>2022-05-10T14:24:33Z</time>
      </trkpt>
      <trkpt lat="45.32516" lon="5.40436">
        <ele>561.59997558594</ele>
        <time>2022-05-10T14:24:35Z</time>
      </trkpt>
      <trkpt lat="45.32516" lon="5.40429">
        <ele>561</ele>
        <time>2022-05-10T14:24:36Z</time>
      </trkpt>
      <trkpt lat="45.32515" lon="5.40422">
        <ele>560.40002441406</ele>
        <time>2022-05-10T14:24:37Z</time>
      </trkpt>
      <trkpt lat="45.32505" lon="5.40401">
        <ele>559.20001220703</ele>
        <time>2022-05-10T14:24:41Z</time>
      </trkpt>
      <trkpt lat="45.325" lon="5.40377">
        <ele>558.20001220703</ele>
        <time>2022-05-10T14:24:44Z</time>
      </trkpt>
      <trkpt lat="45.32501" lon="5.4037">
        <ele>558</ele>
        <time>2022-05-10T14:24:45Z</time>
      </trkpt>
      <trkpt lat="45.32506" lon="5.40356">
        <ele>557.40002441406</ele>
        <time>2022-05-10T14:24:47Z</time>
      </trkpt>
      <trkpt lat="45.32508" lon="5.40349">
        <ele>556.79998779297</ele>
        <time>2022-05-10T14:24:48Z</time>
      </trkpt>
      <trkpt lat="45.32513" lon="5.4033">
        <ele>556.40002441406</ele>
        <time>2022-05-10T14:24:50Z</time>
      </trkpt>
      <trkpt lat="45.32514" lon="5.40324">
        <ele>556.20001220703</ele>
        <time>2022-05-10T14:24:51Z</time>
      </trkpt>
      <trkpt lat="45.32516" lon="5.4032">
        <ele>555.59997558594</ele>
        <time>2022-05-10T14:24:52Z</time>
      </trkpt>
      <trkpt lat="45.32519" lon="5.40315">
        <ele>554.20001220703</ele>
        <time>2022-05-10T14:24:53Z</time>
      </trkpt>
      <trkpt lat="45.32521" lon="5.40311">
        <ele>553.79998779297</ele>
        <time>2022-05-10T14:24:54Z</time>
      </trkpt>
      <trkpt lat="45.32526" lon="5.40301">
        <ele>553</ele>
        <time>2022-05-10T14:24:56Z</time>
      </trkpt>
      <trkpt lat="45.3253" lon="5.40286">
        <ele>552.20001220703</ele>
        <time>2022-05-10T14:25:00Z</time>
      </trkpt>
      <trkpt lat="45.3253" lon="5.40285">
        <ele>551.79998779297</ele>
        <time>2022-05-10T14:25:01Z</time>
      </trkpt>
      <trkpt lat="45.32531" lon="5.40283">
        <ele>551.20001220703</ele>
        <time>2022-05-10T14:25:03Z</time>
      </trkpt>
      <trkpt lat="45.32531" lon="5.40279">
        <ele>550.79998779297</ele>
        <time>2022-05-10T14:25:05Z</time>
      </trkpt>
      <trkpt lat="45.32532" lon="5.40277">
        <ele>550.79998779297</ele>
        <time>2022-05-10T14:25:06Z</time>
      </trkpt>
      <trkpt lat="45.32534" lon="5.40273">
        <ele>550.79998779297</ele>
        <time>2022-05-10T14:25:08Z</time>
      </trkpt>
      <trkpt lat="45.32536" lon="5.40271">
        <ele>550.59997558594</ele>
        <time>2022-05-10T14:25:09Z</time>
      </trkpt>
      <trkpt lat="45.32538" lon="5.40269">
        <ele>550.59997558594</ele>
        <time>2022-05-10T14:25:11Z</time>
      </trkpt>
      <trkpt lat="45.32541" lon="5.40263">
        <ele>550.79998779297</ele>
        <time>2022-05-10T14:25:14Z</time>
      </trkpt>
      <trkpt lat="45.32543" lon="5.4026">
        <ele>551.40002441406</ele>
        <time>2022-05-10T14:25:17Z</time>
      </trkpt>
      <trkpt lat="45.3255" lon="5.40253">
        <ele>551.79998779297</ele>
        <time>2022-05-10T14:25:20Z</time>
      </trkpt>
      <trkpt lat="45.32551" lon="5.40249">
        <ele>551.79998779297</ele>
        <time>2022-05-10T14:25:21Z</time>
      </trkpt>
      <trkpt lat="45.32553" lon="5.40244">
        <ele>552</ele>
        <time>2022-05-10T14:25:23Z</time>
      </trkpt>
      <trkpt lat="45.32555" lon="5.40239">
        <ele>552</ele>
        <time>2022-05-10T14:25:25Z</time>
      </trkpt>
      <trkpt lat="45.32555" lon="5.40231">
        <ele>552.20001220703</ele>
        <time>2022-05-10T14:25:27Z</time>
      </trkpt>
      <trkpt lat="45.32557" lon="5.40228">
        <ele>552.20001220703</ele>
        <time>2022-05-10T14:25:28Z</time>
      </trkpt>
      <trkpt lat="45.3256" lon="5.4022">
        <ele>552.20001220703</ele>
        <time>2022-05-10T14:25:30Z</time>
      </trkpt>
      <trkpt lat="45.32564" lon="5.40214">
        <ele>552.20001220703</ele>
        <time>2022-05-10T14:25:32Z</time>
      </trkpt>
      <trkpt lat="45.32566" lon="5.40212">
        <ele>552.20001220703</ele>
        <time>2022-05-10T14:25:33Z</time>
      </trkpt>
      <trkpt lat="45.32567" lon="5.40204">
        <ele>552.40002441406</ele>
        <time>2022-05-10T14:25:35Z</time>
      </trkpt>
      <trkpt lat="45.32572" lon="5.402">
        <ele>552.59997558594</ele>
        <time>2022-05-10T14:25:37Z</time>
      </trkpt>
      <trkpt lat="45.32573" lon="5.40197">
        <ele>552.59997558594</ele>
        <time>2022-05-10T14:25:38Z</time>
      </trkpt>
      <trkpt lat="45.32585" lon="5.40184">
        <ele>552.59997558594</ele>
        <time>2022-05-10T14:25:42Z</time>
      </trkpt>
      <trkpt lat="45.32607" lon="5.40161">
        <ele>552.40002441406</ele>
        <time>2022-05-10T14:25:49Z</time>
      </trkpt>
      <trkpt lat="45.32635" lon="5.40142">
        <ele>551.20001220703</ele>
        <time>2022-05-10T14:25:57Z</time>
      </trkpt>
      <trkpt lat="45.32638" lon="5.40139">
        <ele>550.40002441406</ele>
        <time>2022-05-10T14:25:58Z</time>
      </trkpt>
      <trkpt lat="45.32642" lon="5.40135">
        <ele>549.59997558594</ele>
        <time>2022-05-10T14:26:02Z</time>
      </trkpt>
      <trkpt lat="45.32643" lon="5.40133">
        <ele>549.40002441406</ele>
        <time>2022-05-10T14:26:03Z</time>
      </trkpt>
      <trkpt lat="45.32649" lon="5.40128">
        <ele>549</ele>
        <time>2022-05-10T14:26:06Z</time>
      </trkpt>
      <trkpt lat="45.32663" lon="5.40121">
        <ele>548.20001220703</ele>
        <time>2022-05-10T14:26:10Z</time>
      </trkpt>
      <trkpt lat="45.32673" lon="5.40114">
        <ele>547.79998779297</ele>
        <time>2022-05-10T14:26:13Z</time>
      </trkpt>
      <trkpt lat="45.3268" lon="5.4011">
        <ele>547.20001220703</ele>
        <time>2022-05-10T14:26:16Z</time>
      </trkpt>
      <trkpt lat="45.32685" lon="5.40104">
        <ele>546.79998779297</ele>
        <time>2022-05-10T14:26:18Z</time>
      </trkpt>
      <trkpt lat="45.32701" lon="5.40093">
        <ele>546</ele>
        <time>2022-05-10T14:26:23Z</time>
      </trkpt>
      <trkpt lat="45.32702" lon="5.40091">
        <ele>545.79998779297</ele>
        <time>2022-05-10T14:26:24Z</time>
      </trkpt>
      <trkpt lat="45.32711" lon="5.40086">
        <ele>545.79998779297</ele>
        <time>2022-05-10T14:26:28Z</time>
      </trkpt>
      <trkpt lat="45.32713" lon="5.40087">
        <ele>545.79998779297</ele>
        <time>2022-05-10T14:26:29Z</time>
      </trkpt>
      <trkpt lat="45.32719" lon="5.40084">
        <ele>545.79998779297</ele>
        <time>2022-05-10T14:26:30Z</time>
      </trkpt>
      <trkpt lat="45.32727" lon="5.40081">
        <ele>545.79998779297</ele>
        <time>2022-05-10T14:26:33Z</time>
      </trkpt>
      <trkpt lat="45.32731" lon="5.40078">
        <ele>545.79998779297</ele>
        <time>2022-05-10T14:26:34Z</time>
      </trkpt>
      <trkpt lat="45.32732" lon="5.40077">
        <ele>545.79998779297</ele>
        <time>2022-05-10T14:26:35Z</time>
      </trkpt>
      <trkpt lat="45.32732" lon="5.40077">
        <ele>545.79998779297</ele>
        <time>2022-05-10T14:26:39Z</time>
      </trkpt>
      <trkpt lat="45.32732" lon="5.40079">
        <ele>545.79998779297</ele>
        <time>2022-05-10T14:26:48Z</time>
      </trkpt>
      <trkpt lat="45.32732" lon="5.40079">
        <ele>544.79998779297</ele>
        <time>2022-05-10T14:26:55Z</time>
      </trkpt>
      <trkpt lat="45.32732" lon="5.40076">
        <ele>543.79998779297</ele>
        <time>2022-05-10T14:27:21Z</time>
      </trkpt>
      <trkpt lat="45.32732" lon="5.40077">
        <ele>545</ele>
        <time>2022-05-10T14:28:13Z</time>
      </trkpt>
      <trkpt lat="45.32733" lon="5.40077">
        <ele>546.20001220703</ele>
        <time>2022-05-10T14:28:16Z</time>
      </trkpt>
      <trkpt lat="45.32734" lon="5.40077">
        <ele>547.40002441406</ele>
        <time>2022-05-10T14:28:19Z</time>
      </trkpt>
      <trkpt lat="45.32737" lon="5.40076">
        <ele>548.59997558594</ele>
        <time>2022-05-10T14:28:22Z</time>
      </trkpt>
      <trkpt lat="45.32742" lon="5.40076">
        <ele>549.20001220703</ele>
        <time>2022-05-10T14:28:24Z</time>
      </trkpt>
      <trkpt lat="45.32748" lon="5.40076">
        <ele>549.79998779297</ele>
        <time>2022-05-10T14:28:26Z</time>
      </trkpt>
      <trkpt lat="45.3275" lon="5.40077">
        <ele>550.20001220703</ele>
        <time>2022-05-10T14:28:27Z</time>
      </trkpt>
      <trkpt lat="45.32753" lon="5.40077">
        <ele>551</ele>
        <time>2022-05-10T14:28:30Z</time>
      </trkpt>
      <trkpt lat="45.32758" lon="5.40078">
        <ele>552.20001220703</ele>
        <time>2022-05-10T14:28:33Z</time>
      </trkpt>
      <trkpt lat="45.32765" lon="5.40081">
        <ele>552.79998779297</ele>
        <time>2022-05-10T14:28:35Z</time>
      </trkpt>
      <trkpt lat="45.32767" lon="5.40081">
        <ele>553.40002441406</ele>
        <time>2022-05-10T14:28:36Z</time>
      </trkpt>
      <trkpt lat="45.32774" lon="5.40084">
        <ele>554.79998779297</ele>
        <time>2022-05-10T14:28:40Z</time>
      </trkpt>
      <trkpt lat="45.32775" lon="5.40085">
        <ele>556.20001220703</ele>
        <time>2022-05-10T14:28:45Z</time>
      </trkpt>
      <trkpt lat="45.32788" lon="5.40089">
        <ele>556.59997558594</ele>
        <time>2022-05-10T14:28:47Z</time>
      </trkpt>
      <trkpt lat="45.32796" lon="5.40093">
        <ele>557.40002441406</ele>
        <time>2022-05-10T14:28:51Z</time>
      </trkpt>
      <trkpt lat="45.32813" lon="5.40098">
        <ele>558.40002441406</ele>
        <time>2022-05-10T14:28:57Z</time>
      </trkpt>
      <trkpt lat="45.32816" lon="5.401">
        <ele>558.40002441406</ele>
        <time>2022-05-10T14:28:58Z</time>
      </trkpt>
      <trkpt lat="45.3282" lon="5.40101">
        <ele>558.59997558594</ele>
        <time>2022-05-10T14:28:59Z</time>
      </trkpt>
      <trkpt lat="45.3283" lon="5.40102">
        <ele>559</ele>
        <time>2022-05-10T14:29:02Z</time>
      </trkpt>
      <trkpt lat="45.32832" lon="5.40099">
        <ele>559.20001220703</ele>
        <time>2022-05-10T14:29:03Z</time>
      </trkpt>
      <trkpt lat="45.32834" lon="5.40096">
        <ele>559.20001220703</ele>
        <time>2022-05-10T14:29:04Z</time>
      </trkpt>
      <trkpt lat="45.32837" lon="5.40083">
        <ele>559.40002441406</ele>
        <time>2022-05-10T14:29:08Z</time>
      </trkpt>
      <trkpt lat="45.32836" lon="5.40078">
        <ele>559.59997558594</ele>
        <time>2022-05-10T14:29:09Z</time>
      </trkpt>
      <trkpt lat="45.32835" lon="5.40052">
        <ele>559.79998779297</ele>
        <time>2022-05-10T14:29:15Z</time>
      </trkpt>
      <trkpt lat="45.32835" lon="5.40049">
        <ele>560.20001220703</ele>
        <time>2022-05-10T14:29:16Z</time>
      </trkpt>
      <trkpt lat="45.32837" lon="5.40036">
        <ele>560.59997558594</ele>
        <time>2022-05-10T14:29:19Z</time>
      </trkpt>
      <trkpt lat="45.32834" lon="5.40021">
        <ele>560.79998779297</ele>
        <time>2022-05-10T14:29:22Z</time>
      </trkpt>
      <trkpt lat="45.32834" lon="5.40009">
        <ele>561</ele>
        <time>2022-05-10T14:29:24Z</time>
      </trkpt>
      <trkpt lat="45.32835" lon="5.3999">
        <ele>561.40002441406</ele>
        <time>2022-05-10T14:29:27Z</time>
      </trkpt>
      <trkpt lat="45.32829" lon="5.39956">
        <ele>561.20001220703</ele>
        <time>2022-05-10T14:29:33Z</time>
      </trkpt>
      <trkpt lat="45.32833" lon="5.39929">
        <ele>560.59997558594</ele>
        <time>2022-05-10T14:29:38Z</time>
      </trkpt>
      <trkpt lat="45.3283" lon="5.39894">
        <ele>559.59997558594</ele>
        <time>2022-05-10T14:29:44Z</time>
      </trkpt>
      <trkpt lat="45.32829" lon="5.39869">
        <ele>558.79998779297</ele>
        <time>2022-05-10T14:29:49Z</time>
      </trkpt>
      <trkpt lat="45.32832" lon="5.39866">
        <ele>558.40002441406</ele>
        <time>2022-05-10T14:29:50Z</time>
      </trkpt>
      <trkpt lat="45.3284" lon="5.39864">
        <ele>557.79998779297</ele>
        <time>2022-05-10T14:29:52Z</time>
      </trkpt>
      <trkpt lat="45.32844" lon="5.39863">
        <ele>557.20001220703</ele>
        <time>2022-05-10T14:29:53Z</time>
      </trkpt>
      <trkpt lat="45.32853" lon="5.39862">
        <ele>556.79998779297</ele>
        <time>2022-05-10T14:29:55Z</time>
      </trkpt>
      <trkpt lat="45.32863" lon="5.39862">
        <ele>556</ele>
        <time>2022-05-10T14:29:57Z</time>
      </trkpt>
      <trkpt lat="45.32868" lon="5.39862">
        <ele>555.79998779297</ele>
        <time>2022-05-10T14:29:58Z</time>
      </trkpt>
      <trkpt lat="45.32872" lon="5.39862">
        <ele>555.79998779297</ele>
        <time>2022-05-10T14:29:59Z</time>
      </trkpt>
      <trkpt lat="45.32885" lon="5.39865">
        <ele>554.59997558594</ele>
        <time>2022-05-10T14:30:02Z</time>
      </trkpt>
      <trkpt lat="45.32888" lon="5.39867">
        <ele>554.40002441406</ele>
        <time>2022-05-10T14:30:03Z</time>
      </trkpt>
      <trkpt lat="45.32891" lon="5.39868">
        <ele>553.40002441406</ele>
        <time>2022-05-10T14:30:04Z</time>
      </trkpt>
      <trkpt lat="45.32896" lon="5.39869">
        <ele>552.20001220703</ele>
        <time>2022-05-10T14:30:06Z</time>
      </trkpt>
      <trkpt lat="45.32898" lon="5.39869">
        <ele>551.20001220703</ele>
        <time>2022-05-10T14:30:07Z</time>
      </trkpt>
      <trkpt lat="45.32901" lon="5.39869">
        <ele>551</ele>
        <time>2022-05-10T14:30:08Z</time>
      </trkpt>
      <trkpt lat="45.32904" lon="5.39869">
        <ele>549.40002441406</ele>
        <time>2022-05-10T14:30:09Z</time>
      </trkpt>
      <trkpt lat="45.3291" lon="5.39868">
        <ele>547.40002441406</ele>
        <time>2022-05-10T14:30:11Z</time>
      </trkpt>
      <trkpt lat="45.32913" lon="5.39867">
        <ele>546.79998779297</ele>
        <time>2022-05-10T14:30:12Z</time>
      </trkpt>
      <trkpt lat="45.32916" lon="5.39868">
        <ele>545.40002441406</ele>
        <time>2022-05-10T14:30:13Z</time>
      </trkpt>
      <trkpt lat="45.32919" lon="5.39867">
        <ele>544.79998779297</ele>
        <time>2022-05-10T14:30:14Z</time>
      </trkpt>
      <trkpt lat="45.32921" lon="5.39866">
        <ele>543.79998779297</ele>
        <time>2022-05-10T14:30:15Z</time>
      </trkpt>
      <trkpt lat="45.32924" lon="5.39866">
        <ele>542.40002441406</ele>
        <time>2022-05-10T14:30:16Z</time>
      </trkpt>
      <trkpt lat="45.32929" lon="5.39865">
        <ele>540.59997558594</ele>
        <time>2022-05-10T14:30:18Z</time>
      </trkpt>
      <trkpt lat="45.32935" lon="5.39867">
        <ele>538.59997558594</ele>
        <time>2022-05-10T14:30:20Z</time>
      </trkpt>
      <trkpt lat="45.32937" lon="5.39868">
        <ele>537.40002441406</ele>
        <time>2022-05-10T14:30:21Z</time>
      </trkpt>
      <trkpt lat="45.3294" lon="5.3987">
        <ele>536</ele>
        <time>2022-05-10T14:30:22Z</time>
      </trkpt>
      <trkpt lat="45.32945" lon="5.39874">
        <ele>534.79998779297</ele>
        <time>2022-05-10T14:30:24Z</time>
      </trkpt>
      <trkpt lat="45.32951" lon="5.39878">
        <ele>533.20001220703</ele>
        <time>2022-05-10T14:30:26Z</time>
      </trkpt>
      <trkpt lat="45.32956" lon="5.39881">
        <ele>532.20001220703</ele>
        <time>2022-05-10T14:30:28Z</time>
      </trkpt>
      <trkpt lat="45.32962" lon="5.39884">
        <ele>531.20001220703</ele>
        <time>2022-05-10T14:30:30Z</time>
      </trkpt>
      <trkpt lat="45.32965" lon="5.39884">
        <ele>530.59997558594</ele>
        <time>2022-05-10T14:30:31Z</time>
      </trkpt>
      <trkpt lat="45.32968" lon="5.39885">
        <ele>530</ele>
        <time>2022-05-10T14:30:32Z</time>
      </trkpt>
      <trkpt lat="45.32976" lon="5.39887">
        <ele>529.20001220703</ele>
        <time>2022-05-10T14:30:34Z</time>
      </trkpt>
      <trkpt lat="45.32983" lon="5.39889">
        <ele>528</ele>
        <time>2022-05-10T14:30:36Z</time>
      </trkpt>
      <trkpt lat="45.32989" lon="5.39893">
        <ele>526.40002441406</ele>
        <time>2022-05-10T14:30:38Z</time>
      </trkpt>
      <trkpt lat="45.32994" lon="5.39894">
        <ele>525</ele>
        <time>2022-05-10T14:30:40Z</time>
      </trkpt>
      <trkpt lat="45.32997" lon="5.39895">
        <ele>523.79998779297</ele>
        <time>2022-05-10T14:30:41Z</time>
      </trkpt>
      <trkpt lat="45.3301" lon="5.39902">
        <ele>522.40002441406</ele>
        <time>2022-05-10T14:30:44Z</time>
      </trkpt>
      <trkpt lat="45.33014" lon="5.39903">
        <ele>521.40002441406</ele>
        <time>2022-05-10T14:30:45Z</time>
      </trkpt>
      <trkpt lat="45.33019" lon="5.39903">
        <ele>519.79998779297</ele>
        <time>2022-05-10T14:30:47Z</time>
      </trkpt>
      <trkpt lat="45.33021" lon="5.39903">
        <ele>519</ele>
        <time>2022-05-10T14:30:48Z</time>
      </trkpt>
      <trkpt lat="45.33023" lon="5.39901">
        <ele>518.79998779297</ele>
        <time>2022-05-10T14:30:49Z</time>
      </trkpt>
      <trkpt lat="45.33027" lon="5.39901">
        <ele>517.79998779297</ele>
        <time>2022-05-10T14:30:50Z</time>
      </trkpt>
      <trkpt lat="45.33037" lon="5.39903">
        <ele>516.59997558594</ele>
        <time>2022-05-10T14:30:53Z</time>
      </trkpt>
      <trkpt lat="45.33048" lon="5.39906">
        <ele>515.59997558594</ele>
        <time>2022-05-10T14:30:56Z</time>
      </trkpt>
      <trkpt lat="45.33056" lon="5.39908">
        <ele>514</ele>
        <time>2022-05-10T14:30:59Z</time>
      </trkpt>
      <trkpt lat="45.33062" lon="5.39912">
        <ele>512.59997558594</ele>
        <time>2022-05-10T14:31:01Z</time>
      </trkpt>
      <trkpt lat="45.33065" lon="5.39914">
        <ele>511.20001220703</ele>
        <time>2022-05-10T14:31:04Z</time>
      </trkpt>
      <trkpt lat="45.33067" lon="5.39915">
        <ele>510.79998779297</ele>
        <time>2022-05-10T14:31:05Z</time>
      </trkpt>
      <trkpt lat="45.33068" lon="5.39916">
        <ele>510</ele>
        <time>2022-05-10T14:31:06Z</time>
      </trkpt>
      <trkpt lat="45.3307" lon="5.3992">
        <ele>508.79998779297</ele>
        <time>2022-05-10T14:31:08Z</time>
      </trkpt>
      <trkpt lat="45.33075" lon="5.39924">
        <ele>507.20001220703</ele>
        <time>2022-05-10T14:31:12Z</time>
      </trkpt>
      <trkpt lat="45.33083" lon="5.39929">
        <ele>506</ele>
        <time>2022-05-10T14:31:15Z</time>
      </trkpt>
      <trkpt lat="45.33086" lon="5.39932">
        <ele>505.60000610352</ele>
        <time>2022-05-10T14:31:16Z</time>
      </trkpt>
      <trkpt lat="45.33092" lon="5.39935">
        <ele>504.39999389648</ele>
        <time>2022-05-10T14:31:18Z</time>
      </trkpt>
      <trkpt lat="45.33099" lon="5.3994">
        <ele>503</ele>
        <time>2022-05-10T14:31:21Z</time>
      </trkpt>
      <trkpt lat="45.33105" lon="5.39945">
        <ele>501.79998779297</ele>
        <time>2022-05-10T14:31:23Z</time>
      </trkpt>
      <trkpt lat="45.33107" lon="5.39947">
        <ele>500.39999389648</ele>
        <time>2022-05-10T14:31:24Z</time>
      </trkpt>
      <trkpt lat="45.33112" lon="5.39952">
        <ele>498.79998779297</ele>
        <time>2022-05-10T14:31:26Z</time>
      </trkpt>
      <trkpt lat="45.33116" lon="5.39955">
        <ele>498.20001220703</ele>
        <time>2022-05-10T14:31:28Z</time>
      </trkpt>
      <trkpt lat="45.33118" lon="5.39955">
        <ele>497.60000610352</ele>
        <time>2022-05-10T14:31:29Z</time>
      </trkpt>
      <trkpt lat="45.3312" lon="5.39954">
        <ele>497.39999389648</ele>
        <time>2022-05-10T14:31:30Z</time>
      </trkpt>
      <trkpt lat="45.33122" lon="5.39954">
        <ele>496.79998779297</ele>
        <time>2022-05-10T14:31:31Z</time>
      </trkpt>
      <trkpt lat="45.33124" lon="5.39953">
        <ele>496.60000610352</ele>
        <time>2022-05-10T14:31:32Z</time>
      </trkpt>
      <trkpt lat="45.33129" lon="5.39947">
        <ele>495.20001220703</ele>
        <time>2022-05-10T14:31:35Z</time>
      </trkpt>
      <trkpt lat="45.33135" lon="5.39944">
        <ele>494.79998779297</ele>
        <time>2022-05-10T14:31:37Z</time>
      </trkpt>
      <trkpt lat="45.33148" lon="5.39928">
        <ele>494.20001220703</ele>
        <time>2022-05-10T14:31:42Z</time>
      </trkpt>
      <trkpt lat="45.3316" lon="5.39895">
        <ele>493.60000610352</ele>
        <time>2022-05-10T14:31:48Z</time>
      </trkpt>
      <trkpt lat="45.33171" lon="5.39858">
        <ele>493</ele>
        <time>2022-05-10T14:31:54Z</time>
      </trkpt>
      <trkpt lat="45.3318" lon="5.39818">
        <ele>492.39999389648</ele>
        <time>2022-05-10T14:31:59Z</time>
      </trkpt>
      <trkpt lat="45.33182" lon="5.39809">
        <ele>492</ele>
        <time>2022-05-10T14:32:00Z</time>
      </trkpt>
      <trkpt lat="45.33187" lon="5.3977">
        <ele>490.60000610352</ele>
        <time>2022-05-10T14:32:03Z</time>
      </trkpt>
      <trkpt lat="45.33191" lon="5.39757">
        <ele>490.39999389648</ele>
        <time>2022-05-10T14:32:04Z</time>
      </trkpt>
      <trkpt lat="45.33192" lon="5.39746">
        <ele>490</ele>
        <time>2022-05-10T14:32:05Z</time>
      </trkpt>
      <trkpt lat="45.33196" lon="5.39728">
        <ele>489.60000610352</ele>
        <time>2022-05-10T14:32:07Z</time>
      </trkpt>
      <trkpt lat="45.33199" lon="5.39703">
        <ele>488.20001220703</ele>
        <time>2022-05-10T14:32:10Z</time>
      </trkpt>
      <trkpt lat="45.33199" lon="5.39694">
        <ele>488</ele>
        <time>2022-05-10T14:32:11Z</time>
      </trkpt>
      <trkpt lat="45.33203" lon="5.39679">
        <ele>487.39999389648</ele>
        <time>2022-05-10T14:32:14Z</time>
      </trkpt>
      <trkpt lat="45.33205" lon="5.39676">
        <ele>486.79998779297</ele>
        <time>2022-05-10T14:32:16Z</time>
      </trkpt>
      <trkpt lat="45.33207" lon="5.39673">
        <ele>486.39999389648</ele>
        <time>2022-05-10T14:32:18Z</time>
      </trkpt>
      <trkpt lat="45.33209" lon="5.39669">
        <ele>485.79998779297</ele>
        <time>2022-05-10T14:32:20Z</time>
      </trkpt>
      <trkpt lat="45.33212" lon="5.39663">
        <ele>485.39999389648</ele>
        <time>2022-05-10T14:32:23Z</time>
      </trkpt>
      <trkpt lat="45.33215" lon="5.39658">
        <ele>485.39999389648</ele>
        <time>2022-05-10T14:32:25Z</time>
      </trkpt>
      <trkpt lat="45.33229" lon="5.39637">
        <ele>485.79998779297</ele>
        <time>2022-05-10T14:32:30Z</time>
      </trkpt>
      <trkpt lat="45.33239" lon="5.39615">
        <ele>485.60000610352</ele>
        <time>2022-05-10T14:32:34Z</time>
      </trkpt>
      <trkpt lat="45.33246" lon="5.39596">
        <ele>485.60000610352</ele>
        <time>2022-05-10T14:32:38Z</time>
      </trkpt>
      <trkpt lat="45.33255" lon="5.39564">
        <ele>485.60000610352</ele>
        <time>2022-05-10T14:32:43Z</time>
      </trkpt>
      <trkpt lat="45.33257" lon="5.39558">
        <ele>485.39999389648</ele>
        <time>2022-05-10T14:32:44Z</time>
      </trkpt>
      <trkpt lat="45.33263" lon="5.39538">
        <ele>485.20001220703</ele>
        <time>2022-05-10T14:32:47Z</time>
      </trkpt>
      <trkpt lat="45.33276" lon="5.39506">
        <ele>485</ele>
        <time>2022-05-10T14:32:52Z</time>
      </trkpt>
      <trkpt lat="45.33279" lon="5.395">
        <ele>484.60000610352</ele>
        <time>2022-05-10T14:32:53Z</time>
      </trkpt>
      <trkpt lat="45.3329" lon="5.39481">
        <ele>483.79998779297</ele>
        <time>2022-05-10T14:32:56Z</time>
      </trkpt>
      <trkpt lat="45.33291" lon="5.39475">
        <ele>483.60000610352</ele>
        <time>2022-05-10T14:32:57Z</time>
      </trkpt>
      <trkpt lat="45.33292" lon="5.39466">
        <ele>482.39999389648</ele>
        <time>2022-05-10T14:32:59Z</time>
      </trkpt>
      <trkpt lat="45.33293" lon="5.3946">
        <ele>481.20001220703</ele>
        <time>2022-05-10T14:33:00Z</time>
      </trkpt>
      <trkpt lat="45.33293" lon="5.39456">
        <ele>480.60000610352</ele>
        <time>2022-05-10T14:33:01Z</time>
      </trkpt>
      <trkpt lat="45.33293" lon="5.39452">
        <ele>479.20001220703</ele>
        <time>2022-05-10T14:33:02Z</time>
      </trkpt>
      <trkpt lat="45.33294" lon="5.39443">
        <ele>477.60000610352</ele>
        <time>2022-05-10T14:33:04Z</time>
      </trkpt>
      <trkpt lat="45.33297" lon="5.39435">
        <ele>476.60000610352</ele>
        <time>2022-05-10T14:33:06Z</time>
      </trkpt>
      <trkpt lat="45.33298" lon="5.39431">
        <ele>475.79998779297</ele>
        <time>2022-05-10T14:33:07Z</time>
      </trkpt>
      <trkpt lat="45.33299" lon="5.39427">
        <ele>475.60000610352</ele>
        <time>2022-05-10T14:33:08Z</time>
      </trkpt>
      <trkpt lat="45.33301" lon="5.39423">
        <ele>474.39999389648</ele>
        <time>2022-05-10T14:33:09Z</time>
      </trkpt>
      <trkpt lat="45.33308" lon="5.39415">
        <ele>473.20001220703</ele>
        <time>2022-05-10T14:33:11Z</time>
      </trkpt>
      <trkpt lat="45.33311" lon="5.39412">
        <ele>473</ele>
        <time>2022-05-10T14:33:12Z</time>
      </trkpt>
      <trkpt lat="45.33327" lon="5.39404">
        <ele>471.79998779297</ele>
        <time>2022-05-10T14:33:15Z</time>
      </trkpt>
      <trkpt lat="45.33333" lon="5.39402">
        <ele>471.20001220703</ele>
        <time>2022-05-10T14:33:16Z</time>
      </trkpt>
      <trkpt lat="45.33348" lon="5.39398">
        <ele>470.60000610352</ele>
        <time>2022-05-10T14:33:18Z</time>
      </trkpt>
      <trkpt lat="45.3337" lon="5.39393">
        <ele>469.60000610352</ele>
        <time>2022-05-10T14:33:21Z</time>
      </trkpt>
      <trkpt lat="45.33377" lon="5.39391">
        <ele>469.20001220703</ele>
        <time>2022-05-10T14:33:22Z</time>
      </trkpt>
      <trkpt lat="45.33389" lon="5.39386">
        <ele>468.79998779297</ele>
        <time>2022-05-10T14:33:24Z</time>
      </trkpt>
      <trkpt lat="45.33395" lon="5.39383">
        <ele>468</ele>
        <time>2022-05-10T14:33:25Z</time>
      </trkpt>
      <trkpt lat="45.33414" lon="5.39372">
        <ele>466.79998779297</ele>
        <time>2022-05-10T14:33:28Z</time>
      </trkpt>
      <trkpt lat="45.33427" lon="5.39365">
        <ele>465.79998779297</ele>
        <time>2022-05-10T14:33:30Z</time>
      </trkpt>
      <trkpt lat="45.33434" lon="5.39361">
        <ele>465.20001220703</ele>
        <time>2022-05-10T14:33:31Z</time>
      </trkpt>
      <trkpt lat="45.33441" lon="5.39357">
        <ele>464.20001220703</ele>
        <time>2022-05-10T14:33:32Z</time>
      </trkpt>
      <trkpt lat="45.33454" lon="5.39349">
        <ele>463</ele>
        <time>2022-05-10T14:33:34Z</time>
      </trkpt>
      <trkpt lat="45.3346" lon="5.39345">
        <ele>462.60000610352</ele>
        <time>2022-05-10T14:33:35Z</time>
      </trkpt>
      <trkpt lat="45.33467" lon="5.39336">
        <ele>461.39999389648</ele>
        <time>2022-05-10T14:33:37Z</time>
      </trkpt>
      <trkpt lat="45.33469" lon="5.39331">
        <ele>460</ele>
        <time>2022-05-10T14:33:38Z</time>
      </trkpt>
      <trkpt lat="45.33471" lon="5.39323">
        <ele>459.60000610352</ele>
        <time>2022-05-10T14:33:39Z</time>
      </trkpt>
      <trkpt lat="45.33473" lon="5.39315">
        <ele>458.79998779297</ele>
        <time>2022-05-10T14:33:40Z</time>
      </trkpt>
      <trkpt lat="45.33474" lon="5.39308">
        <ele>458</ele>
        <time>2022-05-10T14:33:41Z</time>
      </trkpt>
      <trkpt lat="45.33476" lon="5.39299">
        <ele>457.20001220703</ele>
        <time>2022-05-10T14:33:42Z</time>
      </trkpt>
      <trkpt lat="45.33479" lon="5.39289">
        <ele>456</ele>
        <time>2022-05-10T14:33:43Z</time>
      </trkpt>
      <trkpt lat="45.33481" lon="5.39278">
        <ele>455.39999389648</ele>
        <time>2022-05-10T14:33:44Z</time>
      </trkpt>
      <trkpt lat="45.33483" lon="5.39267">
        <ele>454.60000610352</ele>
        <time>2022-05-10T14:33:45Z</time>
      </trkpt>
      <trkpt lat="45.33484" lon="5.39256">
        <ele>454.39999389648</ele>
        <time>2022-05-10T14:33:46Z</time>
      </trkpt>
      <trkpt lat="45.33487" lon="5.39247">
        <ele>453.20001220703</ele>
        <time>2022-05-10T14:33:47Z</time>
      </trkpt>
      <trkpt lat="45.33497" lon="5.3922">
        <ele>452</ele>
        <time>2022-05-10T14:33:50Z</time>
      </trkpt>
      <trkpt lat="45.33505" lon="5.39196">
        <ele>451.39999389648</ele>
        <time>2022-05-10T14:33:53Z</time>
      </trkpt>
      <trkpt lat="45.33507" lon="5.3919">
        <ele>450.60000610352</ele>
        <time>2022-05-10T14:33:54Z</time>
      </trkpt>
      <trkpt lat="45.33519" lon="5.39158">
        <ele>449.60000610352</ele>
        <time>2022-05-10T14:33:58Z</time>
      </trkpt>
      <trkpt lat="45.33522" lon="5.39147">
        <ele>449.39999389648</ele>
        <time>2022-05-10T14:33:59Z</time>
      </trkpt>
      <trkpt lat="45.33526" lon="5.39131">
        <ele>448.39999389648</ele>
        <time>2022-05-10T14:34:01Z</time>
      </trkpt>
      <trkpt lat="45.33535" lon="5.39098">
        <ele>447</ele>
        <time>2022-05-10T14:34:05Z</time>
      </trkpt>
      <trkpt lat="45.33537" lon="5.39081">
        <ele>446.20001220703</ele>
        <time>2022-05-10T14:34:07Z</time>
      </trkpt>
      <trkpt lat="45.33539" lon="5.39072">
        <ele>445.79998779297</ele>
        <time>2022-05-10T14:34:08Z</time>
      </trkpt>
      <trkpt lat="45.33542" lon="5.39055">
        <ele>444.79998779297</ele>
        <time>2022-05-10T14:34:10Z</time>
      </trkpt>
      <trkpt lat="45.33545" lon="5.39039">
        <ele>444</ele>
        <time>2022-05-10T14:34:13Z</time>
      </trkpt>
      <trkpt lat="45.33546" lon="5.39037">
        <ele>443.79998779297</ele>
        <time>2022-05-10T14:34:14Z</time>
      </trkpt>
      <trkpt lat="45.33547" lon="5.39033">
        <ele>443.20001220703</ele>
        <time>2022-05-10T14:34:16Z</time>
      </trkpt>
      <trkpt lat="45.33548" lon="5.39024">
        <ele>442.79998779297</ele>
        <time>2022-05-10T14:34:19Z</time>
      </trkpt>
      <trkpt lat="45.33549" lon="5.39015">
        <ele>442.39999389648</ele>
        <time>2022-05-10T14:34:21Z</time>
      </trkpt>
      <trkpt lat="45.33552" lon="5.3901">
        <ele>442.20001220703</ele>
        <time>2022-05-10T14:34:22Z</time>
      </trkpt>
      <trkpt lat="45.33557" lon="5.39001">
        <ele>441.60000610352</ele>
        <time>2022-05-10T14:34:24Z</time>
      </trkpt>
      <trkpt lat="45.3356" lon="5.38997">
        <ele>441.60000610352</ele>
        <time>2022-05-10T14:34:25Z</time>
      </trkpt>
      <trkpt lat="45.33567" lon="5.38987">
        <ele>441.20001220703</ele>
        <time>2022-05-10T14:34:27Z</time>
      </trkpt>
      <trkpt lat="45.33573" lon="5.38978">
        <ele>440.60000610352</ele>
        <time>2022-05-10T14:34:29Z</time>
      </trkpt>
      <trkpt lat="45.3358" lon="5.38967">
        <ele>439.39999389648</ele>
        <time>2022-05-10T14:34:31Z</time>
      </trkpt>
      <trkpt lat="45.33583" lon="5.38962">
        <ele>439</ele>
        <time>2022-05-10T14:34:32Z</time>
      </trkpt>
      <trkpt lat="45.33585" lon="5.38955">
        <ele>438</ele>
        <time>2022-05-10T14:34:33Z</time>
      </trkpt>
      <trkpt lat="45.33588" lon="5.38948">
        <ele>437.60000610352</ele>
        <time>2022-05-10T14:34:34Z</time>
      </trkpt>
      <trkpt lat="45.33591" lon="5.38941">
        <ele>436.79998779297</ele>
        <time>2022-05-10T14:34:35Z</time>
      </trkpt>
      <trkpt lat="45.33594" lon="5.38928">
        <ele>434.60000610352</ele>
        <time>2022-05-10T14:34:37Z</time>
      </trkpt>
      <trkpt lat="45.33594" lon="5.38924">
        <ele>434</ele>
        <time>2022-05-10T14:34:38Z</time>
      </trkpt>
      <trkpt lat="45.33591" lon="5.38915">
        <ele>433.60000610352</ele>
        <time>2022-05-10T14:34:40Z</time>
      </trkpt>
      <trkpt lat="45.33587" lon="5.38904">
        <ele>433.39999389648</ele>
        <time>2022-05-10T14:34:42Z</time>
      </trkpt>
      <trkpt lat="45.33577" lon="5.38879">
        <ele>433.79998779297</ele>
        <time>2022-05-10T14:34:48Z</time>
      </trkpt>
      <trkpt lat="45.33567" lon="5.38866">
        <ele>434.39999389648</ele>
        <time>2022-05-10T14:34:52Z</time>
      </trkpt>
      <trkpt lat="45.3356" lon="5.38861">
        <ele>434.79998779297</ele>
        <time>2022-05-10T14:34:54Z</time>
      </trkpt>
      <trkpt lat="45.33548" lon="5.38859">
        <ele>435.79998779297</ele>
        <time>2022-05-10T14:34:58Z</time>
      </trkpt>
      <trkpt lat="45.33544" lon="5.38859">
        <ele>435.79998779297</ele>
        <time>2022-05-10T14:34:59Z</time>
      </trkpt>
      <trkpt lat="45.33529" lon="5.38862">
        <ele>436.60000610352</ele>
        <time>2022-05-10T14:35:02Z</time>
      </trkpt>
      <trkpt lat="45.33526" lon="5.38863">
        <ele>437</ele>
        <time>2022-05-10T14:35:03Z</time>
      </trkpt>
      <trkpt lat="45.33509" lon="5.38873">
        <ele>437.79998779297</ele>
        <time>2022-05-10T14:35:07Z</time>
      </trkpt>
      <trkpt lat="45.33489" lon="5.38884">
        <ele>438.20001220703</ele>
        <time>2022-05-10T14:35:12Z</time>
      </trkpt>
      <trkpt lat="45.33485" lon="5.38886">
        <ele>438.39999389648</ele>
        <time>2022-05-10T14:35:13Z</time>
      </trkpt>
      <trkpt lat="45.33465" lon="5.38898">
        <ele>438.79998779297</ele>
        <time>2022-05-10T14:35:18Z</time>
      </trkpt>
      <trkpt lat="45.33458" lon="5.38905">
        <ele>439.20001220703</ele>
        <time>2022-05-10T14:35:20Z</time>
      </trkpt>
      <trkpt lat="45.33452" lon="5.38911">
        <ele>439.60000610352</ele>
        <time>2022-05-10T14:35:22Z</time>
      </trkpt>
      <trkpt lat="45.33439" lon="5.38919">
        <ele>440</ele>
        <time>2022-05-10T14:35:26Z</time>
      </trkpt>
      <trkpt lat="45.33437" lon="5.38922">
        <ele>440</ele>
        <time>2022-05-10T14:35:27Z</time>
      </trkpt>
      <trkpt lat="45.33434" lon="5.38924">
        <ele>440.20001220703</ele>
        <time>2022-05-10T14:35:28Z</time>
      </trkpt>
      <trkpt lat="45.33414" lon="5.38947">
        <ele>441</ele>
        <time>2022-05-10T14:35:33Z</time>
      </trkpt>
      <trkpt lat="45.33404" lon="5.38967">
        <ele>441.39999389648</ele>
        <time>2022-05-10T14:35:36Z</time>
      </trkpt>
      <trkpt lat="45.33401" lon="5.38972">
        <ele>441.39999389648</ele>
        <time>2022-05-10T14:35:37Z</time>
      </trkpt>
      <trkpt lat="45.33382" lon="5.39002">
        <ele>441.79998779297</ele>
        <time>2022-05-10T14:35:42Z</time>
      </trkpt>
      <trkpt lat="45.33378" lon="5.39008">
        <ele>442</ele>
        <time>2022-05-10T14:35:43Z</time>
      </trkpt>
      <trkpt lat="45.33366" lon="5.39026">
        <ele>442.39999389648</ele>
        <time>2022-05-10T14:35:47Z</time>
      </trkpt>
      <trkpt lat="45.33351" lon="5.39063">
        <ele>443.20001220703</ele>
        <time>2022-05-10T14:35:53Z</time>
      </trkpt>
      <trkpt lat="45.33344" lon="5.39077">
        <ele>443.60000610352</ele>
        <time>2022-05-10T14:35:56Z</time>
      </trkpt>
      <trkpt lat="45.33336" lon="5.39087">
        <ele>444</ele>
        <time>2022-05-10T14:35:59Z</time>
      </trkpt>
      <trkpt lat="45.33326" lon="5.39102">
        <ele>444.79998779297</ele>
        <time>2022-05-10T14:36:03Z</time>
      </trkpt>
      <trkpt lat="45.33324" lon="5.39106">
        <ele>444.79998779297</ele>
        <time>2022-05-10T14:36:04Z</time>
      </trkpt>
      <trkpt lat="45.33315" lon="5.39122">
        <ele>445.79998779297</ele>
        <time>2022-05-10T14:36:09Z</time>
      </trkpt>
      <trkpt lat="45.33302" lon="5.39146">
        <ele>446.60000610352</ele>
        <time>2022-05-10T14:36:15Z</time>
      </trkpt>
      <trkpt lat="45.33298" lon="5.39155">
        <ele>446.79998779297</ele>
        <time>2022-05-10T14:36:17Z</time>
      </trkpt>
      <trkpt lat="45.33293" lon="5.39171">
        <ele>447.20001220703</ele>
        <time>2022-05-10T14:36:20Z</time>
      </trkpt>
      <trkpt lat="45.33285" lon="5.39188">
        <ele>448</ele>
        <time>2022-05-10T14:36:23Z</time>
      </trkpt>
      <trkpt lat="45.33281" lon="5.39195">
        <ele>448.39999389648</ele>
        <time>2022-05-10T14:36:25Z</time>
      </trkpt>
      <trkpt lat="45.33271" lon="5.39212">
        <ele>449</ele>
        <time>2022-05-10T14:36:29Z</time>
      </trkpt>
      <trkpt lat="45.33268" lon="5.39216">
        <ele>449.20001220703</ele>
        <time>2022-05-10T14:36:30Z</time>
      </trkpt>
      <trkpt lat="45.33255" lon="5.3924">
        <ele>450</ele>
        <time>2022-05-10T14:36:35Z</time>
      </trkpt>
      <trkpt lat="45.33252" lon="5.39249">
        <ele>450.39999389648</ele>
        <time>2022-05-10T14:36:37Z</time>
      </trkpt>
      <trkpt lat="45.33246" lon="5.39271">
        <ele>451.20001220703</ele>
        <time>2022-05-10T14:36:42Z</time>
      </trkpt>
      <trkpt lat="45.33238" lon="5.39291">
        <ele>452.20001220703</ele>
        <time>2022-05-10T14:36:46Z</time>
      </trkpt>
      <trkpt lat="45.33236" lon="5.39294">
        <ele>452.39999389648</ele>
        <time>2022-05-10T14:36:47Z</time>
      </trkpt>
      <trkpt lat="45.33228" lon="5.39307">
        <ele>453.20001220703</ele>
        <time>2022-05-10T14:36:52Z</time>
      </trkpt>
      <trkpt lat="45.33226" lon="5.39309">
        <ele>453.79998779297</ele>
        <time>2022-05-10T14:36:53Z</time>
      </trkpt>
      <trkpt lat="45.33217" lon="5.39319">
        <ele>454.60000610352</ele>
        <time>2022-05-10T14:36:57Z</time>
      </trkpt>
      <trkpt lat="45.33211" lon="5.39325">
        <ele>455</ele>
        <time>2022-05-10T14:36:59Z</time>
      </trkpt>
      <trkpt lat="45.33203" lon="5.39338">
        <ele>455.39999389648</ele>
        <time>2022-05-10T14:37:02Z</time>
      </trkpt>
      <trkpt lat="45.33191" lon="5.39355">
        <ele>455.79998779297</ele>
        <time>2022-05-10T14:37:07Z</time>
      </trkpt>
      <trkpt lat="45.33178" lon="5.39363">
        <ele>456</ele>
        <time>2022-05-10T14:37:10Z</time>
      </trkpt>
      <trkpt lat="45.33168" lon="5.39366">
        <ele>456.20001220703</ele>
        <time>2022-05-10T14:37:12Z</time>
      </trkpt>
      <trkpt lat="45.33153" lon="5.39372">
        <ele>457</ele>
        <time>2022-05-10T14:37:16Z</time>
      </trkpt>
      <trkpt lat="45.33146" lon="5.39373">
        <ele>457.39999389648</ele>
        <time>2022-05-10T14:37:18Z</time>
      </trkpt>
      <trkpt lat="45.33119" lon="5.39392">
        <ele>434.8</ele>
      </trkpt>
      <trkpt lat="45.33105" lon="5.39371">
        <ele>436.8</ele>
      </trkpt>
      <trkpt lat="45.33096" lon="5.39367">
        <ele>437.8</ele>
      </trkpt>
      <trkpt lat="45.3307" lon="5.39325">
        <ele>443.1</ele>
      </trkpt>
      <trkpt lat="45.33067" lon="5.39321">
        <ele>471.79998779297</ele>
        <time>2022-05-10T14:41:48Z</time>
      </trkpt>
      <trkpt lat="45.33065" lon="5.39318">
        <ele>471.79998779297</ele>
        <time>2022-05-10T14:41:49Z</time>
      </trkpt>
      <trkpt lat="45.33057" lon="5.39304">
        <ele>472.79998779297</ele>
        <time>2022-05-10T14:41:54Z</time>
      </trkpt>
      <trkpt lat="45.33045" lon="5.39283">
        <ele>474</ele>
        <time>2022-05-10T14:42:02Z</time>
      </trkpt>
      <trkpt lat="45.33037" lon="5.39271">
        <ele>475</ele>
        <time>2022-05-10T14:42:08Z</time>
      </trkpt>
      <trkpt lat="45.3303" lon="5.39263">
        <ele>475.60000610352</ele>
        <time>2022-05-10T14:42:12Z</time>
      </trkpt>
      <trkpt lat="45.33027" lon="5.3926">
        <ele>476</ele>
        <time>2022-05-10T14:42:14Z</time>
      </trkpt>
      <trkpt lat="45.33024" lon="5.39256">
        <ele>476.39999389648</ele>
        <time>2022-05-10T14:42:16Z</time>
      </trkpt>
      <trkpt lat="45.33022" lon="5.39254">
        <ele>476.79998779297</ele>
        <time>2022-05-10T14:42:18Z</time>
      </trkpt>
      <trkpt lat="45.3302" lon="5.39253">
        <ele>477</ele>
        <time>2022-05-10T14:42:19Z</time>
      </trkpt>
      <trkpt lat="45.33018" lon="5.39252">
        <ele>477.39999389648</ele>
        <time>2022-05-10T14:42:20Z</time>
      </trkpt>
      <trkpt lat="45.33013" lon="5.3925">
        <ele>478.39999389648</ele>
        <time>2022-05-10T14:42:25Z</time>
      </trkpt>
      <trkpt lat="45.33009" lon="5.39247">
        <ele>479.60000610352</ele>
        <time>2022-05-10T14:42:30Z</time>
      </trkpt>
      <trkpt lat="45.3301" lon="5.39247">
        <ele>479.79998779297</ele>
        <time>2022-05-10T14:42:31Z</time>
      </trkpt>
      <trkpt lat="45.33006" lon="5.39245">
        <ele>480.60000610352</ele>
        <time>2022-05-10T14:42:33Z</time>
      </trkpt>
      <trkpt lat="45.33003" lon="5.39242">
        <ele>481.20001220703</ele>
        <time>2022-05-10T14:42:35Z</time>
      </trkpt>
      <trkpt lat="45.33001" lon="5.3924">
        <ele>481.60000610352</ele>
        <time>2022-05-10T14:42:36Z</time>
      </trkpt>
      <trkpt lat="45.32996" lon="5.39235">
        <ele>482.60000610352</ele>
        <time>2022-05-10T14:42:40Z</time>
      </trkpt>
      <trkpt lat="45.32994" lon="5.39231">
        <ele>483</ele>
        <time>2022-05-10T14:42:41Z</time>
      </trkpt>
      <trkpt lat="45.32991" lon="5.39229">
        <ele>483.20001220703</ele>
        <time>2022-05-10T14:42:42Z</time>
      </trkpt>
      <trkpt lat="45.32989" lon="5.39227">
        <ele>483.79998779297</ele>
        <time>2022-05-10T14:42:43Z</time>
      </trkpt>
      <trkpt lat="45.32987" lon="5.39224">
        <ele>484.20001220703</ele>
        <time>2022-05-10T14:42:45Z</time>
      </trkpt>
      <trkpt lat="45.32981" lon="5.39221">
        <ele>485</ele>
        <time>2022-05-10T14:42:48Z</time>
      </trkpt>
      <trkpt lat="45.32977" lon="5.39216">
        <ele>485.60000610352</ele>
        <time>2022-05-10T14:42:50Z</time>
      </trkpt>
      <trkpt lat="45.32974" lon="5.39215">
        <ele>486.39999389648</ele>
        <time>2022-05-10T14:42:53Z</time>
      </trkpt>
      <trkpt lat="45.3297" lon="5.39213">
        <ele>486.79998779297</ele>
        <time>2022-05-10T14:42:54Z</time>
      </trkpt>
      <trkpt lat="45.32965" lon="5.39207">
        <ele>488</ele>
        <time>2022-05-10T14:42:58Z</time>
      </trkpt>
      <trkpt lat="45.3296" lon="5.39207">
        <ele>488.39999389648</ele>
        <time>2022-05-10T14:42:59Z</time>
      </trkpt>
      <trkpt lat="45.32951" lon="5.39203">
        <ele>489.60000610352</ele>
        <time>2022-05-10T14:43:03Z</time>
      </trkpt>
      <trkpt lat="45.32951" lon="5.39202">
        <ele>489.79998779297</ele>
        <time>2022-05-10T14:43:04Z</time>
      </trkpt>
      <trkpt lat="45.32949" lon="5.39199">
        <ele>490.79998779297</ele>
        <time>2022-05-10T14:43:06Z</time>
      </trkpt>
      <trkpt lat="45.32944" lon="5.39196">
        <ele>491.60000610352</ele>
        <time>2022-05-10T14:43:10Z</time>
      </trkpt>
      <trkpt lat="45.32944" lon="5.39195">
        <ele>492</ele>
        <time>2022-05-10T14:43:12Z</time>
      </trkpt>
      <trkpt lat="45.32943" lon="5.39194">
        <ele>492.20001220703</ele>
        <time>2022-05-10T14:43:13Z</time>
      </trkpt>
      <trkpt lat="45.3294" lon="5.39191">
        <ele>492.79998779297</ele>
        <time>2022-05-10T14:43:16Z</time>
      </trkpt>
      <trkpt lat="45.32939" lon="5.3919">
        <ele>493</ele>
        <time>2022-05-10T14:43:17Z</time>
      </trkpt>
      <trkpt lat="45.32938" lon="5.39188">
        <ele>493.20001220703</ele>
        <time>2022-05-10T14:43:18Z</time>
      </trkpt>
      <trkpt lat="45.32933" lon="5.39184">
        <ele>494.20001220703</ele>
        <time>2022-05-10T14:43:22Z</time>
      </trkpt>
      <trkpt lat="45.32925" lon="5.39181">
        <ele>495.20001220703</ele>
        <time>2022-05-10T14:43:26Z</time>
      </trkpt>
      <trkpt lat="45.32917" lon="5.39176">
        <ele>496.39999389648</ele>
        <time>2022-05-10T14:43:30Z</time>
      </trkpt>
      <trkpt lat="45.32911" lon="5.39174">
        <ele>497.39999389648</ele>
        <time>2022-05-10T14:43:34Z</time>
      </trkpt>
      <trkpt lat="45.32905" lon="5.3917">
        <ele>498.39999389648</ele>
        <time>2022-05-10T14:43:39Z</time>
      </trkpt>
      <trkpt lat="45.329" lon="5.39168">
        <ele>498.79998779297</ele>
        <time>2022-05-10T14:43:40Z</time>
      </trkpt>
      <trkpt lat="45.32888" lon="5.39164">
        <ele>499.79998779297</ele>
        <time>2022-05-10T14:43:44Z</time>
      </trkpt>
      <trkpt lat="45.32886" lon="5.39163">
        <ele>499.79998779297</ele>
        <time>2022-05-10T14:43:45Z</time>
      </trkpt>
      <trkpt lat="45.32878" lon="5.39162">
        <ele>500.60000610352</ele>
        <time>2022-05-10T14:43:48Z</time>
      </trkpt>
      <trkpt lat="45.3287" lon="5.39162">
        <ele>501.20001220703</ele>
        <time>2022-05-10T14:43:51Z</time>
      </trkpt>
      <trkpt lat="45.32859" lon="5.39161">
        <ele>502.20001220703</ele>
        <time>2022-05-10T14:43:55Z</time>
      </trkpt>
      <trkpt lat="45.32858" lon="5.39159">
        <ele>502.39999389648</ele>
        <time>2022-05-10T14:43:56Z</time>
      </trkpt>
      <trkpt lat="45.32858" lon="5.39158">
        <ele>502.60000610352</ele>
        <time>2022-05-10T14:43:58Z</time>
      </trkpt>
      <trkpt lat="45.32854" lon="5.39156">
        <ele>503</ele>
        <time>2022-05-10T14:44:01Z</time>
      </trkpt>
      <trkpt lat="45.32851" lon="5.39155">
        <ele>503.60000610352</ele>
        <time>2022-05-10T14:44:04Z</time>
      </trkpt>
      <trkpt lat="45.32848" lon="5.39153">
        <ele>504</ele>
        <time>2022-05-10T14:44:06Z</time>
      </trkpt>
      <trkpt lat="45.32843" lon="5.39152">
        <ele>504.60000610352</ele>
        <time>2022-05-10T14:44:09Z</time>
      </trkpt>
      <trkpt lat="45.32835" lon="5.39149">
        <ele>505.39999389648</ele>
        <time>2022-05-10T14:44:15Z</time>
      </trkpt>
      <trkpt lat="45.32832" lon="5.39147">
        <ele>505.60000610352</ele>
        <time>2022-05-10T14:44:16Z</time>
      </trkpt>
      <trkpt lat="45.3283" lon="5.39146">
        <ele>505.79998779297</ele>
        <time>2022-05-10T14:44:17Z</time>
      </trkpt>
      <trkpt lat="45.32823" lon="5.39141">
        <ele>506.79998779297</ele>
        <time>2022-05-10T14:44:21Z</time>
      </trkpt>
      <trkpt lat="45.3282" lon="5.39139">
        <ele>506.79998779297</ele>
        <time>2022-05-10T14:44:22Z</time>
      </trkpt>
      <trkpt lat="45.32814" lon="5.39134">
        <ele>507.39999389648</ele>
        <time>2022-05-10T14:44:26Z</time>
      </trkpt>
      <trkpt lat="45.3281" lon="5.39131">
        <ele>507.60000610352</ele>
        <time>2022-05-10T14:44:28Z</time>
      </trkpt>
      <trkpt lat="45.32809" lon="5.39131">
        <ele>507.60000610352</ele>
        <time>2022-05-10T14:44:29Z</time>
      </trkpt>
      <trkpt lat="45.32807" lon="5.3913">
        <ele>508</ele>
        <time>2022-05-10T14:44:31Z</time>
      </trkpt>
      <trkpt lat="45.32801" lon="5.39127">
        <ele>508.79998779297</ele>
        <time>2022-05-10T14:44:34Z</time>
      </trkpt>
      <trkpt lat="45.32795" lon="5.39124">
        <ele>509</ele>
        <time>2022-05-10T14:44:36Z</time>
      </trkpt>
      <trkpt lat="45.32794" lon="5.39121">
        <ele>509.20001220703</ele>
        <time>2022-05-10T14:44:37Z</time>
      </trkpt>
      <trkpt lat="45.32789" lon="5.39118">
        <ele>509.60000610352</ele>
        <time>2022-05-10T14:44:39Z</time>
      </trkpt>
      <trkpt lat="45.32785" lon="5.39117">
        <ele>510</ele>
        <time>2022-05-10T14:44:41Z</time>
      </trkpt>
      <trkpt lat="45.32784" lon="5.39115">
        <ele>510.20001220703</ele>
        <time>2022-05-10T14:44:42Z</time>
      </trkpt>
      <trkpt lat="45.32783" lon="5.39115">
        <ele>510.20001220703</ele>
        <time>2022-05-10T14:44:43Z</time>
      </trkpt>
      <trkpt lat="45.32778" lon="5.39111">
        <ele>511</ele>
        <time>2022-05-10T14:44:47Z</time>
      </trkpt>
      <trkpt lat="45.32777" lon="5.3911">
        <ele>511.39999389648</ele>
        <time>2022-05-10T14:44:48Z</time>
      </trkpt>
      <trkpt lat="45.32773" lon="5.39108">
        <ele>511.60000610352</ele>
        <time>2022-05-10T14:44:50Z</time>
      </trkpt>
      <trkpt lat="45.32768" lon="5.39104">
        <ele>512.20001220703</ele>
        <time>2022-05-10T14:44:53Z</time>
      </trkpt>
      <trkpt lat="45.32766" lon="5.39103">
        <ele>512.40002441406</ele>
        <time>2022-05-10T14:44:54Z</time>
      </trkpt>
      <trkpt lat="45.32755" lon="5.39102">
        <ele>513.40002441406</ele>
        <time>2022-05-10T14:44:59Z</time>
      </trkpt>
      <trkpt lat="45.32753" lon="5.39102">
        <ele>513.40002441406</ele>
        <time>2022-05-10T14:45:00Z</time>
      </trkpt>
      <trkpt lat="45.32742" lon="5.39108">
        <ele>514.79998779297</ele>
        <time>2022-05-10T14:45:06Z</time>
      </trkpt>
      <trkpt lat="45.32731" lon="5.39112">
        <ele>515.79998779297</ele>
        <time>2022-05-10T14:45:11Z</time>
      </trkpt>
      <trkpt lat="45.32729" lon="5.39113">
        <ele>516</ele>
        <time>2022-05-10T14:45:12Z</time>
      </trkpt>
      <trkpt lat="45.32717" lon="5.39118">
        <ele>517</ele>
        <time>2022-05-10T14:45:18Z</time>
      </trkpt>
      <trkpt lat="45.32703" lon="5.39124">
        <ele>518</ele>
        <time>2022-05-10T14:45:25Z</time>
      </trkpt>
      <trkpt lat="45.32702" lon="5.39124">
        <ele>518</ele>
        <time>2022-05-10T14:45:26Z</time>
      </trkpt>
      <trkpt lat="45.32701" lon="5.39122">
        <ele>518.20001220703</ele>
        <time>2022-05-10T14:45:27Z</time>
      </trkpt>
      <trkpt lat="45.32698" lon="5.39115">
        <ele>518.79998779297</ele>
        <time>2022-05-10T14:45:31Z</time>
      </trkpt>
      <trkpt lat="45.32696" lon="5.3911">
        <ele>519.20001220703</ele>
        <time>2022-05-10T14:45:33Z</time>
      </trkpt>
      <trkpt lat="45.32696" lon="5.39107">
        <ele>519.40002441406</ele>
        <time>2022-05-10T14:45:34Z</time>
      </trkpt>
      <trkpt lat="45.32696" lon="5.39102">
        <ele>519.59997558594</ele>
        <time>2022-05-10T14:45:36Z</time>
      </trkpt>
      <trkpt lat="45.32695" lon="5.39098">
        <ele>520</ele>
        <time>2022-05-10T14:45:38Z</time>
      </trkpt>
      <trkpt lat="45.32692" lon="5.39092">
        <ele>520.40002441406</ele>
        <time>2022-05-10T14:45:40Z</time>
      </trkpt>
      <trkpt lat="45.3269" lon="5.39089">
        <ele>520.59997558594</ele>
        <time>2022-05-10T14:45:41Z</time>
      </trkpt>
      <trkpt lat="45.3269" lon="5.39085">
        <ele>520.79998779297</ele>
        <time>2022-05-10T14:45:42Z</time>
      </trkpt>
      <trkpt lat="45.3269" lon="5.39079">
        <ele>521</ele>
        <time>2022-05-10T14:45:44Z</time>
      </trkpt>
      <trkpt lat="45.32694" lon="5.3907">
        <ele>521.40002441406</ele>
        <time>2022-05-10T14:45:47Z</time>
      </trkpt>
      <trkpt lat="45.32697" lon="5.39048">
        <ele>522</ele>
        <time>2022-05-10T14:45:53Z</time>
      </trkpt>
      <trkpt lat="45.32702" lon="5.39029">
        <ele>522.20001220703</ele>
        <time>2022-05-10T14:45:58Z</time>
      </trkpt>
      <trkpt lat="45.32702" lon="5.39025">
        <ele>522.20001220703</ele>
        <time>2022-05-10T14:45:59Z</time>
      </trkpt>
      <trkpt lat="45.32706" lon="5.39">
        <ele>522.20001220703</ele>
        <time>2022-05-10T14:46:06Z</time>
      </trkpt>
      <trkpt lat="45.32711" lon="5.38984">
        <ele>522.20001220703</ele>
        <time>2022-05-10T14:46:11Z</time>
      </trkpt>
      <trkpt lat="45.32713" lon="5.38979">
        <ele>522.20001220703</ele>
        <time>2022-05-10T14:46:13Z</time>
      </trkpt>
      <trkpt lat="45.32716" lon="5.38965">
        <ele>522.20001220703</ele>
        <time>2022-05-10T14:46:17Z</time>
      </trkpt>
      <trkpt lat="45.32714" lon="5.38959">
        <ele>522.20001220703</ele>
        <time>2022-05-10T14:46:18Z</time>
      </trkpt>
      <trkpt lat="45.32712" lon="5.38953">
        <ele>522.20001220703</ele>
        <time>2022-05-10T14:46:19Z</time>
      </trkpt>
      <trkpt lat="45.32706" lon="5.38947">
        <ele>522.20001220703</ele>
        <time>2022-05-10T14:46:22Z</time>
      </trkpt>
      <trkpt lat="45.32702" lon="5.38946">
        <ele>522.59997558594</ele>
        <time>2022-05-10T14:46:24Z</time>
      </trkpt>
      <trkpt lat="45.32688" lon="5.38936">
        <ele>523.20001220703</ele>
        <time>2022-05-10T14:46:30Z</time>
      </trkpt>
      <trkpt lat="45.32683" lon="5.38935">
        <ele>523.40002441406</ele>
        <time>2022-05-10T14:46:32Z</time>
      </trkpt>
      <trkpt lat="45.32679" lon="5.38934">
        <ele>523.79998779297</ele>
        <time>2022-05-10T14:46:34Z</time>
      </trkpt>
      <trkpt lat="45.32671" lon="5.38932">
        <ele>525</ele>
        <time>2022-05-10T14:46:37Z</time>
      </trkpt>
      <trkpt lat="45.32662" lon="5.38928">
        <ele>525.59997558594</ele>
        <time>2022-05-10T14:46:41Z</time>
      </trkpt>
      <trkpt lat="45.3265" lon="5.38923">
        <ele>526</ele>
        <time>2022-05-10T14:46:46Z</time>
      </trkpt>
      <trkpt lat="45.32648" lon="5.38923">
        <ele>526.20001220703</ele>
        <time>2022-05-10T14:46:47Z</time>
      </trkpt>
      <trkpt lat="45.32637" lon="5.38919">
        <ele>526.40002441406</ele>
        <time>2022-05-10T14:46:52Z</time>
      </trkpt>
      <trkpt lat="45.32615" lon="5.38913">
        <ele>506.9</ele>
      </trkpt>
      <trkpt lat="45.32594" lon="5.38913">
        <ele>507.1</ele>
      </trkpt>
      <trkpt lat="45.32593" lon="5.38913">
        <ele>528.59997558594</ele>
        <time>2022-05-10T14:47:34Z</time>
      </trkpt>
      <trkpt lat="45.32588" lon="5.38914">
        <ele>528.59997558594</ele>
        <time>2022-05-10T14:47:36Z</time>
      </trkpt>
      <trkpt lat="45.32586" lon="5.3891">
        <ele>528.59997558594</ele>
        <time>2022-05-10T14:47:38Z</time>
      </trkpt>
      <trkpt lat="45.32591" lon="5.38893">
        <ele>528.79998779297</ele>
        <time>2022-05-10T14:47:45Z</time>
      </trkpt>
      <trkpt lat="45.32596" lon="5.38886">
        <ele>529.20001220703</ele>
        <time>2022-05-10T14:47:49Z</time>
      </trkpt>
      <trkpt lat="45.32598" lon="5.3888">
        <ele>529.59997558594</ele>
        <time>2022-05-10T14:47:51Z</time>
      </trkpt>
      <trkpt lat="45.326" lon="5.38873">
        <ele>530</ele>
        <time>2022-05-10T14:47:54Z</time>
      </trkpt>
      <trkpt lat="45.32602" lon="5.38869">
        <ele>530.20001220703</ele>
        <time>2022-05-10T14:47:56Z</time>
      </trkpt>
      <trkpt lat="45.32604" lon="5.38866">
        <ele>530.40002441406</ele>
        <time>2022-05-10T14:47:57Z</time>
      </trkpt>
      <trkpt lat="45.3261" lon="5.38849">
        <ele>531</ele>
        <time>2022-05-10T14:48:03Z</time>
      </trkpt>
      <trkpt lat="45.32611" lon="5.38843">
        <ele>531.59997558594</ele>
        <time>2022-05-10T14:48:06Z</time>
      </trkpt>
      <trkpt lat="45.32617" lon="5.3883">
        <ele>532.79998779297</ele>
        <time>2022-05-10T14:48:10Z</time>
      </trkpt>
      <trkpt lat="45.32619" lon="5.38823">
        <ele>533</ele>
        <time>2022-05-10T14:48:12Z</time>
      </trkpt>
      <trkpt lat="45.32621" lon="5.38816">
        <ele>533.20001220703</ele>
        <time>2022-05-10T14:48:15Z</time>
      </trkpt>
      <trkpt lat="45.32622" lon="5.38814">
        <ele>533.40002441406</ele>
        <time>2022-05-10T14:48:16Z</time>
      </trkpt>
      <trkpt lat="45.32622" lon="5.38813">
        <ele>533.79998779297</ele>
        <time>2022-05-10T14:48:17Z</time>
      </trkpt>
      <trkpt lat="45.32624" lon="5.38804">
        <ele>534.40002441406</ele>
        <time>2022-05-10T14:48:19Z</time>
      </trkpt>
      <trkpt lat="45.32624" lon="5.38801">
        <ele>535.20001220703</ele>
        <time>2022-05-10T14:48:21Z</time>
      </trkpt>
      <trkpt lat="45.32625" lon="5.38795">
        <ele>535.59997558594</ele>
        <time>2022-05-10T14:48:23Z</time>
      </trkpt>
      <trkpt lat="45.3263" lon="5.38786">
        <ele>536.40002441406</ele>
        <time>2022-05-10T14:48:26Z</time>
      </trkpt>
      <trkpt lat="45.32632" lon="5.38779">
        <ele>537.40002441406</ele>
        <time>2022-05-10T14:48:30Z</time>
      </trkpt>
      <trkpt lat="45.32633" lon="5.38776">
        <ele>537.79998779297</ele>
        <time>2022-05-10T14:48:31Z</time>
      </trkpt>
      <trkpt lat="45.32634" lon="5.38772">
        <ele>538.40002441406</ele>
        <time>2022-05-10T14:48:33Z</time>
      </trkpt>
      <trkpt lat="45.32636" lon="5.38769">
        <ele>539.40002441406</ele>
        <time>2022-05-10T14:48:38Z</time>
      </trkpt>
      <trkpt lat="45.32637" lon="5.38768">
        <ele>539.59997558594</ele>
        <time>2022-05-10T14:48:39Z</time>
      </trkpt>
      <trkpt lat="45.32638" lon="5.38765">
        <ele>540.79998779297</ele>
        <time>2022-05-10T14:48:42Z</time>
      </trkpt>
      <trkpt lat="45.32638" lon="5.38763">
        <ele>541.40002441406</ele>
        <time>2022-05-10T14:48:45Z</time>
      </trkpt>
      <trkpt lat="45.3264" lon="5.3876">
        <ele>541.79998779297</ele>
        <time>2022-05-10T14:48:46Z</time>
      </trkpt>
      <trkpt lat="45.32644" lon="5.38755">
        <ele>543</ele>
        <time>2022-05-10T14:48:49Z</time>
      </trkpt>
      <trkpt lat="45.32649" lon="5.38747">
        <ele>544</ele>
        <time>2022-05-10T14:48:53Z</time>
      </trkpt>
      <trkpt lat="45.32652" lon="5.38743">
        <ele>544.59997558594</ele>
        <time>2022-05-10T14:48:55Z</time>
      </trkpt>
      <trkpt lat="45.32655" lon="5.38739">
        <ele>545.20001220703</ele>
        <time>2022-05-10T14:48:57Z</time>
      </trkpt>
      <trkpt lat="45.32662" lon="5.3873">
        <ele>546.40002441406</ele>
        <time>2022-05-10T14:49:00Z</time>
      </trkpt>
      <trkpt lat="45.32664" lon="5.38728">
        <ele>546.59997558594</ele>
        <time>2022-05-10T14:49:01Z</time>
      </trkpt>
      <trkpt lat="45.32672" lon="5.3872">
        <ele>547.59997558594</ele>
        <time>2022-05-10T14:49:05Z</time>
      </trkpt>
      <trkpt lat="45.32674" lon="5.38718">
        <ele>548.79998779297</ele>
        <time>2022-05-10T14:49:08Z</time>
      </trkpt>
      <trkpt lat="45.32676" lon="5.38715">
        <ele>549.40002441406</ele>
        <time>2022-05-10T14:49:10Z</time>
      </trkpt>
      <trkpt lat="45.3268" lon="5.38709">
        <ele>550</ele>
        <time>2022-05-10T14:49:12Z</time>
      </trkpt>
      <trkpt lat="45.32682" lon="5.38708">
        <ele>550.20001220703</ele>
        <time>2022-05-10T14:49:13Z</time>
      </trkpt>
      <trkpt lat="45.32688" lon="5.38702">
        <ele>551.20001220703</ele>
        <time>2022-05-10T14:49:17Z</time>
      </trkpt>
      <trkpt lat="45.3269" lon="5.38699">
        <ele>552</ele>
        <time>2022-05-10T14:49:19Z</time>
      </trkpt>
      <trkpt lat="45.32692" lon="5.38696">
        <ele>552.20001220703</ele>
        <time>2022-05-10T14:49:21Z</time>
      </trkpt>
      <trkpt lat="45.32696" lon="5.38691">
        <ele>553.59997558594</ele>
        <time>2022-05-10T14:49:25Z</time>
      </trkpt>
      <trkpt lat="45.32697" lon="5.3869">
        <ele>553.79998779297</ele>
        <time>2022-05-10T14:49:26Z</time>
      </trkpt>
      <trkpt lat="45.32697" lon="5.38688">
        <ele>554.20001220703</ele>
        <time>2022-05-10T14:49:27Z</time>
      </trkpt>
      <trkpt lat="45.327" lon="5.38681">
        <ele>554.79998779297</ele>
        <time>2022-05-10T14:49:30Z</time>
      </trkpt>
      <trkpt lat="45.32702" lon="5.38676">
        <ele>555.40002441406</ele>
        <time>2022-05-10T14:49:32Z</time>
      </trkpt>
      <trkpt lat="45.32704" lon="5.38671">
        <ele>556.20001220703</ele>
        <time>2022-05-10T14:49:34Z</time>
      </trkpt>
      <trkpt lat="45.32704" lon="5.3867">
        <ele>556.40002441406</ele>
        <time>2022-05-10T14:49:35Z</time>
      </trkpt>
      <trkpt lat="45.32704" lon="5.38666">
        <ele>557</ele>
        <time>2022-05-10T14:49:37Z</time>
      </trkpt>
      <trkpt lat="45.32704" lon="5.38664">
        <ele>557.20001220703</ele>
        <time>2022-05-10T14:49:38Z</time>
      </trkpt>
      <trkpt lat="45.32705" lon="5.38656">
        <ele>558.40002441406</ele>
        <time>2022-05-10T14:49:42Z</time>
      </trkpt>
      <trkpt lat="45.32705" lon="5.38654">
        <ele>558.59997558594</ele>
        <time>2022-05-10T14:49:43Z</time>
      </trkpt>
      <trkpt lat="45.32707" lon="5.3865">
        <ele>559.40002441406</ele>
        <time>2022-05-10T14:49:45Z</time>
      </trkpt>
      <trkpt lat="45.32708" lon="5.38642">
        <ele>560.40002441406</ele>
        <time>2022-05-10T14:49:49Z</time>
      </trkpt>
      <trkpt lat="45.32709" lon="5.38639">
        <ele>560.59997558594</ele>
        <time>2022-05-10T14:49:50Z</time>
      </trkpt>
      <trkpt lat="45.32713" lon="5.38628">
        <ele>561.59997558594</ele>
        <time>2022-05-10T14:49:54Z</time>
      </trkpt>
      <trkpt lat="45.32714" lon="5.38621">
        <ele>562.20001220703</ele>
        <time>2022-05-10T14:49:56Z</time>
      </trkpt>
      <trkpt lat="45.32718" lon="5.38613">
        <ele>562.79998779297</ele>
        <time>2022-05-10T14:49:59Z</time>
      </trkpt>
      <trkpt lat="45.32721" lon="5.38603">
        <ele>563.20001220703</ele>
        <time>2022-05-10T14:50:03Z</time>
      </trkpt>
      <trkpt lat="45.32723" lon="5.38591">
        <ele>563.79998779297</ele>
        <time>2022-05-10T14:50:06Z</time>
      </trkpt>
      <trkpt lat="45.32727" lon="5.38585">
        <ele>564</ele>
        <time>2022-05-10T14:50:08Z</time>
      </trkpt>
      <trkpt lat="45.32725" lon="5.38582">
        <ele>564.40002441406</ele>
        <time>2022-05-10T14:50:09Z</time>
      </trkpt>
      <trkpt lat="45.32731" lon="5.38567">
        <ele>564.79998779297</ele>
        <time>2022-05-10T14:50:13Z</time>
      </trkpt>
      <trkpt lat="45.32733" lon="5.3856">
        <ele>564.79998779297</ele>
        <time>2022-05-10T14:50:15Z</time>
      </trkpt>
      <trkpt lat="45.32729" lon="5.38549">
        <ele>565.20001220703</ele>
        <time>2022-05-10T14:50:18Z</time>
      </trkpt>
      <trkpt lat="45.3273" lon="5.38519">
        <ele>565.79998779297</ele>
        <time>2022-05-10T14:50:26Z</time>
      </trkpt>
      <trkpt lat="45.32731" lon="5.38507">
        <ele>565.59997558594</ele>
        <time>2022-05-10T14:50:29Z</time>
      </trkpt>
      <trkpt lat="45.32732" lon="5.38493">
        <ele>565.40002441406</ele>
        <time>2022-05-10T14:50:32Z</time>
      </trkpt>
      <trkpt lat="45.32734" lon="5.3846">
        <ele>565.20001220703</ele>
        <time>2022-05-10T14:50:38Z</time>
      </trkpt>
      <trkpt lat="45.32738" lon="5.38427">
        <ele>564.59997558594</ele>
        <time>2022-05-10T14:50:44Z</time>
      </trkpt>
      <trkpt lat="45.32745" lon="5.38405">
        <ele>564.20001220703</ele>
        <time>2022-05-10T14:50:48Z</time>
      </trkpt>
      <trkpt lat="45.32747" lon="5.38399">
        <ele>564</ele>
        <time>2022-05-10T14:50:49Z</time>
      </trkpt>
      <trkpt lat="45.32754" lon="5.38381">
        <ele>563.79998779297</ele>
        <time>2022-05-10T14:50:52Z</time>
      </trkpt>
      <trkpt lat="45.32758" lon="5.38372">
        <ele>563.79998779297</ele>
        <time>2022-05-10T14:50:53Z</time>
      </trkpt>
      <trkpt lat="45.32768" lon="5.38349">
        <ele>563.40002441406</ele>
        <time>2022-05-10T14:50:57Z</time>
      </trkpt>
      <trkpt lat="45.32768" lon="5.38334">
        <ele>563.20001220703</ele>
        <time>2022-05-10T14:51:00Z</time>
      </trkpt>
      <trkpt lat="45.32767" lon="5.38323">
        <ele>562.79998779297</ele>
        <time>2022-05-10T14:51:02Z</time>
      </trkpt>
      <trkpt lat="45.32766" lon="5.38301">
        <ele>562.79998779297</ele>
        <time>2022-05-10T14:51:06Z</time>
      </trkpt>
      <trkpt lat="45.32764" lon="5.38282">
        <ele>562.59997558594</ele>
        <time>2022-05-10T14:51:10Z</time>
      </trkpt>
      <trkpt lat="45.32764" lon="5.38273">
        <ele>562.59997558594</ele>
        <time>2022-05-10T14:51:12Z</time>
      </trkpt>
      <trkpt lat="45.32767" lon="5.38236">
        <ele>562</ele>
        <time>2022-05-10T14:51:19Z</time>
      </trkpt>
      <trkpt lat="45.32771" lon="5.38222">
        <ele>561.79998779297</ele>
        <time>2022-05-10T14:51:21Z</time>
      </trkpt>
      <trkpt lat="45.32777" lon="5.38209">
        <ele>561.40002441406</ele>
        <time>2022-05-10T14:51:23Z</time>
      </trkpt>
      <trkpt lat="45.32783" lon="5.38194">
        <ele>561</ele>
        <time>2022-05-10T14:51:25Z</time>
      </trkpt>
      <trkpt lat="45.32783" lon="5.38185">
        <ele>560.79998779297</ele>
        <time>2022-05-10T14:51:26Z</time>
      </trkpt>
      <trkpt lat="45.32784" lon="5.38168">
        <ele>560.40002441406</ele>
        <time>2022-05-10T14:51:28Z</time>
      </trkpt>
      <trkpt lat="45.32787" lon="5.38149">
        <ele>560.20001220703</ele>
        <time>2022-05-10T14:51:30Z</time>
      </trkpt>
      <trkpt lat="45.32789" lon="5.38141">
        <ele>560.20001220703</ele>
        <time>2022-05-10T14:51:31Z</time>
      </trkpt>
      <trkpt lat="45.3279" lon="5.38133">
        <ele>560</ele>
        <time>2022-05-10T14:51:32Z</time>
      </trkpt>
      <trkpt lat="45.32791" lon="5.38118">
        <ele>560</ele>
        <time>2022-05-10T14:51:34Z</time>
      </trkpt>
      <trkpt lat="45.32792" lon="5.38111">
        <ele>559.79998779297</ele>
        <time>2022-05-10T14:51:35Z</time>
      </trkpt>
      <trkpt lat="45.3279" lon="5.38097">
        <ele>559.59997558594</ele>
        <time>2022-05-10T14:51:37Z</time>
      </trkpt>
      <trkpt lat="45.32788" lon="5.38077">
        <ele>559.40002441406</ele>
        <time>2022-05-10T14:51:40Z</time>
      </trkpt>
      <trkpt lat="45.32785" lon="5.38064">
        <ele>559.20001220703</ele>
        <time>2022-05-10T14:51:42Z</time>
      </trkpt>
      <trkpt lat="45.3278" lon="5.38034">
        <ele>558.59997558594</ele>
        <time>2022-05-10T14:51:47Z</time>
      </trkpt>
      <trkpt lat="45.32778" lon="5.38023">
        <ele>558.40002441406</ele>
        <time>2022-05-10T14:51:49Z</time>
      </trkpt>
      <trkpt lat="45.32775" lon="5.38011">
        <ele>558</ele>
        <time>2022-05-10T14:51:51Z</time>
      </trkpt>
      <trkpt lat="45.32774" lon="5.38006">
        <ele>558</ele>
        <time>2022-05-10T14:51:52Z</time>
      </trkpt>
      <trkpt lat="45.3277" lon="5.37991">
        <ele>557.40002441406</ele>
        <time>2022-05-10T14:51:55Z</time>
      </trkpt>
      <trkpt lat="45.32767" lon="5.37981">
        <ele>557</ele>
        <time>2022-05-10T14:51:57Z</time>
      </trkpt>
      <trkpt lat="45.32762" lon="5.37958">
        <ele>556.40002441406</ele>
        <time>2022-05-10T14:52:02Z</time>
      </trkpt>
      <trkpt lat="45.32763" lon="5.37931">
        <ele>556</ele>
        <time>2022-05-10T14:52:07Z</time>
      </trkpt>
      <trkpt lat="45.32764" lon="5.37917">
        <ele>556</ele>
        <time>2022-05-10T14:52:10Z</time>
      </trkpt>
      <trkpt lat="45.32763" lon="5.37888">
        <ele>555.59997558594</ele>
        <time>2022-05-10T14:52:16Z</time>
      </trkpt>
      <trkpt lat="45.32758" lon="5.37864">
        <ele>555.40002441406</ele>
        <time>2022-05-10T14:52:21Z</time>
      </trkpt>
      <trkpt lat="45.32753" lon="5.37843">
        <ele>555.20001220703</ele>
        <time>2022-05-10T14:52:25Z</time>
      </trkpt>
      <trkpt lat="45.3275" lon="5.37838">
        <ele>554.79998779297</ele>
        <time>2022-05-10T14:52:26Z</time>
      </trkpt>
      <trkpt lat="45.32742" lon="5.37818">
        <ele>554.20001220703</ele>
        <time>2022-05-10T14:52:31Z</time>
      </trkpt>
      <trkpt lat="45.32742" lon="5.37807">
        <ele>554.20001220703</ele>
        <time>2022-05-10T14:52:34Z</time>
      </trkpt>
      <trkpt lat="45.32742" lon="5.37799">
        <ele>554.20001220703</ele>
        <time>2022-05-10T14:52:36Z</time>
      </trkpt>
      <trkpt lat="45.3274" lon="5.37776">
        <ele>554</ele>
        <time>2022-05-10T14:52:42Z</time>
      </trkpt>
      <trkpt lat="45.32734" lon="5.37751">
        <ele>554</ele>
        <time>2022-05-10T14:52:47Z</time>
      </trkpt>
      <trkpt lat="45.32733" lon="5.37746">
        <ele>553.79998779297</ele>
        <time>2022-05-10T14:52:48Z</time>
      </trkpt>
      <trkpt lat="45.32726" lon="5.37716">
        <ele>554</ele>
        <time>2022-05-10T14:52:54Z</time>
      </trkpt>
      <trkpt lat="45.32717" lon="5.37667">
        <ele>554.59997558594</ele>
        <time>2022-05-10T14:53:03Z</time>
      </trkpt>
      <trkpt lat="45.32714" lon="5.37652">
        <ele>555.20001220703</ele>
        <time>2022-05-10T14:53:06Z</time>
      </trkpt>
      <trkpt lat="45.32702" lon="5.37602">
        <ele>537.2</ele>
      </trkpt>
      <trkpt lat="45.32697" lon="5.37592">
        <ele>537.8</ele>
      </trkpt>
      <trkpt lat="45.32696" lon="5.37591">
        <ele>557.79998779297</ele>
        <time>2022-05-10T14:55:10Z</time>
      </trkpt>
      <trkpt lat="45.32683" lon="5.37572">
        <ele>558.59997558594</ele>
        <time>2022-05-10T14:55:16Z</time>
      </trkpt>
      <trkpt lat="45.32681" lon="5.37569">
        <ele>558.79998779297</ele>
        <time>2022-05-10T14:55:17Z</time>
      </trkpt>
      <trkpt lat="45.32665" lon="5.37542">
        <ele>559.59997558594</ele>
        <time>2022-05-10T14:55:25Z</time>
      </trkpt>
      <trkpt lat="45.32662" lon="5.37539">
        <ele>560</ele>
        <time>2022-05-10T14:55:26Z</time>
      </trkpt>
      <trkpt lat="45.32654" lon="5.37525">
        <ele>561</ele>
        <time>2022-05-10T14:55:30Z</time>
      </trkpt>
      <trkpt lat="45.32636" lon="5.37498">
        <ele>562</ele>
        <time>2022-05-10T14:55:37Z</time>
      </trkpt>
      <trkpt lat="45.32631" lon="5.3749">
        <ele>562.20001220703</ele>
        <time>2022-05-10T14:55:39Z</time>
      </trkpt>
      <trkpt lat="45.32618" lon="5.37465">
        <ele>563</ele>
        <time>2022-05-10T14:55:43Z</time>
      </trkpt>
      <trkpt lat="45.32616" lon="5.3745">
        <ele>563.20001220703</ele>
        <time>2022-05-10T14:55:45Z</time>
      </trkpt>
      <trkpt lat="45.32616" lon="5.37437">
        <ele>563.59997558594</ele>
        <time>2022-05-10T14:55:47Z</time>
      </trkpt>
      <trkpt lat="45.32603" lon="5.37407">
        <ele>563.59997558594</ele>
        <time>2022-05-10T14:55:51Z</time>
      </trkpt>
      <trkpt lat="45.32595" lon="5.37393">
        <ele>563.59997558594</ele>
        <time>2022-05-10T14:55:53Z</time>
      </trkpt>
      <trkpt lat="45.32586" lon="5.37383">
        <ele>563.59997558594</ele>
        <time>2022-05-10T14:55:55Z</time>
      </trkpt>
      <trkpt lat="45.32584" lon="5.37379">
        <ele>563.59997558594</ele>
        <time>2022-05-10T14:55:56Z</time>
      </trkpt>
      <trkpt lat="45.32568" lon="5.37363">
        <ele>562.59997558594</ele>
        <time>2022-05-10T14:56:00Z</time>
      </trkpt>
      <trkpt lat="45.32565" lon="5.37358">
        <ele>562.20001220703</ele>
        <time>2022-05-10T14:56:01Z</time>
      </trkpt>
      <trkpt lat="45.32561" lon="5.37352">
        <ele>562.20001220703</ele>
        <time>2022-05-10T14:56:02Z</time>
      </trkpt>
      <trkpt lat="45.32554" lon="5.37328">
        <ele>561.40002441406</ele>
        <time>2022-05-10T14:56:06Z</time>
      </trkpt>
      <trkpt lat="45.32552" lon="5.37318">
        <ele>561.20001220703</ele>
        <time>2022-05-10T14:56:08Z</time>
      </trkpt>
      <trkpt lat="45.32544" lon="5.37305">
        <ele>561</ele>
        <time>2022-05-10T14:56:11Z</time>
      </trkpt>
      <trkpt lat="45.32532" lon="5.3728">
        <ele>560.20001220703</ele>
        <time>2022-05-10T14:56:16Z</time>
      </trkpt>
      <trkpt lat="45.32531" lon="5.37273">
        <ele>560.20001220703</ele>
        <time>2022-05-10T14:56:17Z</time>
      </trkpt>
      <trkpt lat="45.32531" lon="5.37266">
        <ele>560.20001220703</ele>
        <time>2022-05-10T14:56:18Z</time>
      </trkpt>
      <trkpt lat="45.3253" lon="5.37253">
        <ele>560</ele>
        <time>2022-05-10T14:56:20Z</time>
      </trkpt>
      <trkpt lat="45.3253" lon="5.37238">
        <ele>559.59997558594</ele>
        <time>2022-05-10T14:56:22Z</time>
      </trkpt>
      <trkpt lat="45.32529" lon="5.37227">
        <ele>559.40002441406</ele>
        <time>2022-05-10T14:56:24Z</time>
      </trkpt>
      <trkpt lat="45.32531" lon="5.3722">
        <ele>559.20001220703</ele>
        <time>2022-05-10T14:56:25Z</time>
      </trkpt>
      <trkpt lat="45.32532" lon="5.37213">
        <ele>559.20001220703</ele>
        <time>2022-05-10T14:56:26Z</time>
      </trkpt>
      <trkpt lat="45.32537" lon="5.37197">
        <ele>559</ele>
        <time>2022-05-10T14:56:29Z</time>
      </trkpt>
      <trkpt lat="45.32539" lon="5.37191">
        <ele>558.79998779297</ele>
        <time>2022-05-10T14:56:30Z</time>
      </trkpt>
      <trkpt lat="45.32549" lon="5.37174">
        <ele>558.59997558594</ele>
        <time>2022-05-10T14:56:34Z</time>
      </trkpt>
      <trkpt lat="45.32558" lon="5.37166">
        <ele>558</ele>
        <time>2022-05-10T14:56:37Z</time>
      </trkpt>
      <trkpt lat="45.32565" lon="5.37164">
        <ele>557.79998779297</ele>
        <time>2022-05-10T14:56:39Z</time>
      </trkpt>
      <trkpt lat="45.32572" lon="5.37161">
        <ele>557.40002441406</ele>
        <time>2022-05-10T14:56:42Z</time>
      </trkpt>
      <trkpt lat="45.32578" lon="5.37154">
        <ele>557.20001220703</ele>
        <time>2022-05-10T14:56:44Z</time>
      </trkpt>
      <trkpt lat="45.32584" lon="5.37142">
        <ele>557.20001220703</ele>
        <time>2022-05-10T14:56:46Z</time>
      </trkpt>
      <trkpt lat="45.32588" lon="5.37126">
        <ele>557.20001220703</ele>
        <time>2022-05-10T14:56:48Z</time>
      </trkpt>
      <trkpt lat="45.32592" lon="5.37108">
        <ele>556.59997558594</ele>
        <time>2022-05-10T14:56:50Z</time>
      </trkpt>
      <trkpt lat="45.32597" lon="5.37091">
        <ele>556</ele>
        <time>2022-05-10T14:56:52Z</time>
      </trkpt>
      <trkpt lat="45.326" lon="5.37083">
        <ele>555.59997558594</ele>
        <time>2022-05-10T14:56:53Z</time>
      </trkpt>
      <trkpt lat="45.32607" lon="5.37066">
        <ele>555</ele>
        <time>2022-05-10T14:56:55Z</time>
      </trkpt>
      <trkpt lat="45.32615" lon="5.3705">
        <ele>553.40002441406</ele>
        <time>2022-05-10T14:56:57Z</time>
      </trkpt>
      <trkpt lat="45.32618" lon="5.37041">
        <ele>552.79998779297</ele>
        <time>2022-05-10T14:56:58Z</time>
      </trkpt>
      <trkpt lat="45.32621" lon="5.37031">
        <ele>551.79998779297</ele>
        <time>2022-05-10T14:56:59Z</time>
      </trkpt>
      <trkpt lat="45.32623" lon="5.37022">
        <ele>550.79998779297</ele>
        <time>2022-05-10T14:57:00Z</time>
      </trkpt>
      <trkpt lat="45.32627" lon="5.37006">
        <ele>549.59997558594</ele>
        <time>2022-05-10T14:57:02Z</time>
      </trkpt>
      <trkpt lat="45.32628" lon="5.36999">
        <ele>549.40002441406</ele>
        <time>2022-05-10T14:57:03Z</time>
      </trkpt>
      <trkpt lat="45.32629" lon="5.36992">
        <ele>549.20001220703</ele>
        <time>2022-05-10T14:57:04Z</time>
      </trkpt>
      <trkpt lat="45.32632" lon="5.36978">
        <ele>547.59997558594</ele>
        <time>2022-05-10T14:57:06Z</time>
      </trkpt>
      <trkpt lat="45.32632" lon="5.3696">
        <ele>546.20001220703</ele>
        <time>2022-05-10T14:57:08Z</time>
      </trkpt>
      <trkpt lat="45.32632" lon="5.3695">
        <ele>545.59997558594</ele>
        <time>2022-05-10T14:57:09Z</time>
      </trkpt>
      <trkpt lat="45.3263" lon="5.36932">
        <ele>545</ele>
        <time>2022-05-10T14:57:11Z</time>
      </trkpt>
      <trkpt lat="45.32629" lon="5.36923">
        <ele>544.59997558594</ele>
        <time>2022-05-10T14:57:12Z</time>
      </trkpt>
      <trkpt lat="45.32629" lon="5.36915">
        <ele>544</ele>
        <time>2022-05-10T14:57:13Z</time>
      </trkpt>
      <trkpt lat="45.32629" lon="5.36906">
        <ele>543.79998779297</ele>
        <time>2022-05-10T14:57:14Z</time>
      </trkpt>
      <trkpt lat="45.32627" lon="5.3688">
        <ele>543.40002441406</ele>
        <time>2022-05-10T14:57:17Z</time>
      </trkpt>
      <trkpt lat="45.32625" lon="5.36864">
        <ele>543.20001220703</ele>
        <time>2022-05-10T14:57:19Z</time>
      </trkpt>
      <trkpt lat="45.32625" lon="5.36839">
        <ele>542.79998779297</ele>
        <time>2022-05-10T14:57:22Z</time>
      </trkpt>
      <trkpt lat="45.32626" lon="5.3683">
        <ele>542.79998779297</ele>
        <time>2022-05-10T14:57:23Z</time>
      </trkpt>
      <trkpt lat="45.32626" lon="5.36795">
        <ele>542.20001220703</ele>
        <time>2022-05-10T14:57:28Z</time>
      </trkpt>
      <trkpt lat="45.32626" lon="5.36775">
        <ele>542</ele>
        <time>2022-05-10T14:57:32Z</time>
      </trkpt>
      <trkpt lat="45.32634" lon="5.36756">
        <ele>542</ele>
        <time>2022-05-10T14:57:37Z</time>
      </trkpt>
      <trkpt lat="45.3264" lon="5.36734">
        <ele>543.59997558594</ele>
        <time>2022-05-10T14:57:43Z</time>
      </trkpt>
      <trkpt lat="45.32642" lon="5.3672">
        <ele>543.79998779297</ele>
        <time>2022-05-10T14:57:47Z</time>
      </trkpt>
      <trkpt lat="45.3264" lon="5.36717">
        <ele>543.79998779297</ele>
        <time>2022-05-10T14:57:49Z</time>
      </trkpt>
      <trkpt lat="45.32637" lon="5.36719">
        <ele>544</ele>
        <time>2022-05-10T14:57:51Z</time>
      </trkpt>
      <trkpt lat="45.32611" lon="5.36724">
        <ele>544.79998779297</ele>
        <time>2022-05-10T14:57:57Z</time>
      </trkpt>
      <trkpt lat="45.32605" lon="5.36725">
        <ele>544.79998779297</ele>
        <time>2022-05-10T14:57:58Z</time>
      </trkpt>
      <trkpt lat="45.32583" lon="5.3673">
        <ele>544.79998779297</ele>
        <time>2022-05-10T14:58:02Z</time>
      </trkpt>
      <trkpt lat="45.32578" lon="5.36739">
        <ele>544.79998779297</ele>
        <time>2022-05-10T14:58:04Z</time>
      </trkpt>
      <trkpt lat="45.32577" lon="5.36746">
        <ele>544.59997558594</ele>
        <time>2022-05-10T14:58:05Z</time>
      </trkpt>
      <trkpt lat="45.32574" lon="5.36755">
        <ele>544.20001220703</ele>
        <time>2022-05-10T14:58:06Z</time>
      </trkpt>
      <trkpt lat="45.3257" lon="5.36767">
        <ele>543.59997558594</ele>
        <time>2022-05-10T14:58:08Z</time>
      </trkpt>
      <trkpt lat="45.32568" lon="5.36773">
        <ele>543.40002441406</ele>
        <time>2022-05-10T14:58:09Z</time>
      </trkpt>
      <trkpt lat="45.3256" lon="5.36793">
        <ele>542.40002441406</ele>
        <time>2022-05-10T14:58:12Z</time>
      </trkpt>
      <trkpt lat="45.32551" lon="5.36823">
        <ele>541.79998779297</ele>
        <time>2022-05-10T14:58:16Z</time>
      </trkpt>
      <trkpt lat="45.32548" lon="5.36831">
        <ele>541.20001220703</ele>
        <time>2022-05-10T14:58:17Z</time>
      </trkpt>
      <trkpt lat="45.32544" lon="5.36841">
        <ele>541</ele>
        <time>2022-05-10T14:58:18Z</time>
      </trkpt>
      <trkpt lat="45.3254" lon="5.3685">
        <ele>540</ele>
        <time>2022-05-10T14:58:19Z</time>
      </trkpt>
      <trkpt lat="45.32533" lon="5.36869">
        <ele>539</ele>
        <time>2022-05-10T14:58:21Z</time>
      </trkpt>
      <trkpt lat="45.3253" lon="5.36877">
        <ele>538.59997558594</ele>
        <time>2022-05-10T14:58:22Z</time>
      </trkpt>
      <trkpt lat="45.32524" lon="5.36892">
        <ele>537.59997558594</ele>
        <time>2022-05-10T14:58:24Z</time>
      </trkpt>
      <trkpt lat="45.32521" lon="5.36896">
        <ele>537.40002441406</ele>
        <time>2022-05-10T14:58:25Z</time>
      </trkpt>
      <trkpt lat="45.32517" lon="5.36898">
        <ele>537.20001220703</ele>
        <time>2022-05-10T14:58:26Z</time>
      </trkpt>
      <trkpt lat="45.32504" lon="5.3691">
        <ele>536.59997558594</ele>
        <time>2022-05-10T14:58:29Z</time>
      </trkpt>
      <trkpt lat="45.325" lon="5.36918">
        <ele>536</ele>
        <time>2022-05-10T14:58:30Z</time>
      </trkpt>
      <trkpt lat="45.32493" lon="5.3693">
        <ele>534.59997558594</ele>
        <time>2022-05-10T14:58:31Z</time>
      </trkpt>
      <trkpt lat="45.32487" lon="5.36939">
        <ele>534.20001220703</ele>
        <time>2022-05-10T14:58:32Z</time>
      </trkpt>
      <trkpt lat="45.32481" lon="5.36944">
        <ele>533.59997558594</ele>
        <time>2022-05-10T14:58:33Z</time>
      </trkpt>
      <trkpt lat="45.32476" lon="5.36949">
        <ele>533.20001220703</ele>
        <time>2022-05-10T14:58:34Z</time>
      </trkpt>
      <trkpt lat="45.32473" lon="5.36953">
        <ele>532.20001220703</ele>
        <time>2022-05-10T14:58:35Z</time>
      </trkpt>
      <trkpt lat="45.32469" lon="5.36965">
        <ele>530.79998779297</ele>
        <time>2022-05-10T14:58:37Z</time>
      </trkpt>
      <trkpt lat="45.32464" lon="5.36979">
        <ele>529.59997558594</ele>
        <time>2022-05-10T14:58:39Z</time>
      </trkpt>
      <trkpt lat="45.32458" lon="5.36989">
        <ele>528.79998779297</ele>
        <time>2022-05-10T14:58:40Z</time>
      </trkpt>
      <trkpt lat="45.32453" lon="5.37004">
        <ele>528.59997558594</ele>
        <time>2022-05-10T14:58:42Z</time>
      </trkpt>
      <trkpt lat="45.32449" lon="5.37009">
        <ele>528.59997558594</ele>
        <time>2022-05-10T14:58:43Z</time>
      </trkpt>
      <trkpt lat="45.32437" lon="5.37025">
        <ele>527.40002441406</ele>
        <time>2022-05-10T14:58:46Z</time>
      </trkpt>
      <trkpt lat="45.32422" lon="5.3705">
        <ele>525.79998779297</ele>
        <time>2022-05-10T14:58:51Z</time>
      </trkpt>
      <trkpt lat="45.32421" lon="5.37056">
        <ele>525.40002441406</ele>
        <time>2022-05-10T14:58:52Z</time>
      </trkpt>
      <trkpt lat="45.32418" lon="5.37062">
        <ele>524.40002441406</ele>
        <time>2022-05-10T14:58:53Z</time>
      </trkpt>
      <trkpt lat="45.32416" lon="5.37069">
        <ele>524.40002441406</ele>
        <time>2022-05-10T14:58:54Z</time>
      </trkpt>
      <trkpt lat="45.32412" lon="5.37079">
        <ele>523.59997558594</ele>
        <time>2022-05-10T14:58:56Z</time>
      </trkpt>
      <trkpt lat="45.32409" lon="5.37089">
        <ele>522.40002441406</ele>
        <time>2022-05-10T14:59:01Z</time>
      </trkpt>
      <trkpt lat="45.32409" lon="5.3709">
        <ele>522.20001220703</ele>
        <time>2022-05-10T14:59:19Z</time>
      </trkpt>
      <trkpt lat="45.3241" lon="5.37095">
        <ele>522.20001220703</ele>
        <time>2022-05-10T14:59:20Z</time>
      </trkpt>
      <trkpt lat="45.3241" lon="5.37111">
        <ele>522.40002441406</ele>
        <time>2022-05-10T14:59:23Z</time>
      </trkpt>
      <trkpt lat="45.3241" lon="5.37119">
        <ele>522.40002441406</ele>
        <time>2022-05-10T14:59:25Z</time>
      </trkpt>
      <trkpt lat="45.3241" lon="5.37138">
        <ele>523.20001220703</ele>
        <time>2022-05-10T14:59:29Z</time>
      </trkpt>
      <trkpt lat="45.3241" lon="5.37143">
        <ele>523.59997558594</ele>
        <time>2022-05-10T14:59:30Z</time>
      </trkpt>
      <trkpt lat="45.32408" lon="5.37178">
        <ele>524.20001220703</ele>
        <time>2022-05-10T14:59:35Z</time>
      </trkpt>
      <trkpt lat="45.32407" lon="5.37189">
        <ele>524.40002441406</ele>
        <time>2022-05-10T14:59:37Z</time>
      </trkpt>
      <trkpt lat="45.32397" lon="5.37225">
        <ele>524.40002441406</ele>
        <time>2022-05-10T14:59:41Z</time>
      </trkpt>
      <trkpt lat="45.32395" lon="5.37244">
        <ele>524.40002441406</ele>
        <time>2022-05-10T14:59:43Z</time>
      </trkpt>
      <trkpt lat="45.32394" lon="5.37263">
        <ele>524.79998779297</ele>
        <time>2022-05-10T14:59:45Z</time>
      </trkpt>
      <trkpt lat="45.32394" lon="5.37273">
        <ele>524.79998779297</ele>
        <time>2022-05-10T14:59:46Z</time>
      </trkpt>
      <trkpt lat="45.32394" lon="5.37296">
        <ele>525.79998779297</ele>
        <time>2022-05-10T14:59:49Z</time>
      </trkpt>
      <trkpt lat="45.32392" lon="5.37308">
        <ele>526.20001220703</ele>
        <time>2022-05-10T14:59:51Z</time>
      </trkpt>
      <trkpt lat="45.32393" lon="5.37317">
        <ele>526.40002441406</ele>
        <time>2022-05-10T14:59:53Z</time>
      </trkpt>
      <trkpt lat="45.32397" lon="5.37329">
        <ele>526.40002441406</ele>
        <time>2022-05-10T14:59:55Z</time>
      </trkpt>
      <trkpt lat="45.32398" lon="5.37345">
        <ele>526.59997558594</ele>
        <time>2022-05-10T14:59:57Z</time>
      </trkpt>
      <trkpt lat="45.32398" lon="5.37355">
        <ele>526.59997558594</ele>
        <time>2022-05-10T15:00:00Z</time>
      </trkpt>
      <trkpt lat="45.32398" lon="5.37398">
        <ele>525.59997558594</ele>
        <time>2022-05-10T15:00:08Z</time>
      </trkpt>
      <trkpt lat="45.32398" lon="5.37405">
        <ele>524.79998779297</ele>
        <time>2022-05-10T15:00:10Z</time>
      </trkpt>
      <trkpt lat="45.32398" lon="5.37407">
        <ele>523.20001220703</ele>
        <time>2022-05-10T15:00:12Z</time>
      </trkpt>
      <trkpt lat="45.32397" lon="5.3741">
        <ele>521.79998779297</ele>
        <time>2022-05-10T15:00:14Z</time>
      </trkpt>
      <trkpt lat="45.32395" lon="5.37411">
        <ele>521.59997558594</ele>
        <time>2022-05-10T15:00:15Z</time>
      </trkpt>
      <trkpt lat="45.3239" lon="5.37413">
        <ele>521</ele>
        <time>2022-05-10T15:00:17Z</time>
      </trkpt>
      <trkpt lat="45.32386" lon="5.37412">
        <ele>520.59997558594</ele>
        <time>2022-05-10T15:00:18Z</time>
      </trkpt>
      <trkpt lat="45.32382" lon="5.37412">
        <ele>519.79998779297</ele>
        <time>2022-05-10T15:00:19Z</time>
      </trkpt>
      <trkpt lat="45.32373" lon="5.37412">
        <ele>518.59997558594</ele>
        <time>2022-05-10T15:00:21Z</time>
      </trkpt>
      <trkpt lat="45.32365" lon="5.37412">
        <ele>517</ele>
        <time>2022-05-10T15:00:23Z</time>
      </trkpt>
      <trkpt lat="45.32359" lon="5.37412">
        <ele>515.59997558594</ele>
        <time>2022-05-10T15:00:25Z</time>
      </trkpt>
      <trkpt lat="45.32351" lon="5.37414">
        <ele>514.20001220703</ele>
        <time>2022-05-10T15:00:27Z</time>
      </trkpt>
      <trkpt lat="45.32338" lon="5.37422">
        <ele>512.40002441406</ele>
        <time>2022-05-10T15:00:28Z</time>
      </trkpt>
      <trkpt lat="45.32325" lon="5.37433">
        <ele>511.20001220703</ele>
        <time>2022-05-10T15:00:29Z</time>
      </trkpt>
      <trkpt lat="45.32314" lon="5.3744">
        <ele>510</ele>
        <time>2022-05-10T15:00:31Z</time>
      </trkpt>
      <trkpt lat="45.32313" lon="5.37441">
        <ele>509.60000610352</ele>
        <time>2022-05-10T15:00:32Z</time>
      </trkpt>
      <trkpt lat="45.32313" lon="5.37434">
        <ele>509</ele>
        <time>2022-05-10T15:00:33Z</time>
      </trkpt>
      <trkpt lat="45.32316" lon="5.37419">
        <ele>506.79998779297</ele>
        <time>2022-05-10T15:00:35Z</time>
      </trkpt>
      <trkpt lat="45.32317" lon="5.37412">
        <ele>505.60000610352</ele>
        <time>2022-05-10T15:00:36Z</time>
      </trkpt>
      <trkpt lat="45.32315" lon="5.37402">
        <ele>504.20001220703</ele>
        <time>2022-05-10T15:00:38Z</time>
      </trkpt>
      <trkpt lat="45.3231" lon="5.37393">
        <ele>502.39999389648</ele>
        <time>2022-05-10T15:00:40Z</time>
      </trkpt>
      <trkpt lat="45.32306" lon="5.37388">
        <ele>502.20001220703</ele>
        <time>2022-05-10T15:00:41Z</time>
      </trkpt>
      <trkpt lat="45.32291" lon="5.37375">
        <ele>501.20001220703</ele>
        <time>2022-05-10T15:00:44Z</time>
      </trkpt>
      <trkpt lat="45.32285" lon="5.37368">
        <ele>500.60000610352</ele>
        <time>2022-05-10T15:00:46Z</time>
      </trkpt>
      <trkpt lat="45.32283" lon="5.37365">
        <ele>500</ele>
        <time>2022-05-10T15:00:47Z</time>
      </trkpt>
      <trkpt lat="45.32283" lon="5.37354">
        <ele>499</ele>
        <time>2022-05-10T15:00:49Z</time>
      </trkpt>
      <trkpt lat="45.32283" lon="5.37347">
        <ele>498.20001220703</ele>
        <time>2022-05-10T15:00:50Z</time>
      </trkpt>
      <trkpt lat="45.32282" lon="5.37339">
        <ele>497.20001220703</ele>
        <time>2022-05-10T15:00:51Z</time>
      </trkpt>
      <trkpt lat="45.32282" lon="5.37326">
        <ele>496.20001220703</ele>
        <time>2022-05-10T15:00:53Z</time>
      </trkpt>
      <trkpt lat="45.32284" lon="5.37318">
        <ele>495.79998779297</ele>
        <time>2022-05-10T15:00:54Z</time>
      </trkpt>
      <trkpt lat="45.32288" lon="5.37282">
        <ele>495.20001220703</ele>
        <time>2022-05-10T15:00:58Z</time>
      </trkpt>
      <trkpt lat="45.32292" lon="5.37267">
        <ele>495.20001220703</ele>
        <time>2022-05-10T15:01:00Z</time>
      </trkpt>
      <trkpt lat="45.32295" lon="5.37253">
        <ele>495</ele>
        <time>2022-05-10T15:01:02Z</time>
      </trkpt>
      <trkpt lat="45.32288" lon="5.3724">
        <ele>495</ele>
        <time>2022-05-10T15:01:04Z</time>
      </trkpt>
      <trkpt lat="45.32283" lon="5.37238">
        <ele>495</ele>
        <time>2022-05-10T15:01:05Z</time>
      </trkpt>
      <trkpt lat="45.32276" lon="5.37235">
        <ele>495</ele>
        <time>2022-05-10T15:01:06Z</time>
      </trkpt>
      <trkpt lat="45.32259" lon="5.37225">
        <ele>494.39999389648</ele>
        <time>2022-05-10T15:01:10Z</time>
      </trkpt>
      <trkpt lat="45.32255" lon="5.37222">
        <ele>494.39999389648</ele>
        <time>2022-05-10T15:01:11Z</time>
      </trkpt>
      <trkpt lat="45.32246" lon="5.37218">
        <ele>494</ele>
        <time>2022-05-10T15:01:13Z</time>
      </trkpt>
      <trkpt lat="45.32242" lon="5.37216">
        <ele>494</ele>
        <time>2022-05-10T15:01:14Z</time>
      </trkpt>
      <trkpt lat="45.32239" lon="5.37214">
        <ele>493.79998779297</ele>
        <time>2022-05-10T15:01:15Z</time>
      </trkpt>
      <trkpt lat="45.32237" lon="5.3721">
        <ele>493.79998779297</ele>
        <time>2022-05-10T15:01:16Z</time>
      </trkpt>
      <trkpt lat="45.32233" lon="5.37201">
        <ele>493.79998779297</ele>
        <time>2022-05-10T15:01:18Z</time>
      </trkpt>
      <trkpt lat="45.32233" lon="5.37197">
        <ele>493.79998779297</ele>
        <time>2022-05-10T15:01:19Z</time>
      </trkpt>
      <trkpt lat="45.32235" lon="5.37184">
        <ele>494</ele>
        <time>2022-05-10T15:01:21Z</time>
      </trkpt>
      <trkpt lat="45.32239" lon="5.37166">
        <ele>494.20001220703</ele>
        <time>2022-05-10T15:01:23Z</time>
      </trkpt>
      <trkpt lat="45.32243" lon="5.37149">
        <ele>494.60000610352</ele>
        <time>2022-05-10T15:01:25Z</time>
      </trkpt>
      <trkpt lat="45.32248" lon="5.37121">
        <ele>495.20001220703</ele>
        <time>2022-05-10T15:01:28Z</time>
      </trkpt>
      <trkpt lat="45.32251" lon="5.37103">
        <ele>495.20001220703</ele>
        <time>2022-05-10T15:01:30Z</time>
      </trkpt>
      <trkpt lat="45.32256" lon="5.37078">
        <ele>495.39999389648</ele>
        <time>2022-05-10T15:01:33Z</time>
      </trkpt>
      <trkpt lat="45.32257" lon="5.37063">
        <ele>494.79998779297</ele>
        <time>2022-05-10T15:01:35Z</time>
      </trkpt>
      <trkpt lat="45.32259" lon="5.37055">
        <ele>494.79998779297</ele>
        <time>2022-05-10T15:01:36Z</time>
      </trkpt>
      <trkpt lat="45.32257" lon="5.37033">
        <ele>494.60000610352</ele>
        <time>2022-05-10T15:01:38Z</time>
      </trkpt>
      <trkpt lat="45.32256" lon="5.37025">
        <ele>494.60000610352</ele>
        <time>2022-05-10T15:01:39Z</time>
      </trkpt>
      <trkpt lat="45.32253" lon="5.3701">
        <ele>494.39999389648</ele>
        <time>2022-05-10T15:01:40Z</time>
      </trkpt>
      <trkpt lat="45.32251" lon="5.36999">
        <ele>494.20001220703</ele>
        <time>2022-05-10T15:01:41Z</time>
      </trkpt>
      <trkpt lat="45.32251" lon="5.36988">
        <ele>494</ele>
        <time>2022-05-10T15:01:42Z</time>
      </trkpt>
      <trkpt lat="45.32258" lon="5.36994">
        <ele>493.39999389648</ele>
        <time>2022-05-10T15:01:44Z</time>
      </trkpt>
      <trkpt lat="45.32269" lon="5.37">
        <ele>493.20001220703</ele>
        <time>2022-05-10T15:01:46Z</time>
      </trkpt>
      <trkpt lat="45.32269" lon="5.36995">
        <ele>493.20001220703</ele>
        <time>2022-05-10T15:01:48Z</time>
      </trkpt>
      <trkpt lat="45.32271" lon="5.36964">
        <ele>492.79998779297</ele>
        <time>2022-05-10T15:01:53Z</time>
      </trkpt>
      <trkpt lat="45.32274" lon="5.36932">
        <ele>493</ele>
        <time>2022-05-10T15:01:57Z</time>
      </trkpt>
      <trkpt lat="45.32278" lon="5.36917">
        <ele>493.20001220703</ele>
        <time>2022-05-10T15:01:59Z</time>
      </trkpt>
      <trkpt lat="45.32284" lon="5.36892">
        <ele>493.60000610352</ele>
        <time>2022-05-10T15:02:02Z</time>
      </trkpt>
      <trkpt lat="45.32288" lon="5.36878">
        <ele>493.39999389648</ele>
        <time>2022-05-10T15:02:04Z</time>
      </trkpt>
      <trkpt lat="45.32286" lon="5.36862">
        <ele>493.20001220703</ele>
        <time>2022-05-10T15:02:06Z</time>
      </trkpt>
      <trkpt lat="45.32287" lon="5.36827">
        <ele>492.60000610352</ele>
        <time>2022-05-10T15:02:11Z</time>
      </trkpt>
      <trkpt lat="45.3229" lon="5.3681">
        <ele>492.20001220703</ele>
        <time>2022-05-10T15:02:14Z</time>
      </trkpt>
      <trkpt lat="45.32291" lon="5.36804">
        <ele>491.79998779297</ele>
        <time>2022-05-10T15:02:15Z</time>
      </trkpt>
      <trkpt lat="45.32291" lon="5.36795">
        <ele>491.60000610352</ele>
        <time>2022-05-10T15:02:16Z</time>
      </trkpt>
      <trkpt lat="45.32292" lon="5.36787">
        <ele>491.20001220703</ele>
        <time>2022-05-10T15:02:17Z</time>
      </trkpt>
      <trkpt lat="45.32292" lon="5.3678">
        <ele>491</ele>
        <time>2022-05-10T15:02:18Z</time>
      </trkpt>
      <trkpt lat="45.32292" lon="5.3675">
        <ele>490</ele>
        <time>2022-05-10T15:02:22Z</time>
      </trkpt>
      <trkpt lat="45.32289" lon="5.36734">
        <ele>489</ele>
        <time>2022-05-10T15:02:24Z</time>
      </trkpt>
      <trkpt lat="45.32287" lon="5.36727">
        <ele>488.60000610352</ele>
        <time>2022-05-10T15:02:25Z</time>
      </trkpt>
      <trkpt lat="45.32286" lon="5.36721">
        <ele>488.39999389648</ele>
        <time>2022-05-10T15:02:26Z</time>
      </trkpt>
      <trkpt lat="45.3228" lon="5.36704">
        <ele>487.60000610352</ele>
        <time>2022-05-10T15:02:29Z</time>
      </trkpt>
      <trkpt lat="45.32278" lon="5.36699">
        <ele>487.39999389648</ele>
        <time>2022-05-10T15:02:30Z</time>
      </trkpt>
      <trkpt lat="45.32274" lon="5.36686">
        <ele>486.20001220703</ele>
        <time>2022-05-10T15:02:32Z</time>
      </trkpt>
      <trkpt lat="45.32267" lon="5.36674">
        <ele>484.60000610352</ele>
        <time>2022-05-10T15:02:34Z</time>
      </trkpt>
      <trkpt lat="45.32263" lon="5.36664">
        <ele>484.20001220703</ele>
        <time>2022-05-10T15:02:35Z</time>
      </trkpt>
      <trkpt lat="45.32258" lon="5.36654">
        <ele>483.60000610352</ele>
        <time>2022-05-10T15:02:36Z</time>
      </trkpt>
      <trkpt lat="45.32253" lon="5.36644">
        <ele>482.39999389648</ele>
        <time>2022-05-10T15:02:37Z</time>
      </trkpt>
      <trkpt lat="45.32248" lon="5.36636">
        <ele>480.60000610352</ele>
        <time>2022-05-10T15:02:38Z</time>
      </trkpt>
      <trkpt lat="45.32236" lon="5.36622">
        <ele>479.39999389648</ele>
        <time>2022-05-10T15:02:40Z</time>
      </trkpt>
      <trkpt lat="45.32222" lon="5.36605">
        <ele>478.79998779297</ele>
        <time>2022-05-10T15:02:43Z</time>
      </trkpt>
      <trkpt lat="45.32218" lon="5.36599">
        <ele>478.79998779297</ele>
        <time>2022-05-10T15:02:44Z</time>
      </trkpt>
      <trkpt lat="45.32212" lon="5.36583">
        <ele>478.39999389648</ele>
        <time>2022-05-10T15:02:46Z</time>
      </trkpt>
      <trkpt lat="45.3221" lon="5.36575">
        <ele>478.20001220703</ele>
        <time>2022-05-10T15:02:47Z</time>
      </trkpt>
      <trkpt lat="45.3219" lon="5.3651">
        <ele>478.39999389648</ele>
        <time>2022-05-10T15:02:55Z</time>
      </trkpt>
      <trkpt lat="45.32184" lon="5.3645">
        <ele>479.20001220703</ele>
        <time>2022-05-10T15:03:02Z</time>
      </trkpt>
      <trkpt lat="45.32184" lon="5.36441">
        <ele>479.60000610352</ele>
        <time>2022-05-10T15:03:03Z</time>
      </trkpt>
      <trkpt lat="45.32186" lon="5.36403">
        <ele>480.60000610352</ele>
        <time>2022-05-10T15:03:08Z</time>
      </trkpt>
      <trkpt lat="45.32187" lon="5.36347">
        <ele>481.60000610352</ele>
        <time>2022-05-10T15:03:15Z</time>
      </trkpt>
      <trkpt lat="45.32188" lon="5.36332">
        <ele>482</ele>
        <time>2022-05-10T15:03:17Z</time>
      </trkpt>
      <trkpt lat="45.32191" lon="5.36301">
        <ele>482.79998779297</ele>
        <time>2022-05-10T15:03:21Z</time>
      </trkpt>
      <trkpt lat="45.32195" lon="5.36279">
        <ele>483.20001220703</ele>
        <time>2022-05-10T15:03:24Z</time>
      </trkpt>
      <trkpt lat="45.32212" lon="5.36216">
        <ele>483.79998779297</ele>
        <time>2022-05-10T15:03:32Z</time>
      </trkpt>
      <trkpt lat="45.32217" lon="5.36201">
        <ele>484</ele>
        <time>2022-05-10T15:03:34Z</time>
      </trkpt>
      <trkpt lat="45.32226" lon="5.36169">
        <ele>484</ele>
        <time>2022-05-10T15:03:38Z</time>
      </trkpt>
      <trkpt lat="45.32229" lon="5.36161">
        <ele>484</ele>
        <time>2022-05-10T15:03:39Z</time>
      </trkpt>
      <trkpt lat="45.32231" lon="5.36154">
        <ele>484</ele>
        <time>2022-05-10T15:03:40Z</time>
      </trkpt>
      <trkpt lat="45.32236" lon="5.36121">
        <ele>483.79998779297</ele>
        <time>2022-05-10T15:03:44Z</time>
      </trkpt>
      <trkpt lat="45.32242" lon="5.3607">
        <ele>483.39999389648</ele>
        <time>2022-05-10T15:03:50Z</time>
      </trkpt>
      <trkpt lat="45.32242" lon="5.36034">
        <ele>483.39999389648</ele>
        <time>2022-05-10T15:03:54Z</time>
      </trkpt>
      <trkpt lat="45.3224" lon="5.35994">
        <ele>482.79998779297</ele>
        <time>2022-05-10T15:03:58Z</time>
      </trkpt>
      <trkpt lat="45.32239" lon="5.35926">
        <ele>482.20001220703</ele>
        <time>2022-05-10T15:04:05Z</time>
      </trkpt>
      <trkpt lat="45.3224" lon="5.35897">
        <ele>481.79998779297</ele>
        <time>2022-05-10T15:04:08Z</time>
      </trkpt>
      <trkpt lat="45.32241" lon="5.35888">
        <ele>481.60000610352</ele>
        <time>2022-05-10T15:04:09Z</time>
      </trkpt>
      <trkpt lat="45.32243" lon="5.35878">
        <ele>481.20001220703</ele>
        <time>2022-05-10T15:04:11Z</time>
      </trkpt>
      <trkpt lat="45.32243" lon="5.35873">
        <ele>480.60000610352</ele>
        <time>2022-05-10T15:04:13Z</time>
      </trkpt>
      <trkpt lat="45.32244" lon="5.35863">
        <ele>479.79998779297</ele>
        <time>2022-05-10T15:04:15Z</time>
      </trkpt>
      <trkpt lat="45.32245" lon="5.35855">
        <ele>479.39999389648</ele>
        <time>2022-05-10T15:04:16Z</time>
      </trkpt>
      <trkpt lat="45.32247" lon="5.35848">
        <ele>479.39999389648</ele>
        <time>2022-05-10T15:04:17Z</time>
      </trkpt>
      <trkpt lat="45.3225" lon="5.35832">
        <ele>479</ele>
        <time>2022-05-10T15:04:19Z</time>
      </trkpt>
      <trkpt lat="45.32254" lon="5.3579">
        <ele>478.79998779297</ele>
        <time>2022-05-10T15:04:24Z</time>
      </trkpt>
      <trkpt lat="45.32254" lon="5.35781">
        <ele>478.79998779297</ele>
        <time>2022-05-10T15:04:25Z</time>
      </trkpt>
      <trkpt lat="45.32253" lon="5.35755">
        <ele>478.39999389648</ele>
        <time>2022-05-10T15:04:28Z</time>
      </trkpt>
      <trkpt lat="45.32252" lon="5.35746">
        <ele>478.39999389648</ele>
        <time>2022-05-10T15:04:29Z</time>
      </trkpt>
      <trkpt lat="45.3225" lon="5.3572">
        <ele>478</ele>
        <time>2022-05-10T15:04:32Z</time>
      </trkpt>
      <trkpt lat="45.32246" lon="5.35674">
        <ele>477.39999389648</ele>
        <time>2022-05-10T15:04:37Z</time>
      </trkpt>
      <trkpt lat="45.32244" lon="5.35647">
        <ele>477.20001220703</ele>
        <time>2022-05-10T15:04:40Z</time>
      </trkpt>
      <trkpt lat="45.32242" lon="5.3562">
        <ele>477</ele>
        <time>2022-05-10T15:04:43Z</time>
      </trkpt>
      <trkpt lat="45.32241" lon="5.35604">
        <ele>476.79998779297</ele>
        <time>2022-05-10T15:04:45Z</time>
      </trkpt>
      <trkpt lat="45.3224" lon="5.35587">
        <ele>476.60000610352</ele>
        <time>2022-05-10T15:04:47Z</time>
      </trkpt>
      <trkpt lat="45.3224" lon="5.3557">
        <ele>476.39999389648</ele>
        <time>2022-05-10T15:04:49Z</time>
      </trkpt>
      <trkpt lat="45.32238" lon="5.35553">
        <ele>476.20001220703</ele>
        <time>2022-05-10T15:04:51Z</time>
      </trkpt>
      <trkpt lat="45.32233" lon="5.35528">
        <ele>475.79998779297</ele>
        <time>2022-05-10T15:04:54Z</time>
      </trkpt>
      <trkpt lat="45.32231" lon="5.35519">
        <ele>475.60000610352</ele>
        <time>2022-05-10T15:04:55Z</time>
      </trkpt>
      <trkpt lat="45.3223" lon="5.3551">
        <ele>475.39999389648</ele>
        <time>2022-05-10T15:04:56Z</time>
      </trkpt>
      <trkpt lat="45.32227" lon="5.35501">
        <ele>475.20001220703</ele>
        <time>2022-05-10T15:04:57Z</time>
      </trkpt>
      <trkpt lat="45.32217" lon="5.35487">
        <ele>475</ele>
        <time>2022-05-10T15:04:59Z</time>
      </trkpt>
      <trkpt lat="45.32212" lon="5.35481">
        <ele>474.79998779297</ele>
        <time>2022-05-10T15:05:00Z</time>
      </trkpt>
      <trkpt lat="45.32203" lon="5.35464">
        <ele>474.39999389648</ele>
        <time>2022-05-10T15:05:02Z</time>
      </trkpt>
      <trkpt lat="45.32199" lon="5.35455">
        <ele>474.20001220703</ele>
        <time>2022-05-10T15:05:03Z</time>
      </trkpt>
      <trkpt lat="45.32196" lon="5.35435">
        <ele>473.20001220703</ele>
        <time>2022-05-10T15:05:05Z</time>
      </trkpt>
      <trkpt lat="45.32196" lon="5.35425">
        <ele>472.79998779297</ele>
        <time>2022-05-10T15:05:06Z</time>
      </trkpt>
      <trkpt lat="45.32199" lon="5.35413">
        <ele>472.60000610352</ele>
        <time>2022-05-10T15:05:07Z</time>
      </trkpt>
      <trkpt lat="45.32203" lon="5.35404">
        <ele>472.20001220703</ele>
        <time>2022-05-10T15:05:08Z</time>
      </trkpt>
      <trkpt lat="45.32207" lon="5.35395">
        <ele>472</ele>
        <time>2022-05-10T15:05:09Z</time>
      </trkpt>
      <trkpt lat="45.32216" lon="5.35378">
        <ele>471</ele>
        <time>2022-05-10T15:05:11Z</time>
      </trkpt>
      <trkpt lat="45.32229" lon="5.35362">
        <ele>469.79998779297</ele>
        <time>2022-05-10T15:05:13Z</time>
      </trkpt>
      <trkpt lat="45.32251" lon="5.35324">
        <ele>468.79998779297</ele>
        <time>2022-05-10T15:05:17Z</time>
      </trkpt>
      <trkpt lat="45.32254" lon="5.35313">
        <ele>468.60000610352</ele>
        <time>2022-05-10T15:05:18Z</time>
      </trkpt>
      <trkpt lat="45.32256" lon="5.35298">
        <ele>468.39999389648</ele>
        <time>2022-05-10T15:05:19Z</time>
      </trkpt>
      <trkpt lat="45.32255" lon="5.35272">
        <ele>468</ele>
        <time>2022-05-10T15:05:21Z</time>
      </trkpt>
      <trkpt lat="45.32251" lon="5.35263">
        <ele>467.79998779297</ele>
        <time>2022-05-10T15:05:22Z</time>
      </trkpt>
      <trkpt lat="45.32243" lon="5.35251">
        <ele>467.60000610352</ele>
        <time>2022-05-10T15:05:23Z</time>
      </trkpt>
      <trkpt lat="45.32228" lon="5.3523">
        <ele>466.39999389648</ele>
        <time>2022-05-10T15:05:26Z</time>
      </trkpt>
      <trkpt lat="45.32221" lon="5.35216">
        <ele>466</ele>
        <time>2022-05-10T15:05:28Z</time>
      </trkpt>
      <trkpt lat="45.32198" lon="5.35166">
        <ele>466.39999389648</ele>
        <time>2022-05-10T15:05:35Z</time>
      </trkpt>
      <trkpt lat="45.3219" lon="5.35143">
        <ele>466.79998779297</ele>
        <time>2022-05-10T15:05:38Z</time>
      </trkpt>
      <trkpt lat="45.32183" lon="5.35106">
        <ele>467.20001220703</ele>
        <time>2022-05-10T15:05:42Z</time>
      </trkpt>
      <trkpt lat="45.32178" lon="5.35063">
        <ele>467.39999389648</ele>
        <time>2022-05-10T15:05:47Z</time>
      </trkpt>
      <trkpt lat="45.32175" lon="5.35035">
        <ele>467.39999389648</ele>
        <time>2022-05-10T15:05:50Z</time>
      </trkpt>
      <trkpt lat="45.32176" lon="5.34971">
        <ele>467.20001220703</ele>
        <time>2022-05-10T15:05:57Z</time>
      </trkpt>
      <trkpt lat="45.32178" lon="5.34944">
        <ele>467.20001220703</ele>
        <time>2022-05-10T15:06:00Z</time>
      </trkpt>
      <trkpt lat="45.32181" lon="5.34898">
        <ele>466.79998779297</ele>
        <time>2022-05-10T15:06:05Z</time>
      </trkpt>
      <trkpt lat="45.32182" lon="5.34879">
        <ele>466.20001220703</ele>
        <time>2022-05-10T15:06:07Z</time>
      </trkpt>
      <trkpt lat="45.32187" lon="5.34823">
        <ele>465.60000610352</ele>
        <time>2022-05-10T15:06:13Z</time>
      </trkpt>
      <trkpt lat="45.32189" lon="5.34813">
        <ele>465</ele>
        <time>2022-05-10T15:06:14Z</time>
      </trkpt>
      <trkpt lat="45.32201" lon="5.34749">
        <ele>464</ele>
        <time>2022-05-10T15:06:21Z</time>
      </trkpt>
      <trkpt lat="45.32204" lon="5.34731">
        <ele>463.79998779297</ele>
        <time>2022-05-10T15:06:23Z</time>
      </trkpt>
      <trkpt lat="45.32218" lon="5.34686">
        <ele>463</ele>
        <time>2022-05-10T15:06:28Z</time>
      </trkpt>
      <trkpt lat="45.32223" lon="5.34675">
        <ele>462.79998779297</ele>
        <time>2022-05-10T15:06:29Z</time>
      </trkpt>
      <trkpt lat="45.32246" lon="5.34628">
        <ele>461.60000610352</ele>
        <time>2022-05-10T15:06:34Z</time>
      </trkpt>
      <trkpt lat="45.32251" lon="5.34619">
        <ele>461.20001220703</ele>
        <time>2022-05-10T15:06:35Z</time>
      </trkpt>
      <trkpt lat="45.32269" lon="5.34584">
        <ele>460.60000610352</ele>
        <time>2022-05-10T15:06:39Z</time>
      </trkpt>
      <trkpt lat="45.3228" lon="5.34561">
        <ele>460</ele>
        <time>2022-05-10T15:06:42Z</time>
      </trkpt>
      <trkpt lat="45.32287" lon="5.34546">
        <ele>459.60000610352</ele>
        <time>2022-05-10T15:06:44Z</time>
      </trkpt>
      <trkpt lat="45.32299" lon="5.34508">
        <ele>459</ele>
        <time>2022-05-10T15:06:49Z</time>
      </trkpt>
      <trkpt lat="45.32304" lon="5.34489">
        <ele>458.79998779297</ele>
        <time>2022-05-10T15:06:51Z</time>
      </trkpt>
      <trkpt lat="45.32307" lon="5.34472">
        <ele>458.20001220703</ele>
        <time>2022-05-10T15:06:53Z</time>
      </trkpt>
      <trkpt lat="45.3231" lon="5.34462">
        <ele>458</ele>
        <time>2022-05-10T15:06:54Z</time>
      </trkpt>
      <trkpt lat="45.32316" lon="5.34433">
        <ele>456.39999389648</ele>
        <time>2022-05-10T15:06:57Z</time>
      </trkpt>
      <trkpt lat="45.3232" lon="5.34412">
        <ele>455.79998779297</ele>
        <time>2022-05-10T15:06:59Z</time>
      </trkpt>
      <trkpt lat="45.32321" lon="5.344">
        <ele>455.20001220703</ele>
        <time>2022-05-10T15:07:00Z</time>
      </trkpt>
      <trkpt lat="45.32322" lon="5.34386">
        <ele>454.79998779297</ele>
        <time>2022-05-10T15:07:01Z</time>
      </trkpt>
      <trkpt lat="45.32325" lon="5.34372">
        <ele>454.20001220703</ele>
        <time>2022-05-10T15:07:02Z</time>
      </trkpt>
      <trkpt lat="45.32327" lon="5.34359">
        <ele>454</ele>
        <time>2022-05-10T15:07:03Z</time>
      </trkpt>
      <trkpt lat="45.32335" lon="5.34334">
        <ele>452.79998779297</ele>
        <time>2022-05-10T15:07:05Z</time>
      </trkpt>
      <trkpt lat="45.3234" lon="5.34321">
        <ele>452.20001220703</ele>
        <time>2022-05-10T15:07:06Z</time>
      </trkpt>
      <trkpt lat="45.32346" lon="5.3431">
        <ele>451.60000610352</ele>
        <time>2022-05-10T15:07:07Z</time>
      </trkpt>
      <trkpt lat="45.32355" lon="5.3429">
        <ele>450.79998779297</ele>
        <time>2022-05-10T15:07:09Z</time>
      </trkpt>
      <trkpt lat="45.32358" lon="5.34281">
        <ele>450.60000610352</ele>
        <time>2022-05-10T15:07:10Z</time>
      </trkpt>
      <trkpt lat="45.3236" lon="5.34274">
        <ele>450.60000610352</ele>
        <time>2022-05-10T15:07:11Z</time>
      </trkpt>
      <trkpt lat="45.3237" lon="5.34245">
        <ele>450.39999389648</ele>
        <time>2022-05-10T15:07:15Z</time>
      </trkpt>
      <trkpt lat="45.32384" lon="5.342">
        <ele>452</ele>
        <time>2022-05-10T15:07:21Z</time>
      </trkpt>
      <trkpt lat="45.32386" lon="5.34192">
        <ele>452.20001220703</ele>
        <time>2022-05-10T15:07:22Z</time>
      </trkpt>
      <trkpt lat="45.32388" lon="5.34184">
        <ele>452.60000610352</ele>
        <time>2022-05-10T15:07:23Z</time>
      </trkpt>
      <trkpt lat="45.32388" lon="5.34176">
        <ele>453</ele>
        <time>2022-05-10T15:07:24Z</time>
      </trkpt>
      <trkpt lat="45.32388" lon="5.3416">
        <ele>454.20001220703</ele>
        <time>2022-05-10T15:07:26Z</time>
      </trkpt>
      <trkpt lat="45.32387" lon="5.34143">
        <ele>455.20001220703</ele>
        <time>2022-05-10T15:07:28Z</time>
      </trkpt>
      <trkpt lat="45.32384" lon="5.34127">
        <ele>456.39999389648</ele>
        <time>2022-05-10T15:07:30Z</time>
      </trkpt>
      <trkpt lat="45.32381" lon="5.3411">
        <ele>457</ele>
        <time>2022-05-10T15:07:32Z</time>
      </trkpt>
      <trkpt lat="45.3238" lon="5.34102">
        <ele>457.79998779297</ele>
        <time>2022-05-10T15:07:33Z</time>
      </trkpt>
      <trkpt lat="45.32374" lon="5.34077">
        <ele>458.79998779297</ele>
        <time>2022-05-10T15:07:36Z</time>
      </trkpt>
      <trkpt lat="45.32372" lon="5.34061">
        <ele>459.39999389648</ele>
        <time>2022-05-10T15:07:38Z</time>
      </trkpt>
      <trkpt lat="45.32371" lon="5.34053">
        <ele>459.79998779297</ele>
        <time>2022-05-10T15:07:39Z</time>
      </trkpt>
      <trkpt lat="45.32364" lon="5.34023">
        <ele>461.20001220703</ele>
        <time>2022-05-10T15:07:43Z</time>
      </trkpt>
      <trkpt lat="45.32363" lon="5.34016">
        <ele>461.20001220703</ele>
        <time>2022-05-10T15:07:44Z</time>
      </trkpt>
      <trkpt lat="45.32359" lon="5.34001">
        <ele>461.60000610352</ele>
        <time>2022-05-10T15:07:46Z</time>
      </trkpt>
      <trkpt lat="45.32353" lon="5.33968">
        <ele>462</ele>
        <time>2022-05-10T15:07:51Z</time>
      </trkpt>
      <trkpt lat="45.32352" lon="5.33962">
        <ele>462</ele>
        <time>2022-05-10T15:07:52Z</time>
      </trkpt>
      <trkpt lat="45.32353" lon="5.33951">
        <ele>462</ele>
        <time>2022-05-10T15:07:54Z</time>
      </trkpt>
      <trkpt lat="45.32354" lon="5.33946">
        <ele>462</ele>
        <time>2022-05-10T15:07:55Z</time>
      </trkpt>
      <trkpt lat="45.32353" lon="5.33939">
        <ele>461.60000610352</ele>
        <time>2022-05-10T15:07:58Z</time>
      </trkpt>
      <trkpt lat="45.32345" lon="5.33934">
        <ele>461.60000610352</ele>
        <time>2022-05-10T15:08:00Z</time>
      </trkpt>
      <trkpt lat="45.3234" lon="5.33932">
        <ele>461.60000610352</ele>
        <time>2022-05-10T15:08:01Z</time>
      </trkpt>
      <trkpt lat="45.32315" lon="5.33927">
        <ele>461.60000610352</ele>
        <time>2022-05-10T15:08:05Z</time>
      </trkpt>
      <trkpt lat="45.32308" lon="5.33926">
        <ele>461.79998779297</ele>
        <time>2022-05-10T15:08:06Z</time>
      </trkpt>
      <trkpt lat="45.32296" lon="5.33927">
        <ele>462.60000610352</ele>
        <time>2022-05-10T15:08:08Z</time>
      </trkpt>
      <trkpt lat="45.32277" lon="5.33928">
        <ele>463</ele>
        <time>2022-05-10T15:08:11Z</time>
      </trkpt>
      <trkpt lat="45.32253" lon="5.3393">
        <ele>463.60000610352</ele>
        <time>2022-05-10T15:08:15Z</time>
      </trkpt>
      <trkpt lat="45.32235" lon="5.33933">
        <ele>463.79998779297</ele>
        <time>2022-05-10T15:08:18Z</time>
      </trkpt>
      <trkpt lat="45.32206" lon="5.33937">
        <ele>464.20001220703</ele>
        <time>2022-05-10T15:08:23Z</time>
      </trkpt>
      <trkpt lat="45.32187" lon="5.33943">
        <ele>464.39999389648</ele>
        <time>2022-05-10T15:08:26Z</time>
      </trkpt>
      <trkpt lat="45.32175" lon="5.33947">
        <ele>464.60000610352</ele>
        <time>2022-05-10T15:08:28Z</time>
      </trkpt>
      <trkpt lat="45.32153" lon="5.33953">
        <ele>465.20001220703</ele>
        <time>2022-05-10T15:08:32Z</time>
      </trkpt>
      <trkpt lat="45.3214" lon="5.33955">
        <ele>465.60000610352</ele>
        <time>2022-05-10T15:08:34Z</time>
      </trkpt>
      <trkpt lat="45.32135" lon="5.33955">
        <ele>465.60000610352</ele>
        <time>2022-05-10T15:08:35Z</time>
      </trkpt>
      <trkpt lat="45.3211" lon="5.33956">
        <ele>466.39999389648</ele>
        <time>2022-05-10T15:08:39Z</time>
      </trkpt>
      <trkpt lat="45.3208" lon="5.33954">
        <ele>467</ele>
        <time>2022-05-10T15:08:44Z</time>
      </trkpt>
      <trkpt lat="45.3205" lon="5.33949">
        <ele>467.39999389648</ele>
        <time>2022-05-10T15:08:49Z</time>
      </trkpt>
      <trkpt lat="45.32034" lon="5.33943">
        <ele>467.60000610352</ele>
        <time>2022-05-10T15:08:52Z</time>
      </trkpt>
      <trkpt lat="45.32016" lon="5.33934">
        <ele>467.79998779297</ele>
        <time>2022-05-10T15:08:55Z</time>
      </trkpt>
      <trkpt lat="45.31995" lon="5.33926">
        <ele>468</ele>
        <time>2022-05-10T15:08:58Z</time>
      </trkpt>
      <trkpt lat="45.3199" lon="5.33923">
        <ele>468.20001220703</ele>
        <time>2022-05-10T15:08:59Z</time>
      </trkpt>
      <trkpt lat="45.31985" lon="5.33919">
        <ele>468.20001220703</ele>
        <time>2022-05-10T15:09:00Z</time>
      </trkpt>
      <trkpt lat="45.31953" lon="5.33894">
        <ele>469</ele>
        <time>2022-05-10T15:09:06Z</time>
      </trkpt>
      <trkpt lat="45.31949" lon="5.33889">
        <ele>469</ele>
        <time>2022-05-10T15:09:07Z</time>
      </trkpt>
      <trkpt lat="45.31944" lon="5.33884">
        <ele>469.20001220703</ele>
        <time>2022-05-10T15:09:08Z</time>
      </trkpt>
      <trkpt lat="45.31911" lon="5.33849">
        <ele>469.79998779297</ele>
        <time>2022-05-10T15:09:15Z</time>
      </trkpt>
      <trkpt lat="45.31884" lon="5.33824">
        <ele>470.20001220703</ele>
        <time>2022-05-10T15:09:20Z</time>
      </trkpt>
      <trkpt lat="45.31864" lon="5.33807">
        <ele>470.60000610352</ele>
        <time>2022-05-10T15:09:24Z</time>
      </trkpt>
      <trkpt lat="45.31838" lon="5.33786">
        <ele>471.20001220703</ele>
        <time>2022-05-10T15:09:29Z</time>
      </trkpt>
      <trkpt lat="45.31828" lon="5.33779">
        <ele>471.60000610352</ele>
        <time>2022-05-10T15:09:31Z</time>
      </trkpt>
      <trkpt lat="45.31795" lon="5.33757">
        <ele>472.60000610352</ele>
        <time>2022-05-10T15:09:37Z</time>
      </trkpt>
      <trkpt lat="45.31785" lon="5.33748">
        <ele>472.79998779297</ele>
        <time>2022-05-10T15:09:39Z</time>
      </trkpt>
      <trkpt lat="45.31775" lon="5.3374">
        <ele>473</ele>
        <time>2022-05-10T15:09:41Z</time>
      </trkpt>
      <trkpt lat="45.31754" lon="5.33723">
        <ele>473.60000610352</ele>
        <time>2022-05-10T15:09:45Z</time>
      </trkpt>
      <trkpt lat="45.31748" lon="5.33719">
        <ele>473.79998779297</ele>
        <time>2022-05-10T15:09:46Z</time>
      </trkpt>
      <trkpt lat="45.31731" lon="5.33708">
        <ele>474</ele>
        <time>2022-05-10T15:09:49Z</time>
      </trkpt>
      <trkpt lat="45.31719" lon="5.337">
        <ele>474</ele>
        <time>2022-05-10T15:09:51Z</time>
      </trkpt>
      <trkpt lat="45.31697" lon="5.33687">
        <ele>475</ele>
        <time>2022-05-10T15:09:55Z</time>
      </trkpt>
      <trkpt lat="45.31687" lon="5.33679">
        <ele>475</ele>
        <time>2022-05-10T15:09:57Z</time>
      </trkpt>
      <trkpt lat="45.31675" lon="5.3367">
        <ele>475.20001220703</ele>
        <time>2022-05-10T15:09:59Z</time>
      </trkpt>
      <trkpt lat="45.31652" lon="5.33655">
        <ele>475.60000610352</ele>
        <time>2022-05-10T15:10:03Z</time>
      </trkpt>
      <trkpt lat="45.31635" lon="5.33648">
        <ele>476</ele>
        <time>2022-05-10T15:10:06Z</time>
      </trkpt>
      <trkpt lat="45.31617" lon="5.33644">
        <ele>476.60000610352</ele>
        <time>2022-05-10T15:10:09Z</time>
      </trkpt>
      <trkpt lat="45.31591" lon="5.33638">
        <ele>477.20001220703</ele>
        <time>2022-05-10T15:10:13Z</time>
      </trkpt>
      <trkpt lat="45.31574" lon="5.33634">
        <ele>477.39999389648</ele>
        <time>2022-05-10T15:10:16Z</time>
      </trkpt>
      <trkpt lat="45.31543" lon="5.33631">
        <ele>477.79998779297</ele>
        <time>2022-05-10T15:10:21Z</time>
      </trkpt>
      <trkpt lat="45.31526" lon="5.3363">
        <ele>478</ele>
        <time>2022-05-10T15:10:24Z</time>
      </trkpt>
      <trkpt lat="45.31521" lon="5.3363">
        <ele>478.20001220703</ele>
        <time>2022-05-10T15:10:25Z</time>
      </trkpt>
      <trkpt lat="45.31489" lon="5.33625">
        <ele>479.39999389648</ele>
        <time>2022-05-10T15:10:31Z</time>
      </trkpt>
      <trkpt lat="45.31459" lon="5.33621">
        <ele>480</ele>
        <time>2022-05-10T15:10:37Z</time>
      </trkpt>
      <trkpt lat="45.31454" lon="5.3362">
        <ele>480</ele>
        <time>2022-05-10T15:10:38Z</time>
      </trkpt>
      <trkpt lat="45.31428" lon="5.33614">
        <ele>480.39999389648</ele>
        <time>2022-05-10T15:10:43Z</time>
      </trkpt>
      <trkpt lat="45.31418" lon="5.33613">
        <ele>480.60000610352</ele>
        <time>2022-05-10T15:10:45Z</time>
      </trkpt>
      <trkpt lat="45.31412" lon="5.33613">
        <ele>480.79998779297</ele>
        <time>2022-05-10T15:10:46Z</time>
      </trkpt>
      <trkpt lat="45.31397" lon="5.33609">
        <ele>481</ele>
        <time>2022-05-10T15:10:49Z</time>
      </trkpt>
      <trkpt lat="45.3137" lon="5.33604">
        <ele>481.20001220703</ele>
        <time>2022-05-10T15:10:54Z</time>
      </trkpt>
      <trkpt lat="45.31357" lon="5.33604">
        <ele>481.20001220703</ele>
        <time>2022-05-10T15:10:56Z</time>
      </trkpt>
      <trkpt lat="45.31324" lon="5.33602">
        <ele>481.79998779297</ele>
        <time>2022-05-10T15:11:02Z</time>
      </trkpt>
      <trkpt lat="45.31315" lon="5.33601">
        <ele>482</ele>
        <time>2022-05-10T15:11:04Z</time>
      </trkpt>
      <trkpt lat="45.31302" lon="5.33598">
        <ele>483.20001220703</ele>
        <time>2022-05-10T15:11:07Z</time>
      </trkpt>
      <trkpt lat="45.31297" lon="5.33597">
        <ele>483.39999389648</ele>
        <time>2022-05-10T15:11:08Z</time>
      </trkpt>
      <trkpt lat="45.31286" lon="5.33596">
        <ele>484.39999389648</ele>
        <time>2022-05-10T15:11:11Z</time>
      </trkpt>
      <trkpt lat="45.31281" lon="5.33595">
        <ele>485.60000610352</ele>
        <time>2022-05-10T15:11:13Z</time>
      </trkpt>
      <trkpt lat="45.31276" lon="5.33594">
        <ele>486</ele>
        <time>2022-05-10T15:11:15Z</time>
      </trkpt>
      <trkpt lat="45.31274" lon="5.33594">
        <ele>486.60000610352</ele>
        <time>2022-05-10T15:11:16Z</time>
      </trkpt>
      <trkpt lat="45.31264" lon="5.33595">
        <ele>488.20001220703</ele>
        <time>2022-05-10T15:11:19Z</time>
      </trkpt>
      <trkpt lat="45.31253" lon="5.33594">
        <ele>489.39999389648</ele>
        <time>2022-05-10T15:11:22Z</time>
      </trkpt>
      <trkpt lat="45.31243" lon="5.33596">
        <ele>490.39999389648</ele>
        <time>2022-05-10T15:11:24Z</time>
      </trkpt>
      <trkpt lat="45.31237" lon="5.33599">
        <ele>491.60000610352</ele>
        <time>2022-05-10T15:11:26Z</time>
      </trkpt>
      <trkpt lat="45.31228" lon="5.336">
        <ele>492.79998779297</ele>
        <time>2022-05-10T15:11:29Z</time>
      </trkpt>
      <trkpt lat="45.31221" lon="5.33604">
        <ele>494.20001220703</ele>
        <time>2022-05-10T15:11:32Z</time>
      </trkpt>
      <trkpt lat="45.31213" lon="5.33605">
        <ele>496.20001220703</ele>
        <time>2022-05-10T15:11:35Z</time>
      </trkpt>
      <trkpt lat="45.31204" lon="5.33607">
        <ele>497.39999389648</ele>
        <time>2022-05-10T15:11:38Z</time>
      </trkpt>
      <trkpt lat="45.31197" lon="5.33607">
        <ele>498.60000610352</ele>
        <time>2022-05-10T15:11:40Z</time>
      </trkpt>
      <trkpt lat="45.31188" lon="5.33608">
        <ele>500</ele>
        <time>2022-05-10T15:11:42Z</time>
      </trkpt>
      <trkpt lat="45.31181" lon="5.33607">
        <ele>501.60000610352</ele>
        <time>2022-05-10T15:11:44Z</time>
      </trkpt>
      <trkpt lat="45.31174" lon="5.33606">
        <ele>502.60000610352</ele>
        <time>2022-05-10T15:11:46Z</time>
      </trkpt>
      <trkpt lat="45.31166" lon="5.33606">
        <ele>503.60000610352</ele>
        <time>2022-05-10T15:11:48Z</time>
      </trkpt>
      <trkpt lat="45.3116" lon="5.33606">
        <ele>504.79998779297</ele>
        <time>2022-05-10T15:11:50Z</time>
      </trkpt>
      <trkpt lat="45.31151" lon="5.33605">
        <ele>506</ele>
        <time>2022-05-10T15:11:52Z</time>
      </trkpt>
      <trkpt lat="45.31142" lon="5.33603">
        <ele>507.39999389648</ele>
        <time>2022-05-10T15:11:54Z</time>
      </trkpt>
      <trkpt lat="45.31133" lon="5.33599">
        <ele>508.39999389648</ele>
        <time>2022-05-10T15:11:56Z</time>
      </trkpt>
      <trkpt lat="45.31127" lon="5.33595">
        <ele>510</ele>
        <time>2022-05-10T15:11:58Z</time>
      </trkpt>
      <trkpt lat="45.31121" lon="5.33591">
        <ele>511</ele>
        <time>2022-05-10T15:12:00Z</time>
      </trkpt>
      <trkpt lat="45.31116" lon="5.33587">
        <ele>512.20001220703</ele>
        <time>2022-05-10T15:12:02Z</time>
      </trkpt>
      <trkpt lat="45.31103" lon="5.33581">
        <ele>513.59997558594</ele>
        <time>2022-05-10T15:12:05Z</time>
      </trkpt>
      <trkpt lat="45.31096" lon="5.33575">
        <ele>514.79998779297</ele>
        <time>2022-05-10T15:12:07Z</time>
      </trkpt>
      <trkpt lat="45.31093" lon="5.33571">
        <ele>515.20001220703</ele>
        <time>2022-05-10T15:12:08Z</time>
      </trkpt>
      <trkpt lat="45.31092" lon="5.33568">
        <ele>515.79998779297</ele>
        <time>2022-05-10T15:12:09Z</time>
      </trkpt>
      <trkpt lat="45.31088" lon="5.33559">
        <ele>517.20001220703</ele>
        <time>2022-05-10T15:12:12Z</time>
      </trkpt>
      <trkpt lat="45.31075" lon="5.33546">
        <ele>518.59997558594</ele>
        <time>2022-05-10T15:12:15Z</time>
      </trkpt>
      <trkpt lat="45.31069" lon="5.33525">
        <ele>519.79998779297</ele>
        <time>2022-05-10T15:12:18Z</time>
      </trkpt>
      <trkpt lat="45.31066" lon="5.3352">
        <ele>520.20001220703</ele>
        <time>2022-05-10T15:12:19Z</time>
      </trkpt>
      <trkpt lat="45.31065" lon="5.33517">
        <ele>521.20001220703</ele>
        <time>2022-05-10T15:12:20Z</time>
      </trkpt>
      <trkpt lat="45.31059" lon="5.33512">
        <ele>522.40002441406</ele>
        <time>2022-05-10T15:12:22Z</time>
      </trkpt>
      <trkpt lat="45.31052" lon="5.33511">
        <ele>522.79998779297</ele>
        <time>2022-05-10T15:12:23Z</time>
      </trkpt>
      <trkpt lat="45.3104" lon="5.33508">
        <ele>523.59997558594</ele>
        <time>2022-05-10T15:12:25Z</time>
      </trkpt>
      <trkpt lat="45.31024" lon="5.33502">
        <ele>524.40002441406</ele>
        <time>2022-05-10T15:12:28Z</time>
      </trkpt>
      <trkpt lat="45.3102" lon="5.33502">
        <ele>524.79998779297</ele>
        <time>2022-05-10T15:12:29Z</time>
      </trkpt>
      <trkpt lat="45.30998" lon="5.33504">
        <ele>526.40002441406</ele>
        <time>2022-05-10T15:12:32Z</time>
      </trkpt>
      <trkpt lat="45.30991" lon="5.33506">
        <ele>526.79998779297</ele>
        <time>2022-05-10T15:12:33Z</time>
      </trkpt>
      <trkpt lat="45.30986" lon="5.33507">
        <ele>527.40002441406</ele>
        <time>2022-05-10T15:12:34Z</time>
      </trkpt>
      <trkpt lat="45.30972" lon="5.33509">
        <ele>528.79998779297</ele>
        <time>2022-05-10T15:12:37Z</time>
      </trkpt>
      <trkpt lat="45.3097" lon="5.33509">
        <ele>529.20001220703</ele>
        <time>2022-05-10T15:12:38Z</time>
      </trkpt>
      <trkpt lat="45.30965" lon="5.33507">
        <ele>530.20001220703</ele>
        <time>2022-05-10T15:12:40Z</time>
      </trkpt>
      <trkpt lat="45.30963" lon="5.33504">
        <ele>531</ele>
        <time>2022-05-10T15:12:41Z</time>
      </trkpt>
      <trkpt lat="45.30962" lon="5.335">
        <ele>531.20001220703</ele>
        <time>2022-05-10T15:12:42Z</time>
      </trkpt>
      <trkpt lat="45.3096" lon="5.33495">
        <ele>532</ele>
        <time>2022-05-10T15:12:43Z</time>
      </trkpt>
      <trkpt lat="45.30953" lon="5.33478">
        <ele>533.20001220703</ele>
        <time>2022-05-10T15:12:46Z</time>
      </trkpt>
      <trkpt lat="45.30944" lon="5.3347">
        <ele>534.40002441406</ele>
        <time>2022-05-10T15:12:48Z</time>
      </trkpt>
      <trkpt lat="45.30934" lon="5.33465">
        <ele>535.40002441406</ele>
        <time>2022-05-10T15:12:50Z</time>
      </trkpt>
      <trkpt lat="45.30931" lon="5.33464">
        <ele>535.79998779297</ele>
        <time>2022-05-10T15:12:51Z</time>
      </trkpt>
      <trkpt lat="45.30928" lon="5.33462">
        <ele>536.40002441406</ele>
        <time>2022-05-10T15:12:52Z</time>
      </trkpt>
      <trkpt lat="45.30924" lon="5.33458">
        <ele>537.59997558594</ele>
        <time>2022-05-10T15:12:54Z</time>
      </trkpt>
      <trkpt lat="45.30919" lon="5.33454">
        <ele>538.79998779297</ele>
        <time>2022-05-10T15:12:56Z</time>
      </trkpt>
      <trkpt lat="45.30917" lon="5.33452">
        <ele>539.59997558594</ele>
        <time>2022-05-10T15:12:57Z</time>
      </trkpt>
      <trkpt lat="45.30915" lon="5.33452">
        <ele>540</ele>
        <time>2022-05-10T15:12:58Z</time>
      </trkpt>
      <trkpt lat="45.30907" lon="5.3345">
        <ele>541.40002441406</ele>
        <time>2022-05-10T15:13:00Z</time>
      </trkpt>
      <trkpt lat="45.30895" lon="5.33445">
        <ele>542.79998779297</ele>
        <time>2022-05-10T15:13:03Z</time>
      </trkpt>
      <trkpt lat="45.30893" lon="5.33443">
        <ele>543.20001220703</ele>
        <time>2022-05-10T15:13:04Z</time>
      </trkpt>
      <trkpt lat="45.30889" lon="5.33439">
        <ele>544.40002441406</ele>
        <time>2022-05-10T15:13:06Z</time>
      </trkpt>
      <trkpt lat="45.30885" lon="5.33435">
        <ele>545.59997558594</ele>
        <time>2022-05-10T15:13:08Z</time>
      </trkpt>
      <trkpt lat="45.30882" lon="5.33432">
        <ele>545.79998779297</ele>
        <time>2022-05-10T15:13:09Z</time>
      </trkpt>
      <trkpt lat="45.30877" lon="5.33423">
        <ele>546.79998779297</ele>
        <time>2022-05-10T15:13:11Z</time>
      </trkpt>
      <trkpt lat="45.30873" lon="5.3342">
        <ele>547.59997558594</ele>
        <time>2022-05-10T15:13:12Z</time>
      </trkpt>
      <trkpt lat="45.3087" lon="5.33416">
        <ele>548.40002441406</ele>
        <time>2022-05-10T15:13:13Z</time>
      </trkpt>
      <trkpt lat="45.30859" lon="5.33412">
        <ele>549.79998779297</ele>
        <time>2022-05-10T15:13:15Z</time>
      </trkpt>
      <trkpt lat="45.30849" lon="5.33413">
        <ele>550.79998779297</ele>
        <time>2022-05-10T15:13:17Z</time>
      </trkpt>
      <trkpt lat="45.30833" lon="5.33418">
        <ele>552</ele>
        <time>2022-05-10T15:13:20Z</time>
      </trkpt>
      <trkpt lat="45.3083" lon="5.33418">
        <ele>552.40002441406</ele>
        <time>2022-05-10T15:13:21Z</time>
      </trkpt>
      <trkpt lat="45.30828" lon="5.33418">
        <ele>553</ele>
        <time>2022-05-10T15:13:22Z</time>
      </trkpt>
      <trkpt lat="45.30816" lon="5.33424">
        <ele>554.40002441406</ele>
        <time>2022-05-10T15:13:26Z</time>
      </trkpt>
      <trkpt lat="45.30814" lon="5.33425">
        <ele>554.59997558594</ele>
        <time>2022-05-10T15:13:27Z</time>
      </trkpt>
      <trkpt lat="45.30809" lon="5.33427">
        <ele>555.59997558594</ele>
        <time>2022-05-10T15:13:29Z</time>
      </trkpt>
      <trkpt lat="45.30799" lon="5.33427">
        <ele>556.20001220703</ele>
        <time>2022-05-10T15:13:32Z</time>
      </trkpt>
      <trkpt lat="45.30789" lon="5.33428">
        <ele>556.59997558594</ele>
        <time>2022-05-10T15:13:34Z</time>
      </trkpt>
      <trkpt lat="45.30772" lon="5.33424">
        <ele>557.59997558594</ele>
        <time>2022-05-10T15:13:38Z</time>
      </trkpt>
      <trkpt lat="45.30764" lon="5.33424">
        <ele>557.79998779297</ele>
        <time>2022-05-10T15:13:40Z</time>
      </trkpt>
      <trkpt lat="45.30751" lon="5.33422">
        <ele>557.79998779297</ele>
        <time>2022-05-10T15:13:42Z</time>
      </trkpt>
      <trkpt lat="45.30747" lon="5.33421">
        <ele>558</ele>
        <time>2022-05-10T15:13:43Z</time>
      </trkpt>
      <trkpt lat="45.30741" lon="5.33419">
        <ele>558</ele>
        <time>2022-05-10T15:13:44Z</time>
      </trkpt>
      <trkpt lat="45.30732" lon="5.33413">
        <ele>558.20001220703</ele>
        <time>2022-05-10T15:13:46Z</time>
      </trkpt>
      <trkpt lat="45.30724" lon="5.33403">
        <ele>558.20001220703</ele>
        <time>2022-05-10T15:13:48Z</time>
      </trkpt>
      <trkpt lat="45.30717" lon="5.33396">
        <ele>558.40002441406</ele>
        <time>2022-05-10T15:13:50Z</time>
      </trkpt>
      <trkpt lat="45.30708" lon="5.3339">
        <ele>558.79998779297</ele>
        <time>2022-05-10T15:13:53Z</time>
      </trkpt>
      <trkpt lat="45.30691" lon="5.33376">
        <ele>560.40002441406</ele>
        <time>2022-05-10T15:13:58Z</time>
      </trkpt>
      <trkpt lat="45.30679" lon="5.33358">
        <ele>561.79998779297</ele>
        <time>2022-05-10T15:14:02Z</time>
      </trkpt>
      <trkpt lat="45.30672" lon="5.33343">
        <ele>563.20001220703</ele>
        <time>2022-05-10T15:14:05Z</time>
      </trkpt>
      <trkpt lat="45.30664" lon="5.33327">
        <ele>564.59997558594</ele>
        <time>2022-05-10T15:14:08Z</time>
      </trkpt>
      <trkpt lat="45.30661" lon="5.33322">
        <ele>565.20001220703</ele>
        <time>2022-05-10T15:14:09Z</time>
      </trkpt>
      <trkpt lat="45.30654" lon="5.33308">
        <ele>566.20001220703</ele>
        <time>2022-05-10T15:14:11Z</time>
      </trkpt>
      <trkpt lat="45.30644" lon="5.33288">
        <ele>567.59997558594</ele>
        <time>2022-05-10T15:14:14Z</time>
      </trkpt>
      <trkpt lat="45.30632" lon="5.33262">
        <ele>569</ele>
        <time>2022-05-10T15:14:18Z</time>
      </trkpt>
      <trkpt lat="45.30624" lon="5.3324">
        <ele>570.20001220703</ele>
        <time>2022-05-10T15:14:21Z</time>
      </trkpt>
      <trkpt lat="45.3062" lon="5.33224">
        <ele>571.20001220703</ele>
        <time>2022-05-10T15:14:23Z</time>
      </trkpt>
      <trkpt lat="45.30616" lon="5.33218">
        <ele>571.40002441406</ele>
        <time>2022-05-10T15:14:24Z</time>
      </trkpt>
      <trkpt lat="45.30608" lon="5.33199">
        <ele>572.40002441406</ele>
        <time>2022-05-10T15:14:27Z</time>
      </trkpt>
      <trkpt lat="45.30601" lon="5.33181">
        <ele>574</ele>
        <time>2022-05-10T15:14:30Z</time>
      </trkpt>
      <trkpt lat="45.30598" lon="5.33171">
        <ele>575</ele>
        <time>2022-05-10T15:14:32Z</time>
      </trkpt>
      <trkpt lat="45.30595" lon="5.33166">
        <ele>575.20001220703</ele>
        <time>2022-05-10T15:14:33Z</time>
      </trkpt>
      <trkpt lat="45.30589" lon="5.33154">
        <ele>576.20001220703</ele>
        <time>2022-05-10T15:14:36Z</time>
      </trkpt>
      <trkpt lat="45.30585" lon="5.33154">
        <ele>577.40002441406</ele>
        <time>2022-05-10T15:14:38Z</time>
      </trkpt>
      <trkpt lat="45.30583" lon="5.33157">
        <ele>577.79998779297</ele>
        <time>2022-05-10T15:14:39Z</time>
      </trkpt>
      <trkpt lat="45.3058" lon="5.33163">
        <ele>578.79998779297</ele>
        <time>2022-05-10T15:14:41Z</time>
      </trkpt>
      <trkpt lat="45.30576" lon="5.33172">
        <ele>580</ele>
        <time>2022-05-10T15:14:43Z</time>
      </trkpt>
      <trkpt lat="45.30573" lon="5.33177">
        <ele>580.59997558594</ele>
        <time>2022-05-10T15:14:44Z</time>
      </trkpt>
      <trkpt lat="45.30569" lon="5.33182">
        <ele>581.20001220703</ele>
        <time>2022-05-10T15:14:45Z</time>
      </trkpt>
      <trkpt lat="45.3056" lon="5.33193">
        <ele>582.40002441406</ele>
        <time>2022-05-10T15:14:47Z</time>
      </trkpt>
      <trkpt lat="45.30554" lon="5.33203">
        <ele>583.40002441406</ele>
        <time>2022-05-10T15:14:49Z</time>
      </trkpt>
      <trkpt lat="45.30551" lon="5.33207">
        <ele>584</ele>
        <time>2022-05-10T15:14:50Z</time>
      </trkpt>
      <trkpt lat="45.30548" lon="5.33213">
        <ele>584.79998779297</ele>
        <time>2022-05-10T15:14:51Z</time>
      </trkpt>
      <trkpt lat="45.30544" lon="5.33218">
        <ele>585.20001220703</ele>
        <time>2022-05-10T15:14:52Z</time>
      </trkpt>
      <trkpt lat="45.30542" lon="5.33223">
        <ele>585.79998779297</ele>
        <time>2022-05-10T15:14:53Z</time>
      </trkpt>
      <trkpt lat="45.30537" lon="5.33237">
        <ele>587</ele>
        <time>2022-05-10T15:14:56Z</time>
      </trkpt>
      <trkpt lat="45.30531" lon="5.33251">
        <ele>588.40002441406</ele>
        <time>2022-05-10T15:14:59Z</time>
      </trkpt>
      <trkpt lat="45.30526" lon="5.33268">
        <ele>589.59997558594</ele>
        <time>2022-05-10T15:15:02Z</time>
      </trkpt>
      <trkpt lat="45.30522" lon="5.333">
        <ele>590</ele>
        <time>2022-05-10T15:15:06Z</time>
      </trkpt>
      <trkpt lat="45.30505" lon="5.3334">
        <ele>589.59997558594</ele>
        <time>2022-05-10T15:15:10Z</time>
      </trkpt>
      <trkpt lat="45.30498" lon="5.33351">
        <ele>589.20001220703</ele>
        <time>2022-05-10T15:15:11Z</time>
      </trkpt>
      <trkpt lat="45.30485" lon="5.33371">
        <ele>588.20001220703</ele>
        <time>2022-05-10T15:15:13Z</time>
      </trkpt>
      <trkpt lat="45.30468" lon="5.33397">
        <ele>586.79998779297</ele>
        <time>2022-05-10T15:15:15Z</time>
      </trkpt>
      <trkpt lat="45.30463" lon="5.33408">
        <ele>585.79998779297</ele>
        <time>2022-05-10T15:15:16Z</time>
      </trkpt>
      <trkpt lat="45.30461" lon="5.33421">
        <ele>585</ele>
        <time>2022-05-10T15:15:17Z</time>
      </trkpt>
      <trkpt lat="45.30458" lon="5.33437">
        <ele>583.79998779297</ele>
        <time>2022-05-10T15:15:18Z</time>
      </trkpt>
      <trkpt lat="45.30458" lon="5.33448">
        <ele>583.40002441406</ele>
        <time>2022-05-10T15:15:19Z</time>
      </trkpt>
      <trkpt lat="45.30461" lon="5.33481">
        <ele>582.79998779297</ele>
        <time>2022-05-10T15:15:23Z</time>
      </trkpt>
      <trkpt lat="45.30469" lon="5.33483">
        <ele>583</ele>
        <time>2022-05-10T15:15:25Z</time>
      </trkpt>
      <trkpt lat="45.3048" lon="5.33509">
        <ele>584.59997558594</ele>
        <time>2022-05-10T15:15:30Z</time>
      </trkpt>
      <trkpt lat="45.30481" lon="5.33515">
        <ele>585.20001220703</ele>
        <time>2022-05-10T15:15:31Z</time>
      </trkpt>
      <trkpt lat="45.30479" lon="5.33532">
        <ele>586.20001220703</ele>
        <time>2022-05-10T15:15:34Z</time>
      </trkpt>
      <trkpt lat="45.3048" lon="5.33542">
        <ele>587.20001220703</ele>
        <time>2022-05-10T15:15:37Z</time>
      </trkpt>
      <trkpt lat="45.3048" lon="5.33543">
        <ele>587.59997558594</ele>
        <time>2022-05-10T15:15:38Z</time>
      </trkpt>
      <trkpt lat="45.30481" lon="5.33543">
        <ele>588.20001220703</ele>
        <time>2022-05-10T15:15:43Z</time>
      </trkpt>
      <trkpt lat="45.30483" lon="5.33547">
        <ele>588</ele>
        <time>2022-05-10T15:18:07Z</time>
      </trkpt>
      <trkpt lat="45.30483" lon="5.33551">
        <ele>588</ele>
        <time>2022-05-10T15:18:08Z</time>
      </trkpt>
      <trkpt lat="45.30476" lon="5.33568">
        <ele>588</ele>
        <time>2022-05-10T15:18:13Z</time>
      </trkpt>
      <trkpt lat="45.30469" lon="5.33577">
        <ele>588.20001220703</ele>
        <time>2022-05-10T15:18:18Z</time>
      </trkpt>
      <trkpt lat="45.30468" lon="5.3358">
        <ele>588.20001220703</ele>
        <time>2022-05-10T15:18:19Z</time>
      </trkpt>
      <trkpt lat="45.30465" lon="5.33587">
        <ele>588.20001220703</ele>
        <time>2022-05-10T15:18:21Z</time>
      </trkpt>
      <trkpt lat="45.30463" lon="5.3359">
        <ele>588.40002441406</ele>
        <time>2022-05-10T15:18:22Z</time>
      </trkpt>
      <trkpt lat="45.30446" lon="5.33609">
        <ele>588.40002441406</ele>
        <time>2022-05-10T15:18:29Z</time>
      </trkpt>
      <trkpt lat="45.30429" lon="5.33621">
        <ele>588.79998779297</ele>
        <time>2022-05-10T15:18:35Z</time>
      </trkpt>
      <trkpt lat="45.30425" lon="5.33621">
        <ele>588.79998779297</ele>
        <time>2022-05-10T15:18:36Z</time>
      </trkpt>
      <trkpt lat="45.30415" lon="5.3362">
        <ele>589.40002441406</ele>
        <time>2022-05-10T15:18:40Z</time>
      </trkpt>
      <trkpt lat="45.30408" lon="5.33623">
        <ele>589.79998779297</ele>
        <time>2022-05-10T15:18:43Z</time>
      </trkpt>
    </trkseg>
  </trk>
</gpx>